<?xml version='1.0' encoding='UTF-8'?><gpx version="1.1" creator="JPX - https://github.com/jenetics/jpx" xmlns="http://www.topografix.com/GPX/1/1"><trk><trkseg><trkpt lat="43.29297183520619" lon="11.606626833231905"><ele>308.0</ele><time>2026-03-29T16:34:52.999Z</time></trkpt><trkpt lat="43.2929921265859" lon="11.606533738275122"><ele>308.0</ele><time>2026-03-29T16:34:54.999Z</time></trkpt><trkpt lat="43.293031964417715" lon="11.60645029416061"><ele>308.0</ele><time>2026-03-29T16:34:57.999Z</time></trkpt><trkpt lat="43.29309455757713" lon="11.606502757085082"><ele>308.0</ele><time>2026-03-29T16:35:01.999Z</time></trkpt><trkpt lat="43.29307862575296" lon="11.606596483167571"><ele>308.0</ele><time>2026-03-29T16:35:03.999Z</time></trkpt><trkpt lat="43.293061297980216" lon="11.60668249702319"><ele>308.0</ele><time>2026-03-29T16:35:05.999Z</time></trkpt><trkpt lat="43.2930292357309" lon="11.606787392004595"><ele>308.0</ele><time>2026-03-29T16:35:07.999Z</time></trkpt><trkpt lat="43.293000696611195" lon="11.606894276669653"><ele>307.8</ele><time>2026-03-29T16:35:09.999Z</time></trkpt><trkpt lat="43.29297391347689" lon="11.607018257573309"><ele>307.6</ele><time>2026-03-29T16:35:11.999Z</time></trkpt><trkpt lat="43.29295656396279" lon="11.607140494813757"><ele>307.4</ele><time>2026-03-29T16:35:13.999Z</time></trkpt><trkpt lat="43.29294290688442" lon="11.607272231586812"><ele>307.2</ele><time>2026-03-29T16:35:15.999Z</time></trkpt><trkpt lat="43.29292527172637" lon="11.607403600807523"><ele>307.0</ele><time>2026-03-29T16:35:17.999Z</time></trkpt><trkpt lat="43.29289722820996" lon="11.607533603939265"><ele>307.0</ele><time>2026-03-29T16:35:19.999Z</time></trkpt><trkpt lat="43.29286169862631" lon="11.607665281145257"><ele>307.0</ele><time>2026-03-29T16:35:21.999Z</time></trkpt><trkpt lat="43.29282624296799" lon="11.607782541210067"><ele>307.0</ele><time>2026-03-29T16:35:23.999Z</time></trkpt><trkpt lat="43.29279061835225" lon="11.607896554103208"><ele>307.0</ele><time>2026-03-29T16:35:25.999Z</time></trkpt><trkpt lat="43.2927520471138" lon="11.607995752948506"><ele>307.0</ele><time>2026-03-29T16:35:27.999Z</time></trkpt><trkpt lat="43.29271140412604" lon="11.608088056272317"><ele>307.0</ele><time>2026-03-29T16:35:29.999Z</time></trkpt><trkpt lat="43.29267405191058" lon="11.608176455725237"><ele>307.16666666666663</ele><time>2026-03-29T16:35:31.999Z</time></trkpt><trkpt lat="43.29263735045144" lon="11.608269051981539"><ele>307.3333333333333</ele><time>2026-03-29T16:35:33.999Z</time></trkpt><trkpt lat="43.29261250770357" lon="11.608368424734982"><ele>307.5</ele><time>2026-03-29T16:35:35.999Z</time></trkpt><trkpt lat="43.29260084361661" lon="11.608481019924529"><ele>307.6666666666667</ele><time>2026-03-29T16:35:37.999Z</time></trkpt><trkpt lat="43.292590467036234" lon="11.608596103186999"><ele>307.83333333333337</ele><time>2026-03-29T16:35:39.999Z</time></trkpt><trkpt lat="43.2925951825895" lon="11.608711126866236"><ele>308.0</ele><time>2026-03-29T16:35:41.999Z</time></trkpt><trkpt lat="43.292613203666214" lon="11.608829435563365"><ele>308.33333333333337</ele><time>2026-03-29T16:35:43.999Z</time></trkpt><trkpt lat="43.292639848813636" lon="11.608949700539869"><ele>308.6666666666667</ele><time>2026-03-29T16:35:45.999Z</time></trkpt><trkpt lat="43.29266096212316" lon="11.609061032137017"><ele>309.0</ele><time>2026-03-29T16:35:47.999Z</time></trkpt><trkpt lat="43.292686468195996" lon="11.609197594178589"><ele>309.3333333333333</ele><time>2026-03-29T16:35:49.999Z</time></trkpt><trkpt lat="43.29270577083879" lon="11.609280220337878"><ele>309.66666666666663</ele><time>2026-03-29T16:35:50.999Z</time></trkpt><trkpt lat="43.29274203967029" lon="11.609354880854742"><ele>310.0</ele><time>2026-03-29T16:35:51.999Z</time></trkpt><trkpt lat="43.29275391880207" lon="11.609471459346018"><ele>311.0</ele><time>2026-03-29T16:35:53Z</time></trkpt><trkpt lat="43.29282551402475" lon="11.60954616864185"><ele>312.0</ele><time>2026-03-29T16:35:55Z</time></trkpt><trkpt lat="43.29285967810042" lon="11.609626471286155"><ele>313.0</ele><time>2026-03-29T16:35:57Z</time></trkpt><trkpt lat="43.29274803258595" lon="11.609749863483517"><ele>314.0</ele><time>2026-03-29T16:35:58Z</time></trkpt><trkpt lat="43.29266424194456" lon="11.609852710357979"><ele>315.0</ele><time>2026-03-29T16:36:00Z</time></trkpt><trkpt lat="43.292614657298394" lon="11.60990898091583"><ele>315.0</ele><time>2026-03-29T16:36:01Z</time></trkpt><trkpt lat="43.2925673731431" lon="11.609967241045169"><ele>315.0</ele><time>2026-03-29T16:36:02Z</time></trkpt><trkpt lat="43.29251684246319" lon="11.61002182555439"><ele>315.0</ele><time>2026-03-29T16:36:03Z</time></trkpt><trkpt lat="43.29246591835308" lon="11.610080562515387"><ele>315.0</ele><time>2026-03-29T16:36:04Z</time></trkpt><trkpt lat="43.29241551610189" lon="11.610139023963649"><ele>315.0</ele><time>2026-03-29T16:36:05Z</time></trkpt><trkpt lat="43.29236657511676" lon="11.610204026396897"><ele>315.0</ele><time>2026-03-29T16:36:06Z</time></trkpt><trkpt lat="43.292315116336646" lon="11.610264247273214"><ele>315.0</ele><time>2026-03-29T16:36:07Z</time></trkpt><trkpt lat="43.29226362861861" lon="11.610323911997687"><ele>315.0</ele><time>2026-03-29T16:36:08Z</time></trkpt><trkpt lat="43.29221280370422" lon="11.610391371697691"><ele>315.0</ele><time>2026-03-29T16:36:09Z</time></trkpt><trkpt lat="43.2921592462302" lon="11.610458120005449"><ele>315.0</ele><time>2026-03-29T16:36:10Z</time></trkpt><trkpt lat="43.29210955128759" lon="11.61052481924639"><ele>315.0</ele><time>2026-03-29T16:36:11Z</time></trkpt><trkpt lat="43.29206141726723" lon="11.610592288274542"><ele>315.0</ele><time>2026-03-29T16:36:12Z</time></trkpt><trkpt lat="43.29201594972928" lon="11.610664972619068"><ele>315.0</ele><time>2026-03-29T16:36:13Z</time></trkpt><trkpt lat="43.291974603423405" lon="11.61073390192456"><ele>315.0</ele><time>2026-03-29T16:36:14Z</time></trkpt><trkpt lat="43.29193392931463" lon="11.610810611513845"><ele>315.0</ele><time>2026-03-29T16:36:15Z</time></trkpt><trkpt lat="43.29189609628495" lon="11.610890042868412"><ele>315.0</ele><time>2026-03-29T16:36:16Z</time></trkpt><trkpt lat="43.29186500182813" lon="11.610969990625808"><ele>315.0</ele><time>2026-03-29T16:36:17Z</time></trkpt><trkpt lat="43.29183260078003" lon="11.6110506583694"><ele>315.0</ele><time>2026-03-29T16:36:18Z</time></trkpt><trkpt lat="43.29177752855065" lon="11.61119308244579"><ele>315.0</ele><time>2026-03-29T16:36:20Z</time></trkpt><trkpt lat="43.291734278554586" lon="11.61132174897156"><ele>315.0</ele><time>2026-03-29T16:36:22Z</time></trkpt><trkpt lat="43.291679508883504" lon="11.611428251883547"><ele>316.8</ele><time>2026-03-29T16:36:24Z</time></trkpt><trkpt lat="43.29160887198581" lon="11.611539372104463"><ele>318.6</ele><time>2026-03-29T16:36:26Z</time></trkpt><trkpt lat="43.29155247448016" lon="11.61168360439577"><ele>320.4</ele><time>2026-03-29T16:36:28Z</time></trkpt><trkpt lat="43.29146773015131" lon="11.61178294211024"><ele>322.2</ele><time>2026-03-29T16:36:30Z</time></trkpt><trkpt lat="43.29148553065087" lon="11.611919364622098"><ele>324.0</ele><time>2026-03-29T16:36:31Z</time></trkpt><trkpt lat="43.291470043026365" lon="11.612004856216533"><ele>324.79999999999995</ele><time>2026-03-29T16:36:32Z</time></trkpt><trkpt lat="43.29146837570199" lon="11.612172690119701"><ele>325.59999999999997</ele><time>2026-03-29T16:36:34Z</time></trkpt><trkpt lat="43.29148175506992" lon="11.612258095846238"><ele>326.4</ele><time>2026-03-29T16:36:35Z</time></trkpt><trkpt lat="43.29151242414284" lon="11.61235459380234"><ele>327.2</ele><time>2026-03-29T16:36:37Z</time></trkpt><trkpt lat="43.291489132909376" lon="11.612198956749188"><ele>328.0</ele><time>2026-03-29T16:36:42Z</time></trkpt><trkpt lat="43.29147748097565" lon="11.612044571544242"><ele>327.2</ele><time>2026-03-29T16:36:44Z</time></trkpt><trkpt lat="43.29148763806846" lon="11.611951094939846"><ele>326.4</ele><time>2026-03-29T16:36:45Z</time></trkpt><trkpt lat="43.2915210223295" lon="11.611806717244606"><ele>325.59999999999997</ele><time>2026-03-29T16:36:47Z</time></trkpt><trkpt lat="43.29149975517791" lon="11.611717433528531"><ele>324.79999999999995</ele><time>2026-03-29T16:36:49Z</time></trkpt><trkpt lat="43.291420295310154" lon="11.611769948416237"><ele>324.0</ele><time>2026-03-29T16:36:51Z</time></trkpt><trkpt lat="43.291329407631316" lon="11.611890705292849"><ele>322.2</ele><time>2026-03-29T16:36:53Z</time></trkpt><trkpt lat="43.291264763483234" lon="11.611964772450877"><ele>320.4</ele><time>2026-03-29T16:36:54Z</time></trkpt><trkpt lat="43.291198678901665" lon="11.612051859681683"><ele>318.6</ele><time>2026-03-29T16:36:55Z</time></trkpt><trkpt lat="43.291134047869754" lon="11.61214869007117"><ele>316.8</ele><time>2026-03-29T16:36:56Z</time></trkpt><trkpt lat="43.29107459428245" lon="11.612257744917992"><ele>315.0</ele><time>2026-03-29T16:36:57Z</time></trkpt><trkpt lat="43.291012964948344" lon="11.61237032215301"><ele>315.0</ele><time>2026-03-29T16:36:58Z</time></trkpt><trkpt lat="43.29095525585358" lon="11.612484211201865"><ele>315.0</ele><time>2026-03-29T16:36:59Z</time></trkpt><trkpt lat="43.290901078202246" lon="11.612603624033886"><ele>315.0</ele><time>2026-03-29T16:37:00Z</time></trkpt><trkpt lat="43.29085180313675" lon="11.61272657528643"><ele>315.0</ele><time>2026-03-29T16:37:01Z</time></trkpt><trkpt lat="43.29081385676292" lon="11.612853685897775"><ele>315.0</ele><time>2026-03-29T16:37:02Z</time></trkpt><trkpt lat="43.29079577783827" lon="11.612986551902125"><ele>314.6</ele><time>2026-03-29T16:37:03Z</time></trkpt><trkpt lat="43.290790515092795" lon="11.61311821434479"><ele>314.2</ele><time>2026-03-29T16:37:04Z</time></trkpt><trkpt lat="43.29078633563201" lon="11.613251317397403"><ele>313.8</ele><time>2026-03-29T16:37:05Z</time></trkpt><trkpt lat="43.290781788081084" lon="11.613383236945554"><ele>313.4</ele><time>2026-03-29T16:37:06Z</time></trkpt><trkpt lat="43.290772651358814" lon="11.613511357157503"><ele>313.0</ele><time>2026-03-29T16:37:07Z</time></trkpt><trkpt lat="43.290767640463784" lon="11.613646540743737"><ele>312.8</ele><time>2026-03-29T16:37:08Z</time></trkpt><trkpt lat="43.29076254684215" lon="11.613780522330384"><ele>312.6</ele><time>2026-03-29T16:37:09Z</time></trkpt><trkpt lat="43.29077887763798" lon="11.613920450941093"><ele>312.4</ele><time>2026-03-29T16:37:10Z</time></trkpt><trkpt lat="43.2907838032544" lon="11.614036109004077"><ele>312.2</ele><time>2026-03-29T16:37:11Z</time></trkpt><trkpt lat="43.290805552892884" lon="11.614158568039572"><ele>312.0</ele><time>2026-03-29T16:37:12Z</time></trkpt><trkpt lat="43.29083114171824" lon="11.614278483362762"><ele>312.0</ele><time>2026-03-29T16:37:13Z</time></trkpt><trkpt lat="43.2908571575278" lon="11.614399015576437"><ele>312.0</ele><time>2026-03-29T16:37:14Z</time></trkpt><trkpt lat="43.29087999742402" lon="11.614516216891651"><ele>312.0</ele><time>2026-03-29T16:37:15Z</time></trkpt><trkpt lat="43.29089924471747" lon="11.614633334543884"><ele>312.0</ele><time>2026-03-29T16:37:16Z</time></trkpt><trkpt lat="43.29091751464" lon="11.614749693033062"><ele>312.0</ele><time>2026-03-29T16:37:17Z</time></trkpt><trkpt lat="43.2909346486841" lon="11.614863068876302"><ele>312.0</ele><time>2026-03-29T16:37:18Z</time></trkpt><trkpt lat="43.29095574864348" lon="11.614975682719072"><ele>312.0</ele><time>2026-03-29T16:37:19Z</time></trkpt><trkpt lat="43.29097558042158" lon="11.615080552012886"><ele>312.0</ele><time>2026-03-29T16:37:20Z</time></trkpt><trkpt lat="43.290996938291435" lon="11.615186460653325"><ele>312.0</ele><time>2026-03-29T16:37:21Z</time></trkpt><trkpt lat="43.29101858597516" lon="11.615293892279398"><ele>312.0</ele><time>2026-03-29T16:37:21.999Z</time></trkpt><trkpt lat="43.291040832381036" lon="11.615400672313044"><ele>312.0</ele><time>2026-03-29T16:37:22.999Z</time></trkpt><trkpt lat="43.29106078222768" lon="11.61551189027258"><ele>312.0</ele><time>2026-03-29T16:37:23.999Z</time></trkpt><trkpt lat="43.29107971368688" lon="11.615625365893647"><ele>312.1666666666667</ele><time>2026-03-29T16:37:24.999Z</time></trkpt><trkpt lat="43.29109758410441" lon="11.615736021207912"><ele>312.3333333333333</ele><time>2026-03-29T16:37:25.999Z</time></trkpt><trkpt lat="43.29111696221435" lon="11.615850325957652"><ele>312.5</ele><time>2026-03-29T16:37:26.999Z</time></trkpt><trkpt lat="43.29113649304358" lon="11.615963461198733"><ele>312.66666666666663</ele><time>2026-03-29T16:37:27.999Z</time></trkpt><trkpt lat="43.291156299913204" lon="11.616076237154846"><ele>312.8333333333333</ele><time>2026-03-29T16:37:28.999Z</time></trkpt><trkpt lat="43.2911771086805" lon="11.616189036183552"><ele>313.0</ele><time>2026-03-29T16:37:29.999Z</time></trkpt><trkpt lat="43.29119811102193" lon="11.616300403746099"><ele>313.0</ele><time>2026-03-29T16:37:30.999Z</time></trkpt><trkpt lat="43.291221469885464" lon="11.61641237763402"><ele>313.0</ele><time>2026-03-29T16:37:31.999Z</time></trkpt><trkpt lat="43.29124851255608" lon="11.616520474801314"><ele>313.0</ele><time>2026-03-29T16:37:32.999Z</time></trkpt><trkpt lat="43.2912764985443" lon="11.61662986650566"><ele>313.0</ele><time>2026-03-29T16:37:33.999Z</time></trkpt><trkpt lat="43.291304577208" lon="11.616741223735378"><ele>313.0</ele><time>2026-03-29T16:37:34.999Z</time></trkpt><trkpt lat="43.29133620374996" lon="11.616851982047276"><ele>313.0</ele><time>2026-03-29T16:37:35.999Z</time></trkpt><trkpt lat="43.29137105030018" lon="11.616965707114431"><ele>312.8333333333333</ele><time>2026-03-29T16:37:36.999Z</time></trkpt><trkpt lat="43.29140629899067" lon="11.617081710756704"><ele>312.66666666666663</ele><time>2026-03-29T16:37:37.999Z</time></trkpt><trkpt lat="43.291440740991945" lon="11.6171923354997"><ele>312.5</ele><time>2026-03-29T16:37:38.999Z</time></trkpt><trkpt lat="43.291480143392384" lon="11.61730207789664"><ele>312.3333333333333</ele><time>2026-03-29T16:37:39.999Z</time></trkpt><trkpt lat="43.291514690110425" lon="11.617417135723016"><ele>312.1666666666667</ele><time>2026-03-29T16:37:40.999Z</time></trkpt><trkpt lat="43.29154644309277" lon="11.617531943878998"><ele>312.0</ele><time>2026-03-29T16:37:41.999Z</time></trkpt><trkpt lat="43.29157268494027" lon="11.617655566041202"><ele>312.6</ele><time>2026-03-29T16:37:42.999Z</time></trkpt><trkpt lat="43.29158684024213" lon="11.617774385778684"><ele>313.2</ele><time>2026-03-29T16:37:43.999Z</time></trkpt><trkpt lat="43.29158929565245" lon="11.617896327785848"><ele>313.8</ele><time>2026-03-29T16:37:44.999Z</time></trkpt><trkpt lat="43.29157604943045" lon="11.6180208453536"><ele>314.4</ele><time>2026-03-29T16:37:45.999Z</time></trkpt><trkpt lat="43.291547158521716" lon="11.618143012308122"><ele>315.0</ele><time>2026-03-29T16:37:46.999Z</time></trkpt><trkpt lat="43.291503070467016" lon="11.61826067812099"><ele>314.6</ele><time>2026-03-29T16:37:47.999Z</time></trkpt><trkpt lat="43.29144876672365" lon="11.618368827455503"><ele>314.2</ele><time>2026-03-29T16:37:48.999Z</time></trkpt><trkpt lat="43.29139645869171" lon="11.618478000997138"><ele>313.8</ele><time>2026-03-29T16:37:49.999Z</time></trkpt><trkpt lat="43.29134642116886" lon="11.618592968615566"><ele>313.4</ele><time>2026-03-29T16:37:50.999Z</time></trkpt><trkpt lat="43.291299359591655" lon="11.61870605109355"><ele>313.0</ele><time>2026-03-29T16:37:51.999Z</time></trkpt><trkpt lat="43.29125596198722" lon="11.618825750979852"><ele>313.8</ele><time>2026-03-29T16:37:52.999Z</time></trkpt><trkpt lat="43.29121470684447" lon="11.618944959207983"><ele>314.6</ele><time>2026-03-29T16:37:53.999Z</time></trkpt><trkpt lat="43.291172645629274" lon="11.619062144061585"><ele>315.4</ele><time>2026-03-29T16:37:54.999Z</time></trkpt><trkpt lat="43.2911284263129" lon="11.619181086943478"><ele>316.2</ele><time>2026-03-29T16:37:55.999Z</time></trkpt><trkpt lat="43.291089741886054" lon="11.619295373602522"><ele>317.0</ele><time>2026-03-29T16:37:56.999Z</time></trkpt><trkpt lat="43.291055788314296" lon="11.619416203356941"><ele>317.8</ele><time>2026-03-29T16:37:57.999Z</time></trkpt><trkpt lat="43.29103151027649" lon="11.61954094934499"><ele>318.6</ele><time>2026-03-29T16:37:59Z</time></trkpt><trkpt lat="43.29100732623411" lon="11.619667629514518"><ele>319.40000000000003</ele><time>2026-03-29T16:38:00Z</time></trkpt><trkpt lat="43.290984658568554" lon="11.619801182794836"><ele>320.2</ele><time>2026-03-29T16:38:01Z</time></trkpt><trkpt lat="43.290963227807" lon="11.619924220278996"><ele>321.0</ele><time>2026-03-29T16:38:02Z</time></trkpt><trkpt lat="43.290946675734084" lon="11.620058062859265"><ele>321.0</ele><time>2026-03-29T16:38:03Z</time></trkpt><trkpt lat="43.290940493722225" lon="11.620184486129913"><ele>321.0</ele><time>2026-03-29T16:38:04Z</time></trkpt><trkpt lat="43.290938727444825" lon="11.620315033982171"><ele>321.0</ele><time>2026-03-29T16:38:05Z</time></trkpt><trkpt lat="43.29094136667921" lon="11.62044385535728"><ele>321.0</ele><time>2026-03-29T16:38:06Z</time></trkpt><trkpt lat="43.29094867537547" lon="11.62057887814642"><ele>321.0</ele><time>2026-03-29T16:38:07Z</time></trkpt><trkpt lat="43.29095686971897" lon="11.620714069423743"><ele>321.20000000000005</ele><time>2026-03-29T16:38:08Z</time></trkpt><trkpt lat="43.29096550503615" lon="11.620842716292964"><ele>321.40000000000003</ele><time>2026-03-29T16:38:09Z</time></trkpt><trkpt lat="43.29097706490046" lon="11.6209731481791"><ele>321.6</ele><time>2026-03-29T16:38:10Z</time></trkpt><trkpt lat="43.29098875098488" lon="11.62110060254176"><ele>321.8</ele><time>2026-03-29T16:38:11Z</time></trkpt><trkpt lat="43.29100068073233" lon="11.621222603871844"><ele>322.0</ele><time>2026-03-29T16:38:12Z</time></trkpt><trkpt lat="43.29101156582373" lon="11.621346176417234"><ele>321.6</ele><time>2026-03-29T16:38:13Z</time></trkpt><trkpt lat="43.291014265280566" lon="11.621469166967128"><ele>321.20000000000005</ele><time>2026-03-29T16:38:14Z</time></trkpt><trkpt lat="43.29101663473833" lon="11.621594764514347"><ele>320.8</ele><time>2026-03-29T16:38:15Z</time></trkpt><trkpt lat="43.291018840365226" lon="11.621717714700761"><ele>320.4</ele><time>2026-03-29T16:38:16Z</time></trkpt><trkpt lat="43.29101489095473" lon="11.621842718501625"><ele>320.0</ele><time>2026-03-29T16:38:17Z</time></trkpt><trkpt lat="43.291005073555" lon="11.621969189034187"><ele>319.6</ele><time>2026-03-29T16:38:18Z</time></trkpt><trkpt lat="43.290998817392385" lon="11.6220939951216"><ele>319.2</ele><time>2026-03-29T16:38:19Z</time></trkpt><trkpt lat="43.290994285018556" lon="11.622222338827745"><ele>318.8</ele><time>2026-03-29T16:38:20Z</time></trkpt><trkpt lat="43.29099350482058" lon="11.622352221867251"><ele>318.4</ele><time>2026-03-29T16:38:21Z</time></trkpt><trkpt lat="43.2909953619006" lon="11.622486199163657"><ele>318.0</ele><time>2026-03-29T16:38:22Z</time></trkpt><trkpt lat="43.29099507427478" lon="11.622614321529776"><ele>318.0</ele><time>2026-03-29T16:38:23Z</time></trkpt><trkpt lat="43.290991191221885" lon="11.622748672236368"><ele>318.0</ele><time>2026-03-29T16:38:24Z</time></trkpt><trkpt lat="43.29098469699538" lon="11.622877886039015"><ele>318.0</ele><time>2026-03-29T16:38:25Z</time></trkpt><trkpt lat="43.29097992174088" lon="11.623006312025636"><ele>318.0</ele><time>2026-03-29T16:38:26Z</time></trkpt><trkpt lat="43.29097762560764" lon="11.623139322235605"><ele>318.0</ele><time>2026-03-29T16:38:27Z</time></trkpt><trkpt lat="43.29097287806208" lon="11.623268634126363"><ele>318.2</ele><time>2026-03-29T16:38:28Z</time></trkpt><trkpt lat="43.29096264531307" lon="11.6233900928584"><ele>318.4</ele><time>2026-03-29T16:38:29Z</time></trkpt><trkpt lat="43.29095949854247" lon="11.62352724242709"><ele>318.59999999999997</ele><time>2026-03-29T16:38:30Z</time></trkpt><trkpt lat="43.29094810040079" lon="11.623651537697317"><ele>318.8</ele><time>2026-03-29T16:38:31Z</time></trkpt><trkpt lat="43.29092714413529" lon="11.62378229671207"><ele>319.0</ele><time>2026-03-29T16:38:32Z</time></trkpt><trkpt lat="43.29090247342274" lon="11.623908047047518"><ele>319.2</ele><time>2026-03-29T16:38:33Z</time></trkpt><trkpt lat="43.290882621806645" lon="11.624039678031135"><ele>319.4</ele><time>2026-03-29T16:38:34Z</time></trkpt><trkpt lat="43.29087357012139" lon="11.624167203623673"><ele>319.6</ele><time>2026-03-29T16:38:35Z</time></trkpt><trkpt lat="43.290883971106666" lon="11.62429848235384"><ele>319.8</ele><time>2026-03-29T16:38:36Z</time></trkpt><trkpt lat="43.29090593383887" lon="11.6244279460476"><ele>320.0</ele><time>2026-03-29T16:38:37Z</time></trkpt><trkpt lat="43.29093356311852" lon="11.624557415772355"><ele>320.0</ele><time>2026-03-29T16:38:38Z</time></trkpt><trkpt lat="43.290961184917585" lon="11.624687708496612"><ele>320.0</ele><time>2026-03-29T16:38:39Z</time></trkpt><trkpt lat="43.290989835762616" lon="11.624816945566929"><ele>320.0</ele><time>2026-03-29T16:38:40Z</time></trkpt><trkpt lat="43.291016531196185" lon="11.62494902074985"><ele>320.0</ele><time>2026-03-29T16:38:41Z</time></trkpt><trkpt lat="43.291039205125095" lon="11.625079172782028"><ele>320.0</ele><time>2026-03-29T16:38:42Z</time></trkpt><trkpt lat="43.29106405233325" lon="11.625208645003399"><ele>320.0</ele><time>2026-03-29T16:38:43Z</time></trkpt><trkpt lat="43.29109071236043" lon="11.625335531909842"><ele>320.0</ele><time>2026-03-29T16:38:44Z</time></trkpt><trkpt lat="43.29111731996437" lon="11.625461899994798"><ele>320.0</ele><time>2026-03-29T16:38:45Z</time></trkpt><trkpt lat="43.291142136030025" lon="11.625590889976085"><ele>320.0</ele><time>2026-03-29T16:38:46Z</time></trkpt><trkpt lat="43.29116928187591" lon="11.625719332819994"><ele>320.0</ele><time>2026-03-29T16:38:47Z</time></trkpt><trkpt lat="43.291197015240954" lon="11.625848737321753"><ele>320.0</ele><time>2026-03-29T16:38:48Z</time></trkpt><trkpt lat="43.29122440551736" lon="11.625979116589138"><ele>320.0</ele><time>2026-03-29T16:38:49Z</time></trkpt><trkpt lat="43.291249341460194" lon="11.626110054144837"><ele>320.0</ele><time>2026-03-29T16:38:50Z</time></trkpt><trkpt lat="43.29127324252515" lon="11.626235918195109"><ele>320.0</ele><time>2026-03-29T16:38:51Z</time></trkpt><trkpt lat="43.2912968738473" lon="11.626359975524341"><ele>320.0</ele><time>2026-03-29T16:38:52Z</time></trkpt><trkpt lat="43.29132475489905" lon="11.6264879602909"><ele>320.2</ele><time>2026-03-29T16:38:53Z</time></trkpt><trkpt lat="43.291350636759006" lon="11.626618471247637"><ele>320.4</ele><time>2026-03-29T16:38:54Z</time></trkpt><trkpt lat="43.291376953923674" lon="11.626742140044428"><ele>320.6</ele><time>2026-03-29T16:38:55Z</time></trkpt><trkpt lat="43.291401494214966" lon="11.6268685005037"><ele>320.8</ele><time>2026-03-29T16:38:56Z</time></trkpt><trkpt lat="43.29142865279562" lon="11.627001698173144"><ele>321.0</ele><time>2026-03-29T16:38:57Z</time></trkpt><trkpt lat="43.291455969440214" lon="11.627139199993023"><ele>321.0</ele><time>2026-03-29T16:38:58Z</time></trkpt><trkpt lat="43.29148213921743" lon="11.627276895643083"><ele>321.0</ele><time>2026-03-29T16:38:59Z</time></trkpt><trkpt lat="43.29151020848814" lon="11.627413020328252"><ele>321.0</ele><time>2026-03-29T16:39:00Z</time></trkpt><trkpt lat="43.29153655393719" lon="11.627545022564222"><ele>321.0</ele><time>2026-03-29T16:39:01Z</time></trkpt><trkpt lat="43.29156332296399" lon="11.627675002142231"><ele>321.0</ele><time>2026-03-29T16:39:02Z</time></trkpt><trkpt lat="43.291591874660604" lon="11.627806646356449"><ele>321.4</ele><time>2026-03-29T16:39:03Z</time></trkpt><trkpt lat="43.29162073062404" lon="11.62793645083642"><ele>321.8</ele><time>2026-03-29T16:39:04Z</time></trkpt><trkpt lat="43.291645802470576" lon="11.62806699712804"><ele>322.2</ele><time>2026-03-29T16:39:05Z</time></trkpt><trkpt lat="43.291670346906415" lon="11.628192986690337"><ele>322.59999999999997</ele><time>2026-03-29T16:39:06Z</time></trkpt><trkpt lat="43.29168532717224" lon="11.6283209113652"><ele>323.0</ele><time>2026-03-29T16:39:07Z</time></trkpt><trkpt lat="43.291685389692454" lon="11.62844804556307"><ele>323.0</ele><time>2026-03-29T16:39:08Z</time></trkpt><trkpt lat="43.29166642807996" lon="11.628574452007483"><ele>323.0</ele><time>2026-03-29T16:39:09Z</time></trkpt><trkpt lat="43.29162814032544" lon="11.628690834557348"><ele>323.0</ele><time>2026-03-29T16:39:10Z</time></trkpt><trkpt lat="43.29155733373058" lon="11.628773530580302"><ele>323.0</ele><time>2026-03-29T16:39:11Z</time></trkpt><trkpt lat="43.29151638509178" lon="11.628886284509278"><ele>323.0</ele><time>2026-03-29T16:39:12Z</time></trkpt><trkpt lat="43.29146617896198" lon="11.628993067142355"><ele>323.0</ele><time>2026-03-29T16:39:13Z</time></trkpt><trkpt lat="43.291434488772715" lon="11.629111643225613"><ele>323.0</ele><time>2026-03-29T16:39:14Z</time></trkpt><trkpt lat="43.29141421619738" lon="11.629240363342479"><ele>323.0</ele><time>2026-03-29T16:39:15Z</time></trkpt><trkpt lat="43.29139435139785" lon="11.62937195280188"><ele>323.0</ele><time>2026-03-29T16:39:16Z</time></trkpt><trkpt lat="43.29137700654991" lon="11.629502843669169"><ele>323.0</ele><time>2026-03-29T16:39:17Z</time></trkpt><trkpt lat="43.291366543765456" lon="11.629641157462574"><ele>322.4</ele><time>2026-03-29T16:39:18Z</time></trkpt><trkpt lat="43.29136048278399" lon="11.629786552163857"><ele>321.79999999999995</ele><time>2026-03-29T16:39:19Z</time></trkpt><trkpt lat="43.29135755423559" lon="11.629932446748164"><ele>321.2</ele><time>2026-03-29T16:39:20Z</time></trkpt><trkpt lat="43.29136039706813" lon="11.630073897628867"><ele>320.6</ele><time>2026-03-29T16:39:21Z</time></trkpt><trkpt lat="43.29136957519089" lon="11.63021496739339"><ele>320.0</ele><time>2026-03-29T16:39:22Z</time></trkpt><trkpt lat="43.29138145573852" lon="11.630355240125052"><ele>319.8</ele><time>2026-03-29T16:39:23Z</time></trkpt><trkpt lat="43.29139767478933" lon="11.63048625095643"><ele>319.6</ele><time>2026-03-29T16:39:24Z</time></trkpt><trkpt lat="43.291414350450346" lon="11.63061651787893"><ele>319.4</ele><time>2026-03-29T16:39:25Z</time></trkpt><trkpt lat="43.29143343281546" lon="11.630736115639976"><ele>319.2</ele><time>2026-03-29T16:39:26Z</time></trkpt><trkpt lat="43.29145249593665" lon="11.630858971770346"><ele>319.0</ele><time>2026-03-29T16:39:27Z</time></trkpt><trkpt lat="43.29146755331251" lon="11.630977081581626"><ele>319.2</ele><time>2026-03-29T16:39:28Z</time></trkpt><trkpt lat="43.29147030789202" lon="11.63110167054579"><ele>319.4</ele><time>2026-03-29T16:39:29Z</time></trkpt><trkpt lat="43.291460335263594" lon="11.631217580619472"><ele>319.6</ele><time>2026-03-29T16:39:30Z</time></trkpt><trkpt lat="43.29143759754665" lon="11.631342477964028"><ele>319.8</ele><time>2026-03-29T16:39:31Z</time></trkpt><trkpt lat="43.29140629482544" lon="11.631465108598794"><ele>320.0</ele><time>2026-03-29T16:39:32Z</time></trkpt><trkpt lat="43.29137718785928" lon="11.631585546636524"><ele>320.0</ele><time>2026-03-29T16:39:33Z</time></trkpt><trkpt lat="43.291345152740725" lon="11.631704962390845"><ele>320.0</ele><time>2026-03-29T16:39:33.999Z</time></trkpt><trkpt lat="43.29131430635096" lon="11.631825937703574"><ele>320.0</ele><time>2026-03-29T16:39:34.999Z</time></trkpt><trkpt lat="43.29128041858001" lon="11.631953626143138"><ele>320.0</ele><time>2026-03-29T16:39:35.999Z</time></trkpt><trkpt lat="43.29124894377065" lon="11.632076365768889"><ele>320.0</ele><time>2026-03-29T16:39:36.999Z</time></trkpt><trkpt lat="43.29121588875987" lon="11.632203455504653"><ele>320.0</ele><time>2026-03-29T16:39:37.999Z</time></trkpt><trkpt lat="43.291181038802875" lon="11.632333334419396"><ele>320.0</ele><time>2026-03-29T16:39:38.999Z</time></trkpt><trkpt lat="43.29115013566848" lon="11.632463764824534"><ele>320.0</ele><time>2026-03-29T16:39:39.999Z</time></trkpt><trkpt lat="43.291118062498825" lon="11.632593897597777"><ele>320.0</ele><time>2026-03-29T16:39:40.999Z</time></trkpt><trkpt lat="43.291081889061545" lon="11.632724467955004"><ele>320.0</ele><time>2026-03-29T16:39:41.999Z</time></trkpt><trkpt lat="43.291048714021905" lon="11.6328546485945"><ele>320.0</ele><time>2026-03-29T16:39:42.999Z</time></trkpt><trkpt lat="43.29101775583836" lon="11.632991839292494"><ele>320.0</ele><time>2026-03-29T16:39:43.999Z</time></trkpt><trkpt lat="43.29097939814497" lon="11.633122499834744"><ele>320.0</ele><time>2026-03-29T16:39:44.999Z</time></trkpt><trkpt lat="43.290940675059076" lon="11.633255523567653"><ele>320.0</ele><time>2026-03-29T16:39:45.999Z</time></trkpt><trkpt lat="43.290904297228515" lon="11.633382435539437"><ele>320.0</ele><time>2026-03-29T16:39:46.999Z</time></trkpt><trkpt lat="43.29086932547259" lon="11.633508585225997"><ele>320.0</ele><time>2026-03-29T16:39:47.999Z</time></trkpt><trkpt lat="43.290835831469884" lon="11.633636076184208"><ele>320.0</ele><time>2026-03-29T16:39:48.999Z</time></trkpt><trkpt lat="43.290802698615494" lon="11.633758736854647"><ele>320.0</ele><time>2026-03-29T16:39:49.999Z</time></trkpt><trkpt lat="43.29076299843916" lon="11.633873038506483"><ele>320.0</ele><time>2026-03-29T16:39:50.999Z</time></trkpt><trkpt lat="43.29072493213309" lon="11.633981750501901"><ele>320.0</ele><time>2026-03-29T16:39:51.999Z</time></trkpt><trkpt lat="43.290683579121634" lon="11.634087680239102"><ele>320.0</ele><time>2026-03-29T16:39:52.999Z</time></trkpt><trkpt lat="43.290619604465746" lon="11.634190987306948"><ele>320.0</ele><time>2026-03-29T16:39:53.999Z</time></trkpt><trkpt lat="43.290573986361046" lon="11.634300852030288"><ele>320.0</ele><time>2026-03-29T16:39:54.999Z</time></trkpt><trkpt lat="43.29051766475529" lon="11.634397866391515"><ele>320.0</ele><time>2026-03-29T16:39:55.999Z</time></trkpt><trkpt lat="43.29045586794069" lon="11.634501848658998"><ele>320.0</ele><time>2026-03-29T16:39:56.999Z</time></trkpt><trkpt lat="43.29039913357079" lon="11.634610961578032"><ele>320.2</ele><time>2026-03-29T16:39:57.999Z</time></trkpt><trkpt lat="43.29034120444203" lon="11.634724523924872"><ele>320.4</ele><time>2026-03-29T16:39:58.999Z</time></trkpt><trkpt lat="43.290286158976016" lon="11.634838782534846"><ele>320.6</ele><time>2026-03-29T16:39:59.999Z</time></trkpt><trkpt lat="43.29023423776462" lon="11.63495903898916"><ele>320.8</ele><time>2026-03-29T16:40:00.999Z</time></trkpt><trkpt lat="43.29018174682755" lon="11.63508344571377"><ele>321.0</ele><time>2026-03-29T16:40:01.999Z</time></trkpt><trkpt lat="43.29012875974128" lon="11.635202489777688"><ele>321.6</ele><time>2026-03-29T16:40:02.999Z</time></trkpt><trkpt lat="43.290072793413295" lon="11.63532384508719"><ele>322.20000000000005</ele><time>2026-03-29T16:40:03.999Z</time></trkpt><trkpt lat="43.290017995163986" lon="11.635447476235905"><ele>322.79999999999995</ele><time>2026-03-29T16:40:05Z</time></trkpt><trkpt lat="43.28996186124165" lon="11.635564156207193"><ele>323.4</ele><time>2026-03-29T16:40:06Z</time></trkpt><trkpt lat="43.28990504163776" lon="11.635679818908775"><ele>324.0</ele><time>2026-03-29T16:40:07Z</time></trkpt><trkpt lat="43.289848408126964" lon="11.63580069600184"><ele>324.0</ele><time>2026-03-29T16:40:08Z</time></trkpt><trkpt lat="43.289796665804346" lon="11.63592063149201"><ele>324.0</ele><time>2026-03-29T16:40:09Z</time></trkpt><trkpt lat="43.289750700439384" lon="11.6360423896598"><ele>324.0</ele><time>2026-03-29T16:40:10Z</time></trkpt><trkpt lat="43.289712717239105" lon="11.636164893235412"><ele>324.0</ele><time>2026-03-29T16:40:11Z</time></trkpt><trkpt lat="43.2896792671509" lon="11.63629260450841"><ele>324.0</ele><time>2026-03-29T16:40:12Z</time></trkpt><trkpt lat="43.28965606708222" lon="11.636413771506936"><ele>323.8333333333333</ele><time>2026-03-29T16:40:13Z</time></trkpt><trkpt lat="43.28963740057062" lon="11.636541331271701"><ele>323.6666666666667</ele><time>2026-03-29T16:40:14Z</time></trkpt><trkpt lat="43.289609166250216" lon="11.636662257305996"><ele>323.5</ele><time>2026-03-29T16:40:15Z</time></trkpt><trkpt lat="43.28957711268772" lon="11.636777249121511"><ele>323.33333333333337</ele><time>2026-03-29T16:40:16Z</time></trkpt><trkpt lat="43.28953477596147" lon="11.636879444026514"><ele>323.1666666666667</ele><time>2026-03-29T16:40:17Z</time></trkpt><trkpt lat="43.28947330652998" lon="11.636952703028351"><ele>323.0</ele><time>2026-03-29T16:40:18Z</time></trkpt><trkpt lat="43.28939007315748" lon="11.636965044760407"><ele>323.0</ele><time>2026-03-29T16:40:19Z</time></trkpt><trkpt lat="43.28931032130169" lon="11.636954242365594"><ele>323.0</ele><time>2026-03-29T16:40:20Z</time></trkpt><trkpt lat="43.289223621057374" lon="11.636958605385631"><ele>323.0</ele><time>2026-03-29T16:40:21Z</time></trkpt><trkpt lat="43.289125709172865" lon="11.636958605386138"><ele>323.0</ele><time>2026-03-29T16:40:22Z</time></trkpt><trkpt lat="43.28902954029528" lon="11.636955962273044"><ele>323.0</ele><time>2026-03-29T16:40:23Z</time></trkpt><trkpt lat="43.28892710790705" lon="11.636977222314387"><ele>322.79999999999995</ele><time>2026-03-29T16:40:24Z</time></trkpt><trkpt lat="43.288826769091" lon="11.636981595633689"><ele>322.6</ele><time>2026-03-29T16:40:25Z</time></trkpt><trkpt lat="43.288729936208924" lon="11.636993081710983"><ele>322.4</ele><time>2026-03-29T16:40:26Z</time></trkpt><trkpt lat="43.288638525820694" lon="11.637021734548934"><ele>322.20000000000005</ele><time>2026-03-29T16:40:27Z</time></trkpt><trkpt lat="43.28855317970365" lon="11.637066045405556"><ele>322.0</ele><time>2026-03-29T16:40:28Z</time></trkpt><trkpt lat="43.288472626747" lon="11.637123837854439"><ele>322.0</ele><time>2026-03-29T16:40:29Z</time></trkpt><trkpt lat="43.28839571263854" lon="11.637194317539999"><ele>322.0</ele><time>2026-03-29T16:40:30Z</time></trkpt><trkpt lat="43.28832107495387" lon="11.637264373222333"><ele>322.0</ele><time>2026-03-29T16:40:31Z</time></trkpt><trkpt lat="43.28824929692607" lon="11.637332324339717"><ele>322.0</ele><time>2026-03-29T16:40:32Z</time></trkpt><trkpt lat="43.2881738077402" lon="11.637397546777029"><ele>322.0</ele><time>2026-03-29T16:40:33Z</time></trkpt><trkpt lat="43.28809589331868" lon="11.637460527177316"><ele>321.8</ele><time>2026-03-29T16:40:34Z</time></trkpt><trkpt lat="43.28801467038141" lon="11.637527002158212"><ele>321.6</ele><time>2026-03-29T16:40:35Z</time></trkpt><trkpt lat="43.287930114787535" lon="11.63758190398921"><ele>321.40000000000003</ele><time>2026-03-29T16:40:36Z</time></trkpt><trkpt lat="43.28784377486348" lon="11.637640297464648"><ele>321.20000000000005</ele><time>2026-03-29T16:40:37Z</time></trkpt><trkpt lat="43.28775799942215" lon="11.637696177628046"><ele>321.0</ele><time>2026-03-29T16:40:38Z</time></trkpt><trkpt lat="43.28766822464449" lon="11.637733288170388"><ele>321.0</ele><time>2026-03-29T16:40:39Z</time></trkpt><trkpt lat="43.287582826681515" lon="11.637784849492279"><ele>321.0</ele><time>2026-03-29T16:40:40Z</time></trkpt><trkpt lat="43.28750126347689" lon="11.637839896652606"><ele>321.0</ele><time>2026-03-29T16:40:41Z</time></trkpt><trkpt lat="43.28744494868963" lon="11.637913123756597"><ele>321.0</ele><time>2026-03-29T16:40:42Z</time></trkpt><trkpt lat="43.28738947500088" lon="11.637979121739034"><ele>321.0</ele><time>2026-03-29T16:40:43Z</time></trkpt><trkpt lat="43.287380752665605" lon="11.638088281973474"><ele>321.0</ele><time>2026-03-29T16:40:44Z</time></trkpt><trkpt lat="43.28736494327791" lon="11.638192470255866"><ele>321.3333333333333</ele><time>2026-03-29T16:40:45Z</time></trkpt><trkpt lat="43.28735182656459" lon="11.63829854625828"><ele>321.6666666666667</ele><time>2026-03-29T16:40:46Z</time></trkpt><trkpt lat="43.287338680516505" lon="11.638403941143062"><ele>322.0</ele><time>2026-03-29T16:40:47Z</time></trkpt><trkpt lat="43.287329154632275" lon="11.638516274399803"><ele>322.33333333333337</ele><time>2026-03-29T16:40:48Z</time></trkpt><trkpt lat="43.287302381259366" lon="11.638626669526484"><ele>322.6666666666667</ele><time>2026-03-29T16:40:49Z</time></trkpt><trkpt lat="43.28729823110238" lon="11.638743423248904"><ele>323.0</ele><time>2026-03-29T16:40:50Z</time></trkpt><trkpt lat="43.28726756637163" lon="11.638853070614319"><ele>323.1666666666667</ele><time>2026-03-29T16:40:51Z</time></trkpt><trkpt lat="43.28721264284878" lon="11.638935743913157"><ele>323.33333333333337</ele><time>2026-03-29T16:40:52Z</time></trkpt><trkpt lat="43.287139885380995" lon="11.63896181016517"><ele>323.5</ele><time>2026-03-29T16:40:53Z</time></trkpt><trkpt lat="43.28706605987467" lon="11.638993455376545"><ele>323.6666666666667</ele><time>2026-03-29T16:40:54Z</time></trkpt><trkpt lat="43.28698700510017" lon="11.639031870101837"><ele>323.8333333333333</ele><time>2026-03-29T16:40:55Z</time></trkpt><trkpt lat="43.2869044273057" lon="11.639085812958928"><ele>324.0</ele><time>2026-03-29T16:40:56Z</time></trkpt><trkpt lat="43.28683249766296" lon="11.639168899548343"><ele>324.0</ele><time>2026-03-29T16:40:57Z</time></trkpt><trkpt lat="43.286751124000745" lon="11.639236708903958"><ele>324.0</ele><time>2026-03-29T16:40:58Z</time></trkpt><trkpt lat="43.28666150016422" lon="11.639289582829198"><ele>324.0</ele><time>2026-03-29T16:40:59Z</time></trkpt><trkpt lat="43.286583095942625" lon="11.639361991029224"><ele>324.0</ele><time>2026-03-29T16:41:00Z</time></trkpt><trkpt lat="43.28649987448371" lon="11.639441605512499"><ele>324.0</ele><time>2026-03-29T16:41:01Z</time></trkpt><trkpt lat="43.28641868812605" lon="11.639526146676477"><ele>322.8</ele><time>2026-03-29T16:41:02Z</time></trkpt><trkpt lat="43.286342443211105" lon="11.63960447013566"><ele>321.59999999999997</ele><time>2026-03-29T16:41:03Z</time></trkpt><trkpt lat="43.28626780470433" lon="11.63967425053337"><ele>320.4</ele><time>2026-03-29T16:41:04Z</time></trkpt><trkpt lat="43.28618753531522" lon="11.639745168798033"><ele>319.2</ele><time>2026-03-29T16:41:05Z</time></trkpt><trkpt lat="43.28610847325086" lon="11.639808054067178"><ele>318.0</ele><time>2026-03-29T16:41:06Z</time></trkpt><trkpt lat="43.28602959173212" lon="11.639868042804975"><ele>318.0</ele><time>2026-03-29T16:41:07Z</time></trkpt><trkpt lat="43.28595582254984" lon="11.639919332683398"><ele>318.0</ele><time>2026-03-29T16:41:08Z</time></trkpt><trkpt lat="43.28588044243032" lon="11.639966241669999"><ele>318.0</ele><time>2026-03-29T16:41:09Z</time></trkpt><trkpt lat="43.28580518181133" lon="11.640011783291229"><ele>318.0</ele><time>2026-03-29T16:41:10Z</time></trkpt><trkpt lat="43.28572674290371" lon="11.640059446964756"><ele>318.0</ele><time>2026-03-29T16:41:11Z</time></trkpt><trkpt lat="43.285646931555384" lon="11.640110147933209"><ele>318.0</ele><time>2026-03-29T16:41:12Z</time></trkpt><trkpt lat="43.28557046625046" lon="11.640161723522155"><ele>317.8333333333333</ele><time>2026-03-29T16:41:13Z</time></trkpt><trkpt lat="43.285494390373756" lon="11.640215558420866"><ele>317.6666666666667</ele><time>2026-03-29T16:41:14Z</time></trkpt><trkpt lat="43.285418030042976" lon="11.640270707522719"><ele>317.5</ele><time>2026-03-29T16:41:15Z</time></trkpt><trkpt lat="43.285341528929315" lon="11.640327386101042"><ele>317.33333333333337</ele><time>2026-03-29T16:41:16Z</time></trkpt><trkpt lat="43.285265370042495" lon="11.64038359477593"><ele>317.1666666666667</ele><time>2026-03-29T16:41:17Z</time></trkpt><trkpt lat="43.28519120277161" lon="11.640438333532327"><ele>317.0</ele><time>2026-03-29T16:41:18Z</time></trkpt><trkpt lat="43.28512326943868" lon="11.640520249059204"><ele>317.0</ele><time>2026-03-29T16:41:19Z</time></trkpt><trkpt lat="43.28504997861579" lon="11.640589858191715"><ele>317.0</ele><time>2026-03-29T16:41:20Z</time></trkpt><trkpt lat="43.2849810265852" lon="11.640661995914996"><ele>317.0</ele><time>2026-03-29T16:41:21Z</time></trkpt><trkpt lat="43.28489982196385" lon="11.640719662941555"><ele>317.0</ele><time>2026-03-29T16:41:22Z</time></trkpt><trkpt lat="43.284830721437096" lon="11.640789843762834"><ele>317.0</ele><time>2026-03-29T16:41:23Z</time></trkpt><trkpt lat="43.284755121877666" lon="11.640864376949114"><ele>317.0</ele><time>2026-03-29T16:41:24Z</time></trkpt><trkpt lat="43.28467365753648" lon="11.640939584585677"><ele>316.4</ele><time>2026-03-29T16:41:25Z</time></trkpt><trkpt lat="43.28459125233493" lon="11.641002702424563"><ele>315.79999999999995</ele><time>2026-03-29T16:41:26Z</time></trkpt><trkpt lat="43.28450557244733" lon="11.641066920342434"><ele>315.2</ele><time>2026-03-29T16:41:27Z</time></trkpt><trkpt lat="43.284420582844305" lon="11.64113083063483"><ele>314.59999999999997</ele><time>2026-03-29T16:41:28Z</time></trkpt><trkpt lat="43.284337486250394" lon="11.641197243300935"><ele>314.0</ele><time>2026-03-29T16:41:29Z</time></trkpt><trkpt lat="43.28425506186011" lon="11.641272836228016"><ele>313.8</ele><time>2026-03-29T16:41:30Z</time></trkpt><trkpt lat="43.28417614358312" lon="11.641359705619633"><ele>313.59999999999997</ele><time>2026-03-29T16:41:31Z</time></trkpt><trkpt lat="43.28410726215571" lon="11.641456937736026"><ele>313.4</ele><time>2026-03-29T16:41:32Z</time></trkpt><trkpt lat="43.28406239344397" lon="11.641572503800957"><ele>313.2</ele><time>2026-03-29T16:41:33Z</time></trkpt><trkpt lat="43.28399345696595" lon="11.64166609054905"><ele>313.0</ele><time>2026-03-29T16:41:34Z</time></trkpt><trkpt lat="43.28394296440372" lon="11.641771649242232"><ele>313.0</ele><time>2026-03-29T16:41:35Z</time></trkpt><trkpt lat="43.28389202593655" lon="11.64188066882039"><ele>313.0</ele><time>2026-03-29T16:41:36Z</time></trkpt><trkpt lat="43.283840410884764" lon="11.64198421349669"><ele>313.0</ele><time>2026-03-29T16:41:37Z</time></trkpt><trkpt lat="43.28378457797471" lon="11.642082621781661"><ele>313.0</ele><time>2026-03-29T16:41:38Z</time></trkpt><trkpt lat="43.28372473140103" lon="11.642178384280058"><ele>313.0</ele><time>2026-03-29T16:41:39Z</time></trkpt><trkpt lat="43.283661113952476" lon="11.642279233434234"><ele>313.0</ele><time>2026-03-29T16:41:40Z</time></trkpt><trkpt lat="43.28359934142258" lon="11.64238182205956"><ele>313.0</ele><time>2026-03-29T16:41:41Z</time></trkpt><trkpt lat="43.28353818433934" lon="11.64248730416068"><ele>313.0</ele><time>2026-03-29T16:41:42Z</time></trkpt><trkpt lat="43.28347843447101" lon="11.642595741271705"><ele>313.0</ele><time>2026-03-29T16:41:43Z</time></trkpt><trkpt lat="43.28342737446786" lon="11.64270626135398"><ele>313.0</ele><time>2026-03-29T16:41:44Z</time></trkpt><trkpt lat="43.28338096157102" lon="11.642826062110359"><ele>313.4</ele><time>2026-03-29T16:41:45Z</time></trkpt><trkpt lat="43.283340507292756" lon="11.642947886339247"><ele>313.8</ele><time>2026-03-29T16:41:46Z</time></trkpt><trkpt lat="43.283300034837715" lon="11.643062827698195"><ele>314.2</ele><time>2026-03-29T16:41:47Z</time></trkpt><trkpt lat="43.28326943570469" lon="11.643182974881537"><ele>314.6</ele><time>2026-03-29T16:41:48Z</time></trkpt><trkpt lat="43.28321182538296" lon="11.643273629308283"><ele>315.0</ele><time>2026-03-29T16:41:49Z</time></trkpt><trkpt lat="43.2831604076124" lon="11.643369757188548"><ele>315.0</ele><time>2026-03-29T16:41:50Z</time></trkpt><trkpt lat="43.28310206053391" lon="11.64346069305844"><ele>315.0</ele><time>2026-03-29T16:41:51Z</time></trkpt><trkpt lat="43.28304312360391" lon="11.643550476716483"><ele>315.0</ele><time>2026-03-29T16:41:51.999Z</time></trkpt><trkpt lat="43.28298632542434" lon="11.643642681255894"><ele>315.0</ele><time>2026-03-29T16:41:52.999Z</time></trkpt><trkpt lat="43.28293061996793" lon="11.64373746368116"><ele>315.0</ele><time>2026-03-29T16:41:53.999Z</time></trkpt><trkpt lat="43.28287819806924" lon="11.643835670502572"><ele>315.0</ele><time>2026-03-29T16:41:54.999Z</time></trkpt><trkpt lat="43.28283382035458" lon="11.643944870812728"><ele>314.4</ele><time>2026-03-29T16:41:55.999Z</time></trkpt><trkpt lat="43.28280485376351" lon="11.644069995314526"><ele>313.8</ele><time>2026-03-29T16:41:56.999Z</time></trkpt><trkpt lat="43.2827850326812" lon="11.644196984996409"><ele>313.2</ele><time>2026-03-29T16:41:57.999Z</time></trkpt><trkpt lat="43.282768820165096" lon="11.644323801452584"><ele>312.6</ele><time>2026-03-29T16:41:58.999Z</time></trkpt><trkpt lat="43.28275638954872" lon="11.644454499101531"><ele>312.0</ele><time>2026-03-29T16:41:59.999Z</time></trkpt><trkpt lat="43.28276454677555" lon="11.644587849682242"><ele>312.0</ele><time>2026-03-29T16:42:00.999Z</time></trkpt><trkpt lat="43.28275209032218" lon="11.644719502013483"><ele>312.0</ele><time>2026-03-29T16:42:01.999Z</time></trkpt><trkpt lat="43.282731231654566" lon="11.644849305916065"><ele>312.0</ele><time>2026-03-29T16:42:02.999Z</time></trkpt><trkpt lat="43.28268339784843" lon="11.644966017278769"><ele>312.0</ele><time>2026-03-29T16:42:03.999Z</time></trkpt><trkpt lat="43.282644008879615" lon="11.645083649953646"><ele>312.0</ele><time>2026-03-29T16:42:04.999Z</time></trkpt><trkpt lat="43.2825977072383" lon="11.645204729121216"><ele>312.0</ele><time>2026-03-29T16:42:05.999Z</time></trkpt><trkpt lat="43.282553275374504" lon="11.645318972715348"><ele>312.0</ele><time>2026-03-29T16:42:06.999Z</time></trkpt><trkpt lat="43.282508919822206" lon="11.645433020085324"><ele>312.0</ele><time>2026-03-29T16:42:07.999Z</time></trkpt><trkpt lat="43.282466642604206" lon="11.645537779931198"><ele>312.0</ele><time>2026-03-29T16:42:08.999Z</time></trkpt><trkpt lat="43.282422220112124" lon="11.645630475355208"><ele>312.0</ele><time>2026-03-29T16:42:10Z</time></trkpt><trkpt lat="43.28237312267158" lon="11.645706777764538"><ele>312.0</ele><time>2026-03-29T16:42:11Z</time></trkpt><trkpt lat="43.28231765995536" lon="11.64577376784923"><ele>311.5</ele><time>2026-03-29T16:42:12Z</time></trkpt><trkpt lat="43.28225577733858" lon="11.64584019719393"><ele>311.0</ele><time>2026-03-29T16:42:13Z</time></trkpt><trkpt lat="43.28218495429841" lon="11.645900711712422"><ele>310.5</ele><time>2026-03-29T16:42:14Z</time></trkpt><trkpt lat="43.28211112205152" lon="11.645949426604572"><ele>310.0</ele><time>2026-03-29T16:42:15Z</time></trkpt><trkpt lat="43.282035043944774" lon="11.645991041647003"><ele>309.5</ele><time>2026-03-29T16:42:16Z</time></trkpt><trkpt lat="43.28195092714456" lon="11.646032919254138"><ele>309.0</ele><time>2026-03-29T16:42:17Z</time></trkpt><trkpt lat="43.28186573064736" lon="11.646074847705046"><ele>309.0</ele><time>2026-03-29T16:42:18Z</time></trkpt><trkpt lat="43.28177970901281" lon="11.646118201028349"><ele>309.0</ele><time>2026-03-29T16:42:19Z</time></trkpt><trkpt lat="43.281694998758105" lon="11.64617082314686"><ele>309.0</ele><time>2026-03-29T16:42:20Z</time></trkpt><trkpt lat="43.2816147093781" lon="11.646234886467946"><ele>309.0</ele><time>2026-03-29T16:42:21Z</time></trkpt><trkpt lat="43.2815442625727" lon="11.646315879747142"><ele>309.0</ele><time>2026-03-29T16:42:22Z</time></trkpt><trkpt lat="43.28148218029417" lon="11.646406500135448"><ele>309.0</ele><time>2026-03-29T16:42:23Z</time></trkpt><trkpt lat="43.28142460432812" lon="11.646501786449843"><ele>309.0</ele><time>2026-03-29T16:42:24Z</time></trkpt><trkpt lat="43.281368167499735" lon="11.646597525065427"><ele>309.0</ele><time>2026-03-29T16:42:25Z</time></trkpt><trkpt lat="43.28131149215405" lon="11.646700131349526"><ele>309.0</ele><time>2026-03-29T16:42:26Z</time></trkpt><trkpt lat="43.28125527129863" lon="11.646802732569295"><ele>309.0</ele><time>2026-03-29T16:42:27Z</time></trkpt><trkpt lat="43.28119851959918" lon="11.64690497099225"><ele>309.0</ele><time>2026-03-29T16:42:28Z</time></trkpt><trkpt lat="43.28114075910786" lon="11.647003866566347"><ele>309.0</ele><time>2026-03-29T16:42:29Z</time></trkpt><trkpt lat="43.281079860073575" lon="11.64709591200592"><ele>309.0</ele><time>2026-03-29T16:42:30Z</time></trkpt><trkpt lat="43.28101571935995" lon="11.647187831273804"><ele>309.0</ele><time>2026-03-29T16:42:31Z</time></trkpt><trkpt lat="43.280949827866024" lon="11.64727748265713"><ele>309.0</ele><time>2026-03-29T16:42:32Z</time></trkpt><trkpt lat="43.280884509849564" lon="11.647362553916254"><ele>309.0</ele><time>2026-03-29T16:42:33Z</time></trkpt><trkpt lat="43.280815208823064" lon="11.647451268857852"><ele>309.0</ele><time>2026-03-29T16:42:34Z</time></trkpt><trkpt lat="43.28074464575397" lon="11.647537313211725"><ele>309.0</ele><time>2026-03-29T16:42:35Z</time></trkpt><trkpt lat="43.28067415763099" lon="11.647620719765534"><ele>309.0</ele><time>2026-03-29T16:42:36Z</time></trkpt><trkpt lat="43.28060092595302" lon="11.64770602883924"><ele>309.0</ele><time>2026-03-29T16:42:37Z</time></trkpt><trkpt lat="43.280530740064094" lon="11.647787789838523"><ele>309.0</ele><time>2026-03-29T16:42:38Z</time></trkpt><trkpt lat="43.28045911282065" lon="11.647871229874903"><ele>309.0</ele><time>2026-03-29T16:42:39Z</time></trkpt><trkpt lat="43.280387677526896" lon="11.647954996362843"><ele>309.0</ele><time>2026-03-29T16:42:40Z</time></trkpt><trkpt lat="43.28031801436512" lon="11.648037156970618"><ele>309.0</ele><time>2026-03-29T16:42:41Z</time></trkpt><trkpt lat="43.28024952681949" lon="11.648117875856503"><ele>309.0</ele><time>2026-03-29T16:42:42Z</time></trkpt><trkpt lat="43.2801829886295" lon="11.648194348825932"><ele>309.0</ele><time>2026-03-29T16:42:43Z</time></trkpt><trkpt lat="43.280116005951065" lon="11.648265043560757"><ele>309.0</ele><time>2026-03-29T16:42:44Z</time></trkpt><trkpt lat="43.280043591292674" lon="11.648333142012136"><ele>309.0</ele><time>2026-03-29T16:42:45Z</time></trkpt><trkpt lat="43.279970134827416" lon="11.648397828762027"><ele>309.0</ele><time>2026-03-29T16:42:46Z</time></trkpt><trkpt lat="43.2798953977025" lon="11.648467983572505"><ele>309.0</ele><time>2026-03-29T16:42:47Z</time></trkpt><trkpt lat="43.279825170615574" lon="11.64854365271753"><ele>309.0</ele><time>2026-03-29T16:42:48Z</time></trkpt><trkpt lat="43.279758545230244" lon="11.648617892305504"><ele>308.59999999999997</ele><time>2026-03-29T16:42:49Z</time></trkpt><trkpt lat="43.27969070148916" lon="11.64870365568141"><ele>308.2</ele><time>2026-03-29T16:42:50Z</time></trkpt><trkpt lat="43.279627301818195" lon="11.648794243501468"><ele>307.79999999999995</ele><time>2026-03-29T16:42:51Z</time></trkpt><trkpt lat="43.279567185784906" lon="11.648890837340799"><ele>307.4</ele><time>2026-03-29T16:42:52Z</time></trkpt><trkpt lat="43.27951252418237" lon="11.648983655720636"><ele>307.0</ele><time>2026-03-29T16:42:53Z</time></trkpt><trkpt lat="43.27946172376528" lon="11.64908518857467"><ele>307.0</ele><time>2026-03-29T16:42:54Z</time></trkpt><trkpt lat="43.27941181378176" lon="11.649193358104053"><ele>307.0</ele><time>2026-03-29T16:42:55Z</time></trkpt><trkpt lat="43.279364089819055" lon="11.649299863277582"><ele>307.0</ele><time>2026-03-29T16:42:56Z</time></trkpt><trkpt lat="43.27931772452725" lon="11.649408100290184"><ele>307.0</ele><time>2026-03-29T16:42:57Z</time></trkpt><trkpt lat="43.27927357310795" lon="11.649516916987098"><ele>307.0</ele><time>2026-03-29T16:42:58Z</time></trkpt><trkpt lat="43.279231861047386" lon="11.649620055998113"><ele>307.16666666666663</ele><time>2026-03-29T16:42:59Z</time></trkpt><trkpt lat="43.27920331470213" lon="11.64973483258028"><ele>307.3333333333333</ele><time>2026-03-29T16:43:00Z</time></trkpt><trkpt lat="43.279147952955725" lon="11.649830766209584"><ele>307.5</ele><time>2026-03-29T16:43:01Z</time></trkpt><trkpt lat="43.27910907318816" lon="11.649933140745402"><ele>307.6666666666667</ele><time>2026-03-29T16:43:02Z</time></trkpt><trkpt lat="43.27907127804207" lon="11.650034665623659"><ele>307.83333333333337</ele><time>2026-03-29T16:43:03Z</time></trkpt><trkpt lat="43.279035692412236" lon="11.65013202979579"><ele>308.0</ele><time>2026-03-29T16:43:04Z</time></trkpt><trkpt lat="43.278997336826386" lon="11.65023697273507"><ele>308.1666666666667</ele><time>2026-03-29T16:43:05Z</time></trkpt><trkpt lat="43.27896002018556" lon="11.650339073046862"><ele>308.33333333333337</ele><time>2026-03-29T16:43:06Z</time></trkpt><trkpt lat="43.27892196870996" lon="11.650443183910491"><ele>308.5</ele><time>2026-03-29T16:43:07Z</time></trkpt><trkpt lat="43.278884449958404" lon="11.650545837216136"><ele>308.6666666666667</ele><time>2026-03-29T16:43:08Z</time></trkpt><trkpt lat="43.278845776599894" lon="11.650651280952344"><ele>308.8333333333333</ele><time>2026-03-29T16:43:09Z</time></trkpt><trkpt lat="43.278805025007664" lon="11.650759633272218"><ele>309.0</ele><time>2026-03-29T16:43:10Z</time></trkpt><trkpt lat="43.27876431080026" lon="11.650860739876713"><ele>308.6666666666667</ele><time>2026-03-29T16:43:11Z</time></trkpt><trkpt lat="43.278719494607635" lon="11.650964047354424"><ele>308.3333333333333</ele><time>2026-03-29T16:43:12Z</time></trkpt><trkpt lat="43.27867526081431" lon="11.651063811065342"><ele>308.0</ele><time>2026-03-29T16:43:13Z</time></trkpt><trkpt lat="43.27863156670842" lon="11.651171762899788"><ele>307.66666666666663</ele><time>2026-03-29T16:43:14Z</time></trkpt><trkpt lat="43.27861034569397" lon="11.651288470410837"><ele>307.3333333333333</ele><time>2026-03-29T16:43:15Z</time></trkpt><trkpt lat="43.278584188201215" lon="11.651401510264936"><ele>307.0</ele><time>2026-03-29T16:43:16Z</time></trkpt><trkpt lat="43.2785631253144" lon="11.65151514614148"><ele>307.0</ele><time>2026-03-29T16:43:17Z</time></trkpt><trkpt lat="43.27852937369841" lon="11.651627053192701"><ele>307.0</ele><time>2026-03-29T16:43:18Z</time></trkpt><trkpt lat="43.27852089726355" lon="11.651748053539126"><ele>307.0</ele><time>2026-03-29T16:43:19Z</time></trkpt><trkpt lat="43.27853033133438" lon="11.65186886714087"><ele>307.0</ele><time>2026-03-29T16:43:20Z</time></trkpt><trkpt lat="43.2785182664832" lon="11.651988156240867"><ele>307.0</ele><time>2026-03-29T16:43:21Z</time></trkpt><trkpt lat="43.27849470370914" lon="11.65210938767353"><ele>307.0</ele><time>2026-03-29T16:43:22Z</time></trkpt><trkpt lat="43.27844258328184" lon="11.652210698165046"><ele>307.66666666666663</ele><time>2026-03-29T16:43:23Z</time></trkpt><trkpt lat="43.2784149921084" lon="11.652326576326367"><ele>308.3333333333333</ele><time>2026-03-29T16:43:24Z</time></trkpt><trkpt lat="43.278393899446115" lon="11.652442396655067"><ele>309.0</ele><time>2026-03-29T16:43:25Z</time></trkpt><trkpt lat="43.278392145412354" lon="11.652562956593103"><ele>309.6666666666667</ele><time>2026-03-29T16:43:26Z</time></trkpt><trkpt lat="43.278376660200955" lon="11.652678970233605"><ele>310.33333333333337</ele><time>2026-03-29T16:43:27Z</time></trkpt><trkpt lat="43.278346035748235" lon="11.65278658422568"><ele>311.0</ele><time>2026-03-29T16:43:28Z</time></trkpt><trkpt lat="43.27832838741035" lon="11.652899100824234"><ele>311.5</ele><time>2026-03-29T16:43:29Z</time></trkpt><trkpt lat="43.278304575009656" lon="11.65301013454765"><ele>312.0</ele><time>2026-03-29T16:43:30Z</time></trkpt><trkpt lat="43.278276663903526" lon="11.653116909482621"><ele>312.5</ele><time>2026-03-29T16:43:31Z</time></trkpt><trkpt lat="43.278245394012124" lon="11.653225725686976"><ele>313.0</ele><time>2026-03-29T16:43:32Z</time></trkpt><trkpt lat="43.27821456460594" lon="11.653330442332491"><ele>313.5</ele><time>2026-03-29T16:43:33Z</time></trkpt><trkpt lat="43.278183952108684" lon="11.653434422211976"><ele>314.0</ele><time>2026-03-29T16:43:34Z</time></trkpt><trkpt lat="43.27815367909371" lon="11.65353724899663"><ele>313.83333333333337</ele><time>2026-03-29T16:43:35Z</time></trkpt><trkpt lat="43.27814069847235" lon="11.653649161864378"><ele>313.6666666666667</ele><time>2026-03-29T16:43:36Z</time></trkpt><trkpt lat="43.27810951373962" lon="11.653750989709"><ele>313.5</ele><time>2026-03-29T16:43:37Z</time></trkpt><trkpt lat="43.278082139999135" lon="11.653854204071775"><ele>313.3333333333333</ele><time>2026-03-29T16:43:38Z</time></trkpt><trkpt lat="43.278051547405774" lon="11.653954075358698"><ele>313.16666666666663</ele><time>2026-03-29T16:43:39Z</time></trkpt><trkpt lat="43.27802196511478" lon="11.654054760460419"><ele>313.0</ele><time>2026-03-29T16:43:40Z</time></trkpt><trkpt lat="43.277993180386204" lon="11.65415398605091"><ele>313.0</ele><time>2026-03-29T16:43:41Z</time></trkpt><trkpt lat="43.277967012385844" lon="11.654251749261116"><ele>313.0</ele><time>2026-03-29T16:43:42Z</time></trkpt><trkpt lat="43.277910925065214" lon="11.65433140827875"><ele>313.0</ele><time>2026-03-29T16:43:43Z</time></trkpt><trkpt lat="43.27787900550257" lon="11.654431472562763"><ele>313.0</ele><time>2026-03-29T16:43:44Z</time></trkpt><trkpt lat="43.27784958518599" lon="11.65453255796662"><ele>313.0</ele><time>2026-03-29T16:43:45Z</time></trkpt><trkpt lat="43.27783067489234" lon="11.654642886265767"><ele>313.0</ele><time>2026-03-29T16:43:46Z</time></trkpt><trkpt lat="43.27783475828092" lon="11.654754278539103"><ele>313.0</ele><time>2026-03-29T16:43:47Z</time></trkpt><trkpt lat="43.27780128387288" lon="11.654860764062187"><ele>313.0</ele><time>2026-03-29T16:43:48Z</time></trkpt><trkpt lat="43.27778191375767" lon="11.654970435919312"><ele>313.0</ele><time>2026-03-29T16:43:49Z</time></trkpt><trkpt lat="43.27776428877187" lon="11.655080877361424"><ele>313.0</ele><time>2026-03-29T16:43:50Z</time></trkpt><trkpt lat="43.27775376511263" lon="11.655190771551359"><ele>313.0</ele><time>2026-03-29T16:43:51Z</time></trkpt><trkpt lat="43.277749663191194" lon="11.655300164909747"><ele>313.0</ele><time>2026-03-29T16:43:52Z</time></trkpt><trkpt lat="43.27777124017649" lon="11.65541559071267"><ele>313.0</ele><time>2026-03-29T16:43:53Z</time></trkpt><trkpt lat="43.277760515026095" lon="11.655533599409038"><ele>313.0</ele><time>2026-03-29T16:43:54Z</time></trkpt><trkpt lat="43.27776890185079" lon="11.655653797395901"><ele>313.0</ele><time>2026-03-29T16:43:55Z</time></trkpt><trkpt lat="43.277778064316955" lon="11.655773320737783"><ele>313.0</ele><time>2026-03-29T16:43:56Z</time></trkpt><trkpt lat="43.27778713642142" lon="11.655891665324926"><ele>313.0</ele><time>2026-03-29T16:43:57Z</time></trkpt><trkpt lat="43.277796113369305" lon="11.65600876857208"><ele>313.0</ele><time>2026-03-29T16:43:58Z</time></trkpt><trkpt lat="43.27780499535684" lon="11.65612624445071"><ele>313.16666666666663</ele><time>2026-03-29T16:43:59Z</time></trkpt><trkpt lat="43.277813694422484" lon="11.656244459543483"><ele>313.3333333333333</ele><time>2026-03-29T16:44:00Z</time></trkpt><trkpt lat="43.27782259956229" lon="11.65636547508272"><ele>313.5</ele><time>2026-03-29T16:44:01Z</time></trkpt><trkpt lat="43.27783146498551" lon="11.656485950903331"><ele>313.6666666666667</ele><time>2026-03-29T16:44:02Z</time></trkpt><trkpt lat="43.277840610268264" lon="11.656606941462863"><ele>313.83333333333337</ele><time>2026-03-29T16:44:03Z</time></trkpt><trkpt lat="43.27784986562265" lon="11.656729082207004"><ele>314.0</ele><time>2026-03-29T16:44:04Z</time></trkpt><trkpt lat="43.27785888387033" lon="11.65684809391663"><ele>314.1666666666667</ele><time>2026-03-29T16:44:04.999Z</time></trkpt><trkpt lat="43.277867698767366" lon="11.656964422049725"><ele>314.33333333333337</ele><time>2026-03-29T16:44:05.999Z</time></trkpt><trkpt lat="43.27787825041647" lon="11.65708117247989"><ele>314.5</ele><time>2026-03-29T16:44:06.999Z</time></trkpt><trkpt lat="43.27790210591278" lon="11.657193958014942"><ele>314.6666666666667</ele><time>2026-03-29T16:44:07.999Z</time></trkpt><trkpt lat="43.27791320216942" lon="11.657305037207685"><ele>314.8333333333333</ele><time>2026-03-29T16:44:08.999Z</time></trkpt><trkpt lat="43.277923367190134" lon="11.657416082446508"><ele>315.0</ele><time>2026-03-29T16:44:09.999Z</time></trkpt><trkpt lat="43.27791373351956" lon="11.657530797425848"><ele>315.0</ele><time>2026-03-29T16:44:10.999Z</time></trkpt><trkpt lat="43.277915373253464" lon="11.65763462118357"><ele>315.0</ele><time>2026-03-29T16:44:11.999Z</time></trkpt><trkpt lat="43.27790876570209" lon="11.657743317646908"><ele>315.0</ele><time>2026-03-29T16:44:12.999Z</time></trkpt><trkpt lat="43.277891330024936" lon="11.657848298154336"><ele>315.0</ele><time>2026-03-29T16:44:13.999Z</time></trkpt><trkpt lat="43.27786858476755" lon="11.65795450162164"><ele>315.0</ele><time>2026-03-29T16:44:14.999Z</time></trkpt><trkpt lat="43.27784483621219" lon="11.658058489602196"><ele>315.0</ele><time>2026-03-29T16:44:16Z</time></trkpt><trkpt lat="43.27782077147956" lon="11.65816222205918"><ele>315.1666666666667</ele><time>2026-03-29T16:44:17Z</time></trkpt><trkpt lat="43.27779560122574" lon="11.658271889546638"><ele>315.3333333333333</ele><time>2026-03-29T16:44:18Z</time></trkpt><trkpt lat="43.27777155467764" lon="11.658380156256465"><ele>315.5</ele><time>2026-03-29T16:44:19Z</time></trkpt><trkpt lat="43.27774727400278" lon="11.658489477115207"><ele>315.66666666666663</ele><time>2026-03-29T16:44:20Z</time></trkpt><trkpt lat="43.27772421132953" lon="11.658593314062283"><ele>315.8333333333333</ele><time>2026-03-29T16:44:21Z</time></trkpt><trkpt lat="43.27769951275588" lon="11.658701910973983"><ele>316.0</ele><time>2026-03-29T16:44:22Z</time></trkpt><trkpt lat="43.27767403218655" lon="11.658812982060315"><ele>316.3333333333333</ele><time>2026-03-29T16:44:23Z</time></trkpt><trkpt lat="43.27764880166294" lon="11.658922963208967"><ele>316.66666666666663</ele><time>2026-03-29T16:44:24Z</time></trkpt><trkpt lat="43.27762181960409" lon="11.659033505835428"><ele>317.0</ele><time>2026-03-29T16:44:25Z</time></trkpt><trkpt lat="43.277595142367005" lon="11.65914283692803"><ele>317.3333333333333</ele><time>2026-03-29T16:44:26Z</time></trkpt><trkpt lat="43.27756867200394" lon="11.659246965604"><ele>317.6666666666667</ele><time>2026-03-29T16:44:27Z</time></trkpt><trkpt lat="43.277541053909836" lon="11.659353610323954"><ele>318.0</ele><time>2026-03-29T16:44:28Z</time></trkpt><trkpt lat="43.277513578709225" lon="11.659452178846895"><ele>318.5</ele><time>2026-03-29T16:44:29Z</time></trkpt><trkpt lat="43.27748352408222" lon="11.659553799200607"><ele>319.0</ele><time>2026-03-29T16:44:30Z</time></trkpt><trkpt lat="43.27745176162613" lon="11.659655277185974"><ele>319.5</ele><time>2026-03-29T16:44:31Z</time></trkpt><trkpt lat="43.27741762656823" lon="11.659757829349529"><ele>320.0</ele><time>2026-03-29T16:44:32Z</time></trkpt><trkpt lat="43.277382873463786" lon="11.659859795940577"><ele>320.5</ele><time>2026-03-29T16:44:33Z</time></trkpt><trkpt lat="43.27734722819383" lon="11.659961446065752"><ele>321.0</ele><time>2026-03-29T16:44:34Z</time></trkpt><trkpt lat="43.27731070961801" lon="11.660063665362037"><ele>321.0</ele><time>2026-03-29T16:44:35Z</time></trkpt><trkpt lat="43.277273267002485" lon="11.660168471163972"><ele>321.0</ele><time>2026-03-29T16:44:36Z</time></trkpt><trkpt lat="43.27723673193894" lon="11.660270736627842"><ele>321.0</ele><time>2026-03-29T16:44:37Z</time></trkpt><trkpt lat="43.27720158781589" lon="11.660369108719946"><ele>321.0</ele><time>2026-03-29T16:44:38Z</time></trkpt><trkpt lat="43.27716696896393" lon="11.660467126097018"><ele>321.0</ele><time>2026-03-29T16:44:39Z</time></trkpt><trkpt lat="43.277133649362185" lon="11.660561983161992"><ele>321.0</ele><time>2026-03-29T16:44:40Z</time></trkpt><trkpt lat="43.27710170351608" lon="11.660652929306913"><ele>320.40000000000003</ele><time>2026-03-29T16:44:41Z</time></trkpt><trkpt lat="43.277067345776025" lon="11.660741060328878"><ele>319.8</ele><time>2026-03-29T16:44:42Z</time></trkpt><trkpt lat="43.27699596439279" lon="11.66089206246064"><ele>319.20000000000005</ele><time>2026-03-29T16:44:44Z</time></trkpt><trkpt lat="43.27695508308556" lon="11.660959008677546"><ele>318.6</ele><time>2026-03-29T16:44:45Z</time></trkpt><trkpt lat="43.27685620706314" lon="11.661054318342204"><ele>318.0</ele><time>2026-03-29T16:44:47Z</time></trkpt><trkpt lat="43.27679664952498" lon="11.661093697767985"><ele>318.3333333333333</ele><time>2026-03-29T16:44:48Z</time></trkpt><trkpt lat="43.27672836709074" lon="11.66113947841416"><ele>318.6666666666667</ele><time>2026-03-29T16:44:49Z</time></trkpt><trkpt lat="43.27665927457865" lon="11.661185802198162"><ele>319.0</ele><time>2026-03-29T16:44:50Z</time></trkpt><trkpt lat="43.276587373920755" lon="11.66123210628275"><ele>319.33333333333337</ele><time>2026-03-29T16:44:51Z</time></trkpt><trkpt lat="43.2765138756258" lon="11.661278369438014"><ele>319.6666666666667</ele><time>2026-03-29T16:44:52Z</time></trkpt><trkpt lat="43.27644032273477" lon="11.661329426668527"><ele>320.0</ele><time>2026-03-29T16:44:53Z</time></trkpt><trkpt lat="43.27637494060556" lon="11.661390611896152"><ele>321.1666666666667</ele><time>2026-03-29T16:44:54Z</time></trkpt><trkpt lat="43.27631498408304" lon="11.66146109371046"><ele>322.33333333333337</ele><time>2026-03-29T16:44:55Z</time></trkpt><trkpt lat="43.27627000652065" lon="11.661570135621442"><ele>323.5</ele><time>2026-03-29T16:44:56Z</time></trkpt><trkpt lat="43.276256788413285" lon="11.66169289338072"><ele>324.6666666666667</ele><time>2026-03-29T16:44:57Z</time></trkpt><trkpt lat="43.276256282804454" lon="11.661808876257123"><ele>325.8333333333333</ele><time>2026-03-29T16:44:58Z</time></trkpt><trkpt lat="43.276253227330216" lon="11.661917340515618"><ele>327.0</ele><time>2026-03-29T16:44:59Z</time></trkpt><trkpt lat="43.2762506401985" lon="11.6620231941397"><ele>327.6666666666667</ele><time>2026-03-29T16:45:00Z</time></trkpt><trkpt lat="43.27624739870829" lon="11.662125151613276"><ele>328.3333333333333</ele><time>2026-03-29T16:45:01Z</time></trkpt><trkpt lat="43.276243193105046" lon="11.662228094133361"><ele>329.0</ele><time>2026-03-29T16:45:02Z</time></trkpt><trkpt lat="43.27625240764479" lon="11.662332913983477"><ele>329.66666666666663</ele><time>2026-03-29T16:45:03Z</time></trkpt><trkpt lat="43.27624878801153" lon="11.662429316072826"><ele>330.3333333333333</ele><time>2026-03-29T16:45:04Z</time></trkpt><trkpt lat="43.276246227580295" lon="11.66254518749093"><ele>331.0</ele><time>2026-03-29T16:45:05Z</time></trkpt><trkpt lat="43.27624105307502" lon="11.662642994410762"><ele>331.0</ele><time>2026-03-29T16:45:06Z</time></trkpt><trkpt lat="43.276234745717076" lon="11.662755948215617"><ele>331.0</ele><time>2026-03-29T16:45:07Z</time></trkpt><trkpt lat="43.27623032469433" lon="11.662865691333263"><ele>331.0</ele><time>2026-03-29T16:45:08Z</time></trkpt><trkpt lat="43.276227281541175" lon="11.66297048206085"><ele>331.0</ele><time>2026-03-29T16:45:09Z</time></trkpt><trkpt lat="43.2762225564381" lon="11.663079806849595"><ele>331.0</ele><time>2026-03-29T16:45:10Z</time></trkpt><trkpt lat="43.276218576847775" lon="11.663185739235631"><ele>331.0</ele><time>2026-03-29T16:45:11Z</time></trkpt><trkpt lat="43.276209406372416" lon="11.663285094689972"><ele>331.5</ele><time>2026-03-29T16:45:12Z</time></trkpt><trkpt lat="43.27620479970617" lon="11.663387796705777"><ele>332.0</ele><time>2026-03-29T16:45:13Z</time></trkpt><trkpt lat="43.27619891399799" lon="11.663489078531615"><ele>332.5</ele><time>2026-03-29T16:45:14Z</time></trkpt><trkpt lat="43.276194789075966" lon="11.663585725582855"><ele>333.0</ele><time>2026-03-29T16:45:15Z</time></trkpt><trkpt lat="43.27619021243678" lon="11.663684123166654"><ele>333.5</ele><time>2026-03-29T16:45:16Z</time></trkpt><trkpt lat="43.276154731237355" lon="11.6638227263307"><ele>334.0</ele><time>2026-03-29T16:45:18Z</time></trkpt><trkpt lat="43.27627530025712" lon="11.663926143316058"><ele>334.0</ele><time>2026-03-29T16:45:21Z</time></trkpt><trkpt lat="43.27637088579568" lon="11.66394311931694"><ele>334.0</ele><time>2026-03-29T16:45:23Z</time></trkpt><trkpt lat="43.27648801777428" lon="11.663940354180166"><ele>334.0</ele><time>2026-03-29T16:45:25Z</time></trkpt><trkpt lat="43.27655557749551" lon="11.663949660653131"><ele>334.0</ele><time>2026-03-29T16:45:26Z</time></trkpt><trkpt lat="43.276629254171745" lon="11.663959965578417"><ele>334.0</ele><time>2026-03-29T16:45:27Z</time></trkpt><trkpt lat="43.276705241651605" lon="11.663976114038883"><ele>334.0</ele><time>2026-03-29T16:45:28Z</time></trkpt><trkpt lat="43.276782062318205" lon="11.663988909094222"><ele>333.66666666666663</ele><time>2026-03-29T16:45:29Z</time></trkpt><trkpt lat="43.27686127598033" lon="11.664003728700923"><ele>333.3333333333333</ele><time>2026-03-29T16:45:30Z</time></trkpt><trkpt lat="43.27694236446398" lon="11.664015976959954"><ele>333.0</ele><time>2026-03-29T16:45:31Z</time></trkpt><trkpt lat="43.27701970322541" lon="11.664039049474296"><ele>332.6666666666667</ele><time>2026-03-29T16:45:32Z</time></trkpt><trkpt lat="43.27709611533378" lon="11.664075850561632"><ele>332.33333333333337</ele><time>2026-03-29T16:45:33Z</time></trkpt><trkpt lat="43.27716788105977" lon="11.664118174183116"><ele>332.0</ele><time>2026-03-29T16:45:34Z</time></trkpt><trkpt lat="43.27723187107088" lon="11.664174316859363"><ele>332.0</ele><time>2026-03-29T16:45:35Z</time></trkpt><trkpt lat="43.277292686839075" lon="11.664247974159643"><ele>332.0</ele><time>2026-03-29T16:45:36Z</time></trkpt><trkpt lat="43.277336252974095" lon="11.664330041974596"><ele>332.0</ele><time>2026-03-29T16:45:37Z</time></trkpt><trkpt lat="43.27737883121306" lon="11.66442486186254"><ele>332.0</ele><time>2026-03-29T16:45:38Z</time></trkpt><trkpt lat="43.27741033676448" lon="11.664523508939125"><ele>332.0</ele><time>2026-03-29T16:45:39Z</time></trkpt><trkpt lat="43.27744350735398" lon="11.66462506886884"><ele>332.0</ele><time>2026-03-29T16:45:40Z</time></trkpt><trkpt lat="43.27746468463112" lon="11.664731058560305"><ele>333.0</ele><time>2026-03-29T16:45:41Z</time></trkpt><trkpt lat="43.27748238918972" lon="11.664830136733528"><ele>334.0</ele><time>2026-03-29T16:45:42Z</time></trkpt><trkpt lat="43.27750534892581" lon="11.664930778950415"><ele>335.0</ele><time>2026-03-29T16:45:43Z</time></trkpt><trkpt lat="43.27752195563491" lon="11.66502886724007"><ele>336.0</ele><time>2026-03-29T16:45:44Z</time></trkpt><trkpt lat="43.27753702941681" lon="11.665132573616757"><ele>337.0</ele><time>2026-03-29T16:45:45Z</time></trkpt><trkpt lat="43.27754741093384" lon="11.665232789159818"><ele>338.0</ele><time>2026-03-29T16:45:46Z</time></trkpt><trkpt lat="43.2775591789235" lon="11.665335382248552"><ele>339.0</ele><time>2026-03-29T16:45:47Z</time></trkpt><trkpt lat="43.27755734759164" lon="11.665428368580347"><ele>340.0</ele><time>2026-03-29T16:45:48Z</time></trkpt><trkpt lat="43.27755375533649" lon="11.665524133091237"><ele>341.0</ele><time>2026-03-29T16:45:49Z</time></trkpt><trkpt lat="43.27754978999257" lon="11.665623905578352"><ele>342.0</ele><time>2026-03-29T16:45:50Z</time></trkpt><trkpt lat="43.27754449467052" lon="11.665718127104066"><ele>343.0</ele><time>2026-03-29T16:45:51Z</time></trkpt><trkpt lat="43.277523088115515" lon="11.665891565513855"><ele>344.0</ele><time>2026-03-29T16:45:53Z</time></trkpt><trkpt lat="43.27751274143937" lon="11.665984572862877"><ele>344.00000000000006</ele><time>2026-03-29T16:45:54Z</time></trkpt><trkpt lat="43.27750448349987" lon="11.666078828481986"><ele>344.0</ele><time>2026-03-29T16:45:55Z</time></trkpt><trkpt lat="43.27749434840904" lon="11.66617704087415"><ele>344.0</ele><time>2026-03-29T16:45:56Z</time></trkpt><trkpt lat="43.27748312108213" lon="11.666275507951061"><ele>344.0</ele><time>2026-03-29T16:45:56.999Z</time></trkpt><trkpt lat="43.277475804547564" lon="11.666364483759644"><ele>344.0</ele><time>2026-03-29T16:45:57.999Z</time></trkpt><trkpt lat="43.27747258840075" lon="11.66645759397904"><ele>344.00000000000006</ele><time>2026-03-29T16:45:58.999Z</time></trkpt><trkpt lat="43.2774698063182" lon="11.66655398582573"><ele>344.0</ele><time>2026-03-29T16:45:59.999Z</time></trkpt><trkpt lat="43.27747003288695" lon="11.666645247715207"><ele>345.42857142857144</ele><time>2026-03-29T16:46:00.999Z</time></trkpt><trkpt lat="43.27747443646732" lon="11.666735832464393"><ele>346.8571428571429</ele><time>2026-03-29T16:46:01.999Z</time></trkpt><trkpt lat="43.277485639169235" lon="11.666829200615709"><ele>348.28571428571433</ele><time>2026-03-29T16:46:02.999Z</time></trkpt><trkpt lat="43.27750626728228" lon="11.666918137793957"><ele>349.7142857142857</ele><time>2026-03-29T16:46:03.999Z</time></trkpt><trkpt lat="43.2775354955521" lon="11.667000340320877"><ele>351.1428571428571</ele><time>2026-03-29T16:46:04.999Z</time></trkpt><trkpt lat="43.27757616666705" lon="11.667078583283217"><ele>352.5714285714286</ele><time>2026-03-29T16:46:05.999Z</time></trkpt><trkpt lat="43.27761716675398" lon="11.667153153219935"><ele>354.0</ele><time>2026-03-29T16:46:06.999Z</time></trkpt><trkpt lat="43.27766287631788" lon="11.667224011041018"><ele>355.14285714285717</ele><time>2026-03-29T16:46:07.999Z</time></trkpt><trkpt lat="43.27771505428433" lon="11.667294139156539"><ele>356.2857142857143</ele><time>2026-03-29T16:46:08.999Z</time></trkpt><trkpt lat="43.27777104863417" lon="11.667353836306933"><ele>357.42857142857144</ele><time>2026-03-29T16:46:09.999Z</time></trkpt><trkpt lat="43.27782894647609" lon="11.667413058735768"><ele>358.57142857142856</ele><time>2026-03-29T16:46:10.999Z</time></trkpt><trkpt lat="43.27788213134104" lon="11.6674751490162"><ele>359.71428571428567</ele><time>2026-03-29T16:46:11.999Z</time></trkpt><trkpt lat="43.27792944584479" lon="11.667545662444319"><ele>360.85714285714283</ele><time>2026-03-29T16:46:12.999Z</time></trkpt><trkpt lat="43.277972765685256" lon="11.667624378360282"><ele>362.0</ele><time>2026-03-29T16:46:13.999Z</time></trkpt><trkpt lat="43.27805795721222" lon="11.667759550920328"><ele>363.8</ele><time>2026-03-29T16:46:15.999Z</time></trkpt><trkpt lat="43.278092280824794" lon="11.66784068545182"><ele>365.6</ele><time>2026-03-29T16:46:16.999Z</time></trkpt><trkpt lat="43.27814051177909" lon="11.667940287910781"><ele>367.40000000000003</ele><time>2026-03-29T16:46:18.999Z</time></trkpt><trkpt lat="43.27818755348918" lon="11.668045773667629"><ele>369.20000000000005</ele><time>2026-03-29T16:46:20.999Z</time></trkpt><trkpt lat="43.278239373545745" lon="11.668158755812819"><ele>371.0</ele><time>2026-03-29T16:46:23Z</time></trkpt><trkpt lat="43.27830115136473" lon="11.668289254946272"><ele>371.83333333333337</ele><time>2026-03-29T16:46:25Z</time></trkpt><trkpt lat="43.278365913032054" lon="11.668437772268515"><ele>372.6666666666667</ele><time>2026-03-29T16:46:27Z</time></trkpt><trkpt lat="43.27840176103941" lon="11.668509635456116"><ele>373.5</ele><time>2026-03-29T16:46:28Z</time></trkpt><trkpt lat="43.278440335161704" lon="11.66857854179799"><ele>374.3333333333333</ele><time>2026-03-29T16:46:29Z</time></trkpt><trkpt lat="43.27847466607135" lon="11.668659581200343"><ele>375.16666666666663</ele><time>2026-03-29T16:46:30Z</time></trkpt><trkpt lat="43.27853289657306" lon="11.668799196898087"><ele>376.0</ele><time>2026-03-29T16:46:32Z</time></trkpt><trkpt lat="43.278575615203806" lon="11.668933829978236"><ele>377.75</ele><time>2026-03-29T16:46:34Z</time></trkpt><trkpt lat="43.27850074598904" lon="11.669052710664525"><ele>379.5</ele><time>2026-03-29T16:46:36Z</time></trkpt><trkpt lat="43.27841005958747" lon="11.66915912815963"><ele>381.25</ele><time>2026-03-29T16:46:38Z</time></trkpt><trkpt lat="43.27833545204432" lon="11.669276982517747"><ele>383.0</ele><time>2026-03-29T16:46:40Z</time></trkpt><trkpt lat="43.278290716207366" lon="11.669404708407047"><ele>382.6666666666667</ele><time>2026-03-29T16:46:41.999Z</time></trkpt><trkpt lat="43.278273528699124" lon="11.669546133611005"><ele>382.33333333333337</ele><time>2026-03-29T16:46:43.999Z</time></trkpt><trkpt lat="43.278302179656805" lon="11.669698372840463"><ele>382.0</ele><time>2026-03-29T16:46:45.999Z</time></trkpt><trkpt lat="43.27833861249371" lon="11.669778528922198"><ele>381.6666666666667</ele><time>2026-03-29T16:46:46.999Z</time></trkpt><trkpt lat="43.27837940255202" lon="11.669858012555524"><ele>381.3333333333333</ele><time>2026-03-29T16:46:47.999Z</time></trkpt><trkpt lat="43.27842075642899" lon="11.669943949944"><ele>381.0</ele><time>2026-03-29T16:46:48.999Z</time></trkpt><trkpt lat="43.27846599254104" lon="11.670031193783966"><ele>381.0</ele><time>2026-03-29T16:46:49.999Z</time></trkpt><trkpt lat="43.27851786983159" lon="11.670103112312175"><ele>381.0</ele><time>2026-03-29T16:46:50.999Z</time></trkpt><trkpt lat="43.27857237594857" lon="11.670169326170921"><ele>381.0</ele><time>2026-03-29T16:46:51.999Z</time></trkpt><trkpt lat="43.27863230925197" lon="11.670234747724633"><ele>381.0</ele><time>2026-03-29T16:46:52.999Z</time></trkpt><trkpt lat="43.27869527745964" lon="11.670302315383356"><ele>381.0</ele><time>2026-03-29T16:46:53.999Z</time></trkpt><trkpt lat="43.278756833136825" lon="11.67037325842593"><ele>381.0</ele><time>2026-03-29T16:46:54.999Z</time></trkpt><trkpt lat="43.27881339845404" lon="11.670452684975855"><ele>382.8333333333333</ele><time>2026-03-29T16:46:55.999Z</time></trkpt><trkpt lat="43.27886308039609" lon="11.670542493348698"><ele>384.66666666666663</ele><time>2026-03-29T16:46:56.999Z</time></trkpt><trkpt lat="43.2789073823244" lon="11.670635252057815"><ele>386.5</ele><time>2026-03-29T16:46:57.999Z</time></trkpt><trkpt lat="43.2789491216139" lon="11.670730675027388"><ele>388.3333333333333</ele><time>2026-03-29T16:46:58.999Z</time></trkpt><trkpt lat="43.278988724937754" lon="11.670824596228323"><ele>390.16666666666663</ele><time>2026-03-29T16:46:59.999Z</time></trkpt><trkpt lat="43.279025402088514" lon="11.670919016687469"><ele>392.0</ele><time>2026-03-29T16:47:00.999Z</time></trkpt><trkpt lat="43.27906392306343" lon="11.671008155884731"><ele>391.99999999999994</ele><time>2026-03-29T16:47:01.999Z</time></trkpt><trkpt lat="43.279097617558634" lon="11.671100297048595"><ele>392.0</ele><time>2026-03-29T16:47:02.999Z</time></trkpt><trkpt lat="43.2791346134073" lon="11.671194365986048"><ele>392.0</ele><time>2026-03-29T16:47:03.999Z</time></trkpt><trkpt lat="43.27916806968433" lon="11.671289041445808"><ele>392.0</ele><time>2026-03-29T16:47:04.999Z</time></trkpt><trkpt lat="43.27920623822477" lon="11.671377960667632"><ele>391.99999999999994</ele><time>2026-03-29T16:47:05.999Z</time></trkpt><trkpt lat="43.279246250740776" lon="11.671466870310098"><ele>392.0</ele><time>2026-03-29T16:47:06.999Z</time></trkpt><trkpt lat="43.2792889007778" lon="11.671555356726234"><ele>389.49999999999994</ele><time>2026-03-29T16:47:07.999Z</time></trkpt><trkpt lat="43.27933872481565" lon="11.671634460285567"><ele>387.0</ele><time>2026-03-29T16:47:08.999Z</time></trkpt><trkpt lat="43.27940646237239" lon="11.671697916847918"><ele>384.5</ele><time>2026-03-29T16:47:09.999Z</time></trkpt><trkpt lat="43.279477944564896" lon="11.67173937230355"><ele>382.0</ele><time>2026-03-29T16:47:10.999Z</time></trkpt><trkpt lat="43.279554355698984" lon="11.671770534302901"><ele>379.5</ele><time>2026-03-29T16:47:11.999Z</time></trkpt><trkpt lat="43.27963166927327" lon="11.671798042705719"><ele>377.0</ele><time>2026-03-29T16:47:12.999Z</time></trkpt><trkpt lat="43.27970488186207" lon="11.671835054534643"><ele>378.6666666666667</ele><time>2026-03-29T16:47:13.999Z</time></trkpt><trkpt lat="43.27976962742946" lon="11.671899714517277"><ele>380.33333333333337</ele><time>2026-03-29T16:47:14.999Z</time></trkpt><trkpt lat="43.27981399683942" lon="11.671989566418535"><ele>382.0</ele><time>2026-03-29T16:47:15.999Z</time></trkpt><trkpt lat="43.27984782630399" lon="11.67208854858421"><ele>383.6666666666667</ele><time>2026-03-29T16:47:16.999Z</time></trkpt><trkpt lat="43.2798700912713" lon="11.672196822148685"><ele>385.3333333333333</ele><time>2026-03-29T16:47:17.999Z</time></trkpt><trkpt lat="43.27987742904001" lon="11.672303194944428"><ele>387.0</ele><time>2026-03-29T16:47:18.999Z</time></trkpt><trkpt lat="43.27984648340172" lon="11.672394255805292"><ele>387.0</ele><time>2026-03-29T16:47:19.999Z</time></trkpt><trkpt lat="43.27981499384833" lon="11.672485237014309"><ele>387.0</ele><time>2026-03-29T16:47:20.999Z</time></trkpt><trkpt lat="43.27979277649466" lon="11.672583643404877"><ele>387.0</ele><time>2026-03-29T16:47:21.999Z</time></trkpt><trkpt lat="43.27975466872727" lon="11.67266796482786"><ele>387.0</ele><time>2026-03-29T16:47:22.999Z</time></trkpt><trkpt lat="43.2797265513456" lon="11.672842162259911"><ele>387.0</ele><time>2026-03-29T16:47:24.999Z</time></trkpt><trkpt lat="43.279742994120866" lon="11.67294557431892"><ele>387.0</ele><time>2026-03-29T16:47:25.999Z</time></trkpt><trkpt lat="43.27979621803858" lon="11.67302890652974"><ele>385.6666666666667</ele><time>2026-03-29T16:47:26.999Z</time></trkpt><trkpt lat="43.279842680656095" lon="11.673115209449836"><ele>384.3333333333333</ele><time>2026-03-29T16:47:27.999Z</time></trkpt><trkpt lat="43.2799021497433" lon="11.673196960124264"><ele>383.0</ele><time>2026-03-29T16:47:28.999Z</time></trkpt><trkpt lat="43.27997273560586" lon="11.673274972722337"><ele>381.66666666666663</ele><time>2026-03-29T16:47:29.999Z</time></trkpt><trkpt lat="43.2800450369614" lon="11.67335105488524"><ele>380.3333333333333</ele><time>2026-03-29T16:47:30.999Z</time></trkpt><trkpt lat="43.28012185692725" lon="11.673430852529654"><ele>379.0</ele><time>2026-03-29T16:47:31.999Z</time></trkpt><trkpt lat="43.28018395710908" lon="11.673527832809294"><ele>376.0</ele><time>2026-03-29T16:47:32.999Z</time></trkpt><trkpt lat="43.28025075650719" lon="11.673610042609543"><ele>373.0</ele><time>2026-03-29T16:47:33.999Z</time></trkpt><trkpt lat="43.280324168892925" lon="11.673683083303885"><ele>370.0</ele><time>2026-03-29T16:47:34.999Z</time></trkpt><trkpt lat="43.28038278091265" lon="11.673772998027145"><ele>367.0</ele><time>2026-03-29T16:47:35.999Z</time></trkpt><trkpt lat="43.28044351301582" lon="11.673860016742497"><ele>364.0</ele><time>2026-03-29T16:47:36.999Z</time></trkpt><trkpt lat="43.280506482796646" lon="11.673938170281215"><ele>361.0</ele><time>2026-03-29T16:47:37.999Z</time></trkpt><trkpt lat="43.28057058853161" lon="11.67401125467872"><ele>360.5</ele><time>2026-03-29T16:47:38.999Z</time></trkpt><trkpt lat="43.280613222917864" lon="11.674106714810168"><ele>360.0</ele><time>2026-03-29T16:47:39.999Z</time></trkpt><trkpt lat="43.28066572498608" lon="11.674189121204277"><ele>359.5</ele><time>2026-03-29T16:47:40.999Z</time></trkpt><trkpt lat="43.28071748564022" lon="11.674273128924087"><ele>359.0</ele><time>2026-03-29T16:47:41.999Z</time></trkpt><trkpt lat="43.28077410356109" lon="11.674365020015852"><ele>358.5</ele><time>2026-03-29T16:47:42.999Z</time></trkpt><trkpt lat="43.28083939748668" lon="11.674438752625978"><ele>358.0</ele><time>2026-03-29T16:47:43.999Z</time></trkpt><trkpt lat="43.28089237367718" lon="11.67452931962342"><ele>358.0</ele><time>2026-03-29T16:47:44.999Z</time></trkpt><trkpt lat="43.28094531578496" lon="11.674618923086586"><ele>358.0</ele><time>2026-03-29T16:47:45.999Z</time></trkpt><trkpt lat="43.28100310337198" lon="11.67470463474556"><ele>358.0</ele><time>2026-03-29T16:47:46.999Z</time></trkpt><trkpt lat="43.281062488288725" lon="11.674791431376528"><ele>358.0</ele><time>2026-03-29T16:47:47.999Z</time></trkpt><trkpt lat="43.281124517191834" lon="11.674878695575886"><ele>358.0</ele><time>2026-03-29T16:47:48.999Z</time></trkpt><trkpt lat="43.28119080776337" lon="11.674963586625134"><ele>358.0</ele><time>2026-03-29T16:47:49.999Z</time></trkpt><trkpt lat="43.28126289073333" lon="11.675036063781748"><ele>358.0</ele><time>2026-03-29T16:47:50.999Z</time></trkpt><trkpt lat="43.28134006918397" lon="11.675095324370421"><ele>358.0</ele><time>2026-03-29T16:47:51.999Z</time></trkpt><trkpt lat="43.28142194551511" lon="11.675142095709063"><ele>358.0</ele><time>2026-03-29T16:47:52.999Z</time></trkpt><trkpt lat="43.28150801699985" lon="11.67517222365068"><ele>358.0</ele><time>2026-03-29T16:47:53.999Z</time></trkpt><trkpt lat="43.28159540556798" lon="11.675196349465187"><ele>358.0</ele><time>2026-03-29T16:47:54.999Z</time></trkpt><trkpt lat="43.281686978595644" lon="11.675214596532594"><ele>358.0</ele><time>2026-03-29T16:47:55.999Z</time></trkpt><trkpt lat="43.2817771833486" lon="11.675227246654952"><ele>357.8333333333333</ele><time>2026-03-29T16:47:56.999Z</time></trkpt><trkpt lat="43.281873113037655" lon="11.675254472656837"><ele>357.66666666666663</ele><time>2026-03-29T16:47:57.999Z</time></trkpt><trkpt lat="43.28195548830879" lon="11.67528273787906"><ele>357.5</ele><time>2026-03-29T16:47:58.999Z</time></trkpt><trkpt lat="43.282037949267306" lon="11.675311403062857"><ele>357.3333333333333</ele><time>2026-03-29T16:47:59.999Z</time></trkpt><trkpt lat="43.28211815866515" lon="11.675333174445663"><ele>357.1666666666667</ele><time>2026-03-29T16:48:00.999Z</time></trkpt><trkpt lat="43.282199316072656" lon="11.675351199767569"><ele>357.0</ele><time>2026-03-29T16:48:01.999Z</time></trkpt><trkpt lat="43.28228103485927" lon="11.675377056536785"><ele>356.5</ele><time>2026-03-29T16:48:02.999Z</time></trkpt><trkpt lat="43.282363667828896" lon="11.675397031775255"><ele>356.0</ele><time>2026-03-29T16:48:03.999Z</time></trkpt><trkpt lat="43.28245086858408" lon="11.675412153000691"><ele>355.5</ele><time>2026-03-29T16:48:04.999Z</time></trkpt><trkpt lat="43.282536825896656" lon="11.675424811444554"><ele>355.0</ele><time>2026-03-29T16:48:05.999Z</time></trkpt><trkpt lat="43.2826215659487" lon="11.675433469338099"><ele>354.5</ele><time>2026-03-29T16:48:06.999Z</time></trkpt><trkpt lat="43.28270081215037" lon="11.675454036766753"><ele>354.0</ele><time>2026-03-29T16:48:07.999Z</time></trkpt><trkpt lat="43.2827722330806" lon="11.675505837146535"><ele>354.0</ele><time>2026-03-29T16:48:08.999Z</time></trkpt><trkpt lat="43.282847943335" lon="11.675550743729909"><ele>354.0</ele><time>2026-03-29T16:48:09.999Z</time></trkpt><trkpt lat="43.28292598150876" lon="11.675601259632163"><ele>354.0</ele><time>2026-03-29T16:48:10.999Z</time></trkpt><trkpt lat="43.2829845662916" lon="11.67569099490719"><ele>354.0</ele><time>2026-03-29T16:48:11.999Z</time></trkpt><trkpt lat="43.28305507674111" lon="11.675769984055204"><ele>354.0</ele><time>2026-03-29T16:48:12.999Z</time></trkpt><trkpt lat="43.28311335246462" lon="11.67583935070719"><ele>354.0</ele><time>2026-03-29T16:48:13.999Z</time></trkpt><trkpt lat="43.28316514297422" lon="11.675935742804233"><ele>353.5</ele><time>2026-03-29T16:48:14.999Z</time></trkpt><trkpt lat="43.28322430589366" lon="11.676018846766885"><ele>353.0</ele><time>2026-03-29T16:48:15.999Z</time></trkpt><trkpt lat="43.28328214013293" lon="11.676097669262544"><ele>352.5</ele><time>2026-03-29T16:48:16.999Z</time></trkpt><trkpt lat="43.283336221488824" lon="11.676172601777054"><ele>352.0</ele><time>2026-03-29T16:48:17.999Z</time></trkpt><trkpt lat="43.283389876381456" lon="11.67624895020098"><ele>351.5</ele><time>2026-03-29T16:48:18.999Z</time></trkpt><trkpt lat="43.283449012450696" lon="11.676333098101704"><ele>351.0</ele><time>2026-03-29T16:48:19.999Z</time></trkpt><trkpt lat="43.28350442093233" lon="11.676387406038215"><ele>351.0</ele><time>2026-03-29T16:48:20.999Z</time></trkpt><trkpt lat="43.28356916561232" lon="11.676482837065427"><ele>351.0</ele><time>2026-03-29T16:48:21.999Z</time></trkpt><trkpt lat="43.28361237806883" lon="11.676564211744822"><ele>351.0</ele><time>2026-03-29T16:48:22.999Z</time></trkpt><trkpt lat="43.283659801258736" lon="11.676626610701371"><ele>351.0</ele><time>2026-03-29T16:48:23.999Z</time></trkpt><trkpt lat="43.283722588597215" lon="11.676680268934065"><ele>351.0</ele><time>2026-03-29T16:48:24.999Z</time></trkpt><trkpt lat="43.28377266190074" lon="11.676755149268397"><ele>351.0</ele><time>2026-03-29T16:48:25.999Z</time></trkpt><trkpt lat="43.283831786094225" lon="11.676816129058206"><ele>351.0</ele><time>2026-03-29T16:48:26.999Z</time></trkpt><trkpt lat="43.2838970473412" lon="11.676867096701141"><ele>351.0</ele><time>2026-03-29T16:48:28Z</time></trkpt><trkpt lat="43.2839675560493" lon="11.676898567636961"><ele>351.0</ele><time>2026-03-29T16:48:29Z</time></trkpt><trkpt lat="43.28404495932587" lon="11.676910831840635"><ele>351.0</ele><time>2026-03-29T16:48:30Z</time></trkpt><trkpt lat="43.28412428607333" lon="11.676922448027007"><ele>351.0</ele><time>2026-03-29T16:48:31Z</time></trkpt><trkpt lat="43.2842048920929" lon="11.676931638918088"><ele>351.0</ele><time>2026-03-29T16:48:32Z</time></trkpt><trkpt lat="43.28428895917724" lon="11.676936701452542"><ele>350.5</ele><time>2026-03-29T16:48:33Z</time></trkpt><trkpt lat="43.284373055738634" lon="11.676941694703403"><ele>350.0</ele><time>2026-03-29T16:48:34Z</time></trkpt><trkpt lat="43.284455192137095" lon="11.676951320330662"><ele>349.5</ele><time>2026-03-29T16:48:35Z</time></trkpt><trkpt lat="43.28453821195836" lon="11.676953536887765"><ele>349.0</ele><time>2026-03-29T16:48:36Z</time></trkpt><trkpt lat="43.28461871253014" lon="11.676969709520248"><ele>348.5</ele><time>2026-03-29T16:48:37Z</time></trkpt><trkpt lat="43.28469890633529" lon="11.676998740928944"><ele>348.0</ele><time>2026-03-29T16:48:38Z</time></trkpt><trkpt lat="43.28477194645828" lon="11.67703461051304"><ele>347.1666666666667</ele><time>2026-03-29T16:48:39Z</time></trkpt><trkpt lat="43.28484174105047" lon="11.677087578732001"><ele>346.3333333333333</ele><time>2026-03-29T16:48:40Z</time></trkpt><trkpt lat="43.28490876608624" lon="11.67714800892323"><ele>345.5</ele><time>2026-03-29T16:48:41Z</time></trkpt><trkpt lat="43.28496746204464" lon="11.677229249178419"><ele>344.66666666666663</ele><time>2026-03-29T16:48:42Z</time></trkpt><trkpt lat="43.285014491487544" lon="11.677320143522362"><ele>343.8333333333333</ele><time>2026-03-29T16:48:43Z</time></trkpt><trkpt lat="43.28505558067292" lon="11.67742404480462"><ele>343.0</ele><time>2026-03-29T16:48:44Z</time></trkpt><trkpt lat="43.28510066664243" lon="11.677525960088541"><ele>343.0</ele><time>2026-03-29T16:48:45Z</time></trkpt><trkpt lat="43.285141662826184" lon="11.677633015660133"><ele>343.0</ele><time>2026-03-29T16:48:46Z</time></trkpt><trkpt lat="43.28517794521409" lon="11.677737398378314"><ele>343.0</ele><time>2026-03-29T16:48:47Z</time></trkpt><trkpt lat="43.28521209251146" lon="11.677842653742665"><ele>343.0</ele><time>2026-03-29T16:48:48Z</time></trkpt><trkpt lat="43.285242912270405" lon="11.677952359605742"><ele>343.0</ele><time>2026-03-29T16:48:49Z</time></trkpt><trkpt lat="43.285275730646184" lon="11.678064557379917"><ele>343.0</ele><time>2026-03-29T16:48:50Z</time></trkpt><trkpt lat="43.28529188350819" lon="11.678180431293757"><ele>343.5</ele><time>2026-03-29T16:48:51Z</time></trkpt><trkpt lat="43.28532108856695" lon="11.678286013990718"><ele>344.0</ele><time>2026-03-29T16:48:52Z</time></trkpt><trkpt lat="43.2853506819893" lon="11.678393000781714"><ele>344.5</ele><time>2026-03-29T16:48:53Z</time></trkpt><trkpt lat="43.28539450620398" lon="11.678496492741322"><ele>345.0</ele><time>2026-03-29T16:48:54Z</time></trkpt><trkpt lat="43.285419925427675" lon="11.678601482942325"><ele>345.5</ele><time>2026-03-29T16:48:55Z</time></trkpt><trkpt lat="43.28543037739901" lon="11.678695215648116"><ele>346.0</ele><time>2026-03-29T16:48:56Z</time></trkpt><trkpt lat="43.285379094303174" lon="11.678866419862993"><ele>347.0</ele><time>2026-03-29T16:48:58Z</time></trkpt><trkpt lat="43.28533223019385" lon="11.67894623213779"><ele>348.0</ele><time>2026-03-29T16:48:59Z</time></trkpt><trkpt lat="43.28529178920358" lon="11.679033217421619"><ele>349.0</ele><time>2026-03-29T16:49:00Z</time></trkpt><trkpt lat="43.28526004221059" lon="11.679119704770796"><ele>350.0</ele><time>2026-03-29T16:49:00.999Z</time></trkpt><trkpt lat="43.28523265189029" lon="11.679216464893065"><ele>351.0</ele><time>2026-03-29T16:49:01.999Z</time></trkpt><trkpt lat="43.285208965989284" lon="11.679315457947679"><ele>352.0</ele><time>2026-03-29T16:49:02.999Z</time></trkpt><trkpt lat="43.28518739041912" lon="11.679412696855312"><ele>353.0</ele><time>2026-03-29T16:49:03.999Z</time></trkpt><trkpt lat="43.285168056211766" lon="11.679508938354969"><ele>353.85714285714283</ele><time>2026-03-29T16:49:04.999Z</time></trkpt><trkpt lat="43.285147579077616" lon="11.679599781717641"><ele>354.7142857142857</ele><time>2026-03-29T16:49:05.999Z</time></trkpt><trkpt lat="43.28512519528795" lon="11.679695982450987"><ele>355.57142857142856</ele><time>2026-03-29T16:49:06.999Z</time></trkpt><trkpt lat="43.28511028629066" lon="11.67979692656683"><ele>356.42857142857144</ele><time>2026-03-29T16:49:07.999Z</time></trkpt><trkpt lat="43.28509646750051" lon="11.67989729110422"><ele>357.28571428571433</ele><time>2026-03-29T16:49:08.999Z</time></trkpt><trkpt lat="43.28508555999187" lon="11.679994639675423"><ele>358.14285714285717</ele><time>2026-03-29T16:49:09.999Z</time></trkpt><trkpt lat="43.285081607080485" lon="11.680099708189017"><ele>359.0</ele><time>2026-03-29T16:49:10.999Z</time></trkpt><trkpt lat="43.285080777935676" lon="11.6802060133748"><ele>358.5</ele><time>2026-03-29T16:49:11.999Z</time></trkpt><trkpt lat="43.28507970704966" lon="11.680315834766823"><ele>358.0</ele><time>2026-03-29T16:49:12.999Z</time></trkpt><trkpt lat="43.28508028167341" lon="11.680427369615336"><ele>357.5</ele><time>2026-03-29T16:49:13.999Z</time></trkpt><trkpt lat="43.285086877709766" lon="11.680545497636674"><ele>357.0</ele><time>2026-03-29T16:49:14.999Z</time></trkpt><trkpt lat="43.28509806536348" lon="11.680660998928238"><ele>356.5</ele><time>2026-03-29T16:49:15.999Z</time></trkpt><trkpt lat="43.28511701373425" lon="11.68077562804215"><ele>356.0</ele><time>2026-03-29T16:49:16.999Z</time></trkpt><trkpt lat="43.28513966017335" lon="11.680890310184408"><ele>356.0</ele><time>2026-03-29T16:49:17.999Z</time></trkpt><trkpt lat="43.285163058466814" lon="11.681002987118376"><ele>356.0</ele><time>2026-03-29T16:49:18.999Z</time></trkpt><trkpt lat="43.285179438481386" lon="11.681125264605829"><ele>356.0</ele><time>2026-03-29T16:49:19.999Z</time></trkpt><trkpt lat="43.28519110397318" lon="11.68124707480154"><ele>356.0</ele><time>2026-03-29T16:49:20.999Z</time></trkpt><trkpt lat="43.28520111026193" lon="11.681371292582023"><ele>356.0</ele><time>2026-03-29T16:49:21.999Z</time></trkpt><trkpt lat="43.28521018875058" lon="11.681494890732226"><ele>356.0</ele><time>2026-03-29T16:49:22.999Z</time></trkpt><trkpt lat="43.285215544989526" lon="11.681619323782243"><ele>355.0</ele><time>2026-03-29T16:49:23.999Z</time></trkpt><trkpt lat="43.28520968859431" lon="11.681743573020414"><ele>354.0</ele><time>2026-03-29T16:49:24.999Z</time></trkpt><trkpt lat="43.285196897464836" lon="11.681870316039236"><ele>353.0</ele><time>2026-03-29T16:49:25.999Z</time></trkpt><trkpt lat="43.28518462706078" lon="11.681996362888837"><ele>352.0</ele><time>2026-03-29T16:49:26.999Z</time></trkpt><trkpt lat="43.28517882685815" lon="11.682128760612411"><ele>351.0</ele><time>2026-03-29T16:49:27.999Z</time></trkpt><trkpt lat="43.28518039556248" lon="11.68226120831886"><ele>350.20000000000005</ele><time>2026-03-29T16:49:28.999Z</time></trkpt><trkpt lat="43.28518096862483" lon="11.682392316922941"><ele>349.40000000000003</ele><time>2026-03-29T16:49:29.999Z</time></trkpt><trkpt lat="43.28517853987446" lon="11.682526450753029"><ele>348.6</ele><time>2026-03-29T16:49:30.999Z</time></trkpt><trkpt lat="43.28517987283112" lon="11.682655019011785"><ele>347.8</ele><time>2026-03-29T16:49:31.999Z</time></trkpt><trkpt lat="43.28517869845262" lon="11.6827890314515"><ele>347.0</ele><time>2026-03-29T16:49:32.999Z</time></trkpt><trkpt lat="43.28517784553608" lon="11.682924390337623"><ele>345.20000000000005</ele><time>2026-03-29T16:49:33.999Z</time></trkpt><trkpt lat="43.28517856762213" lon="11.683059000150404"><ele>343.4</ele><time>2026-03-29T16:49:34.999Z</time></trkpt><trkpt lat="43.28518212637444" lon="11.68319348524276"><ele>341.6</ele><time>2026-03-29T16:49:35.999Z</time></trkpt><trkpt lat="43.28519217294769" lon="11.683326069020003"><ele>339.79999999999995</ele><time>2026-03-29T16:49:36.999Z</time></trkpt><trkpt lat="43.28521149084116" lon="11.683458449982188"><ele>338.0</ele><time>2026-03-29T16:49:37.999Z</time></trkpt><trkpt lat="43.28523077574469" lon="11.683591018801845"><ele>336.79999999999995</ele><time>2026-03-29T16:49:38.999Z</time></trkpt><trkpt lat="43.28525239033799" lon="11.68372716710449"><ele>335.6</ele><time>2026-03-29T16:49:39.999Z</time></trkpt><trkpt lat="43.28527435077558" lon="11.683866821375712"><ele>334.4</ele><time>2026-03-29T16:49:40.999Z</time></trkpt><trkpt lat="43.28529636488671" lon="11.684008290312638"><ele>333.20000000000005</ele><time>2026-03-29T16:49:41.999Z</time></trkpt><trkpt lat="43.28531797267135" lon="11.684153856997494"><ele>332.0</ele><time>2026-03-29T16:49:42.999Z</time></trkpt><trkpt lat="43.28533834804231" lon="11.684303984662188"><ele>331.5</ele><time>2026-03-29T16:49:43.999Z</time></trkpt><trkpt lat="43.285359419037334" lon="11.684456519890624"><ele>331.0</ele><time>2026-03-29T16:49:44.999Z</time></trkpt><trkpt lat="43.28537204494137" lon="11.68461582357602"><ele>330.5</ele><time>2026-03-29T16:49:45.999Z</time></trkpt><trkpt lat="43.285371713969234" lon="11.684780773113532"><ele>330.0</ele><time>2026-03-29T16:49:46.999Z</time></trkpt><trkpt lat="43.285359964886766" lon="11.684947755977136"><ele>330.0</ele><time>2026-03-29T16:49:47.999Z</time></trkpt><trkpt lat="43.28534755542653" lon="11.68511603395154"><ele>330.0</ele><time>2026-03-29T16:49:48.999Z</time></trkpt><trkpt lat="43.28533111165614" lon="11.685282128814725"><ele>330.0</ele><time>2026-03-29T16:49:49.999Z</time></trkpt><trkpt lat="43.2853153107997" lon="11.685441693540433"><ele>330.0</ele><time>2026-03-29T16:49:50.999Z</time></trkpt><trkpt lat="43.285301787102355" lon="11.685599090879293"><ele>328.8</ele><time>2026-03-29T16:49:51.999Z</time></trkpt><trkpt lat="43.285289875649475" lon="11.685750892772885"><ele>327.6</ele><time>2026-03-29T16:49:52.999Z</time></trkpt><trkpt lat="43.285258347469124" lon="11.68590056106301"><ele>326.4</ele><time>2026-03-29T16:49:53.999Z</time></trkpt><trkpt lat="43.28522065100126" lon="11.68604406893016"><ele>325.2</ele><time>2026-03-29T16:49:54.999Z</time></trkpt><trkpt lat="43.28518895987796" lon="11.686188868214904"><ele>324.0</ele><time>2026-03-29T16:49:55.999Z</time></trkpt><trkpt lat="43.2851530475507" lon="11.686330888757585"><ele>323.2</ele><time>2026-03-29T16:49:56.999Z</time></trkpt><trkpt lat="43.285118679532694" lon="11.68647228439344"><ele>322.4</ele><time>2026-03-29T16:49:57.999Z</time></trkpt><trkpt lat="43.285081662314994" lon="11.686611443786639"><ele>321.6</ele><time>2026-03-29T16:49:58.999Z</time></trkpt><trkpt lat="43.2850501925337" lon="11.68675151014252"><ele>320.8</ele><time>2026-03-29T16:49:59.999Z</time></trkpt><trkpt lat="43.28501973878902" lon="11.686888768439228"><ele>320.0</ele><time>2026-03-29T16:50:00.999Z</time></trkpt><trkpt lat="43.28498269336982" lon="11.687025224457075"><ele>319.8</ele><time>2026-03-29T16:50:01.999Z</time></trkpt><trkpt lat="43.284947361480576" lon="11.68716400175065"><ele>319.6</ele><time>2026-03-29T16:50:02.999Z</time></trkpt><trkpt lat="43.28491238012877" lon="11.687302916817963"><ele>319.4</ele><time>2026-03-29T16:50:03.999Z</time></trkpt><trkpt lat="43.28487627347561" lon="11.687445461862104"><ele>319.2</ele><time>2026-03-29T16:50:04.999Z</time></trkpt><trkpt lat="43.284843942471554" lon="11.68758736909577"><ele>319.0</ele><time>2026-03-29T16:50:05.999Z</time></trkpt><trkpt lat="43.28481543943594" lon="11.68772936031697"><ele>319.0</ele><time>2026-03-29T16:50:06.999Z</time></trkpt><trkpt lat="43.28478755775248" lon="11.687871709797642"><ele>319.0</ele><time>2026-03-29T16:50:07.999Z</time></trkpt><trkpt lat="43.284757336323736" lon="11.688012769652575"><ele>319.0</ele><time>2026-03-29T16:50:08.999Z</time></trkpt><trkpt lat="43.284724439701925" lon="11.688150643772902"><ele>319.0</ele><time>2026-03-29T16:50:09.999Z</time></trkpt><trkpt lat="43.28469250286415" lon="11.688289393403812"><ele>319.0</ele><time>2026-03-29T16:50:10.999Z</time></trkpt><trkpt lat="43.28466421145425" lon="11.688427553447854"><ele>318.59999999999997</ele><time>2026-03-29T16:50:11.999Z</time></trkpt><trkpt lat="43.28463676225273" lon="11.688565489338597"><ele>318.2</ele><time>2026-03-29T16:50:12.999Z</time></trkpt><trkpt lat="43.284606938720344" lon="11.688704633687982"><ele>317.79999999999995</ele><time>2026-03-29T16:50:13.999Z</time></trkpt><trkpt lat="43.28457858900027" lon="11.688844230397995"><ele>317.4</ele><time>2026-03-29T16:50:14.999Z</time></trkpt><trkpt lat="43.284556361406906" lon="11.6889833754553"><ele>317.0</ele><time>2026-03-29T16:50:15.999Z</time></trkpt><trkpt lat="43.284543548449065" lon="11.68912435157544"><ele>317.0</ele><time>2026-03-29T16:50:16.999Z</time></trkpt><trkpt lat="43.284535133418316" lon="11.68926678259552"><ele>317.0</ele><time>2026-03-29T16:50:17.999Z</time></trkpt><trkpt lat="43.284526896641886" lon="11.689411293334032"><ele>317.0</ele><time>2026-03-29T16:50:18.999Z</time></trkpt><trkpt lat="43.28451351857101" lon="11.68955245375205"><ele>317.0</ele><time>2026-03-29T16:50:19.999Z</time></trkpt><trkpt lat="43.28448544577458" lon="11.689694992553337"><ele>317.0</ele><time>2026-03-29T16:50:20.999Z</time></trkpt><trkpt lat="43.284443583695435" lon="11.68982905756698"><ele>315.6</ele><time>2026-03-29T16:50:21.999Z</time></trkpt><trkpt lat="43.28439560507844" lon="11.68995826500865"><ele>314.2</ele><time>2026-03-29T16:50:22.999Z</time></trkpt><trkpt lat="43.28435694147676" lon="11.690084184849553"><ele>312.8</ele><time>2026-03-29T16:50:23.999Z</time></trkpt><trkpt lat="43.28432487713786" lon="11.690219489912776"><ele>311.4</ele><time>2026-03-29T16:50:24.999Z</time></trkpt><trkpt lat="43.28429439050964" lon="11.690355202943898"><ele>310.0</ele><time>2026-03-29T16:50:25.999Z</time></trkpt><trkpt lat="43.28426116333618" lon="11.690489541895793"><ele>309.0</ele><time>2026-03-29T16:50:26.999Z</time></trkpt><trkpt lat="43.28421702373135" lon="11.690615059579796"><ele>308.0</ele><time>2026-03-29T16:50:27.999Z</time></trkpt><trkpt lat="43.28415322560927" lon="11.690728516292276"><ele>307.0</ele><time>2026-03-29T16:50:28.999Z</time></trkpt><trkpt lat="43.284066221948066" lon="11.690804913831274"><ele>306.0</ele><time>2026-03-29T16:50:29.999Z</time></trkpt><trkpt lat="43.28397754979147" lon="11.690876691158373"><ele>305.0</ele><time>2026-03-29T16:50:30.999Z</time></trkpt><trkpt lat="43.28388462020013" lon="11.690937702450706"><ele>305.2</ele><time>2026-03-29T16:50:31.999Z</time></trkpt><trkpt lat="43.283791641370996" lon="11.69099825081907"><ele>305.4</ele><time>2026-03-29T16:50:32.999Z</time></trkpt><trkpt lat="43.283701436182426" lon="11.69106921845193"><ele>305.6</ele><time>2026-03-29T16:50:34Z</time></trkpt><trkpt lat="43.2836154274296" lon="11.69115374909531"><ele>305.8</ele><time>2026-03-29T16:50:35Z</time></trkpt><trkpt lat="43.283538019866995" lon="11.691249680078908"><ele>306.0</ele><time>2026-03-29T16:50:36Z</time></trkpt><trkpt lat="43.28347119553615" lon="11.691357029212181"><ele>306.0</ele><time>2026-03-29T16:50:37Z</time></trkpt><trkpt lat="43.28342128946719" lon="11.691488029779535"><ele>306.0</ele><time>2026-03-29T16:50:38Z</time></trkpt><trkpt lat="43.28338538299561" lon="11.69162304020743"><ele>306.0</ele><time>2026-03-29T16:50:39Z</time></trkpt><trkpt lat="43.28335007453006" lon="11.691760934663264"><ele>306.0</ele><time>2026-03-29T16:50:40Z</time></trkpt><trkpt lat="43.283310874606535" lon="11.691891159594869"><ele>306.0</ele><time>2026-03-29T16:50:41Z</time></trkpt><trkpt lat="43.28327329995895" lon="11.692017272895079"><ele>305.6</ele><time>2026-03-29T16:50:42Z</time></trkpt><trkpt lat="43.28323091280078" lon="11.692140512758355"><ele>305.20000000000005</ele><time>2026-03-29T16:50:43Z</time></trkpt><trkpt lat="43.28318978314787" lon="11.692259245122994"><ele>304.79999999999995</ele><time>2026-03-29T16:50:44Z</time></trkpt><trkpt lat="43.283148148862026" lon="11.692375687671754"><ele>304.4</ele><time>2026-03-29T16:50:45Z</time></trkpt><trkpt lat="43.283105035562464" lon="11.692488749651945"><ele>304.0</ele><time>2026-03-29T16:50:46Z</time></trkpt><trkpt lat="43.283060322719216" lon="11.69260699169939"><ele>304.2</ele><time>2026-03-29T16:50:47Z</time></trkpt><trkpt lat="43.28302180819573" lon="11.692721500028492"><ele>304.4</ele><time>2026-03-29T16:50:48Z</time></trkpt><trkpt lat="43.282980398690114" lon="11.692838560229882"><ele>304.6</ele><time>2026-03-29T16:50:49Z</time></trkpt><trkpt lat="43.282950792037674" lon="11.692937830019138"><ele>304.8</ele><time>2026-03-29T16:50:50Z</time></trkpt><trkpt lat="43.28290732479814" lon="11.693064644980272"><ele>305.0</ele><time>2026-03-29T16:50:51Z</time></trkpt><trkpt lat="43.28286821872766" lon="11.693181170506081"><ele>305.0</ele><time>2026-03-29T16:50:52Z</time></trkpt><trkpt lat="43.282827888148006" lon="11.693297640525934"><ele>305.0</ele><time>2026-03-29T16:50:53Z</time></trkpt><trkpt lat="43.282786150518255" lon="11.693413915009467"><ele>305.0</ele><time>2026-03-29T16:50:54Z</time></trkpt><trkpt lat="43.28274231515036" lon="11.693529972159698"><ele>305.0</ele><time>2026-03-29T16:50:55Z</time></trkpt><trkpt lat="43.282697694412285" lon="11.69365265656122"><ele>305.0</ele><time>2026-03-29T16:50:56Z</time></trkpt><trkpt lat="43.28264971135163" lon="11.693772856399457"><ele>303.6</ele><time>2026-03-29T16:50:57Z</time></trkpt><trkpt lat="43.282602092444364" lon="11.69389969349106"><ele>302.2</ele><time>2026-03-29T16:50:58Z</time></trkpt><trkpt lat="43.2825610967051" lon="11.69403127275488"><ele>300.8</ele><time>2026-03-29T16:50:59Z</time></trkpt><trkpt lat="43.282526276602006" lon="11.694170171207801"><ele>299.4</ele><time>2026-03-29T16:51:00Z</time></trkpt><trkpt lat="43.282496217395234" lon="11.694306220500149"><ele>298.0</ele><time>2026-03-29T16:51:01Z</time></trkpt><trkpt lat="43.28247068534576" lon="11.694446448250943"><ele>298.0</ele><time>2026-03-29T16:51:02Z</time></trkpt><trkpt lat="43.282443341214126" lon="11.69456845571608"><ele>298.0</ele><time>2026-03-29T16:51:03Z</time></trkpt><trkpt lat="43.282401186990086" lon="11.694690934695775"><ele>298.0</ele><time>2026-03-29T16:51:04Z</time></trkpt><trkpt lat="43.282353415563534" lon="11.694809658883273"><ele>298.0</ele><time>2026-03-29T16:51:05Z</time></trkpt><trkpt lat="43.282310925186" lon="11.694929182738218"><ele>298.0</ele><time>2026-03-29T16:51:06Z</time></trkpt><trkpt lat="43.282275532893394" lon="11.695055285534977"><ele>298.0</ele><time>2026-03-29T16:51:07Z</time></trkpt><trkpt lat="43.28225821169988" lon="11.695190336747407"><ele>298.0</ele><time>2026-03-29T16:51:08Z</time></trkpt><trkpt lat="43.282249067868165" lon="11.69533016737187"><ele>298.0</ele><time>2026-03-29T16:51:09Z</time></trkpt><trkpt lat="43.282234498146416" lon="11.69547118234532"><ele>298.0</ele><time>2026-03-29T16:51:10Z</time></trkpt><trkpt lat="43.28220450049842" lon="11.69561460159999"><ele>298.0</ele><time>2026-03-29T16:51:11Z</time></trkpt><trkpt lat="43.282162925368574" lon="11.695748490940943"><ele>297.0</ele><time>2026-03-29T16:51:12Z</time></trkpt><trkpt lat="43.28211325520207" lon="11.695878707861043"><ele>296.0</ele><time>2026-03-29T16:51:13Z</time></trkpt><trkpt lat="43.28205706769567" lon="11.695995689698444"><ele>295.0</ele><time>2026-03-29T16:51:14Z</time></trkpt><trkpt lat="43.281999205887125" lon="11.69611605734937"><ele>294.0</ele><time>2026-03-29T16:51:15Z</time></trkpt><trkpt lat="43.28194193044543" lon="11.6962331403457"><ele>293.0</ele><time>2026-03-29T16:51:15.999Z</time></trkpt><trkpt lat="43.281885750021516" lon="11.696346844726994"><ele>293.2</ele><time>2026-03-29T16:51:16.999Z</time></trkpt><trkpt lat="43.28183132799982" lon="11.696459952851471"><ele>293.4</ele><time>2026-03-29T16:51:17.999Z</time></trkpt><trkpt lat="43.28178345022814" lon="11.69657800918954"><ele>293.59999999999997</ele><time>2026-03-29T16:51:18.999Z</time></trkpt><trkpt lat="43.28174575999246" lon="11.696697011678129"><ele>293.8</ele><time>2026-03-29T16:51:19.999Z</time></trkpt><trkpt lat="43.281717253537074" lon="11.69682236545641"><ele>294.0</ele><time>2026-03-29T16:51:20.999Z</time></trkpt><trkpt lat="43.281697913849825" lon="11.69695309142189"><ele>294.0</ele><time>2026-03-29T16:51:21.999Z</time></trkpt><trkpt lat="43.28167961753915" lon="11.697082432678407"><ele>294.0</ele><time>2026-03-29T16:51:22.999Z</time></trkpt><trkpt lat="43.28166351924187" lon="11.697213207837091"><ele>294.0</ele><time>2026-03-29T16:51:23.999Z</time></trkpt><trkpt lat="43.281656631250684" lon="11.697336673922322"><ele>294.0</ele><time>2026-03-29T16:51:24.999Z</time></trkpt><trkpt lat="43.28166175338102" lon="11.697458902129183"><ele>294.0</ele><time>2026-03-29T16:51:25.999Z</time></trkpt><trkpt lat="43.28168120831276" lon="11.697573481155596"><ele>294.0</ele><time>2026-03-29T16:51:26.999Z</time></trkpt><trkpt lat="43.281716468686675" lon="11.697683479735133"><ele>294.0</ele><time>2026-03-29T16:51:27.999Z</time></trkpt><trkpt lat="43.281752879936604" lon="11.697789530510153"><ele>294.0</ele><time>2026-03-29T16:51:28.999Z</time></trkpt><trkpt lat="43.281792514607616" lon="11.697885000976248"><ele>294.0</ele><time>2026-03-29T16:51:29.999Z</time></trkpt><trkpt lat="43.28181657642008" lon="11.697989111059915"><ele>294.0</ele><time>2026-03-29T16:51:30.999Z</time></trkpt><trkpt lat="43.28183104887569" lon="11.698098064866155"><ele>294.0</ele><time>2026-03-29T16:51:31.999Z</time></trkpt><trkpt lat="43.28183429208069" lon="11.698213649433255"><ele>294.0</ele><time>2026-03-29T16:51:32.999Z</time></trkpt><trkpt lat="43.281822186191384" lon="11.698338334568257"><ele>294.0</ele><time>2026-03-29T16:51:33.999Z</time></trkpt><trkpt lat="43.281810990068514" lon="11.69845528131203"><ele>294.0</ele><time>2026-03-29T16:51:34.999Z</time></trkpt><trkpt lat="43.281792777569414" lon="11.698580789077072"><ele>294.0</ele><time>2026-03-29T16:51:35.999Z</time></trkpt><trkpt lat="43.28177570639056" lon="11.698710016965453"><ele>294.0</ele><time>2026-03-29T16:51:36.999Z</time></trkpt><trkpt lat="43.28175698604691" lon="11.698837370968398"><ele>294.0</ele><time>2026-03-29T16:51:37.999Z</time></trkpt><trkpt lat="43.281728458947434" lon="11.698961863034356"><ele>294.0</ele><time>2026-03-29T16:51:38.999Z</time></trkpt><trkpt lat="43.28169199174249" lon="11.699081136686129"><ele>294.0</ele><time>2026-03-29T16:51:39.999Z</time></trkpt><trkpt lat="43.281649761911275" lon="11.699194989937004"><ele>294.0</ele><time>2026-03-29T16:51:40.999Z</time></trkpt><trkpt lat="43.28160073065741" lon="11.69930379904961"><ele>294.0</ele><time>2026-03-29T16:51:41.999Z</time></trkpt><trkpt lat="43.28155506155715" lon="11.699410913704048"><ele>294.5</ele><time>2026-03-29T16:51:42.999Z</time></trkpt><trkpt lat="43.281517398299776" lon="11.699521546198435"><ele>295.0</ele><time>2026-03-29T16:51:43.999Z</time></trkpt><trkpt lat="43.28148566244571" lon="11.699633955003524"><ele>295.5</ele><time>2026-03-29T16:51:44.999Z</time></trkpt><trkpt lat="43.28145601188821" lon="11.69974622021632"><ele>296.0</ele><time>2026-03-29T16:51:45.999Z</time></trkpt><trkpt lat="43.281422969904305" lon="11.699860962454299"><ele>296.5</ele><time>2026-03-29T16:51:46.999Z</time></trkpt><trkpt lat="43.28138746486841" lon="11.699976752861515"><ele>297.0</ele><time>2026-03-29T16:51:47.999Z</time></trkpt><trkpt lat="43.28134347190089" lon="11.700087644396591"><ele>295.6</ele><time>2026-03-29T16:51:48.999Z</time></trkpt><trkpt lat="43.28129342380728" lon="11.700195638494593"><ele>294.2</ele><time>2026-03-29T16:51:49.999Z</time></trkpt><trkpt lat="43.28123584907728" lon="11.700303132612978"><ele>292.8</ele><time>2026-03-29T16:51:50.999Z</time></trkpt><trkpt lat="43.281175566121725" lon="11.700405511369727"><ele>291.4</ele><time>2026-03-29T16:51:51.999Z</time></trkpt><trkpt lat="43.28111495097328" lon="11.700507235104798"><ele>290.0</ele><time>2026-03-29T16:51:52.999Z</time></trkpt><trkpt lat="43.28105382612198" lon="11.70060562306399"><ele>290.0</ele><time>2026-03-29T16:51:53.999Z</time></trkpt><trkpt lat="43.28099185482611" lon="11.70070586450654"><ele>290.0</ele><time>2026-03-29T16:51:54.999Z</time></trkpt><trkpt lat="43.28093021111616" lon="11.700807572656533"><ele>290.0</ele><time>2026-03-29T16:51:55.999Z</time></trkpt><trkpt lat="43.28086998321792" lon="11.700908601357066"><ele>290.0</ele><time>2026-03-29T16:51:56.999Z</time></trkpt><trkpt lat="43.28080749674304" lon="11.70100891684557"><ele>290.0</ele><time>2026-03-29T16:51:57.999Z</time></trkpt><trkpt lat="43.28074348267449" lon="11.701107762489288"><ele>291.0</ele><time>2026-03-29T16:51:58.999Z</time></trkpt><trkpt lat="43.280683841433884" lon="11.701206937755533"><ele>292.0</ele><time>2026-03-29T16:51:59.999Z</time></trkpt><trkpt lat="43.28062176536965" lon="11.701309222980466"><ele>293.0</ele><time>2026-03-29T16:52:00.999Z</time></trkpt><trkpt lat="43.28055843886863" lon="11.70141040230794"><ele>294.0</ele><time>2026-03-29T16:52:01.999Z</time></trkpt><trkpt lat="43.280500829046886" lon="11.701512418618728"><ele>295.0</ele><time>2026-03-29T16:52:02.999Z</time></trkpt><trkpt lat="43.280443571040315" lon="11.701617420535973"><ele>293.4</ele><time>2026-03-29T16:52:03.999Z</time></trkpt><trkpt lat="43.28038646993822" lon="11.701721830621484"><ele>291.8</ele><time>2026-03-29T16:52:04.999Z</time></trkpt><trkpt lat="43.2803293224138" lon="11.701826769130742"><ele>290.2</ele><time>2026-03-29T16:52:05.999Z</time></trkpt><trkpt lat="43.280272151968425" lon="11.701929250273354"><ele>288.6</ele><time>2026-03-29T16:52:06.999Z</time></trkpt><trkpt lat="43.280215119506835" lon="11.702028709579434"><ele>287.0</ele><time>2026-03-29T16:52:07.999Z</time></trkpt><trkpt lat="43.2801635053173" lon="11.702134320558025"><ele>287.0</ele><time>2026-03-29T16:52:08.999Z</time></trkpt><trkpt lat="43.28010939027578" lon="11.702240799954538"><ele>287.0</ele><time>2026-03-29T16:52:09.999Z</time></trkpt><trkpt lat="43.28005385501173" lon="11.702348045677528"><ele>287.0</ele><time>2026-03-29T16:52:10.999Z</time></trkpt><trkpt lat="43.28000095521955" lon="11.702458509059626"><ele>287.0</ele><time>2026-03-29T16:52:11.999Z</time></trkpt><trkpt lat="43.27995110463265" lon="11.702570161524207"><ele>287.0</ele><time>2026-03-29T16:52:12.999Z</time></trkpt><trkpt lat="43.27989755260795" lon="11.702683590267169"><ele>287.4</ele><time>2026-03-29T16:52:13.999Z</time></trkpt><trkpt lat="43.27984376588054" lon="11.702795515299215"><ele>287.79999999999995</ele><time>2026-03-29T16:52:14.999Z</time></trkpt><trkpt lat="43.279786228935436" lon="11.702903656899428"><ele>288.2</ele><time>2026-03-29T16:52:15.999Z</time></trkpt><trkpt lat="43.27972632413491" lon="11.703004776676872"><ele>288.59999999999997</ele><time>2026-03-29T16:52:16.999Z</time></trkpt><trkpt lat="43.27966431441922" lon="11.703102589399052"><ele>289.0</ele><time>2026-03-29T16:52:17.999Z</time></trkpt><trkpt lat="43.27959701387454" lon="11.70319411112172"><ele>287.8</ele><time>2026-03-29T16:52:18.999Z</time></trkpt><trkpt lat="43.27952624704066" lon="11.703279657358362"><ele>286.59999999999997</ele><time>2026-03-29T16:52:19.999Z</time></trkpt><trkpt lat="43.27944880735028" lon="11.703356151935578"><ele>285.4</ele><time>2026-03-29T16:52:20.999Z</time></trkpt><trkpt lat="43.27936783530762" lon="11.70342254530167"><ele>284.2</ele><time>2026-03-29T16:52:21.999Z</time></trkpt><trkpt lat="43.279282029719646" lon="11.703476364787024"><ele>283.0</ele><time>2026-03-29T16:52:22.999Z</time></trkpt><trkpt lat="43.2791964827444" lon="11.703528671020754"><ele>282.8</ele><time>2026-03-29T16:52:23.999Z</time></trkpt><trkpt lat="43.27911373778182" lon="11.703581764044024"><ele>282.6</ele><time>2026-03-29T16:52:24.999Z</time></trkpt><trkpt lat="43.27903652777878" lon="11.703646596489374"><ele>282.4</ele><time>2026-03-29T16:52:25.999Z</time></trkpt><trkpt lat="43.278954848678" lon="11.703717837783135"><ele>282.2</ele><time>2026-03-29T16:52:26.999Z</time></trkpt><trkpt lat="43.278878512145944" lon="11.703792962097857"><ele>282.0</ele><time>2026-03-29T16:52:27.999Z</time></trkpt><trkpt lat="43.27880137763538" lon="11.703874505317462"><ele>282.0</ele><time>2026-03-29T16:52:28.999Z</time></trkpt><trkpt lat="43.278725825925996" lon="11.703962509625228"><ele>282.0</ele><time>2026-03-29T16:52:29.999Z</time></trkpt><trkpt lat="43.2786631426076" lon="11.704063594777516"><ele>282.0</ele><time>2026-03-29T16:52:30.999Z</time></trkpt><trkpt lat="43.27861848674034" lon="11.704180975898902"><ele>282.0</ele><time>2026-03-29T16:52:31.999Z</time></trkpt><trkpt lat="43.27858772156713" lon="11.704307073923628"><ele>282.0</ele><time>2026-03-29T16:52:32.999Z</time></trkpt><trkpt lat="43.27856471503934" lon="11.704436256329773"><ele>281.8</ele><time>2026-03-29T16:52:33.999Z</time></trkpt><trkpt lat="43.27854347098781" lon="11.704565162111031"><ele>281.6</ele><time>2026-03-29T16:52:34.999Z</time></trkpt><trkpt lat="43.2785171425164" lon="11.704695206261157"><ele>281.40000000000003</ele><time>2026-03-29T16:52:35.999Z</time></trkpt><trkpt lat="43.27848102705564" lon="11.70482311907842"><ele>281.2</ele><time>2026-03-29T16:52:36.999Z</time></trkpt><trkpt lat="43.27844300369604" lon="11.704947113266522"><ele>281.0</ele><time>2026-03-29T16:52:37.999Z</time></trkpt><trkpt lat="43.278403095907855" lon="11.705068621656844"><ele>281.0</ele><time>2026-03-29T16:52:39Z</time></trkpt><trkpt lat="43.27836272795355" lon="11.705189205080464"><ele>281.0</ele><time>2026-03-29T16:52:40Z</time></trkpt><trkpt lat="43.27832042867535" lon="11.70531099035707"><ele>281.0</ele><time>2026-03-29T16:52:41Z</time></trkpt><trkpt lat="43.27828994898049" lon="11.705435456536197"><ele>281.0</ele><time>2026-03-29T16:52:42Z</time></trkpt><trkpt lat="43.27825861411342" lon="11.705561003371534"><ele>281.0</ele><time>2026-03-29T16:52:43Z</time></trkpt><trkpt lat="43.27822989782633" lon="11.70568852131815"><ele>280.8</ele><time>2026-03-29T16:52:44Z</time></trkpt><trkpt lat="43.278205125427526" lon="11.705815049860233"><ele>280.6</ele><time>2026-03-29T16:52:45Z</time></trkpt><trkpt lat="43.278178477550675" lon="11.705943964401405"><ele>280.4</ele><time>2026-03-29T16:52:46Z</time></trkpt><trkpt lat="43.27814181018596" lon="11.706069315196615"><ele>280.2</ele><time>2026-03-29T16:52:47Z</time></trkpt><trkpt lat="43.27810270307011" lon="11.706189719601156"><ele>280.0</ele><time>2026-03-29T16:52:48Z</time></trkpt><trkpt lat="43.27805599194508" lon="11.706302439789411"><ele>280.0</ele><time>2026-03-29T16:52:49Z</time></trkpt><trkpt lat="43.27800259815099" lon="11.706414071886742"><ele>280.0</ele><time>2026-03-29T16:52:50Z</time></trkpt><trkpt lat="43.277941848728275" lon="11.706514549227004"><ele>280.0</ele><time>2026-03-29T16:52:51Z</time></trkpt><trkpt lat="43.27787945279697" lon="11.70661531278144"><ele>280.0</ele><time>2026-03-29T16:52:52Z</time></trkpt><trkpt lat="43.277816038455796" lon="11.706713183356573"><ele>280.0</ele><time>2026-03-29T16:52:53Z</time></trkpt><trkpt lat="43.277757572577194" lon="11.706819261488057"><ele>280.8</ele><time>2026-03-29T16:52:54Z</time></trkpt><trkpt lat="43.27770660629074" lon="11.706931081812288"><ele>281.6</ele><time>2026-03-29T16:52:55Z</time></trkpt><trkpt lat="43.27766771900307" lon="11.70704906108889"><ele>282.4</ele><time>2026-03-29T16:52:56Z</time></trkpt><trkpt lat="43.27763301150758" lon="11.707173064232894"><ele>283.2</ele><time>2026-03-29T16:52:57Z</time></trkpt><trkpt lat="43.2776041211395" lon="11.707299207173552"><ele>284.0</ele><time>2026-03-29T16:52:58Z</time></trkpt><trkpt lat="43.277581826606585" lon="11.707425778101163"><ele>284.0</ele><time>2026-03-29T16:52:59Z</time></trkpt><trkpt lat="43.277558148745364" lon="11.70755781623616"><ele>284.0</ele><time>2026-03-29T16:53:00Z</time></trkpt><trkpt lat="43.277532770528886" lon="11.707684832529157"><ele>284.0</ele><time>2026-03-29T16:53:01Z</time></trkpt><trkpt lat="43.27750233667942" lon="11.7078059762052"><ele>284.0</ele><time>2026-03-29T16:53:02Z</time></trkpt><trkpt lat="43.27746706046612" lon="11.70792741660023"><ele>284.0</ele><time>2026-03-29T16:53:03Z</time></trkpt><trkpt lat="43.277421935326174" lon="11.70804670149427"><ele>284.0</ele><time>2026-03-29T16:53:04Z</time></trkpt><trkpt lat="43.27736925729612" lon="11.708161326860424"><ele>284.0</ele><time>2026-03-29T16:53:05Z</time></trkpt><trkpt lat="43.27730873105885" lon="11.708265629157792"><ele>284.0</ele><time>2026-03-29T16:53:06Z</time></trkpt><trkpt lat="43.27724359527224" lon="11.708366723188147"><ele>284.0</ele><time>2026-03-29T16:53:07Z</time></trkpt><trkpt lat="43.27717733512754" lon="11.708470458606113"><ele>284.0</ele><time>2026-03-29T16:53:08Z</time></trkpt><trkpt lat="43.27711684877128" lon="11.708579759101186"><ele>284.0</ele><time>2026-03-29T16:53:09Z</time></trkpt><trkpt lat="43.27706235211732" lon="11.70869390451865"><ele>284.0</ele><time>2026-03-29T16:53:10Z</time></trkpt><trkpt lat="43.27701303937329" lon="11.708808511648401"><ele>284.0</ele><time>2026-03-29T16:53:11Z</time></trkpt><trkpt lat="43.27697470920543" lon="11.708931055607186"><ele>284.0</ele><time>2026-03-29T16:53:12Z</time></trkpt><trkpt lat="43.276945092420966" lon="11.709061500515087"><ele>284.0</ele><time>2026-03-29T16:53:13Z</time></trkpt><trkpt lat="43.27691868995581" lon="11.709191116375234"><ele>284.0</ele><time>2026-03-29T16:53:14Z</time></trkpt><trkpt lat="43.27688757127057" lon="11.709317740911146"><ele>284.0</ele><time>2026-03-29T16:53:15Z</time></trkpt><trkpt lat="43.276863673115294" lon="11.709439652196863"><ele>284.0</ele><time>2026-03-29T16:53:16Z</time></trkpt><trkpt lat="43.27684020180235" lon="11.709554623770144"><ele>284.0</ele><time>2026-03-29T16:53:17Z</time></trkpt><trkpt lat="43.27681280107912" lon="11.70967036077134"><ele>284.0</ele><time>2026-03-29T16:53:18Z</time></trkpt><trkpt lat="43.276784731265195" lon="11.70978484012511"><ele>284.5</ele><time>2026-03-29T16:53:19Z</time></trkpt><trkpt lat="43.27675628110524" lon="11.709897671528616"><ele>285.0</ele><time>2026-03-29T16:53:20Z</time></trkpt><trkpt lat="43.276726112339894" lon="11.710010119175115"><ele>285.5</ele><time>2026-03-29T16:53:21Z</time></trkpt><trkpt lat="43.27669816348316" lon="11.710122246815915"><ele>286.0</ele><time>2026-03-29T16:53:22Z</time></trkpt><trkpt lat="43.27666714332473" lon="11.710231451188678"><ele>286.5</ele><time>2026-03-29T16:53:23Z</time></trkpt><trkpt lat="43.2766315740002" lon="11.710341093914693"><ele>287.0</ele><time>2026-03-29T16:53:24Z</time></trkpt><trkpt lat="43.27659055461649" lon="11.710448691213221"><ele>287.0</ele><time>2026-03-29T16:53:25Z</time></trkpt><trkpt lat="43.2765487694994" lon="11.710553595514913"><ele>287.0</ele><time>2026-03-29T16:53:26Z</time></trkpt><trkpt lat="43.276519803963424" lon="11.710658763529"><ele>287.0</ele><time>2026-03-29T16:53:27Z</time></trkpt><trkpt lat="43.276504603929865" lon="11.710777376048657"><ele>287.0</ele><time>2026-03-29T16:53:28Z</time></trkpt><trkpt lat="43.276501903315015" lon="11.710898361611115"><ele>287.0</ele><time>2026-03-29T16:53:28.999Z</time></trkpt><trkpt lat="43.27650739157777" lon="11.711023588575562"><ele>287.0</ele><time>2026-03-29T16:53:29.999Z</time></trkpt><trkpt lat="43.276508503146935" lon="11.711146442253964"><ele>287.0</ele><time>2026-03-29T16:53:30.999Z</time></trkpt><trkpt lat="43.27651352107143" lon="11.711270052424155"><ele>287.0</ele><time>2026-03-29T16:53:31.999Z</time></trkpt><trkpt lat="43.276520152036746" lon="11.711399154106651"><ele>287.0</ele><time>2026-03-29T16:53:32.999Z</time></trkpt><trkpt lat="43.276526556740684" lon="11.711518414871618"><ele>287.0</ele><time>2026-03-29T16:53:33.999Z</time></trkpt><trkpt lat="43.27653066332049" lon="11.71164155906948"><ele>287.0</ele><time>2026-03-29T16:53:34.999Z</time></trkpt><trkpt lat="43.27653578248985" lon="11.711763486995322"><ele>287.0</ele><time>2026-03-29T16:53:35.999Z</time></trkpt><trkpt lat="43.27654161343618" lon="11.711882241318042"><ele>287.0</ele><time>2026-03-29T16:53:36.999Z</time></trkpt><trkpt lat="43.276548295718754" lon="11.711998520042794"><ele>287.0</ele><time>2026-03-29T16:53:37.999Z</time></trkpt><trkpt lat="43.27655141927473" lon="11.712116016132072"><ele>287.0</ele><time>2026-03-29T16:53:38.999Z</time></trkpt><trkpt lat="43.276555189840444" lon="11.712228124632006"><ele>287.0</ele><time>2026-03-29T16:53:39.999Z</time></trkpt><trkpt lat="43.27655577470409" lon="11.712338526723542"><ele>287.0</ele><time>2026-03-29T16:53:40.999Z</time></trkpt><trkpt lat="43.276554935336115" lon="11.712446414401239"><ele>287.1666666666667</ele><time>2026-03-29T16:53:41.999Z</time></trkpt><trkpt lat="43.276552094094164" lon="11.712558644130949"><ele>287.33333333333337</ele><time>2026-03-29T16:53:42.999Z</time></trkpt><trkpt lat="43.2765478555063" lon="11.712673086748401"><ele>287.5</ele><time>2026-03-29T16:53:43.999Z</time></trkpt><trkpt lat="43.276548663048196" lon="11.712785839236535"><ele>287.6666666666667</ele><time>2026-03-29T16:53:44.999Z</time></trkpt><trkpt lat="43.27654829819603" lon="11.712902528646154"><ele>287.8333333333333</ele><time>2026-03-29T16:53:45.999Z</time></trkpt><trkpt lat="43.27654601327331" lon="11.713026067100946"><ele>288.0</ele><time>2026-03-29T16:53:46.999Z</time></trkpt><trkpt lat="43.27654958073689" lon="11.713153079296989"><ele>288.0</ele><time>2026-03-29T16:53:47.999Z</time></trkpt><trkpt lat="43.27655152216509" lon="11.713283673040577"><ele>288.0</ele><time>2026-03-29T16:53:48.999Z</time></trkpt><trkpt lat="43.27655251935291" lon="11.713416767992618"><ele>288.0</ele><time>2026-03-29T16:53:49.999Z</time></trkpt><trkpt lat="43.27655140775291" lon="11.713553516834308"><ele>288.0</ele><time>2026-03-29T16:53:50.999Z</time></trkpt><trkpt lat="43.27655197358109" lon="11.71369351432821"><ele>288.0</ele><time>2026-03-29T16:53:51.999Z</time></trkpt><trkpt lat="43.27655845053151" lon="11.71382919200208"><ele>287.2</ele><time>2026-03-29T16:53:52.999Z</time></trkpt><trkpt lat="43.27656745399876" lon="11.713972163821902"><ele>286.4</ele><time>2026-03-29T16:53:53.999Z</time></trkpt><trkpt lat="43.2765758759529" lon="11.71411134328962"><ele>285.59999999999997</ele><time>2026-03-29T16:53:54.999Z</time></trkpt><trkpt lat="43.276592690534365" lon="11.714249149235492"><ele>284.8</ele><time>2026-03-29T16:53:55.999Z</time></trkpt><trkpt lat="43.276613463718554" lon="11.714388314760612"><ele>284.0</ele><time>2026-03-29T16:53:56.999Z</time></trkpt><trkpt lat="43.27663605147428" lon="11.714524933498009"><ele>283.4</ele><time>2026-03-29T16:53:57.999Z</time></trkpt><trkpt lat="43.27666063314999" lon="11.714653589683616"><ele>282.79999999999995</ele><time>2026-03-29T16:53:58.999Z</time></trkpt><trkpt lat="43.27668442084608" lon="11.714783638705242"><ele>282.20000000000005</ele><time>2026-03-29T16:53:59.999Z</time></trkpt><trkpt lat="43.27670668125679" lon="11.714912725261591"><ele>281.6</ele><time>2026-03-29T16:54:00.999Z</time></trkpt><trkpt lat="43.27672776133673" lon="11.715039540948949"><ele>281.0</ele><time>2026-03-29T16:54:01.999Z</time></trkpt><trkpt lat="43.276745679410716" lon="11.715168046252735"><ele>281.0</ele><time>2026-03-29T16:54:02.999Z</time></trkpt><trkpt lat="43.27676016951616" lon="11.715293543210642"><ele>281.0</ele><time>2026-03-29T16:54:03.999Z</time></trkpt><trkpt lat="43.27678173803019" lon="11.715541923703126"><ele>281.0</ele><time>2026-03-29T16:54:05.999Z</time></trkpt><trkpt lat="43.276787526067096" lon="11.715665359795347"><ele>281.0</ele><time>2026-03-29T16:54:06.999Z</time></trkpt><trkpt lat="43.27679131716236" lon="11.715785686131065"><ele>281.0</ele><time>2026-03-29T16:54:07.999Z</time></trkpt><trkpt lat="43.27679610056562" lon="11.71590726385756"><ele>281.0</ele><time>2026-03-29T16:54:08.999Z</time></trkpt><trkpt lat="43.27679873042643" lon="11.716028319610704"><ele>281.0</ele><time>2026-03-29T16:54:09.999Z</time></trkpt><trkpt lat="43.27679859436723" lon="11.716149156610937"><ele>281.0</ele><time>2026-03-29T16:54:10.999Z</time></trkpt><trkpt lat="43.276799887954006" lon="11.716268748394663"><ele>281.0</ele><time>2026-03-29T16:54:11.999Z</time></trkpt><trkpt lat="43.27679965644073" lon="11.716389681708922"><ele>281.0</ele><time>2026-03-29T16:54:12.999Z</time></trkpt><trkpt lat="43.2767977645615" lon="11.716507836937502"><ele>281.0</ele><time>2026-03-29T16:54:13.999Z</time></trkpt><trkpt lat="43.27679393117836" lon="11.716628048114703"><ele>281.0</ele><time>2026-03-29T16:54:14.999Z</time></trkpt><trkpt lat="43.27678827644195" lon="11.716741079806885"><ele>281.0</ele><time>2026-03-29T16:54:15.999Z</time></trkpt><trkpt lat="43.27678103073405" lon="11.716855702285544"><ele>281.0</ele><time>2026-03-29T16:54:16.999Z</time></trkpt><trkpt lat="43.27677308101078" lon="11.716975869527687"><ele>281.0</ele><time>2026-03-29T16:54:17.999Z</time></trkpt><trkpt lat="43.27675957754741" lon="11.717089097648719"><ele>281.0</ele><time>2026-03-29T16:54:18.999Z</time></trkpt><trkpt lat="43.276746890598545" lon="11.717212010071606"><ele>281.0</ele><time>2026-03-29T16:54:19.999Z</time></trkpt><trkpt lat="43.27673319446491" lon="11.717337541502856"><ele>281.0</ele><time>2026-03-29T16:54:20.999Z</time></trkpt><trkpt lat="43.276710505631634" lon="11.71745939270048"><ele>281.0</ele><time>2026-03-29T16:54:21.999Z</time></trkpt><trkpt lat="43.27668307478276" lon="11.717581219583952"><ele>281.0</ele><time>2026-03-29T16:54:22.999Z</time></trkpt><trkpt lat="43.276661929293304" lon="11.717707180196449"><ele>281.0</ele><time>2026-03-29T16:54:23.999Z</time></trkpt><trkpt lat="43.27663710069505" lon="11.717830478088018"><ele>280.8</ele><time>2026-03-29T16:54:24.999Z</time></trkpt><trkpt lat="43.27661024989759" lon="11.717958669502828"><ele>280.6</ele><time>2026-03-29T16:54:25.999Z</time></trkpt><trkpt lat="43.276582793174704" lon="11.71808679356561"><ele>280.4</ele><time>2026-03-29T16:54:26.999Z</time></trkpt><trkpt lat="43.27655280336554" lon="11.71821472733746"><ele>280.2</ele><time>2026-03-29T16:54:27.999Z</time></trkpt><trkpt lat="43.276514131045225" lon="11.718337525572615"><ele>280.0</ele><time>2026-03-29T16:54:28.999Z</time></trkpt><trkpt lat="43.27646906135055" lon="11.71845957913565"><ele>280.4</ele><time>2026-03-29T16:54:29.999Z</time></trkpt><trkpt lat="43.276422401500255" lon="11.718581812228372"><ele>280.8</ele><time>2026-03-29T16:54:30.999Z</time></trkpt><trkpt lat="43.27637267972774" lon="11.718701982608158"><ele>281.2</ele><time>2026-03-29T16:54:31.999Z</time></trkpt><trkpt lat="43.276321051875264" lon="11.718821373520584"><ele>281.6</ele><time>2026-03-29T16:54:32.999Z</time></trkpt><trkpt lat="43.27626856417343" lon="11.718941511386605"><ele>282.0</ele><time>2026-03-29T16:54:33.999Z</time></trkpt><trkpt lat="43.27621829945815" lon="11.7190595563468"><ele>282.0</ele><time>2026-03-29T16:54:34.999Z</time></trkpt><trkpt lat="43.27616877315974" lon="11.719172548953784"><ele>282.0</ele><time>2026-03-29T16:54:35.999Z</time></trkpt><trkpt lat="43.27612315614698" lon="11.719286093304506"><ele>282.0</ele><time>2026-03-29T16:54:36.999Z</time></trkpt><trkpt lat="43.27607774182245" lon="11.719399081585106"><ele>282.0</ele><time>2026-03-29T16:54:37.999Z</time></trkpt><trkpt lat="43.27602993341576" lon="11.719511582694597"><ele>282.0</ele><time>2026-03-29T16:54:38.999Z</time></trkpt><trkpt lat="43.275981507871094" lon="11.719624511468181"><ele>282.6</ele><time>2026-03-29T16:54:39.999Z</time></trkpt><trkpt lat="43.275935743275035" lon="11.719741029660941"><ele>283.2</ele><time>2026-03-29T16:54:40.999Z</time></trkpt><trkpt lat="43.27589348659862" lon="11.719863027287769"><ele>283.8</ele><time>2026-03-29T16:54:41.999Z</time></trkpt><trkpt lat="43.27586749110373" lon="11.719993468370674"><ele>284.4</ele><time>2026-03-29T16:54:42.999Z</time></trkpt><trkpt lat="43.27584270618811" lon="11.720121449178855"><ele>285.0</ele><time>2026-03-29T16:54:44Z</time></trkpt><trkpt lat="43.275824825776134" lon="11.72025373565648"><ele>285.4</ele><time>2026-03-29T16:54:45Z</time></trkpt><trkpt lat="43.2758143943954" lon="11.720387597090937"><ele>285.8</ele><time>2026-03-29T16:54:46Z</time></trkpt><trkpt lat="43.27580801710041" lon="11.720519552551"><ele>286.2</ele><time>2026-03-29T16:54:47Z</time></trkpt><trkpt lat="43.27580243063216" lon="11.720651590291496"><ele>286.6</ele><time>2026-03-29T16:54:48Z</time></trkpt><trkpt lat="43.27579753436683" lon="11.720790562149771"><ele>287.0</ele><time>2026-03-29T16:54:49Z</time></trkpt><trkpt lat="43.275792942086866" lon="11.720928857031245"><ele>287.2</ele><time>2026-03-29T16:54:50Z</time></trkpt><trkpt lat="43.27578653929087" lon="11.721067957369664"><ele>287.4</ele><time>2026-03-29T16:54:51Z</time></trkpt><trkpt lat="43.275774548445916" lon="11.721203856538057"><ele>287.6</ele><time>2026-03-29T16:54:52Z</time></trkpt><trkpt lat="43.27576713275886" lon="11.72134087068025"><ele>287.8</ele><time>2026-03-29T16:54:53Z</time></trkpt><trkpt lat="43.27576208444108" lon="11.721474208457785"><ele>288.0</ele><time>2026-03-29T16:54:54Z</time></trkpt><trkpt lat="43.27575437699311" lon="11.72160678248786"><ele>288.0</ele><time>2026-03-29T16:54:55Z</time></trkpt><trkpt lat="43.27574314005189" lon="11.721742777944359"><ele>288.0</ele><time>2026-03-29T16:54:56Z</time></trkpt><trkpt lat="43.27573475024242" lon="11.721873984612584"><ele>288.0</ele><time>2026-03-29T16:54:57Z</time></trkpt><trkpt lat="43.27572652809594" lon="11.722009598849661"><ele>288.0</ele><time>2026-03-29T16:54:58Z</time></trkpt><trkpt lat="43.27571422043232" lon="11.722146652806737"><ele>288.0</ele><time>2026-03-29T16:54:59Z</time></trkpt><trkpt lat="43.27570235668288" lon="11.72228401552338"><ele>288.0</ele><time>2026-03-29T16:55:00Z</time></trkpt><trkpt lat="43.27569237178151" lon="11.7224217116981"><ele>288.0</ele><time>2026-03-29T16:55:01Z</time></trkpt><trkpt lat="43.27568198015902" lon="11.72256366569934"><ele>288.0</ele><time>2026-03-29T16:55:02Z</time></trkpt><trkpt lat="43.2756724210792" lon="11.72269896783214"><ele>288.0</ele><time>2026-03-29T16:55:03Z</time></trkpt><trkpt lat="43.275662156010824" lon="11.72283350514132"><ele>288.0</ele><time>2026-03-29T16:55:04Z</time></trkpt><trkpt lat="43.27565088411698" lon="11.722969631624734"><ele>288.4</ele><time>2026-03-29T16:55:05Z</time></trkpt><trkpt lat="43.27563526813507" lon="11.723103886570213"><ele>288.8</ele><time>2026-03-29T16:55:06Z</time></trkpt><trkpt lat="43.27562286333134" lon="11.723239549087562"><ele>289.2</ele><time>2026-03-29T16:55:07Z</time></trkpt><trkpt lat="43.27561778361852" lon="11.723372985253905"><ele>289.6</ele><time>2026-03-29T16:55:08Z</time></trkpt><trkpt lat="43.27561122388465" lon="11.723504082359057"><ele>290.0</ele><time>2026-03-29T16:55:09Z</time></trkpt><trkpt lat="43.275601396202326" lon="11.723637695936143"><ele>289.6</ele><time>2026-03-29T16:55:10Z</time></trkpt><trkpt lat="43.27559198888356" lon="11.72377195485517"><ele>289.2</ele><time>2026-03-29T16:55:11Z</time></trkpt><trkpt lat="43.2755833914241" lon="11.72390939708469"><ele>288.8</ele><time>2026-03-29T16:55:12Z</time></trkpt><trkpt lat="43.27559419867916" lon="11.724046649064285"><ele>288.4</ele><time>2026-03-29T16:55:13Z</time></trkpt><trkpt lat="43.27560287034116" lon="11.724186248544571"><ele>288.0</ele><time>2026-03-29T16:55:14Z</time></trkpt><trkpt lat="43.27562206978289" lon="11.724324106770531"><ele>287.2</ele><time>2026-03-29T16:55:15Z</time></trkpt><trkpt lat="43.27564692312958" lon="11.72445880079077"><ele>286.4</ele><time>2026-03-29T16:55:16Z</time></trkpt><trkpt lat="43.275674376470796" lon="11.72459155510725"><ele>285.59999999999997</ele><time>2026-03-29T16:55:17Z</time></trkpt><trkpt lat="43.275700531702945" lon="11.724723513166788"><ele>284.8</ele><time>2026-03-29T16:55:18Z</time></trkpt><trkpt lat="43.27572797098655" lon="11.72485877409782"><ele>284.0</ele><time>2026-03-29T16:55:19Z</time></trkpt><trkpt lat="43.275751166443335" lon="11.724989349801515"><ele>284.0</ele><time>2026-03-29T16:55:20Z</time></trkpt><trkpt lat="43.27576688827866" lon="11.7251272069146"><ele>284.0</ele><time>2026-03-29T16:55:21Z</time></trkpt><trkpt lat="43.27577937075453" lon="11.725261992951399"><ele>284.0</ele><time>2026-03-29T16:55:22Z</time></trkpt><trkpt lat="43.2757900780189" lon="11.725397410615988"><ele>284.0</ele><time>2026-03-29T16:55:23Z</time></trkpt><trkpt lat="43.27580131376398" lon="11.725534371180885"><ele>284.0</ele><time>2026-03-29T16:55:24Z</time></trkpt><trkpt lat="43.27581045009061" lon="11.72567238222795"><ele>283.4</ele><time>2026-03-29T16:55:25Z</time></trkpt><trkpt lat="43.27581563596158" lon="11.72580868111885"><ele>282.79999999999995</ele><time>2026-03-29T16:55:26Z</time></trkpt><trkpt lat="43.275826383457066" lon="11.72594546990353"><ele>282.20000000000005</ele><time>2026-03-29T16:55:27Z</time></trkpt><trkpt lat="43.27582773717483" lon="11.726083552029221"><ele>281.6</ele><time>2026-03-29T16:55:28Z</time></trkpt><trkpt lat="43.27582137734202" lon="11.726217707799002"><ele>281.0</ele><time>2026-03-29T16:55:29Z</time></trkpt><trkpt lat="43.275803889090476" lon="11.72635063188351"><ele>280.8</ele><time>2026-03-29T16:55:30Z</time></trkpt><trkpt lat="43.275770943188874" lon="11.726483054664131"><ele>280.6</ele><time>2026-03-29T16:55:31Z</time></trkpt><trkpt lat="43.2757285799667" lon="11.726611782888686"><ele>280.4</ele><time>2026-03-29T16:55:32Z</time></trkpt><trkpt lat="43.275685465779965" lon="11.726742988666457"><ele>280.2</ele><time>2026-03-29T16:55:33Z</time></trkpt><trkpt lat="43.27563618146736" lon="11.726873834145877"><ele>280.0</ele><time>2026-03-29T16:55:34Z</time></trkpt><trkpt lat="43.27558916152957" lon="11.727006655422056"><ele>279.6</ele><time>2026-03-29T16:55:35Z</time></trkpt><trkpt lat="43.27554516779519" lon="11.727141064264808"><ele>279.2</ele><time>2026-03-29T16:55:36Z</time></trkpt><trkpt lat="43.27549968540535" lon="11.727276471111384"><ele>278.8</ele><time>2026-03-29T16:55:37Z</time></trkpt><trkpt lat="43.27545444607454" lon="11.727405962863697"><ele>278.4</ele><time>2026-03-29T16:55:38Z</time></trkpt><trkpt lat="43.27540831066605" lon="11.727534696533677"><ele>278.0</ele><time>2026-03-29T16:55:39Z</time></trkpt><trkpt lat="43.275354805991626" lon="11.727659722846196"><ele>278.6</ele><time>2026-03-29T16:55:40Z</time></trkpt><trkpt lat="43.27529466855979" lon="11.727777738384926"><ele>279.20000000000005</ele><time>2026-03-29T16:55:41Z</time></trkpt><trkpt lat="43.27523477381814" lon="11.727895894799154"><ele>279.8</ele><time>2026-03-29T16:55:42Z</time></trkpt><trkpt lat="43.27517331559314" lon="11.728012498642729"><ele>280.40000000000003</ele><time>2026-03-29T16:55:43Z</time></trkpt><trkpt lat="43.27511065780103" lon="11.728126473080126"><ele>281.0</ele><time>2026-03-29T16:55:43.999Z</time></trkpt><trkpt lat="43.275046634443775" lon="11.728239151480134"><ele>281.0</ele><time>2026-03-29T16:55:44.999Z</time></trkpt><trkpt lat="43.274983199639536" lon="11.728353848764435"><ele>281.0</ele><time>2026-03-29T16:55:45.999Z</time></trkpt><trkpt lat="43.27492424716844" lon="11.728471703259094"><ele>281.0</ele><time>2026-03-29T16:55:46.999Z</time></trkpt><trkpt lat="43.274866994464034" lon="11.728587941966849"><ele>281.0</ele><time>2026-03-29T16:55:47.999Z</time></trkpt><trkpt lat="43.274810603384914" lon="11.728702406100249"><ele>281.0</ele><time>2026-03-29T16:55:48.999Z</time></trkpt><trkpt lat="43.274757256027726" lon="11.728822371798099"><ele>281.6</ele><time>2026-03-29T16:55:49.999Z</time></trkpt><trkpt lat="43.27470404168352" lon="11.728940398859447"><ele>282.20000000000005</ele><time>2026-03-29T16:55:50.999Z</time></trkpt><trkpt lat="43.274651650194976" lon="11.72905815477077"><ele>282.79999999999995</ele><time>2026-03-29T16:55:51.999Z</time></trkpt><trkpt lat="43.27459728466512" lon="11.729176194492512"><ele>283.4</ele><time>2026-03-29T16:55:52.999Z</time></trkpt><trkpt lat="43.27454415780214" lon="11.729299142085896"><ele>284.0</ele><time>2026-03-29T16:55:53.999Z</time></trkpt><trkpt lat="43.27449492130368" lon="11.729423725385105"><ele>284.4</ele><time>2026-03-29T16:55:54.999Z</time></trkpt><trkpt lat="43.274452171634124" lon="11.729550320240808"><ele>284.79999999999995</ele><time>2026-03-29T16:55:55.999Z</time></trkpt><trkpt lat="43.274425419194856" lon="11.729684078869374"><ele>285.20000000000005</ele><time>2026-03-29T16:55:56.999Z</time></trkpt><trkpt lat="43.27441320316344" lon="11.729817344766431"><ele>285.6</ele><time>2026-03-29T16:55:57.999Z</time></trkpt><trkpt lat="43.27440893756539" lon="11.729953947599595"><ele>286.0</ele><time>2026-03-29T16:55:58.999Z</time></trkpt><trkpt lat="43.274398476149344" lon="11.730087184698844"><ele>286.0</ele><time>2026-03-29T16:55:59.999Z</time></trkpt><trkpt lat="43.27437948531824" lon="11.730218108939088"><ele>286.0</ele><time>2026-03-29T16:56:00.999Z</time></trkpt><trkpt lat="43.27434633444932" lon="11.730345213876639"><ele>286.0</ele><time>2026-03-29T16:56:01.999Z</time></trkpt><trkpt lat="43.27429955212903" lon="11.730468743227524"><ele>286.0</ele><time>2026-03-29T16:56:02.999Z</time></trkpt><trkpt lat="43.27423763698688" lon="11.730571197684894"><ele>286.0</ele><time>2026-03-29T16:56:03.999Z</time></trkpt><trkpt lat="43.274164669243056" lon="11.730663903128708"><ele>285.6</ele><time>2026-03-29T16:56:04.999Z</time></trkpt><trkpt lat="43.274087684217925" lon="11.730755071494562"><ele>285.20000000000005</ele><time>2026-03-29T16:56:05.999Z</time></trkpt><trkpt lat="43.274014655021666" lon="11.730846882101549"><ele>284.79999999999995</ele><time>2026-03-29T16:56:06.999Z</time></trkpt><trkpt lat="43.273941651893786" lon="11.730946441707955"><ele>284.4</ele><time>2026-03-29T16:56:07.999Z</time></trkpt><trkpt lat="43.273865580041765" lon="11.731043202895897"><ele>284.0</ele><time>2026-03-29T16:56:08.999Z</time></trkpt><trkpt lat="43.27378880692886" lon="11.73113846092952"><ele>284.0</ele><time>2026-03-29T16:56:09.999Z</time></trkpt><trkpt lat="43.2737175869571" lon="11.73123542317424"><ele>284.0</ele><time>2026-03-29T16:56:10.999Z</time></trkpt><trkpt lat="43.27365344818682" lon="11.731337426049299"><ele>284.0</ele><time>2026-03-29T16:56:11.999Z</time></trkpt><trkpt lat="43.27359104940304" lon="11.731442346787158"><ele>284.0</ele><time>2026-03-29T16:56:12.999Z</time></trkpt><trkpt lat="43.273528163808756" lon="11.731553288985692"><ele>284.0</ele><time>2026-03-29T16:56:13.999Z</time></trkpt><trkpt lat="43.27347183406342" lon="11.731664035425638"><ele>284.0</ele><time>2026-03-29T16:56:14.999Z</time></trkpt><trkpt lat="43.273418212337226" lon="11.731776347578815"><ele>284.0</ele><time>2026-03-29T16:56:15.999Z</time></trkpt><trkpt lat="43.27336316185522" lon="11.731888430833006"><ele>284.0</ele><time>2026-03-29T16:56:16.999Z</time></trkpt><trkpt lat="43.27330999319867" lon="11.732001091922694"><ele>284.0</ele><time>2026-03-29T16:56:17.999Z</time></trkpt><trkpt lat="43.27325564850784" lon="11.73211094700724"><ele>284.0</ele><time>2026-03-29T16:56:18.999Z</time></trkpt><trkpt lat="43.27320055209243" lon="11.732214336967749"><ele>284.2</ele><time>2026-03-29T16:56:19.999Z</time></trkpt><trkpt lat="43.273144456888964" lon="11.732315935797086"><ele>284.4</ele><time>2026-03-29T16:56:20.999Z</time></trkpt><trkpt lat="43.27308298198133" lon="11.732414708813224"><ele>284.6</ele><time>2026-03-29T16:56:21.999Z</time></trkpt><trkpt lat="43.27302429311216" lon="11.732512229453826"><ele>284.8</ele><time>2026-03-29T16:56:22.999Z</time></trkpt><trkpt lat="43.27296865107164" lon="11.73260868440347"><ele>285.0</ele><time>2026-03-29T16:56:23.999Z</time></trkpt><trkpt lat="43.27290995770088" lon="11.732707459627226"><ele>285.0</ele><time>2026-03-29T16:56:24.999Z</time></trkpt><trkpt lat="43.2728466682893" lon="11.7327996479503"><ele>285.0</ele><time>2026-03-29T16:56:25.999Z</time></trkpt><trkpt lat="43.272780787812565" lon="11.732885746721099"><ele>285.0</ele><time>2026-03-29T16:56:26.999Z</time></trkpt><trkpt lat="43.272715672826955" lon="11.732971402632067"><ele>285.0</ele><time>2026-03-29T16:56:27.999Z</time></trkpt><trkpt lat="43.272649100515544" lon="11.733051500566086"><ele>285.0</ele><time>2026-03-29T16:56:28.999Z</time></trkpt><trkpt lat="43.27257493158579" lon="11.733123620699562"><ele>285.0</ele><time>2026-03-29T16:56:29.999Z</time></trkpt><trkpt lat="43.27250289016638" lon="11.733202641265233"><ele>285.0</ele><time>2026-03-29T16:56:30.999Z</time></trkpt><trkpt lat="43.27243242274831" lon="11.733288152260997"><ele>285.0</ele><time>2026-03-29T16:56:31.999Z</time></trkpt><trkpt lat="43.27236193050865" lon="11.733375665510893"><ele>285.0</ele><time>2026-03-29T16:56:32.999Z</time></trkpt><trkpt lat="43.272291807525974" lon="11.73346365025985"><ele>285.0</ele><time>2026-03-29T16:56:33.999Z</time></trkpt><trkpt lat="43.27222048947621" lon="11.733549491524224"><ele>285.8</ele><time>2026-03-29T16:56:34.999Z</time></trkpt><trkpt lat="43.27214613407658" lon="11.733625929693302"><ele>286.6</ele><time>2026-03-29T16:56:35.999Z</time></trkpt><trkpt lat="43.27206316499273" lon="11.733689532449482"><ele>287.4</ele><time>2026-03-29T16:56:36.999Z</time></trkpt><trkpt lat="43.27197425536102" lon="11.733731447871708"><ele>288.2</ele><time>2026-03-29T16:56:37.999Z</time></trkpt><trkpt lat="43.27188151667193" lon="11.73374445014073"><ele>289.0</ele><time>2026-03-29T16:56:38.999Z</time></trkpt><trkpt lat="43.27178951220358" lon="11.733726653012532"><ele>289.0</ele><time>2026-03-29T16:56:39.999Z</time></trkpt><trkpt lat="43.271696598475856" lon="11.733689732894664"><ele>289.0</ele><time>2026-03-29T16:56:40.999Z</time></trkpt><trkpt lat="43.27160856800533" lon="11.733660744486412"><ele>289.0</ele><time>2026-03-29T16:56:41.999Z</time></trkpt><trkpt lat="43.27152816427907" lon="11.7336445856979"><ele>289.0</ele><time>2026-03-29T16:56:42.999Z</time></trkpt><trkpt lat="43.27144444866654" lon="11.73363665747199"><ele>289.0</ele><time>2026-03-29T16:56:43.999Z</time></trkpt><trkpt lat="43.27136084157408" lon="11.733636238116304"><ele>289.0</ele><time>2026-03-29T16:56:44.999Z</time></trkpt><trkpt lat="43.271285670903865" lon="11.733639981516594"><ele>290.2</ele><time>2026-03-29T16:56:45.999Z</time></trkpt><trkpt lat="43.271215146608306" lon="11.733639858075117"><ele>291.4</ele><time>2026-03-29T16:56:46.999Z</time></trkpt><trkpt lat="43.27109300240341" lon="11.733638701470987"><ele>292.6</ele><time>2026-03-29T16:56:48.999Z</time></trkpt><trkpt lat="43.270994945180774" lon="11.733648445696012"><ele>293.8</ele><time>2026-03-29T16:56:51Z</time></trkpt><trkpt lat="43.27093186347822" lon="11.733668256244274"><ele>295.0</ele><time>2026-03-29T16:56:53Z</time></trkpt><trkpt lat="43.270870717296596" lon="11.733776933887006"><ele>295.0</ele><time>2026-03-29T16:56:56Z</time></trkpt><trkpt lat="43.27087645490926" lon="11.73391113197124"><ele>295.0</ele><time>2026-03-29T16:56:58Z</time></trkpt><trkpt lat="43.27076369141093" lon="11.733985773485152"><ele>295.0</ele><time>2026-03-29T16:57:00Z</time></trkpt><trkpt lat="43.27093073903917" lon="11.7343702162235"><ele>296.4</ele><time>2026-03-29T16:57:04Z</time></trkpt><trkpt lat="43.270938095981435" lon="11.734456375646134"><ele>297.8</ele><time>2026-03-29T16:57:05Z</time></trkpt><trkpt lat="43.27094857722585" lon="11.734603224522633"><ele>299.2</ele><time>2026-03-29T16:57:07Z</time></trkpt><trkpt lat="43.27095154173781" lon="11.734740778564637"><ele>300.6</ele><time>2026-03-29T16:57:09Z</time></trkpt><trkpt lat="43.27093216540518" lon="11.734873032337516"><ele>302.0</ele><time>2026-03-29T16:57:11Z</time></trkpt><trkpt lat="43.270916140676604" lon="11.735010532517192"><ele>302.0</ele><time>2026-03-29T16:57:13Z</time></trkpt><trkpt lat="43.270862072925" lon="11.735095605657861"><ele>302.0</ele><time>2026-03-29T16:57:15Z</time></trkpt><trkpt lat="43.27078079540512" lon="11.735171359453725"><ele>302.0</ele><time>2026-03-29T16:57:17Z</time></trkpt><trkpt lat="43.27070694226511" lon="11.735270887896313"><ele>302.0</ele><time>2026-03-29T16:57:19Z</time></trkpt><trkpt lat="43.27060888920337" lon="11.735360678165572"><ele>302.0</ele><time>2026-03-29T16:57:21Z</time></trkpt><trkpt lat="43.27050213277982" lon="11.735431989250351"><ele>303.0</ele><time>2026-03-29T16:57:23Z</time></trkpt><trkpt lat="43.27041552094893" lon="11.735511767172715"><ele>304.0</ele><time>2026-03-29T16:57:25Z</time></trkpt><trkpt lat="43.27036283233457" lon="11.735595089869129"><ele>305.0</ele><time>2026-03-29T16:57:27Z</time></trkpt><trkpt lat="43.270398388851156" lon="11.735720565821516"><ele>306.0</ele><time>2026-03-29T16:57:29Z</time></trkpt><trkpt lat="43.2704359903155" lon="11.73579653430572"><ele>307.0</ele><time>2026-03-29T16:57:30Z</time></trkpt><trkpt lat="43.27053747351651" lon="11.735889115270776"><ele>307.0</ele><time>2026-03-29T16:57:32Z</time></trkpt><trkpt lat="43.27058950569504" lon="11.73594249391204"><ele>307.0</ele><time>2026-03-29T16:57:33Z</time></trkpt><trkpt lat="43.270687344072456" lon="11.736042646806709"><ele>307.0</ele><time>2026-03-29T16:57:35Z</time></trkpt><trkpt lat="43.270778015102174" lon="11.736150350889197"><ele>307.0</ele><time>2026-03-29T16:57:37Z</time></trkpt><trkpt lat="43.27085256519269" lon="11.736263871941382"><ele>307.0</ele><time>2026-03-29T16:57:39Z</time></trkpt><trkpt lat="43.27092434028189" lon="11.736393633809683"><ele>307.4285714285714</ele><time>2026-03-29T16:57:41Z</time></trkpt><trkpt lat="43.27093988116278" lon="11.736479807589504"><ele>307.85714285714283</ele><time>2026-03-29T16:57:42Z</time></trkpt><trkpt lat="43.270983500794806" lon="11.736549512859764"><ele>308.2857142857143</ele><time>2026-03-29T16:57:43Z</time></trkpt><trkpt lat="43.27101601597927" lon="11.73662812871402"><ele>308.71428571428567</ele><time>2026-03-29T16:57:44Z</time></trkpt><trkpt lat="43.271049263877025" lon="11.736702326018937"><ele>309.1428571428571</ele><time>2026-03-29T16:57:45Z</time></trkpt><trkpt lat="43.271080575160624" lon="11.736779376040124"><ele>309.57142857142856</ele><time>2026-03-29T16:57:46Z</time></trkpt><trkpt lat="43.27111740547299" lon="11.736849963023568"><ele>310.0</ele><time>2026-03-29T16:57:47Z</time></trkpt><trkpt lat="43.271190877389536" lon="11.73698504603109"><ele>311.0</ele><time>2026-03-29T16:57:49Z</time></trkpt><trkpt lat="43.27123695173824" lon="11.737127558877864"><ele>312.0</ele><time>2026-03-29T16:57:51Z</time></trkpt><trkpt lat="43.2712250490904" lon="11.737263787515435"><ele>313.0</ele><time>2026-03-29T16:57:53Z</time></trkpt><trkpt lat="43.271225913215055" lon="11.737415276826388"><ele>314.0</ele><time>2026-03-29T16:57:55Z</time></trkpt><trkpt lat="43.271216673114935" lon="11.737582825216647"><ele>315.0</ele><time>2026-03-29T16:57:57Z</time></trkpt><trkpt lat="43.271221006160765" lon="11.737669278703155"><ele>315.5</ele><time>2026-03-29T16:57:58Z</time></trkpt><trkpt lat="43.27123450313839" lon="11.73783668782878"><ele>316.0</ele><time>2026-03-29T16:58:00Z</time></trkpt><trkpt lat="43.27125239250589" lon="11.738005211451988"><ele>316.5</ele><time>2026-03-29T16:58:02Z</time></trkpt><trkpt lat="43.27128298154655" lon="11.738159154052665"><ele>317.0</ele><time>2026-03-29T16:58:04Z</time></trkpt><trkpt lat="43.27125930821388" lon="11.738300826041346"><ele>317.0</ele><time>2026-03-29T16:58:05.999Z</time></trkpt><trkpt lat="43.27122792028963" lon="11.738432919046607"><ele>317.0</ele><time>2026-03-29T16:58:07.999Z</time></trkpt><trkpt lat="43.27124990041078" lon="11.738526597431507"><ele>317.0</ele><time>2026-03-29T16:58:08.999Z</time></trkpt><trkpt lat="43.271243814798225" lon="11.738617080204133"><ele>317.0</ele><time>2026-03-29T16:58:09.999Z</time></trkpt><trkpt lat="43.27124109156206" lon="11.738715385923825"><ele>317.0</ele><time>2026-03-29T16:58:10.999Z</time></trkpt><trkpt lat="43.27122953886587" lon="11.738808812232694"><ele>317.0</ele><time>2026-03-29T16:58:11.999Z</time></trkpt><trkpt lat="43.27120460468549" lon="11.73889698159453"><ele>317.0</ele><time>2026-03-29T16:58:12.999Z</time></trkpt><trkpt lat="43.271152728708316" lon="11.738953583918668"><ele>318.6</ele><time>2026-03-29T16:58:13.999Z</time></trkpt><trkpt lat="43.2712170473747" lon="11.739165730524956"><ele>320.2</ele><time>2026-03-29T16:58:15.999Z</time></trkpt><trkpt lat="43.27126240901746" lon="11.739240796796889"><ele>321.8</ele><time>2026-03-29T16:58:16.999Z</time></trkpt><trkpt lat="43.271319759821914" lon="11.739303399873641"><ele>323.4</ele><time>2026-03-29T16:58:17.999Z</time></trkpt><trkpt lat="43.27137086965141" lon="11.73937236979521"><ele>325.0</ele><time>2026-03-29T16:58:18.999Z</time></trkpt><trkpt lat="43.27141961954786" lon="11.7394460059369"><ele>326.4285714285714</ele><time>2026-03-29T16:58:19.999Z</time></trkpt><trkpt lat="43.27147226225032" lon="11.739513667220875"><ele>327.8571428571429</ele><time>2026-03-29T16:58:20.999Z</time></trkpt><trkpt lat="43.27152276725458" lon="11.739585019290677"><ele>329.2857142857143</ele><time>2026-03-29T16:58:21.999Z</time></trkpt><trkpt lat="43.2715760406506" lon="11.73965639870649"><ele>330.71428571428567</ele><time>2026-03-29T16:58:22.999Z</time></trkpt><trkpt lat="43.271629933542" lon="11.739728289967466"><ele>332.1428571428571</ele><time>2026-03-29T16:58:23.999Z</time></trkpt><trkpt lat="43.27168081787699" lon="11.739797228775402"><ele>333.57142857142856</ele><time>2026-03-29T16:58:24.999Z</time></trkpt><trkpt lat="43.271730770038026" lon="11.739863401525266"><ele>335.0</ele><time>2026-03-29T16:58:25.999Z</time></trkpt><trkpt lat="43.27177967377873" lon="11.739932527349808"><ele>334.99999999999994</ele><time>2026-03-29T16:58:26.999Z</time></trkpt><trkpt lat="43.27183143004036" lon="11.74000122929291"><ele>335.0</ele><time>2026-03-29T16:58:27.999Z</time></trkpt><trkpt lat="43.27188259994661" lon="11.74007392531285"><ele>335.0</ele><time>2026-03-29T16:58:28.999Z</time></trkpt><trkpt lat="43.271934172665446" lon="11.740149010355356"><ele>335.0</ele><time>2026-03-29T16:58:29.999Z</time></trkpt><trkpt lat="43.27198241665332" lon="11.740226398508687"><ele>335.0</ele><time>2026-03-29T16:58:30.999Z</time></trkpt><trkpt lat="43.27202776591276" lon="11.740307638975114"><ele>334.99999999999994</ele><time>2026-03-29T16:58:31.999Z</time></trkpt><trkpt lat="43.27207566757" lon="11.740394273468784"><ele>335.0</ele><time>2026-03-29T16:58:32.999Z</time></trkpt><trkpt lat="43.27212200339283" lon="11.740480806618436"><ele>337.1666666666667</ele><time>2026-03-29T16:58:33.999Z</time></trkpt><trkpt lat="43.27216909547126" lon="11.740569704348713"><ele>339.33333333333337</ele><time>2026-03-29T16:58:34.999Z</time></trkpt><trkpt lat="43.272213619393035" lon="11.740658256948878"><ele>341.5</ele><time>2026-03-29T16:58:35.999Z</time></trkpt><trkpt lat="43.27225724981954" lon="11.740749306517827"><ele>343.6666666666667</ele><time>2026-03-29T16:58:36.999Z</time></trkpt><trkpt lat="43.27229952423619" lon="11.740838285346861"><ele>345.8333333333333</ele><time>2026-03-29T16:58:37.999Z</time></trkpt><trkpt lat="43.2723413581924" lon="11.74091856065686"><ele>348.0</ele><time>2026-03-29T16:58:38.999Z</time></trkpt><trkpt lat="43.272382903089586" lon="11.740992299968802"><ele>349.5</ele><time>2026-03-29T16:58:39.999Z</time></trkpt><trkpt lat="43.272425900176025" lon="11.741068658752457"><ele>351.0</ele><time>2026-03-29T16:58:40.999Z</time></trkpt><trkpt lat="43.272471969210564" lon="11.741139328102959"><ele>352.5</ele><time>2026-03-29T16:58:41.999Z</time></trkpt><trkpt lat="43.27251780896937" lon="11.741204806429861"><ele>354.0</ele><time>2026-03-29T16:58:42.999Z</time></trkpt><trkpt lat="43.272592143947755" lon="11.74132237792445"><ele>355.5</ele><time>2026-03-29T16:58:44.999Z</time></trkpt><trkpt lat="43.27265542454954" lon="11.741427658564866"><ele>357.0</ele><time>2026-03-29T16:58:46.999Z</time></trkpt><trkpt lat="43.272738449452355" lon="11.741549978161268"><ele>357.0</ele><time>2026-03-29T16:58:48.999Z</time></trkpt><trkpt lat="43.27278204370976" lon="11.74161599318653"><ele>357.0</ele><time>2026-03-29T16:58:49.999Z</time></trkpt><trkpt lat="43.2728259265959" lon="11.7416852156232"><ele>357.0</ele><time>2026-03-29T16:58:50.999Z</time></trkpt><trkpt lat="43.272868285228604" lon="11.741751179728805"><ele>357.0</ele><time>2026-03-29T16:58:51.999Z</time></trkpt><trkpt lat="43.27294855914383" lon="11.741867135092946"><ele>357.0</ele><time>2026-03-29T16:58:53.999Z</time></trkpt><trkpt lat="43.27299272790094" lon="11.74193226459856"><ele>357.0</ele><time>2026-03-29T16:58:54.999Z</time></trkpt><trkpt lat="43.27303845801223" lon="11.7420009665923"><ele>357.0</ele><time>2026-03-29T16:58:56Z</time></trkpt><trkpt lat="43.27308155766694" lon="11.742074281483854"><ele>358.5</ele><time>2026-03-29T16:58:57Z</time></trkpt><trkpt lat="43.273129951152825" lon="11.742140856192437"><ele>360.0</ele><time>2026-03-29T16:58:58Z</time></trkpt><trkpt lat="43.273180335240056" lon="11.74226335861347"><ele>361.5</ele><time>2026-03-29T16:59:00Z</time></trkpt><trkpt lat="43.27314437074058" lon="11.742337551323118"><ele>363.0</ele><time>2026-03-29T16:59:02Z</time></trkpt><trkpt lat="43.273058015436106" lon="11.74238743112169"><ele>364.5</ele><time>2026-03-29T16:59:03Z</time></trkpt><trkpt lat="43.27296320401886" lon="11.742444442942054"><ele>366.0</ele><time>2026-03-29T16:59:05Z</time></trkpt><trkpt lat="43.272943127799586" lon="11.742602764568113"><ele>368.0</ele><time>2026-03-29T16:59:08Z</time></trkpt><trkpt lat="43.272951776579774" lon="11.742738218075512"><ele>370.0</ele><time>2026-03-29T16:59:10Z</time></trkpt><trkpt lat="43.27296159384615" lon="11.742878899666817"><ele>372.0</ele><time>2026-03-29T16:59:12Z</time></trkpt><trkpt lat="43.27297631165892" lon="11.74301934790465"><ele>374.0</ele><time>2026-03-29T16:59:14Z</time></trkpt><trkpt lat="43.272988493335944" lon="11.743167131997044"><ele>376.0</ele><time>2026-03-29T16:59:16Z</time></trkpt><trkpt lat="43.273002013140314" lon="11.743319932985061"><ele>376.0</ele><time>2026-03-29T16:59:18Z</time></trkpt><trkpt lat="43.27301403768908" lon="11.743502286163082"><ele>376.0</ele><time>2026-03-29T16:59:21Z</time></trkpt><trkpt lat="43.2730111266417" lon="11.743630705524748"><ele>376.0</ele><time>2026-03-29T16:59:24Z</time></trkpt><trkpt lat="43.27302603535794" lon="11.743745875262727"><ele>376.0</ele><time>2026-03-29T16:59:26Z</time></trkpt><trkpt lat="43.27302539738399" lon="11.74386505547305"><ele>376.0</ele><time>2026-03-29T16:59:28Z</time></trkpt><trkpt lat="43.273033058236265" lon="11.743979159720864"><ele>377.4</ele><time>2026-03-29T16:59:30Z</time></trkpt><trkpt lat="43.27305341788934" lon="11.744079101802459"><ele>378.8</ele><time>2026-03-29T16:59:34Z</time></trkpt><trkpt lat="43.27306348320718" lon="11.744208502307728"><ele>380.2</ele><time>2026-03-29T16:59:44Z</time></trkpt><trkpt lat="43.27307988222938" lon="11.744332548141001"><ele>381.59999999999997</ele><time>2026-03-29T16:59:46Z</time></trkpt><trkpt lat="43.273150572531456" lon="11.744381020026474"><ele>383.0</ele><time>2026-03-29T16:59:47Z</time></trkpt><trkpt lat="43.273205928727485" lon="11.744524737395633"><ele>383.5</ele><time>2026-03-29T16:59:49Z</time></trkpt><trkpt lat="43.273253355931395" lon="11.744663155178678"><ele>384.0</ele><time>2026-03-29T16:59:51Z</time></trkpt><trkpt lat="43.27328016017596" lon="11.74481574664586"><ele>384.5</ele><time>2026-03-29T16:59:53Z</time></trkpt><trkpt lat="43.27319102903244" lon="11.744931660727854"><ele>385.0</ele><time>2026-03-29T16:59:55Z</time></trkpt><trkpt lat="43.2730766910978" lon="11.745012956641798"><ele>385.00000000000006</ele><time>2026-03-29T16:59:57Z</time></trkpt><trkpt lat="43.273010317966346" lon="11.74515072978816"><ele>385.0</ele><time>2026-03-29T16:59:59Z</time></trkpt><trkpt lat="43.2730361721246" lon="11.745273825846173"><ele>385.0</ele><time>2026-03-29T17:00:00Z</time></trkpt><trkpt lat="43.273063239456974" lon="11.745375766314735"><ele>385.0</ele><time>2026-03-29T17:00:01Z</time></trkpt><trkpt lat="43.273091105622285" lon="11.745473908081491"><ele>385.00000000000006</ele><time>2026-03-29T17:00:02Z</time></trkpt><trkpt lat="43.27311189234848" lon="11.745572644989437"><ele>385.0</ele><time>2026-03-29T17:00:03Z</time></trkpt><trkpt lat="43.273127837507865" lon="11.745675603762015"><ele>385.50000000000006</ele><time>2026-03-29T17:00:04Z</time></trkpt><trkpt lat="43.27315024833135" lon="11.74577763250247"><ele>386.0</ele><time>2026-03-29T17:00:05Z</time></trkpt><trkpt lat="43.27317076138344" lon="11.74587844432355"><ele>386.5</ele><time>2026-03-29T17:00:06Z</time></trkpt><trkpt lat="43.273191885797985" lon="11.745977869071872"><ele>387.0</ele><time>2026-03-29T17:00:07Z</time></trkpt><trkpt lat="43.27321366141798" lon="11.746086439991554"><ele>387.50000000000006</ele><time>2026-03-29T17:00:08Z</time></trkpt><trkpt lat="43.2732415435575" lon="11.746187248460597"><ele>388.0</ele><time>2026-03-29T17:00:09Z</time></trkpt><trkpt lat="43.27327298559501" lon="11.746292283064143"><ele>388.0</ele><time>2026-03-29T17:00:10Z</time></trkpt><trkpt lat="43.27330435840859" lon="11.746383662612862"><ele>388.0</ele><time>2026-03-29T17:00:11Z</time></trkpt><trkpt lat="43.27333853433063" lon="11.746474173152153"><ele>388.0</ele><time>2026-03-29T17:00:12Z</time></trkpt><trkpt lat="43.27337592534725" lon="11.746561185938702"><ele>388.0</ele><time>2026-03-29T17:00:13Z</time></trkpt><trkpt lat="43.27342470540956" lon="11.746643160081536"><ele>388.0</ele><time>2026-03-29T17:00:14Z</time></trkpt><trkpt lat="43.27348253311651" lon="11.746705864411435"><ele>388.0</ele><time>2026-03-29T17:00:15Z</time></trkpt><trkpt lat="43.273539475982716" lon="11.746765610368053"><ele>388.0</ele><time>2026-03-29T17:00:15.999Z</time></trkpt><trkpt lat="43.27360467422175" lon="11.746825419846125"><ele>387.1666666666667</ele><time>2026-03-29T17:00:16.999Z</time></trkpt><trkpt lat="43.27366507585292" lon="11.746890300194318"><ele>386.33333333333337</ele><time>2026-03-29T17:00:17.999Z</time></trkpt><trkpt lat="43.27372428070359" lon="11.746962654698352"><ele>385.5</ele><time>2026-03-29T17:00:18.999Z</time></trkpt><trkpt lat="43.27378531824991" lon="11.747030168297044"><ele>384.6666666666667</ele><time>2026-03-29T17:00:19.999Z</time></trkpt><trkpt lat="43.273845909966234" lon="11.747102179227129"><ele>383.83333333333337</ele><time>2026-03-29T17:00:20.999Z</time></trkpt><trkpt lat="43.273910607920506" lon="11.74716898641503"><ele>383.0</ele><time>2026-03-29T17:00:21.999Z</time></trkpt><trkpt lat="43.27397509485074" lon="11.747242185818267"><ele>383.0</ele><time>2026-03-29T17:00:22.999Z</time></trkpt><trkpt lat="43.27403782282799" lon="11.747311158942761"><ele>383.0</ele><time>2026-03-29T17:00:23.999Z</time></trkpt><trkpt lat="43.274097861473955" lon="11.747373340687048"><ele>383.0</ele><time>2026-03-29T17:00:24.999Z</time></trkpt><trkpt lat="43.2741571126865" lon="11.747432288433181"><ele>383.0</ele><time>2026-03-29T17:00:25.999Z</time></trkpt><trkpt lat="43.274203479995016" lon="11.7474928854701"><ele>383.0</ele><time>2026-03-29T17:00:26.999Z</time></trkpt><trkpt lat="43.27424495355502" lon="11.7476224843313"><ele>383.0</ele><time>2026-03-29T17:00:28.999Z</time></trkpt><trkpt lat="43.27429709915471" lon="11.74775638181218"><ele>382.0</ele><time>2026-03-29T17:00:30.999Z</time></trkpt><trkpt lat="43.274409243877436" lon="11.747848436272191"><ele>381.0</ele><time>2026-03-29T17:00:32.999Z</time></trkpt><trkpt lat="43.27447936675211" lon="11.747878879700945"><ele>380.0</ele><time>2026-03-29T17:00:33.999Z</time></trkpt><trkpt lat="43.274555453692535" lon="11.747910901434015"><ele>379.0</ele><time>2026-03-29T17:00:34.999Z</time></trkpt><trkpt lat="43.27463183370633" lon="11.747947198320215"><ele>378.0</ele><time>2026-03-29T17:00:35.999Z</time></trkpt><trkpt lat="43.27471005538958" lon="11.747989291045426"><ele>377.0</ele><time>2026-03-29T17:00:36.999Z</time></trkpt><trkpt lat="43.27478708727588" lon="11.7480262799008"><ele>377.0</ele><time>2026-03-29T17:00:37.999Z</time></trkpt><trkpt lat="43.27486833356443" lon="11.748046211837947"><ele>377.0</ele><time>2026-03-29T17:00:38.999Z</time></trkpt><trkpt lat="43.274949534050116" lon="11.748046468457527"><ele>377.0</ele><time>2026-03-29T17:00:39.999Z</time></trkpt><trkpt lat="43.27503262356888" lon="11.748046162047514"><ele>377.0</ele><time>2026-03-29T17:00:40.999Z</time></trkpt><trkpt lat="43.27510843429102" lon="11.748057312665962"><ele>377.0</ele><time>2026-03-29T17:00:41.999Z</time></trkpt><trkpt lat="43.27518363372369" lon="11.748109009504489"><ele>377.0</ele><time>2026-03-29T17:00:42.999Z</time></trkpt><trkpt lat="43.275246347324114" lon="11.748175856885034"><ele>377.0</ele><time>2026-03-29T17:00:43.999Z</time></trkpt><trkpt lat="43.27529431778082" lon="11.748269119156914"><ele>377.0</ele><time>2026-03-29T17:00:44.999Z</time></trkpt><trkpt lat="43.275335814541634" lon="11.748368214380722"><ele>377.0</ele><time>2026-03-29T17:00:45.999Z</time></trkpt><trkpt lat="43.2753783897055" lon="11.74847135292912"><ele>377.0</ele><time>2026-03-29T17:00:46.999Z</time></trkpt><trkpt lat="43.275430158348435" lon="11.748565760162016"><ele>377.0</ele><time>2026-03-29T17:00:47.999Z</time></trkpt><trkpt lat="43.275479756482554" lon="11.748655339168495"><ele>377.0</ele><time>2026-03-29T17:00:48.999Z</time></trkpt><trkpt lat="43.275521121398675" lon="11.748758513412556"><ele>376.33333333333337</ele><time>2026-03-29T17:00:49.999Z</time></trkpt><trkpt lat="43.275574724761" lon="11.748856927117668"><ele>375.6666666666667</ele><time>2026-03-29T17:00:50.999Z</time></trkpt><trkpt lat="43.27560376993431" lon="11.748967035440625"><ele>375.0</ele><time>2026-03-29T17:00:51.999Z</time></trkpt><trkpt lat="43.275632667752184" lon="11.749066822776669"><ele>374.3333333333333</ele><time>2026-03-29T17:00:52.999Z</time></trkpt><trkpt lat="43.27566413953136" lon="11.74918245652917"><ele>373.66666666666663</ele><time>2026-03-29T17:00:53.999Z</time></trkpt><trkpt lat="43.275694808916725" lon="11.749295142119026"><ele>373.0</ele><time>2026-03-29T17:00:54.999Z</time></trkpt><trkpt lat="43.27572514778594" lon="11.74941133950755"><ele>372.5</ele><time>2026-03-29T17:00:55.999Z</time></trkpt><trkpt lat="43.27577027329353" lon="11.749521624121803"><ele>372.0</ele><time>2026-03-29T17:00:56.999Z</time></trkpt><trkpt lat="43.27579710193406" lon="11.74963110269225"><ele>371.5</ele><time>2026-03-29T17:00:57.999Z</time></trkpt><trkpt lat="43.27582712326929" lon="11.74974614458833"><ele>371.0</ele><time>2026-03-29T17:00:58.999Z</time></trkpt><trkpt lat="43.27585452499938" lon="11.749860580639211"><ele>370.5</ele><time>2026-03-29T17:00:59.999Z</time></trkpt><trkpt lat="43.27588417001006" lon="11.74997934812277"><ele>370.0</ele><time>2026-03-29T17:01:00.999Z</time></trkpt><trkpt lat="43.2759105771037" lon="11.750101110226316"><ele>369.6</ele><time>2026-03-29T17:01:02Z</time></trkpt><trkpt lat="43.27594137902025" lon="11.750223793686045"><ele>369.2</ele><time>2026-03-29T17:01:03Z</time></trkpt><trkpt lat="43.2759748931039" lon="11.750344575396872"><ele>368.79999999999995</ele><time>2026-03-29T17:01:04Z</time></trkpt><trkpt lat="43.27600157574693" lon="11.750466518404068"><ele>368.4</ele><time>2026-03-29T17:01:05Z</time></trkpt><trkpt lat="43.276031938008984" lon="11.75058924637839"><ele>368.0</ele><time>2026-03-29T17:01:06Z</time></trkpt><trkpt lat="43.27605598707211" lon="11.750696455080588"><ele>368.0</ele><time>2026-03-29T17:01:07Z</time></trkpt><trkpt lat="43.276094548606814" lon="11.750808191508721"><ele>368.0</ele><time>2026-03-29T17:01:08Z</time></trkpt><trkpt lat="43.27612517062159" lon="11.750937093804827"><ele>368.0</ele><time>2026-03-29T17:01:09Z</time></trkpt><trkpt lat="43.27615477488528" lon="11.751054968505533"><ele>368.0</ele><time>2026-03-29T17:01:10Z</time></trkpt><trkpt lat="43.27618176614733" lon="11.751163690193518"><ele>368.0</ele><time>2026-03-29T17:01:11Z</time></trkpt><trkpt lat="43.27619226604744" lon="11.751289138948254"><ele>366.79999999999995</ele><time>2026-03-29T17:01:12Z</time></trkpt><trkpt lat="43.2762281540076" lon="11.751404951717657"><ele>365.6</ele><time>2026-03-29T17:01:13Z</time></trkpt><trkpt lat="43.276222668872045" lon="11.751528933999861"><ele>364.4</ele><time>2026-03-29T17:01:14Z</time></trkpt><trkpt lat="43.27621074422177" lon="11.751658673037648"><ele>363.20000000000005</ele><time>2026-03-29T17:01:15Z</time></trkpt><trkpt lat="43.27620672182271" lon="11.751790180516824"><ele>362.0</ele><time>2026-03-29T17:01:16Z</time></trkpt><trkpt lat="43.27619692242777" lon="11.751920909013188"><ele>361.0</ele><time>2026-03-29T17:01:17Z</time></trkpt><trkpt lat="43.2761912109345" lon="11.752063918123248"><ele>360.0</ele><time>2026-03-29T17:01:18Z</time></trkpt><trkpt lat="43.27618604827827" lon="11.752203622262043"><ele>359.0</ele><time>2026-03-29T17:01:19Z</time></trkpt><trkpt lat="43.27618322981106" lon="11.752348114328377"><ele>358.0</ele><time>2026-03-29T17:01:20Z</time></trkpt><trkpt lat="43.27618170920451" lon="11.752492178599706"><ele>357.0</ele><time>2026-03-29T17:01:21Z</time></trkpt><trkpt lat="43.27618833790107" lon="11.752635913988032"><ele>356.40000000000003</ele><time>2026-03-29T17:01:22Z</time></trkpt><trkpt lat="43.27620442241918" lon="11.752775519923409"><ele>355.8</ele><time>2026-03-29T17:01:23Z</time></trkpt><trkpt lat="43.27623296719587" lon="11.75291038436286"><ele>355.2</ele><time>2026-03-29T17:01:24Z</time></trkpt><trkpt lat="43.2762673237576" lon="11.753045143226135"><ele>354.6</ele><time>2026-03-29T17:01:25Z</time></trkpt><trkpt lat="43.27631108722506" lon="11.753176694192785"><ele>354.0</ele><time>2026-03-29T17:01:26Z</time></trkpt><trkpt lat="43.27636033393534" lon="11.753299412659134"><ele>354.0</ele><time>2026-03-29T17:01:27Z</time></trkpt><trkpt lat="43.27640731004526" lon="11.753421973045143"><ele>354.0</ele><time>2026-03-29T17:01:28Z</time></trkpt><trkpt lat="43.27644782824247" lon="11.753550135260094"><ele>354.0</ele><time>2026-03-29T17:01:29Z</time></trkpt><trkpt lat="43.27647522545997" lon="11.75368093395897"><ele>354.0</ele><time>2026-03-29T17:01:30Z</time></trkpt><trkpt lat="43.276498173722885" lon="11.753811536709522"><ele>354.0</ele><time>2026-03-29T17:01:31Z</time></trkpt><trkpt lat="43.276520932007436" lon="11.753941623110661"><ele>353.4</ele><time>2026-03-29T17:01:32Z</time></trkpt><trkpt lat="43.27654414158586" lon="11.754073619010299"><ele>352.79999999999995</ele><time>2026-03-29T17:01:33Z</time></trkpt><trkpt lat="43.2765719011506" lon="11.75420823412836"><ele>352.20000000000005</ele><time>2026-03-29T17:01:34Z</time></trkpt><trkpt lat="43.27660356669253" lon="11.754342008692511"><ele>351.6</ele><time>2026-03-29T17:01:35Z</time></trkpt><trkpt lat="43.27663640936909" lon="11.754476552796282"><ele>351.0</ele><time>2026-03-29T17:01:36Z</time></trkpt><trkpt lat="43.27665856122072" lon="11.754621008312428"><ele>350.4</ele><time>2026-03-29T17:01:37Z</time></trkpt><trkpt lat="43.27668804491963" lon="11.754759124965322"><ele>349.8</ele><time>2026-03-29T17:01:38Z</time></trkpt><trkpt lat="43.276719370874424" lon="11.754906225872801"><ele>349.2</ele><time>2026-03-29T17:01:39Z</time></trkpt><trkpt lat="43.27675068158351" lon="11.755054314371707"><ele>348.59999999999997</ele><time>2026-03-29T17:01:40Z</time></trkpt><trkpt lat="43.276781123185756" lon="11.75520106979657"><ele>348.0</ele><time>2026-03-29T17:01:41Z</time></trkpt><trkpt lat="43.27681039731941" lon="11.755347665226404"><ele>346.59999999999997</ele><time>2026-03-29T17:01:42Z</time></trkpt><trkpt lat="43.27683629035355" lon="11.755488642786574"><ele>345.2</ele><time>2026-03-29T17:01:43Z</time></trkpt><trkpt lat="43.27684928140354" lon="11.755620984864326"><ele>343.8</ele><time>2026-03-29T17:01:44Z</time></trkpt><trkpt lat="43.2768469996726" lon="11.755753886143458"><ele>342.4</ele><time>2026-03-29T17:01:45Z</time></trkpt><trkpt lat="43.27681761281747" lon="11.755865529060335"><ele>341.0</ele><time>2026-03-29T17:01:46Z</time></trkpt><trkpt lat="43.27677919739107" lon="11.755947188362581"><ele>339.0</ele><time>2026-03-29T17:01:47Z</time></trkpt><trkpt lat="43.276717561488425" lon="11.756037309593543"><ele>337.0</ele><time>2026-03-29T17:01:49Z</time></trkpt><trkpt lat="43.27678065403511" lon="11.756163191095448"><ele>335.0</ele><time>2026-03-29T17:01:50Z</time></trkpt><trkpt lat="43.27682225844088" lon="11.756243876666858"><ele>333.0</ele><time>2026-03-29T17:01:51Z</time></trkpt><trkpt lat="43.276871187579246" lon="11.756330879620233"><ele>331.0</ele><time>2026-03-29T17:01:52Z</time></trkpt><trkpt lat="43.276921789311174" lon="11.756425081109448"><ele>329.0</ele><time>2026-03-29T17:01:53Z</time></trkpt><trkpt lat="43.27697799150948" lon="11.756526308185174"><ele>329.0</ele><time>2026-03-29T17:01:54Z</time></trkpt><trkpt lat="43.27704121609628" lon="11.756624703834508"><ele>329.0</ele><time>2026-03-29T17:01:55Z</time></trkpt><trkpt lat="43.27710735213237" lon="11.756722582950937"><ele>329.0</ele><time>2026-03-29T17:01:56Z</time></trkpt><trkpt lat="43.277182087160796" lon="11.756816971165422"><ele>329.0</ele><time>2026-03-29T17:01:57Z</time></trkpt><trkpt lat="43.27725640345529" lon="11.756915843716879"><ele>329.0</ele><time>2026-03-29T17:01:58Z</time></trkpt><trkpt lat="43.277332911409516" lon="11.757012614219258"><ele>326.8</ele><time>2026-03-29T17:01:59Z</time></trkpt><trkpt lat="43.27741069720208" lon="11.757107901791931"><ele>324.59999999999997</ele><time>2026-03-29T17:02:00Z</time></trkpt><trkpt lat="43.27749426978572" lon="11.757193000638528"><ele>322.4</ele><time>2026-03-29T17:02:01Z</time></trkpt><trkpt lat="43.27757704492012" lon="11.757297215870434"><ele>320.2</ele><time>2026-03-29T17:02:02Z</time></trkpt><trkpt lat="43.27764372261367" lon="11.757405891904007"><ele>318.0</ele><time>2026-03-29T17:02:03Z</time></trkpt><trkpt lat="43.277710513076904" lon="11.757506037604667"><ele>318.0</ele><time>2026-03-29T17:02:04Z</time></trkpt><trkpt lat="43.27777182408913" lon="11.757610586813325"><ele>318.0</ele><time>2026-03-29T17:02:05Z</time></trkpt><trkpt lat="43.277835152591564" lon="11.757708262149922"><ele>318.0</ele><time>2026-03-29T17:02:06Z</time></trkpt><trkpt lat="43.27785325371316" lon="11.7578315514532"><ele>318.0</ele><time>2026-03-29T17:02:07Z</time></trkpt><trkpt lat="43.27786836280272" lon="11.757956770633571"><ele>318.0</ele><time>2026-03-29T17:02:08Z</time></trkpt><trkpt lat="43.277893893006805" lon="11.758075930198961"><ele>316.4</ele><time>2026-03-29T17:02:09Z</time></trkpt><trkpt lat="43.27791130328025" lon="11.758200697505227"><ele>314.8</ele><time>2026-03-29T17:02:10Z</time></trkpt><trkpt lat="43.27793969614359" lon="11.758323502522027"><ele>313.2</ele><time>2026-03-29T17:02:11Z</time></trkpt><trkpt lat="43.27798083775456" lon="11.758445174469356"><ele>311.6</ele><time>2026-03-29T17:02:12Z</time></trkpt><trkpt lat="43.2780303678189" lon="11.758566824887925"><ele>310.0</ele><time>2026-03-29T17:02:13Z</time></trkpt><trkpt lat="43.27808200854307" lon="11.758686126453322"><ele>310.4</ele><time>2026-03-29T17:02:14Z</time></trkpt><trkpt lat="43.278133564308476" lon="11.758801756355231"><ele>310.8</ele><time>2026-03-29T17:02:15Z</time></trkpt><trkpt lat="43.278157346051934" lon="11.758932243168474"><ele>311.2</ele><time>2026-03-29T17:02:16Z</time></trkpt><trkpt lat="43.278196798293955" lon="11.759062292657449"><ele>311.6</ele><time>2026-03-29T17:02:17Z</time></trkpt><trkpt lat="43.27821186537871" lon="11.75920175379652"><ele>312.0</ele><time>2026-03-29T17:02:18Z</time></trkpt><trkpt lat="43.27823456890974" lon="11.759341642437162"><ele>310.0</ele><time>2026-03-29T17:02:19Z</time></trkpt><trkpt lat="43.27825854740363" lon="11.75948504728036"><ele>308.0</ele><time>2026-03-29T17:02:20Z</time></trkpt><trkpt lat="43.27829996852574" lon="11.75961634833718"><ele>306.0</ele><time>2026-03-29T17:02:21Z</time></trkpt><trkpt lat="43.27834023341884" lon="11.759747066294864"><ele>304.0</ele><time>2026-03-29T17:02:22Z</time></trkpt><trkpt lat="43.27837358004502" lon="11.75987352425119"><ele>302.0</ele><time>2026-03-29T17:02:23Z</time></trkpt><trkpt lat="43.278391106904685" lon="11.76000145348484"><ele>302.0</ele><time>2026-03-29T17:02:24Z</time></trkpt><trkpt lat="43.27841036036863" lon="11.760135416077647"><ele>302.0</ele><time>2026-03-29T17:02:25Z</time></trkpt><trkpt lat="43.27843756873653" lon="11.760268538058464"><ele>302.0</ele><time>2026-03-29T17:02:26Z</time></trkpt><trkpt lat="43.27848502023257" lon="11.760397504734417"><ele>302.0</ele><time>2026-03-29T17:02:27Z</time></trkpt><trkpt lat="43.27853147303356" lon="11.760531045837581"><ele>302.0</ele><time>2026-03-29T17:02:28Z</time></trkpt><trkpt lat="43.27859477594988" lon="11.76064850751253"><ele>299.8</ele><time>2026-03-29T17:02:29Z</time></trkpt><trkpt lat="43.27866521583313" lon="11.760758154512878"><ele>297.6</ele><time>2026-03-29T17:02:30Z</time></trkpt><trkpt lat="43.278723487144276" lon="11.760876022980478"><ele>295.40000000000003</ele><time>2026-03-29T17:02:31Z</time></trkpt><trkpt lat="43.27877518290963" lon="11.761001514904947"><ele>293.2</ele><time>2026-03-29T17:02:32Z</time></trkpt><trkpt lat="43.27881430646245" lon="11.76113021489499"><ele>291.0</ele><time>2026-03-29T17:02:33Z</time></trkpt><trkpt lat="43.27884810353386" lon="11.761262100324478"><ele>289.6</ele><time>2026-03-29T17:02:34Z</time></trkpt><trkpt lat="43.27889363674766" lon="11.761384727322385"><ele>288.20000000000005</ele><time>2026-03-29T17:02:35Z</time></trkpt><trkpt lat="43.27894413585884" lon="11.761496196128816"><ele>286.79999999999995</ele><time>2026-03-29T17:02:36Z</time></trkpt><trkpt lat="43.27900063455969" lon="11.761599187043606"><ele>285.4</ele><time>2026-03-29T17:02:37Z</time></trkpt><trkpt lat="43.279051257171325" lon="11.761704205760063"><ele>284.0</ele><time>2026-03-29T17:02:37.999Z</time></trkpt><trkpt lat="43.279089992533116" lon="11.761817192113119"><ele>281.2</ele><time>2026-03-29T17:02:38.999Z</time></trkpt><trkpt lat="43.27912429795624" lon="11.761932363981975"><ele>278.4</ele><time>2026-03-29T17:02:39.999Z</time></trkpt><trkpt lat="43.2791567638152" lon="11.762043947422496"><ele>275.6</ele><time>2026-03-29T17:02:40.999Z</time></trkpt><trkpt lat="43.279188626105245" lon="11.762131380527837"><ele>272.8</ele><time>2026-03-29T17:02:41.999Z</time></trkpt><trkpt lat="43.27922025498733" lon="11.762283296093232"><ele>270.0</ele><time>2026-03-29T17:02:43.999Z</time></trkpt><trkpt lat="43.27918080142417" lon="11.76238976214249"><ele>270.0</ele><time>2026-03-29T17:02:45.999Z</time></trkpt><trkpt lat="43.2793068624274" lon="11.762486152268425"><ele>270.0</ele><time>2026-03-29T17:02:47.999Z</time></trkpt><trkpt lat="43.27936595518722" lon="11.762534468412568"><ele>270.0</ele><time>2026-03-29T17:02:48.999Z</time></trkpt><trkpt lat="43.27944251153275" lon="11.762548020716329"><ele>270.0</ele><time>2026-03-29T17:02:49.999Z</time></trkpt><trkpt lat="43.27951114607443" lon="11.762613488315232"><ele>270.0</ele><time>2026-03-29T17:02:50.999Z</time></trkpt><trkpt lat="43.279578515909655" lon="11.762670586647081"><ele>270.0</ele><time>2026-03-29T17:02:51.999Z</time></trkpt><trkpt lat="43.27968256827202" lon="11.762627521949486"><ele>270.0</ele><time>2026-03-29T17:02:52.999Z</time></trkpt><trkpt lat="43.27975949354407" lon="11.762650369760676"><ele>270.0</ele><time>2026-03-29T17:02:53.999Z</time></trkpt><trkpt lat="43.279836746270384" lon="11.762682265385939"><ele>270.0</ele><time>2026-03-29T17:02:54.999Z</time></trkpt><trkpt lat="43.27990669887845" lon="11.762735780257868"><ele>270.0</ele><time>2026-03-29T17:02:55.999Z</time></trkpt><trkpt lat="43.27997349611774" lon="11.762806280371176"><ele>270.0</ele><time>2026-03-29T17:02:56.999Z</time></trkpt><trkpt lat="43.28003532196521" lon="11.762881858247008"><ele>268.3333333333333</ele><time>2026-03-29T17:02:57.999Z</time></trkpt><trkpt lat="43.28008529966903" lon="11.762957902087756"><ele>266.6666666666667</ele><time>2026-03-29T17:02:58.999Z</time></trkpt><trkpt lat="43.280153444896655" lon="11.763035390315645"><ele>265.0</ele><time>2026-03-29T17:02:59.999Z</time></trkpt><trkpt lat="43.28020912623142" lon="11.763116790382746"><ele>263.33333333333337</ele><time>2026-03-29T17:03:00.999Z</time></trkpt><trkpt lat="43.28025398332027" lon="11.76318635563845"><ele>261.6666666666667</ele><time>2026-03-29T17:03:01.999Z</time></trkpt><trkpt lat="43.28029198478771" lon="11.76326644316937"><ele>260.0</ele><time>2026-03-29T17:03:02.999Z</time></trkpt><trkpt lat="43.2803259440341" lon="11.763355319402041"><ele>260.0</ele><time>2026-03-29T17:03:03.999Z</time></trkpt><trkpt lat="43.280355143444474" lon="11.7634518013464"><ele>260.0</ele><time>2026-03-29T17:03:04.999Z</time></trkpt><trkpt lat="43.28037698701231" lon="11.763554371176713"><ele>260.0</ele><time>2026-03-29T17:03:05.999Z</time></trkpt><trkpt lat="43.2803930947697" lon="11.763657508220955"><ele>260.0</ele><time>2026-03-29T17:03:06.999Z</time></trkpt><trkpt lat="43.280410665502664" lon="11.763760253248032"><ele>260.0</ele><time>2026-03-29T17:03:08Z</time></trkpt><trkpt lat="43.28041776616749" lon="11.763865866212013"><ele>260.0</ele><time>2026-03-29T17:03:09Z</time></trkpt><trkpt lat="43.28042967890062" lon="11.763966775257646"><ele>260.2</ele><time>2026-03-29T17:03:10Z</time></trkpt><trkpt lat="43.28050680142321" lon="11.764052442642482"><ele>260.4</ele><time>2026-03-29T17:03:11Z</time></trkpt><trkpt lat="43.28055003887537" lon="11.764151216950435"><ele>260.6</ele><time>2026-03-29T17:03:12Z</time></trkpt><trkpt lat="43.28059629327578" lon="11.764254469021537"><ele>260.8</ele><time>2026-03-29T17:03:13Z</time></trkpt><trkpt lat="43.28063447275045" lon="11.764368406390547"><ele>261.0</ele><time>2026-03-29T17:03:14Z</time></trkpt><trkpt lat="43.280666069536494" lon="11.764487251263514"><ele>261.6</ele><time>2026-03-29T17:03:15Z</time></trkpt><trkpt lat="43.280694963265155" lon="11.764611154857844"><ele>262.20000000000005</ele><time>2026-03-29T17:03:16Z</time></trkpt><trkpt lat="43.28072474448486" lon="11.76473069230308"><ele>262.79999999999995</ele><time>2026-03-29T17:03:17Z</time></trkpt><trkpt lat="43.280759610344894" lon="11.764856903371927"><ele>263.4</ele><time>2026-03-29T17:03:18Z</time></trkpt><trkpt lat="43.28079197206914" lon="11.764975676998791"><ele>264.0</ele><time>2026-03-29T17:03:19Z</time></trkpt><trkpt lat="43.280828778672685" lon="11.765096609837705"><ele>263.4</ele><time>2026-03-29T17:03:20Z</time></trkpt><trkpt lat="43.280863263185736" lon="11.765215302650816"><ele>262.79999999999995</ele><time>2026-03-29T17:03:21Z</time></trkpt><trkpt lat="43.28089990285515" lon="11.765332621212966"><ele>262.20000000000005</ele><time>2026-03-29T17:03:22Z</time></trkpt><trkpt lat="43.280938535725575" lon="11.765451508191914"><ele>261.6</ele><time>2026-03-29T17:03:23Z</time></trkpt><trkpt lat="43.28098080727391" lon="11.765566605824205"><ele>261.0</ele><time>2026-03-29T17:03:24Z</time></trkpt><trkpt lat="43.28102742896479" lon="11.76567360313088"><ele>261.0</ele><time>2026-03-29T17:03:25Z</time></trkpt><trkpt lat="43.28106602591492" lon="11.765782231422463"><ele>261.0</ele><time>2026-03-29T17:03:26Z</time></trkpt><trkpt lat="43.28110145537722" lon="11.765899576236603"><ele>261.0</ele><time>2026-03-29T17:03:27Z</time></trkpt><trkpt lat="43.2811342338178" lon="11.766005055584301"><ele>261.0</ele><time>2026-03-29T17:03:28Z</time></trkpt><trkpt lat="43.28117792022197" lon="11.76610819235058"><ele>261.0</ele><time>2026-03-29T17:03:29Z</time></trkpt><trkpt lat="43.28121971873621" lon="11.76622030474701"><ele>261.0</ele><time>2026-03-29T17:03:30Z</time></trkpt><trkpt lat="43.28125894927745" lon="11.766331121522844"><ele>260.40000000000003</ele><time>2026-03-29T17:03:31Z</time></trkpt><trkpt lat="43.281298241491534" lon="11.76644614279258"><ele>259.8</ele><time>2026-03-29T17:03:32Z</time></trkpt><trkpt lat="43.28134103418777" lon="11.766573229311236"><ele>259.20000000000005</ele><time>2026-03-29T17:03:33Z</time></trkpt><trkpt lat="43.28139589445073" lon="11.766680539051015"><ele>258.6</ele><time>2026-03-29T17:03:34Z</time></trkpt><trkpt lat="43.28145987229779" lon="11.766782108445597"><ele>258.0</ele><time>2026-03-29T17:03:35Z</time></trkpt><trkpt lat="43.281523034865835" lon="11.766881220541567"><ele>257.6</ele><time>2026-03-29T17:03:36Z</time></trkpt><trkpt lat="43.28159445242256" lon="11.766962436060703"><ele>257.20000000000005</ele><time>2026-03-29T17:03:37Z</time></trkpt><trkpt lat="43.281669575056895" lon="11.767036148482052"><ele>256.8</ele><time>2026-03-29T17:03:38Z</time></trkpt><trkpt lat="43.28175307462288" lon="11.767095997566287"><ele>256.40000000000003</ele><time>2026-03-29T17:03:39Z</time></trkpt><trkpt lat="43.28183681336073" lon="11.767161416714643"><ele>256.0</ele><time>2026-03-29T17:03:40Z</time></trkpt><trkpt lat="43.28192462916825" lon="11.767206418404083"><ele>256.0</ele><time>2026-03-29T17:03:41Z</time></trkpt><trkpt lat="43.2820134543915" lon="11.767250538652503"><ele>256.0</ele><time>2026-03-29T17:03:42Z</time></trkpt><trkpt lat="43.282108178945194" lon="11.7672938043308"><ele>256.0</ele><time>2026-03-29T17:03:43Z</time></trkpt><trkpt lat="43.28220049496616" lon="11.767330445172254"><ele>256.0</ele><time>2026-03-29T17:03:44Z</time></trkpt><trkpt lat="43.28229495569966" lon="11.767370363797317"><ele>256.0</ele><time>2026-03-29T17:03:45Z</time></trkpt><trkpt lat="43.2823914538633" lon="11.76740683725556"><ele>255.8</ele><time>2026-03-29T17:03:46Z</time></trkpt><trkpt lat="43.28248778881484" lon="11.767446849507433"><ele>255.60000000000002</ele><time>2026-03-29T17:03:47Z</time></trkpt><trkpt lat="43.282583392660754" lon="11.767495858270696"><ele>255.4</ele><time>2026-03-29T17:03:48Z</time></trkpt><trkpt lat="43.28267449028831" lon="11.767555350913247"><ele>255.2</ele><time>2026-03-29T17:03:49Z</time></trkpt><trkpt lat="43.282763338149856" lon="11.767629813177123"><ele>255.0</ele><time>2026-03-29T17:03:50Z</time></trkpt><trkpt lat="43.28284714767913" lon="11.767716478222892"><ele>254.8</ele><time>2026-03-29T17:03:51Z</time></trkpt><trkpt lat="43.28292441060372" lon="11.767805438058756"><ele>254.6</ele><time>2026-03-29T17:03:52Z</time></trkpt><trkpt lat="43.28300100746886" lon="11.767895546257357"><ele>254.39999999999998</ele><time>2026-03-29T17:03:53Z</time></trkpt><trkpt lat="43.28307740473049" lon="11.767982475952303"><ele>254.2</ele><time>2026-03-29T17:03:54Z</time></trkpt><trkpt lat="43.28315359052996" lon="11.768069214629433"><ele>254.0</ele><time>2026-03-29T17:03:55Z</time></trkpt><trkpt lat="43.28322801145151" lon="11.768156663412189"><ele>254.39999999999998</ele><time>2026-03-29T17:03:56Z</time></trkpt><trkpt lat="43.283303116433004" lon="11.768241130782389"><ele>254.79999999999998</ele><time>2026-03-29T17:03:57Z</time></trkpt><trkpt lat="43.28338038822878" lon="11.768326211121174"><ele>255.20000000000002</ele><time>2026-03-29T17:03:58Z</time></trkpt><trkpt lat="43.28345631888965" lon="11.768412351917755"><ele>255.60000000000002</ele><time>2026-03-29T17:03:59Z</time></trkpt><trkpt lat="43.28353156548769" lon="11.768499076545995"><ele>256.0</ele><time>2026-03-29T17:04:00Z</time></trkpt><trkpt lat="43.283606632913134" lon="11.768586654215786"><ele>256.2</ele><time>2026-03-29T17:04:01Z</time></trkpt><trkpt lat="43.28368592898229" lon="11.768672861186909"><ele>256.40000000000003</ele><time>2026-03-29T17:04:02Z</time></trkpt><trkpt lat="43.28376252997753" lon="11.768762211281556"><ele>256.6</ele><time>2026-03-29T17:04:03Z</time></trkpt><trkpt lat="43.283836903381435" lon="11.768852395885373"><ele>256.8</ele><time>2026-03-29T17:04:04Z</time></trkpt><trkpt lat="43.28390913308417" lon="11.768941935239342"><ele>257.0</ele><time>2026-03-29T17:04:05Z</time></trkpt><trkpt lat="43.2839787595348" lon="11.769030930888846"><ele>257.0</ele><time>2026-03-29T17:04:06Z</time></trkpt><trkpt lat="43.28405008490511" lon="11.76911766446973"><ele>257.0</ele><time>2026-03-29T17:04:07Z</time></trkpt><trkpt lat="43.2841185311965" lon="11.76920515318438"><ele>257.0</ele><time>2026-03-29T17:04:08Z</time></trkpt><trkpt lat="43.28418988651332" lon="11.769293233529678"><ele>257.0</ele><time>2026-03-29T17:04:09Z</time></trkpt><trkpt lat="43.28425935077119" lon="11.7693833898808"><ele>257.0</ele><time>2026-03-29T17:04:10Z</time></trkpt><trkpt lat="43.284330615147205" lon="11.769478303010732"><ele>257.0</ele><time>2026-03-29T17:04:11Z</time></trkpt><trkpt lat="43.28440136338775" lon="11.769576180150644"><ele>257.0</ele><time>2026-03-29T17:04:12Z</time></trkpt><trkpt lat="43.2844710785505" lon="11.76967938031447"><ele>257.0</ele><time>2026-03-29T17:04:13Z</time></trkpt><trkpt lat="43.28453697028412" lon="11.769783542185195"><ele>257.0</ele><time>2026-03-29T17:04:14Z</time></trkpt><trkpt lat="43.28459773355249" lon="11.769899589600458"><ele>257.0</ele><time>2026-03-29T17:04:15Z</time></trkpt><trkpt lat="43.28465500928006" lon="11.770013519738265"><ele>257.0</ele><time>2026-03-29T17:04:16Z</time></trkpt><trkpt lat="43.28470949071338" lon="11.770130112835501"><ele>257.0</ele><time>2026-03-29T17:04:17Z</time></trkpt><trkpt lat="43.284762301712504" lon="11.770247619624737"><ele>257.0</ele><time>2026-03-29T17:04:18Z</time></trkpt><trkpt lat="43.28481307035059" lon="11.770363537408743"><ele>257.0</ele><time>2026-03-29T17:04:19Z</time></trkpt><trkpt lat="43.284863962152606" lon="11.770475550189099"><ele>257.0</ele><time>2026-03-29T17:04:20Z</time></trkpt><trkpt lat="43.28491465135338" lon="11.770587293217233"><ele>257.0</ele><time>2026-03-29T17:04:21Z</time></trkpt><trkpt lat="43.284966360370355" lon="11.770699449746909"><ele>257.0</ele><time>2026-03-29T17:04:22Z</time></trkpt><trkpt lat="43.2850166117222" lon="11.770811112755661"><ele>257.0</ele><time>2026-03-29T17:04:23Z</time></trkpt><trkpt lat="43.285067711856975" lon="11.77092387967318"><ele>257.0</ele><time>2026-03-29T17:04:24Z</time></trkpt><trkpt lat="43.28512062367162" lon="11.771035742800056"><ele>257.0</ele><time>2026-03-29T17:04:25Z</time></trkpt><trkpt lat="43.285171848517116" lon="11.771148835495305"><ele>257.0</ele><time>2026-03-29T17:04:26Z</time></trkpt><trkpt lat="43.285225841522404" lon="11.771263713714852"><ele>257.0</ele><time>2026-03-29T17:04:27Z</time></trkpt><trkpt lat="43.28527981168731" lon="11.77136833461947"><ele>257.0</ele><time>2026-03-29T17:04:28Z</time></trkpt><trkpt lat="43.285326414751076" lon="11.771484222472443"><ele>257.0</ele><time>2026-03-29T17:04:29Z</time></trkpt><trkpt lat="43.285372145225956" lon="11.771585884547823"><ele>257.0</ele><time>2026-03-29T17:04:30Z</time></trkpt><trkpt lat="43.28541769880599" lon="11.771682927960361"><ele>257.0</ele><time>2026-03-29T17:04:31Z</time></trkpt><trkpt lat="43.28545672098778" lon="11.771773457190195"><ele>257.0</ele><time>2026-03-29T17:04:32Z</time></trkpt><trkpt lat="43.285476815443516" lon="11.771878293388355"><ele>257.0</ele><time>2026-03-29T17:04:33Z</time></trkpt><trkpt lat="43.28546615603777" lon="11.771986430019973"><ele>257.0</ele><time>2026-03-29T17:04:34Z</time></trkpt><trkpt lat="43.28546714212497" lon="11.772101819480106"><ele>257.0</ele><time>2026-03-29T17:04:35Z</time></trkpt><trkpt lat="43.2854615503709" lon="11.772199675497903"><ele>257.0</ele><time>2026-03-29T17:04:36Z</time></trkpt><trkpt lat="43.2853285882252" lon="11.772292030844833"><ele>256.8</ele><time>2026-03-29T17:04:37Z</time></trkpt><trkpt lat="43.28525133556398" lon="11.772365377998101"><ele>256.6</ele><time>2026-03-29T17:04:38Z</time></trkpt><trkpt lat="43.285178797360345" lon="11.772440397389026"><ele>256.40000000000003</ele><time>2026-03-29T17:04:39Z</time></trkpt><trkpt lat="43.28513001241066" lon="11.772553613458854"><ele>256.2</ele><time>2026-03-29T17:04:40Z</time></trkpt><trkpt lat="43.285098646037945" lon="11.77267735713382"><ele>256.0</ele><time>2026-03-29T17:04:41Z</time></trkpt><trkpt lat="43.28508554745798" lon="11.772809390707824"><ele>256.0</ele><time>2026-03-29T17:04:42Z</time></trkpt><trkpt lat="43.2850969656943" lon="11.772941753305568"><ele>256.0</ele><time>2026-03-29T17:04:43Z</time></trkpt><trkpt lat="43.28512869596023" lon="11.773070801351917"><ele>256.0</ele><time>2026-03-29T17:04:44Z</time></trkpt><trkpt lat="43.285172237170336" lon="11.773192243621972"><ele>256.0</ele><time>2026-03-29T17:04:45Z</time></trkpt><trkpt lat="43.28522485138163" lon="11.773306318396319"><ele>256.0</ele><time>2026-03-29T17:04:46Z</time></trkpt><trkpt lat="43.28528198305949" lon="11.773415452450273"><ele>255.8</ele><time>2026-03-29T17:04:47Z</time></trkpt><trkpt lat="43.28533050980634" lon="11.77352250785185"><ele>255.60000000000002</ele><time>2026-03-29T17:04:48Z</time></trkpt><trkpt lat="43.28538094774163" lon="11.773633279048275"><ele>255.4</ele><time>2026-03-29T17:04:49Z</time></trkpt><trkpt lat="43.285430206096834" lon="11.773740336515115"><ele>255.2</ele><time>2026-03-29T17:04:50Z</time></trkpt><trkpt lat="43.28547704557003" lon="11.773850171917218"><ele>255.0</ele><time>2026-03-29T17:04:51Z</time></trkpt><trkpt lat="43.28552592495924" lon="11.773962877995062"><ele>255.0</ele><time>2026-03-29T17:04:52Z</time></trkpt><trkpt lat="43.28557364282795" lon="11.77407509350055"><ele>255.0</ele><time>2026-03-29T17:04:53Z</time></trkpt><trkpt lat="43.2856195057248" lon="11.774187974824544"><ele>255.0</ele><time>2026-03-29T17:04:53.999Z</time></trkpt><trkpt lat="43.285670206935485" lon="11.774298208164657"><ele>255.0</ele><time>2026-03-29T17:04:54.999Z</time></trkpt><trkpt lat="43.28571757308402" lon="11.774399907383968"><ele>255.0</ele><time>2026-03-29T17:04:55.999Z</time></trkpt><trkpt lat="43.28576495138767" lon="11.774511048998878"><ele>255.0</ele><time>2026-03-29T17:04:56.999Z</time></trkpt><trkpt lat="43.285814133496004" lon="11.774615490019348"><ele>255.0</ele><time>2026-03-29T17:04:57.999Z</time></trkpt><trkpt lat="43.28586291611685" lon="11.774721643173768"><ele>255.0</ele><time>2026-03-29T17:04:58.999Z</time></trkpt><trkpt lat="43.2859134277911" lon="11.774831854269015"><ele>255.0</ele><time>2026-03-29T17:04:59.999Z</time></trkpt><trkpt lat="43.28596190437707" lon="11.774946673279647"><ele>255.0</ele><time>2026-03-29T17:05:00.999Z</time></trkpt><trkpt lat="43.286014882538886" lon="11.77505748199916"><ele>255.0</ele><time>2026-03-29T17:05:01.999Z</time></trkpt><trkpt lat="43.28607441399078" lon="11.775161079135616"><ele>255.0</ele><time>2026-03-29T17:05:02.999Z</time></trkpt><trkpt lat="43.28614007120481" lon="11.775259034318493"><ele>255.0</ele><time>2026-03-29T17:05:03.999Z</time></trkpt><trkpt lat="43.286216640311125" lon="11.775346529958439"><ele>255.0</ele><time>2026-03-29T17:05:04.999Z</time></trkpt><trkpt lat="43.28630133649675" lon="11.77542993262536"><ele>255.0</ele><time>2026-03-29T17:05:05.999Z</time></trkpt><trkpt lat="43.286391560453566" lon="11.775505478912619"><ele>254.8</ele><time>2026-03-29T17:05:06.999Z</time></trkpt><trkpt lat="43.286488375656276" lon="11.775574724659963"><ele>254.6</ele><time>2026-03-29T17:05:07.999Z</time></trkpt><trkpt lat="43.286589353217515" lon="11.775638315780723"><ele>254.39999999999998</ele><time>2026-03-29T17:05:08.999Z</time></trkpt><trkpt lat="43.286693137196266" lon="11.775702248067795"><ele>254.2</ele><time>2026-03-29T17:05:09.999Z</time></trkpt><trkpt lat="43.28679471687322" lon="11.775765282418112"><ele>254.0</ele><time>2026-03-29T17:05:10.999Z</time></trkpt><trkpt lat="43.28689791761275" lon="11.775829696324386"><ele>254.0</ele><time>2026-03-29T17:05:11.999Z</time></trkpt><trkpt lat="43.28699888867076" lon="11.775898809928098"><ele>254.0</ele><time>2026-03-29T17:05:12.999Z</time></trkpt><trkpt lat="43.28710224256467" lon="11.775966324638361"><ele>254.0</ele><time>2026-03-29T17:05:14Z</time></trkpt><trkpt lat="43.287203881278295" lon="11.776031413660549"><ele>254.0</ele><time>2026-03-29T17:05:15Z</time></trkpt><trkpt lat="43.28730449499835" lon="11.776098664280347"><ele>254.2</ele><time>2026-03-29T17:05:16Z</time></trkpt><trkpt lat="43.28740203172766" lon="11.776168292170425"><ele>254.39999999999998</ele><time>2026-03-29T17:05:17Z</time></trkpt><trkpt lat="43.28749329834773" lon="11.7762382818303"><ele>254.6</ele><time>2026-03-29T17:05:18Z</time></trkpt><trkpt lat="43.2875787490955" lon="11.776321940648973"><ele>254.8</ele><time>2026-03-29T17:05:19Z</time></trkpt><trkpt lat="43.287656947463404" lon="11.776416742858078"><ele>255.0</ele><time>2026-03-29T17:05:20Z</time></trkpt><trkpt lat="43.28773376316693" lon="11.776510692825843"><ele>255.0</ele><time>2026-03-29T17:05:21Z</time></trkpt><trkpt lat="43.28780584907256" lon="11.77660239639226"><ele>255.0</ele><time>2026-03-29T17:05:22Z</time></trkpt><trkpt lat="43.28787498858286" lon="11.776702225592992"><ele>255.0</ele><time>2026-03-29T17:05:23Z</time></trkpt><trkpt lat="43.28793962743339" lon="11.776807773512015"><ele>255.0</ele><time>2026-03-29T17:05:24Z</time></trkpt><trkpt lat="43.28800656209529" lon="11.776910981958405"><ele>255.0</ele><time>2026-03-29T17:05:25Z</time></trkpt><trkpt lat="43.28807514141167" lon="11.777013595848208"><ele>255.4</ele><time>2026-03-29T17:05:26Z</time></trkpt><trkpt lat="43.288142350696496" lon="11.777118409000233"><ele>255.8</ele><time>2026-03-29T17:05:27Z</time></trkpt><trkpt lat="43.288209846884946" lon="11.777218888431564"><ele>256.2</ele><time>2026-03-29T17:05:28Z</time></trkpt><trkpt lat="43.288275352440515" lon="11.777320120634979"><ele>256.6</ele><time>2026-03-29T17:05:29Z</time></trkpt><trkpt lat="43.28834057169499" lon="11.77741952967872"><ele>257.0</ele><time>2026-03-29T17:05:30Z</time></trkpt><trkpt lat="43.2884106283584" lon="11.777519107640773"><ele>257.0</ele><time>2026-03-29T17:05:31Z</time></trkpt><trkpt lat="43.28847841787274" lon="11.777620823984394"><ele>257.0</ele><time>2026-03-29T17:05:32Z</time></trkpt><trkpt lat="43.28854958872252" lon="11.777723643491493"><ele>257.0</ele><time>2026-03-29T17:05:33Z</time></trkpt><trkpt lat="43.28862342560961" lon="11.777827563441868"><ele>257.0</ele><time>2026-03-29T17:05:34Z</time></trkpt><trkpt lat="43.28868470166156" lon="11.777931620509207"><ele>257.0</ele><time>2026-03-29T17:05:35Z</time></trkpt><trkpt lat="43.288747978295966" lon="11.778025556780086"><ele>257.2</ele><time>2026-03-29T17:05:36Z</time></trkpt><trkpt lat="43.28881178704501" lon="11.77812417949704"><ele>257.4</ele><time>2026-03-29T17:05:37Z</time></trkpt><trkpt lat="43.28887233790797" lon="11.77822369815522"><ele>257.6</ele><time>2026-03-29T17:05:38Z</time></trkpt><trkpt lat="43.288931421800115" lon="11.778322536669332"><ele>257.8</ele><time>2026-03-29T17:05:39Z</time></trkpt><trkpt lat="43.288988625289456" lon="11.778423742105476"><ele>258.0</ele><time>2026-03-29T17:05:40Z</time></trkpt><trkpt lat="43.289039430618786" lon="11.778532950851096"><ele>258.0</ele><time>2026-03-29T17:05:41Z</time></trkpt><trkpt lat="43.28908296729844" lon="11.778646244235517"><ele>258.0</ele><time>2026-03-29T17:05:42Z</time></trkpt><trkpt lat="43.289116744364215" lon="11.778765562659377"><ele>258.0</ele><time>2026-03-29T17:05:43Z</time></trkpt><trkpt lat="43.289140913247095" lon="11.77888842509258"><ele>258.0</ele><time>2026-03-29T17:05:44Z</time></trkpt><trkpt lat="43.28915022383935" lon="11.77900795232081"><ele>258.0</ele><time>2026-03-29T17:05:45Z</time></trkpt><trkpt lat="43.28915467911908" lon="11.779126595514771"><ele>258.0</ele><time>2026-03-29T17:05:46Z</time></trkpt><trkpt lat="43.28917812483884" lon="11.779243869363476"><ele>258.0</ele><time>2026-03-29T17:05:47Z</time></trkpt><trkpt lat="43.289210846588745" lon="11.779356132273486"><ele>258.0</ele><time>2026-03-29T17:05:48Z</time></trkpt><trkpt lat="43.28922966414029" lon="11.779477260514525"><ele>258.0</ele><time>2026-03-29T17:05:49Z</time></trkpt><trkpt lat="43.28923312473849" lon="11.779604743076408"><ele>258.0</ele><time>2026-03-29T17:05:50Z</time></trkpt><trkpt lat="43.28923747343334" lon="11.77972594778623"><ele>258.0</ele><time>2026-03-29T17:05:51Z</time></trkpt><trkpt lat="43.28923696313365" lon="11.779854056681295"><ele>258.2</ele><time>2026-03-29T17:05:52Z</time></trkpt><trkpt lat="43.28923441596656" lon="11.779980269298772"><ele>258.4</ele><time>2026-03-29T17:05:53Z</time></trkpt><trkpt lat="43.289231701108264" lon="11.780107093645425"><ele>258.59999999999997</ele><time>2026-03-29T17:05:54Z</time></trkpt><trkpt lat="43.28923432177174" lon="11.780229594528889"><ele>258.8</ele><time>2026-03-29T17:05:55Z</time></trkpt><trkpt lat="43.289250132278525" lon="11.780349998831179"><ele>259.0</ele><time>2026-03-29T17:05:56Z</time></trkpt><trkpt lat="43.28928140178411" lon="11.780472169424998"><ele>259.2</ele><time>2026-03-29T17:05:57Z</time></trkpt><trkpt lat="43.28932121431662" lon="11.780589576061415"><ele>259.4</ele><time>2026-03-29T17:05:58Z</time></trkpt><trkpt lat="43.28937725470106" lon="11.780695834073512"><ele>259.6</ele><time>2026-03-29T17:05:59Z</time></trkpt><trkpt lat="43.28944185834109" lon="11.78079363308844"><ele>259.8</ele><time>2026-03-29T17:06:00Z</time></trkpt><trkpt lat="43.28950609967214" lon="11.780889692194153"><ele>260.0</ele><time>2026-03-29T17:06:01Z</time></trkpt><trkpt lat="43.2895686275969" lon="11.78097509946101"><ele>259.8</ele><time>2026-03-29T17:06:02Z</time></trkpt><trkpt lat="43.2896306927355" lon="11.781067494905079"><ele>259.6</ele><time>2026-03-29T17:06:03Z</time></trkpt><trkpt lat="43.28968934086093" lon="11.78117021464874"><ele>259.4</ele><time>2026-03-29T17:06:04Z</time></trkpt><trkpt lat="43.28975365263263" lon="11.781263770387122"><ele>259.2</ele><time>2026-03-29T17:06:05Z</time></trkpt><trkpt lat="43.289814718540875" lon="11.781363310756628"><ele>259.0</ele><time>2026-03-29T17:06:06Z</time></trkpt><trkpt lat="43.289870621855584" lon="11.78146244014636"><ele>260.2</ele><time>2026-03-29T17:06:07Z</time></trkpt><trkpt lat="43.28992825655534" lon="11.781563000850356"><ele>261.4</ele><time>2026-03-29T17:06:08Z</time></trkpt><trkpt lat="43.28998721235801" lon="11.781662678334175"><ele>262.6</ele><time>2026-03-29T17:06:09Z</time></trkpt><trkpt lat="43.290044777364486" lon="11.7817666904867"><ele>263.8</ele><time>2026-03-29T17:06:10Z</time></trkpt><trkpt lat="43.29009945492897" lon="11.781872418886664"><ele>265.0</ele><time>2026-03-29T17:06:11Z</time></trkpt><trkpt lat="43.29015216171861" lon="11.78197980015108"><ele>265.0</ele><time>2026-03-29T17:06:12Z</time></trkpt><trkpt lat="43.29020345140479" lon="11.78208925204414"><ele>265.0</ele><time>2026-03-29T17:06:13Z</time></trkpt><trkpt lat="43.29025545786141" lon="11.782200040574837"><ele>265.0</ele><time>2026-03-29T17:06:14Z</time></trkpt><trkpt lat="43.29030580008082" lon="11.78230913434808"><ele>265.0</ele><time>2026-03-29T17:06:15Z</time></trkpt><trkpt lat="43.2903593553327" lon="11.782414053138032"><ele>265.0</ele><time>2026-03-29T17:06:16Z</time></trkpt><trkpt lat="43.29041320473806" lon="11.782517204841445"><ele>265.0</ele><time>2026-03-29T17:06:17Z</time></trkpt><trkpt lat="43.290463179400874" lon="11.782621815803687"><ele>265.0</ele><time>2026-03-29T17:06:18Z</time></trkpt><trkpt lat="43.29051680281" lon="11.782730345717109"><ele>265.0</ele><time>2026-03-29T17:06:19Z</time></trkpt><trkpt lat="43.29057201173551" lon="11.78283792841645"><ele>265.0</ele><time>2026-03-29T17:06:20Z</time></trkpt><trkpt lat="43.29062599834473" lon="11.78294926341892"><ele>265.0</ele><time>2026-03-29T17:06:21Z</time></trkpt><trkpt lat="43.290682560453256" lon="11.78306291421073"><ele>264.6</ele><time>2026-03-29T17:06:22Z</time></trkpt><trkpt lat="43.29073843627233" lon="11.783177950649566"><ele>264.2</ele><time>2026-03-29T17:06:23Z</time></trkpt><trkpt lat="43.29079630605332" lon="11.783290312594564"><ele>263.8</ele><time>2026-03-29T17:06:24Z</time></trkpt><trkpt lat="43.290866492846135" lon="11.783386102328905"><ele>263.4</ele><time>2026-03-29T17:06:25Z</time></trkpt><trkpt lat="43.290935510843056" lon="11.78348864311825"><ele>263.0</ele><time>2026-03-29T17:06:26Z</time></trkpt><trkpt lat="43.29100547063721" lon="11.783591065078186"><ele>263.0</ele><time>2026-03-29T17:06:27Z</time></trkpt><trkpt lat="43.29107484372424" lon="11.783690520299457"><ele>263.0</ele><time>2026-03-29T17:06:28Z</time></trkpt><trkpt lat="43.2911439891792" lon="11.783787014272912"><ele>263.0</ele><time>2026-03-29T17:06:29Z</time></trkpt><trkpt lat="43.291211229398925" lon="11.783885474241826"><ele>263.0</ele><time>2026-03-29T17:06:30Z</time></trkpt><trkpt lat="43.29127248432902" lon="11.783990322678449"><ele>263.0</ele><time>2026-03-29T17:06:31Z</time></trkpt><trkpt lat="43.291326717269335" lon="11.78410287625071"><ele>263.0</ele><time>2026-03-29T17:06:32Z</time></trkpt><trkpt lat="43.291376738870106" lon="11.784216583973993"><ele>263.0</ele><time>2026-03-29T17:06:33Z</time></trkpt><trkpt lat="43.291429628972445" lon="11.78432770286304"><ele>263.0</ele><time>2026-03-29T17:06:34Z</time></trkpt><trkpt lat="43.29148534435707" lon="11.784435528940776"><ele>263.0</ele><time>2026-03-29T17:06:35Z</time></trkpt><trkpt lat="43.29154299149358" lon="11.784541523804787"><ele>263.0</ele><time>2026-03-29T17:06:36Z</time></trkpt><trkpt lat="43.291600914905565" lon="11.78464665303226"><ele>263.0</ele><time>2026-03-29T17:06:37Z</time></trkpt><trkpt lat="43.29165960529658" lon="11.78475159935452"><ele>263.0</ele><time>2026-03-29T17:06:38Z</time></trkpt><trkpt lat="43.29171944991699" lon="11.784854447872197"><ele>263.0</ele><time>2026-03-29T17:06:39Z</time></trkpt><trkpt lat="43.291780178141295" lon="11.784962053269675"><ele>263.0</ele><time>2026-03-29T17:06:40Z</time></trkpt><trkpt lat="43.291839464488824" lon="11.78506803364469"><ele>263.0</ele><time>2026-03-29T17:06:41Z</time></trkpt><trkpt lat="43.29189167560238" lon="11.785183475859618"><ele>262.6</ele><time>2026-03-29T17:06:42Z</time></trkpt><trkpt lat="43.29193723780226" lon="11.785304273294331"><ele>262.20000000000005</ele><time>2026-03-29T17:06:43Z</time></trkpt><trkpt lat="43.291967060943485" lon="11.785438468017915"><ele>261.8</ele><time>2026-03-29T17:06:44Z</time></trkpt><trkpt lat="43.29198402989761" lon="11.78557179670245"><ele>261.40000000000003</ele><time>2026-03-29T17:06:45Z</time></trkpt><trkpt lat="43.29199740824034" lon="11.785712746719243"><ele>261.0</ele><time>2026-03-29T17:06:46Z</time></trkpt><trkpt lat="43.292008492340166" lon="11.785854553628461"><ele>261.0</ele><time>2026-03-29T17:06:47Z</time></trkpt><trkpt lat="43.29201418658532" lon="11.785998974081119"><ele>261.0</ele><time>2026-03-29T17:06:48Z</time></trkpt><trkpt lat="43.29200879508365" lon="11.786140482491462"><ele>261.0</ele><time>2026-03-29T17:06:49Z</time></trkpt><trkpt lat="43.292002492920005" lon="11.786284180280372"><ele>261.0</ele><time>2026-03-29T17:06:50Z</time></trkpt><trkpt lat="43.291997820757906" lon="11.786425395090294"><ele>261.0</ele><time>2026-03-29T17:06:51Z</time></trkpt><trkpt lat="43.29199229515374" lon="11.78656582329358"><ele>261.0</ele><time>2026-03-29T17:06:52Z</time></trkpt><trkpt lat="43.29198498142981" lon="11.78670672831798"><ele>261.0</ele><time>2026-03-29T17:06:53Z</time></trkpt><trkpt lat="43.29197707334651" lon="11.786847768065773"><ele>261.0</ele><time>2026-03-29T17:06:54Z</time></trkpt><trkpt lat="43.29197001694889" lon="11.78698795325773"><ele>261.0</ele><time>2026-03-29T17:06:55Z</time></trkpt><trkpt lat="43.291968380247006" lon="11.787129553226766"><ele>261.0</ele><time>2026-03-29T17:06:56Z</time></trkpt><trkpt lat="43.29197026932956" lon="11.787271241515288"><ele>261.0</ele><time>2026-03-29T17:06:57Z</time></trkpt><trkpt lat="43.291978148445395" lon="11.78741171706357"><ele>261.0</ele><time>2026-03-29T17:06:58Z</time></trkpt><trkpt lat="43.29199297706991" lon="11.787550011606298"><ele>261.0</ele><time>2026-03-29T17:06:59Z</time></trkpt><trkpt lat="43.292013712243175" lon="11.787680593892631"><ele>261.0</ele><time>2026-03-29T17:07:00Z</time></trkpt><trkpt lat="43.29203814642074" lon="11.787806298377202"><ele>261.0</ele><time>2026-03-29T17:07:01Z</time></trkpt><trkpt lat="43.29206774823999" lon="11.787927596357381"><ele>261.0</ele><time>2026-03-29T17:07:02Z</time></trkpt><trkpt lat="43.29209484154034" lon="11.788046595422388"><ele>261.0</ele><time>2026-03-29T17:07:02.999Z</time></trkpt><trkpt lat="43.2921025175185" lon="11.788170962878235"><ele>261.0</ele><time>2026-03-29T17:07:03.999Z</time></trkpt><trkpt lat="43.29208266287413" lon="11.788293940168286"><ele>261.0</ele><time>2026-03-29T17:07:04.999Z</time></trkpt><trkpt lat="43.292058964029984" lon="11.788411798438599"><ele>261.0</ele><time>2026-03-29T17:07:05.999Z</time></trkpt><trkpt lat="43.29203808835409" lon="11.78853114696325"><ele>261.0</ele><time>2026-03-29T17:07:06.999Z</time></trkpt><trkpt lat="43.29202043564597" lon="11.788649767506323"><ele>261.0</ele><time>2026-03-29T17:07:07.999Z</time></trkpt><trkpt lat="43.29201569635296" lon="11.788773887352535"><ele>261.0</ele><time>2026-03-29T17:07:08.999Z</time></trkpt><trkpt lat="43.29201893735823" lon="11.788899855206987"><ele>261.0</ele><time>2026-03-29T17:07:09.999Z</time></trkpt><trkpt lat="43.29203678602292" lon="11.789023986270015"><ele>261.0</ele><time>2026-03-29T17:07:10.999Z</time></trkpt><trkpt lat="43.292061342687866" lon="11.789146209080384"><ele>261.0</ele><time>2026-03-29T17:07:11.999Z</time></trkpt><trkpt lat="43.29208203674135" lon="11.789272700582819"><ele>261.0</ele><time>2026-03-29T17:07:12.999Z</time></trkpt><trkpt lat="43.29210687756765" lon="11.789400494971943"><ele>261.0</ele><time>2026-03-29T17:07:13.999Z</time></trkpt><trkpt lat="43.29212600175751" lon="11.78952751386524"><ele>261.0</ele><time>2026-03-29T17:07:14.999Z</time></trkpt><trkpt lat="43.292144923033085" lon="11.789653174865"><ele>261.0</ele><time>2026-03-29T17:07:15.999Z</time></trkpt><trkpt lat="43.29216506108358" lon="11.789775303604214"><ele>261.5</ele><time>2026-03-29T17:07:16.999Z</time></trkpt><trkpt lat="43.29218871901473" lon="11.789897580537449"><ele>262.0</ele><time>2026-03-29T17:07:17.999Z</time></trkpt><trkpt lat="43.292212386005176" lon="11.790017381806694"><ele>262.5</ele><time>2026-03-29T17:07:18.999Z</time></trkpt><trkpt lat="43.292239286121124" lon="11.7901338720818"><ele>263.0</ele><time>2026-03-29T17:07:20Z</time></trkpt><trkpt lat="43.29226952386758" lon="11.790244412018527"><ele>263.5</ele><time>2026-03-29T17:07:21Z</time></trkpt><trkpt lat="43.292302982091485" lon="11.790358443414915"><ele>264.0</ele><time>2026-03-29T17:07:22Z</time></trkpt><trkpt lat="43.292333307702634" lon="11.790469566520384"><ele>265.6666666666667</ele><time>2026-03-29T17:07:23Z</time></trkpt><trkpt lat="43.292367209796126" lon="11.7905818672219"><ele>267.3333333333333</ele><time>2026-03-29T17:07:24Z</time></trkpt><trkpt lat="43.29239718244374" lon="11.790693711663708"><ele>269.0</ele><time>2026-03-29T17:07:25Z</time></trkpt><trkpt lat="43.29242461181833" lon="11.79080939979169"><ele>270.66666666666663</ele><time>2026-03-29T17:07:26Z</time></trkpt><trkpt lat="43.29245372827692" lon="11.790925796956046"><ele>272.3333333333333</ele><time>2026-03-29T17:07:27Z</time></trkpt><trkpt lat="43.29248154472791" lon="11.7910386506694"><ele>274.0</ele><time>2026-03-29T17:07:28Z</time></trkpt><trkpt lat="43.292509358608505" lon="11.791148802819011"><ele>274.8333333333333</ele><time>2026-03-29T17:07:29Z</time></trkpt><trkpt lat="43.29253985834717" lon="11.791264029782152"><ele>275.66666666666663</ele><time>2026-03-29T17:07:30Z</time></trkpt><trkpt lat="43.29257113388649" lon="11.791379366087877"><ele>276.5</ele><time>2026-03-29T17:07:31Z</time></trkpt><trkpt lat="43.2925981192998" lon="11.791491365128257"><ele>277.3333333333333</ele><time>2026-03-29T17:07:32Z</time></trkpt><trkpt lat="43.29262861567789" lon="11.791603634855852"><ele>278.1666666666667</ele><time>2026-03-29T17:07:33Z</time></trkpt><trkpt lat="43.2926592189965" lon="11.791720933919587"><ele>279.0</ele><time>2026-03-29T17:07:34Z</time></trkpt><trkpt lat="43.292689277139" lon="11.791836261903345"><ele>279.8</ele><time>2026-03-29T17:07:35Z</time></trkpt><trkpt lat="43.292720416623155" lon="11.791951110470007"><ele>280.59999999999997</ele><time>2026-03-29T17:07:36Z</time></trkpt><trkpt lat="43.29275015339186" lon="11.792065457597987"><ele>281.4</ele><time>2026-03-29T17:07:37Z</time></trkpt><trkpt lat="43.29277807079382" lon="11.792186301780914"><ele>282.2</ele><time>2026-03-29T17:07:38Z</time></trkpt><trkpt lat="43.29280349900812" lon="11.79230402427106"><ele>283.0</ele><time>2026-03-29T17:07:39Z</time></trkpt><trkpt lat="43.292823372005834" lon="11.79242548369274"><ele>283.0</ele><time>2026-03-29T17:07:40Z</time></trkpt><trkpt lat="43.292832304463836" lon="11.792547288124329"><ele>283.0</ele><time>2026-03-29T17:07:41Z</time></trkpt><trkpt lat="43.29284085605054" lon="11.792670183169736"><ele>283.0</ele><time>2026-03-29T17:07:42Z</time></trkpt><trkpt lat="43.29284688215032" lon="11.792789478329777"><ele>283.0</ele><time>2026-03-29T17:07:43Z</time></trkpt><trkpt lat="43.29285529917656" lon="11.79290956269967"><ele>283.0</ele><time>2026-03-29T17:07:44Z</time></trkpt><trkpt lat="43.292863465066674" lon="11.793028108075402"><ele>283.0</ele><time>2026-03-29T17:07:45Z</time></trkpt><trkpt lat="43.29287411356486" lon="11.79315033257593"><ele>283.5</ele><time>2026-03-29T17:07:46Z</time></trkpt><trkpt lat="43.29288136736324" lon="11.79327324394713"><ele>284.0</ele><time>2026-03-29T17:07:47Z</time></trkpt><trkpt lat="43.29289200798114" lon="11.793393195768237"><ele>284.5</ele><time>2026-03-29T17:07:48Z</time></trkpt><trkpt lat="43.29290504016693" lon="11.79350933023639"><ele>285.0</ele><time>2026-03-29T17:07:49Z</time></trkpt><trkpt lat="43.29291964985372" lon="11.793631168408192"><ele>285.5</ele><time>2026-03-29T17:07:50Z</time></trkpt><trkpt lat="43.292929319920816" lon="11.793755048469402"><ele>286.0</ele><time>2026-03-29T17:07:51Z</time></trkpt><trkpt lat="43.29293875679651" lon="11.793878243908466"><ele>286.16666666666663</ele><time>2026-03-29T17:07:52Z</time></trkpt><trkpt lat="43.29294290960837" lon="11.79399967970141"><ele>286.3333333333333</ele><time>2026-03-29T17:07:53Z</time></trkpt><trkpt lat="43.29295282353807" lon="11.794117080487046"><ele>286.5</ele><time>2026-03-29T17:07:54Z</time></trkpt><trkpt lat="43.292956829416354" lon="11.794239033972985"><ele>286.6666666666667</ele><time>2026-03-29T17:07:55Z</time></trkpt><trkpt lat="43.29296609463616" lon="11.794362276905302"><ele>286.83333333333337</ele><time>2026-03-29T17:07:56Z</time></trkpt><trkpt lat="43.292979840456745" lon="11.79448210465226"><ele>287.0</ele><time>2026-03-29T17:07:57Z</time></trkpt><trkpt lat="43.29298750741334" lon="11.79460384790452"><ele>287.4</ele><time>2026-03-29T17:07:58Z</time></trkpt><trkpt lat="43.292998718362675" lon="11.794726102416634"><ele>287.79999999999995</ele><time>2026-03-29T17:07:59Z</time></trkpt><trkpt lat="43.293007480325805" lon="11.794853697339661"><ele>288.2</ele><time>2026-03-29T17:08:00Z</time></trkpt><trkpt lat="43.29301553532839" lon="11.794978690098871"><ele>288.59999999999997</ele><time>2026-03-29T17:08:01Z</time></trkpt><trkpt lat="43.29302468973529" lon="11.795103412388004"><ele>289.0</ele><time>2026-03-29T17:08:02Z</time></trkpt><trkpt lat="43.29302582036327" lon="11.795228429835257"><ele>290.16666666666663</ele><time>2026-03-29T17:08:03Z</time></trkpt><trkpt lat="43.29302243824614" lon="11.795351911243094"><ele>291.3333333333333</ele><time>2026-03-29T17:08:04Z</time></trkpt><trkpt lat="43.29301798800622" lon="11.795473842424231"><ele>292.5</ele><time>2026-03-29T17:08:05Z</time></trkpt><trkpt lat="43.2930117659956" lon="11.795593627112165"><ele>293.6666666666667</ele><time>2026-03-29T17:08:06Z</time></trkpt><trkpt lat="43.293001882952" lon="11.79571536090413"><ele>294.83333333333337</ele><time>2026-03-29T17:08:07Z</time></trkpt><trkpt lat="43.29299286069102" lon="11.795836238001177"><ele>296.0</ele><time>2026-03-29T17:08:08Z</time></trkpt><trkpt lat="43.29298191551213" lon="11.795955723109543"><ele>296.5</ele><time>2026-03-29T17:08:09Z</time></trkpt><trkpt lat="43.292966367781546" lon="11.796075080764359"><ele>297.0</ele><time>2026-03-29T17:08:10Z</time></trkpt><trkpt lat="43.2929478190056" lon="11.796197952179272"><ele>297.5</ele><time>2026-03-29T17:08:11Z</time></trkpt><trkpt lat="43.292932696494695" lon="11.796320166860546"><ele>298.0</ele><time>2026-03-29T17:08:12Z</time></trkpt><trkpt lat="43.292906057318966" lon="11.796435191800745"><ele>298.5</ele><time>2026-03-29T17:08:13Z</time></trkpt><trkpt lat="43.29287445862235" lon="11.796551100200825"><ele>299.0</ele><time>2026-03-29T17:08:14Z</time></trkpt><trkpt lat="43.29284207471724" lon="11.796666627583676"><ele>299.0</ele><time>2026-03-29T17:08:15Z</time></trkpt><trkpt lat="43.29281548854103" lon="11.796774874088001"><ele>299.0</ele><time>2026-03-29T17:08:16Z</time></trkpt><trkpt lat="43.292786566922835" lon="11.796888061718201"><ele>299.0</ele><time>2026-03-29T17:08:17Z</time></trkpt><trkpt lat="43.2927606281624" lon="11.797002173139532"><ele>299.0</ele><time>2026-03-29T17:08:18Z</time></trkpt><trkpt lat="43.29273469660572" lon="11.79711851100335"><ele>299.0</ele><time>2026-03-29T17:08:19Z</time></trkpt><trkpt lat="43.29270373163471" lon="11.797235437160412"><ele>299.0</ele><time>2026-03-29T17:08:20Z</time></trkpt><trkpt lat="43.29267188302103" lon="11.797354819023754"><ele>299.4</ele><time>2026-03-29T17:08:21Z</time></trkpt><trkpt lat="43.2926490242749" lon="11.797477562212526"><ele>299.79999999999995</ele><time>2026-03-29T17:08:22Z</time></trkpt><trkpt lat="43.292637192224944" lon="11.797602066075896"><ele>300.20000000000005</ele><time>2026-03-29T17:08:23Z</time></trkpt><trkpt lat="43.29262792005487" lon="11.797725957066186"><ele>300.6</ele><time>2026-03-29T17:08:24Z</time></trkpt><trkpt lat="43.29261352044193" lon="11.797851667792878"><ele>301.0</ele><time>2026-03-29T17:08:25Z</time></trkpt><trkpt lat="43.29259405271699" lon="11.79797448136696"><ele>302.0</ele><time>2026-03-29T17:08:26Z</time></trkpt><trkpt lat="43.29257140944732" lon="11.79809772983569"><ele>303.0</ele><time>2026-03-29T17:08:27Z</time></trkpt><trkpt lat="43.29256214651238" lon="11.798222533777977"><ele>304.0</ele><time>2026-03-29T17:08:28Z</time></trkpt><trkpt lat="43.29255174562839" lon="11.798348676124812"><ele>305.0</ele><time>2026-03-29T17:08:29Z</time></trkpt><trkpt lat="43.292538198201285" lon="11.798469013912337"><ele>306.0</ele><time>2026-03-29T17:08:30Z</time></trkpt><trkpt lat="43.29252248229815" lon="11.798585415022501"><ele>307.0</ele><time>2026-03-29T17:08:31Z</time></trkpt><trkpt lat="43.29251137791958" lon="11.798702612939103"><ele>308.0</ele><time>2026-03-29T17:08:32Z</time></trkpt><trkpt lat="43.29250574871462" lon="11.798813435296305"><ele>309.0</ele><time>2026-03-29T17:08:33Z</time></trkpt><trkpt lat="43.29249426025002" lon="11.798919032604104"><ele>310.0</ele><time>2026-03-29T17:08:34Z</time></trkpt><trkpt lat="43.292487956374046" lon="11.799068599914444"><ele>311.0</ele><time>2026-03-29T17:08:36Z</time></trkpt><trkpt lat="43.29247651206205" lon="11.799170493300856"><ele>312.0</ele><time>2026-03-29T17:08:39Z</time></trkpt><trkpt lat="43.292393249238586" lon="11.79922794418339"><ele>312.0</ele><time>2026-03-29T17:08:42Z</time></trkpt><trkpt lat="43.29241006818702" lon="11.799331828569459"><ele>312.0</ele><time>2026-03-29T17:08:44Z</time></trkpt><trkpt lat="43.29245780062456" lon="11.799418259399902"><ele>312.0</ele><time>2026-03-29T17:08:46Z</time></trkpt><trkpt lat="43.292520175152795" lon="11.7994561759743"><ele>312.0</ele><time>2026-03-29T17:08:47Z</time></trkpt><trkpt lat="43.29261111530187" lon="11.799532870693596"><ele>312.0</ele><time>2026-03-29T17:08:49Z</time></trkpt><trkpt lat="43.292673526642126" lon="11.799639041851993"><ele>312.0</ele><time>2026-03-29T17:08:51Z</time></trkpt><trkpt lat="43.29267864942049" lon="11.799726624652784"><ele>311.5</ele><time>2026-03-29T17:08:52Z</time></trkpt><trkpt lat="43.29271281682555" lon="11.799816752391935"><ele>311.0</ele><time>2026-03-29T17:08:53Z</time></trkpt><trkpt lat="43.29265492673834" lon="11.799900551987715"><ele>310.5</ele><time>2026-03-29T17:08:54Z</time></trkpt><trkpt lat="43.29264647399624" lon="11.800033250290133"><ele>310.0</ele><time>2026-03-29T17:08:58Z</time></trkpt><trkpt lat="43.29274994448035" lon="11.80009313287745"><ele>309.5</ele><time>2026-03-29T17:08:59Z</time></trkpt><trkpt lat="43.29280727865067" lon="11.800149356742988"><ele>309.0</ele><time>2026-03-29T17:09:00Z</time></trkpt><trkpt lat="43.292865853122784" lon="11.8002251977822"><ele>308.3333333333333</ele><time>2026-03-29T17:09:01Z</time></trkpt><trkpt lat="43.29292938494831" lon="11.800305933263525"><ele>307.6666666666667</ele><time>2026-03-29T17:09:02Z</time></trkpt><trkpt lat="43.29298760165872" lon="11.800378508655099"><ele>307.0</ele><time>2026-03-29T17:09:03Z</time></trkpt><trkpt lat="43.29304459422662" lon="11.800460457956728"><ele>306.33333333333337</ele><time>2026-03-29T17:09:04Z</time></trkpt><trkpt lat="43.29310046691472" lon="11.80054158870132"><ele>305.6666666666667</ele><time>2026-03-29T17:09:05Z</time></trkpt><trkpt lat="43.293151708310674" lon="11.800646490740471"><ele>305.0</ele><time>2026-03-29T17:09:06Z</time></trkpt><trkpt lat="43.29319875849095" lon="11.800741266784646"><ele>305.0</ele><time>2026-03-29T17:09:06.999Z</time></trkpt><trkpt lat="43.293249315328886" lon="11.800839284005889"><ele>305.0</ele><time>2026-03-29T17:09:07.999Z</time></trkpt><trkpt lat="43.29329743170513" lon="11.800940027665645"><ele>305.0</ele><time>2026-03-29T17:09:08.999Z</time></trkpt><trkpt lat="43.29334767101185" lon="11.80104929658219"><ele>305.0</ele><time>2026-03-29T17:09:09.999Z</time></trkpt><trkpt lat="43.29339807596504" lon="11.80115441017157"><ele>305.0</ele><time>2026-03-29T17:09:10.999Z</time></trkpt><trkpt lat="43.293454134688645" lon="11.80126599233017"><ele>304.0</ele><time>2026-03-29T17:09:11.999Z</time></trkpt><trkpt lat="43.293509239340175" lon="11.801381988050526"><ele>303.0</ele><time>2026-03-29T17:09:12.999Z</time></trkpt><trkpt lat="43.29356364053385" lon="11.80150049121184"><ele>302.0</ele><time>2026-03-29T17:09:13.999Z</time></trkpt><trkpt lat="43.29361543430706" lon="11.801615147498335"><ele>301.0</ele><time>2026-03-29T17:09:14.999Z</time></trkpt><trkpt lat="43.29366497755117" lon="11.801726404608608"><ele>300.0</ele><time>2026-03-29T17:09:15.999Z</time></trkpt><trkpt lat="43.293717552991545" lon="11.801838110790468"><ele>299.4</ele><time>2026-03-29T17:09:16.999Z</time></trkpt><trkpt lat="43.29376989202068" lon="11.801949109515991"><ele>298.8</ele><time>2026-03-29T17:09:17.999Z</time></trkpt><trkpt lat="43.29382024842963" lon="11.802058606574159"><ele>298.2</ele><time>2026-03-29T17:09:18.999Z</time></trkpt><trkpt lat="43.293870976682534" lon="11.802167065842202"><ele>297.6</ele><time>2026-03-29T17:09:19.999Z</time></trkpt><trkpt lat="43.293930641953025" lon="11.802273400377743"><ele>297.0</ele><time>2026-03-29T17:09:20.999Z</time></trkpt><trkpt lat="43.29398719888566" lon="11.802383323653995"><ele>297.0</ele><time>2026-03-29T17:09:21.999Z</time></trkpt><trkpt lat="43.294045317584946" lon="11.802484092237265"><ele>297.0</ele><time>2026-03-29T17:09:22.999Z</time></trkpt><trkpt lat="43.294111744711664" lon="11.802576310843289"><ele>297.0</ele><time>2026-03-29T17:09:23.999Z</time></trkpt><trkpt lat="43.29418025595853" lon="11.802661997656287"><ele>297.0</ele><time>2026-03-29T17:09:24.999Z</time></trkpt><trkpt lat="43.29425154554988" lon="11.802740186032691"><ele>297.0</ele><time>2026-03-29T17:09:25.999Z</time></trkpt><trkpt lat="43.29432601645248" lon="11.802802046188678"><ele>296.6666666666667</ele><time>2026-03-29T17:09:26.999Z</time></trkpt><trkpt lat="43.29439111928012" lon="11.802880644430028"><ele>296.3333333333333</ele><time>2026-03-29T17:09:27.999Z</time></trkpt><trkpt lat="43.294461846897974" lon="11.802948655241895"><ele>296.0</ele><time>2026-03-29T17:09:28.999Z</time></trkpt><trkpt lat="43.29453226984645" lon="11.803016373081608"><ele>295.66666666666663</ele><time>2026-03-29T17:09:29.999Z</time></trkpt><trkpt lat="43.29461238488794" lon="11.803072443946819"><ele>295.3333333333333</ele><time>2026-03-29T17:09:30.999Z</time></trkpt><trkpt lat="43.29468263795094" lon="11.803145994411276"><ele>295.0</ele><time>2026-03-29T17:09:31.999Z</time></trkpt><trkpt lat="43.294757621812195" lon="11.803216283876319"><ele>295.0</ele><time>2026-03-29T17:09:32.999Z</time></trkpt><trkpt lat="43.29483125173067" lon="11.803296002798733"><ele>295.0</ele><time>2026-03-29T17:09:33.999Z</time></trkpt><trkpt lat="43.294902881766355" lon="11.803377631896353"><ele>295.0</ele><time>2026-03-29T17:09:34.999Z</time></trkpt><trkpt lat="43.29497380982211" lon="11.803461058563038"><ele>295.0</ele><time>2026-03-29T17:09:35.999Z</time></trkpt><trkpt lat="43.29502744617654" lon="11.80353255842811"><ele>295.0</ele><time>2026-03-29T17:09:36.999Z</time></trkpt><trkpt lat="43.295077036062565" lon="11.803605255173894"><ele>295.0</ele><time>2026-03-29T17:09:37.999Z</time></trkpt><trkpt lat="43.29513224284267" lon="11.80369586901378"><ele>294.66666666666663</ele><time>2026-03-29T17:09:38.999Z</time></trkpt><trkpt lat="43.29517832556492" lon="11.803793904421441"><ele>294.3333333333333</ele><time>2026-03-29T17:09:39.999Z</time></trkpt><trkpt lat="43.29522032433989" lon="11.803885485651582"><ele>294.0</ele><time>2026-03-29T17:09:40.999Z</time></trkpt><trkpt lat="43.29525715197229" lon="11.803974078286176"><ele>293.6666666666667</ele><time>2026-03-29T17:09:41.999Z</time></trkpt><trkpt lat="43.295263481001015" lon="11.804072831593233"><ele>293.33333333333337</ele><time>2026-03-29T17:09:42.999Z</time></trkpt><trkpt lat="43.29528881707637" lon="11.804163141722464"><ele>293.0</ele><time>2026-03-29T17:09:43.999Z</time></trkpt><trkpt lat="43.2952802214269" lon="11.80427754058452"><ele>292.33333333333337</ele><time>2026-03-29T17:09:44.999Z</time></trkpt><trkpt lat="43.295270940564684" lon="11.804392990995485"><ele>291.6666666666667</ele><time>2026-03-29T17:09:45.999Z</time></trkpt><trkpt lat="43.295257665309265" lon="11.804509845597918"><ele>291.0</ele><time>2026-03-29T17:09:46.999Z</time></trkpt><trkpt lat="43.295236790881916" lon="11.804624070831911"><ele>290.3333333333333</ele><time>2026-03-29T17:09:47.999Z</time></trkpt><trkpt lat="43.295208067298475" lon="11.804738945808369"><ele>289.66666666666663</ele><time>2026-03-29T17:09:48.999Z</time></trkpt><trkpt lat="43.295174079117785" lon="11.804849693368762"><ele>289.0</ele><time>2026-03-29T17:09:49.999Z</time></trkpt><trkpt lat="43.29513954570302" lon="11.804965687777651"><ele>289.0</ele><time>2026-03-29T17:09:50.999Z</time></trkpt><trkpt lat="43.29510430924978" lon="11.80508264681814"><ele>289.0</ele><time>2026-03-29T17:09:51.999Z</time></trkpt><trkpt lat="43.29507034701995" lon="11.80519722495717"><ele>289.0</ele><time>2026-03-29T17:09:52.999Z</time></trkpt><trkpt lat="43.29504690360298" lon="11.805319383050172"><ele>289.0</ele><time>2026-03-29T17:09:53.999Z</time></trkpt><trkpt lat="43.295015447020724" lon="11.80544382982829"><ele>289.0</ele><time>2026-03-29T17:09:54.999Z</time></trkpt><trkpt lat="43.295008248832715" lon="11.805577826825099"><ele>287.4</ele><time>2026-03-29T17:09:55.999Z</time></trkpt><trkpt lat="43.29501911862938" lon="11.805719823493467"><ele>285.79999999999995</ele><time>2026-03-29T17:09:56.999Z</time></trkpt><trkpt lat="43.29505621427569" lon="11.805858102626505"><ele>284.20000000000005</ele><time>2026-03-29T17:09:57.999Z</time></trkpt><trkpt lat="43.29509037891447" lon="11.805984444010306"><ele>282.6</ele><time>2026-03-29T17:09:58.999Z</time></trkpt><trkpt lat="43.295127931291404" lon="11.80611202515747"><ele>281.0</ele><time>2026-03-29T17:09:59.999Z</time></trkpt><trkpt lat="43.29518660166184" lon="11.806226946436176"><ele>278.8</ele><time>2026-03-29T17:10:00.999Z</time></trkpt><trkpt lat="43.295243242205714" lon="11.806330032034543"><ele>276.6</ele><time>2026-03-29T17:10:01.999Z</time></trkpt><trkpt lat="43.29531610891711" lon="11.806443761901528"><ele>274.4</ele><time>2026-03-29T17:10:02.999Z</time></trkpt><trkpt lat="43.29537868182333" lon="11.806557808765492"><ele>272.2</ele><time>2026-03-29T17:10:03.999Z</time></trkpt><trkpt lat="43.29542721029051" lon="11.806693543464764"><ele>270.0</ele><time>2026-03-29T17:10:04.999Z</time></trkpt><trkpt lat="43.29547647866512" lon="11.806825865410197"><ele>268.5</ele><time>2026-03-29T17:10:05.999Z</time></trkpt><trkpt lat="43.29552973996442" lon="11.806960942494548"><ele>267.0</ele><time>2026-03-29T17:10:06.999Z</time></trkpt><trkpt lat="43.29558352093658" lon="11.807093302122471"><ele>265.5</ele><time>2026-03-29T17:10:07.999Z</time></trkpt><trkpt lat="43.295636663832326" lon="11.807234172554784"><ele>264.0</ele><time>2026-03-29T17:10:08.999Z</time></trkpt><trkpt lat="43.29567518449319" lon="11.807387381175744"><ele>264.0</ele><time>2026-03-29T17:10:09.999Z</time></trkpt><trkpt lat="43.2957291720952" lon="11.807523315932453"><ele>264.0</ele><time>2026-03-29T17:10:10.999Z</time></trkpt><trkpt lat="43.2957980652564" lon="11.807645739737376"><ele>264.0</ele><time>2026-03-29T17:10:11.999Z</time></trkpt><trkpt lat="43.295847912834994" lon="11.807779641657813"><ele>264.0</ele><time>2026-03-29T17:10:12.999Z</time></trkpt><trkpt lat="43.29590064059238" lon="11.80790346864246"><ele>264.0</ele><time>2026-03-29T17:10:13.999Z</time></trkpt><trkpt lat="43.295953997823716" lon="11.80802653377417"><ele>263.0</ele><time>2026-03-29T17:10:14.999Z</time></trkpt><trkpt lat="43.29600240634321" lon="11.808161066532817"><ele>262.0</ele><time>2026-03-29T17:10:15.999Z</time></trkpt><trkpt lat="43.296049357937335" lon="11.808287411354433"><ele>261.0</ele><time>2026-03-29T17:10:16.999Z</time></trkpt><trkpt lat="43.29609006480087" lon="11.808416306451036"><ele>260.0</ele><time>2026-03-29T17:10:17.999Z</time></trkpt><trkpt lat="43.296120169405214" lon="11.808546634130039"><ele>259.0</ele><time>2026-03-29T17:10:18.999Z</time></trkpt><trkpt lat="43.29613721683248" lon="11.808681214541192"><ele>258.59999999999997</ele><time>2026-03-29T17:10:19.999Z</time></trkpt><trkpt lat="43.29614069788437" lon="11.808815379796522"><ele>258.2</ele><time>2026-03-29T17:10:20.999Z</time></trkpt><trkpt lat="43.29616240104389" lon="11.808941714256983"><ele>257.79999999999995</ele><time>2026-03-29T17:10:21.999Z</time></trkpt><trkpt lat="43.29621427338203" lon="11.809060087607934"><ele>257.4</ele><time>2026-03-29T17:10:22.999Z</time></trkpt><trkpt lat="43.29626964263173" lon="11.809173618090671"><ele>257.0</ele><time>2026-03-29T17:10:23.999Z</time></trkpt><trkpt lat="43.29632946718254" lon="11.809279732452579"><ele>256.8</ele><time>2026-03-29T17:10:24.999Z</time></trkpt><trkpt lat="43.29638600629865" lon="11.809381477549858"><ele>256.6</ele><time>2026-03-29T17:10:25.999Z</time></trkpt><trkpt lat="43.29644364126451" lon="11.809494899012112"><ele>256.40000000000003</ele><time>2026-03-29T17:10:26.999Z</time></trkpt><trkpt lat="43.29647953177755" lon="11.809622259023472"><ele>256.2</ele><time>2026-03-29T17:10:27.999Z</time></trkpt><trkpt lat="43.2965403341321" lon="11.809735072977212"><ele>256.0</ele><time>2026-03-29T17:10:28.999Z</time></trkpt><trkpt lat="43.296587174303426" lon="11.809852792611258"><ele>255.4</ele><time>2026-03-29T17:10:29.999Z</time></trkpt><trkpt lat="43.29662755691829" lon="11.809972403756682"><ele>254.8</ele><time>2026-03-29T17:10:30.999Z</time></trkpt><trkpt lat="43.29666646506793" lon="11.810088393863152"><ele>254.20000000000002</ele><time>2026-03-29T17:10:31.999Z</time></trkpt><trkpt lat="43.296704699522756" lon="11.810203267323828"><ele>253.60000000000002</ele><time>2026-03-29T17:10:32.999Z</time></trkpt><trkpt lat="43.29673952003286" lon="11.810321585514565"><ele>253.0</ele><time>2026-03-29T17:10:33.999Z</time></trkpt><trkpt lat="43.29677632627656" lon="11.810445130856326"><ele>253.0</ele><time>2026-03-29T17:10:34.999Z</time></trkpt><trkpt lat="43.29681274356063" lon="11.810566173826023"><ele>253.0</ele><time>2026-03-29T17:10:35.999Z</time></trkpt><trkpt lat="43.296850243764204" lon="11.810685420190891"><ele>253.0</ele><time>2026-03-29T17:10:36.999Z</time></trkpt><trkpt lat="43.29688817979455" lon="11.810805644681901"><ele>253.0</ele><time>2026-03-29T17:10:37.999Z</time></trkpt><trkpt lat="43.29692532551268" lon="11.810921357099826"><ele>253.0</ele><time>2026-03-29T17:10:38.999Z</time></trkpt><trkpt lat="43.29695925072151" lon="11.811028083002887"><ele>253.14285714285717</ele><time>2026-03-29T17:10:39.999Z</time></trkpt><trkpt lat="43.29699236486535" lon="11.811123407954923"><ele>253.28571428571428</ele><time>2026-03-29T17:10:40.999Z</time></trkpt><trkpt lat="43.29702587843675" lon="11.811209658562682"><ele>253.42857142857144</ele><time>2026-03-29T17:10:41.999Z</time></trkpt><trkpt lat="43.29705911801771" lon="11.811291003859749"><ele>253.57142857142858</ele><time>2026-03-29T17:10:42.999Z</time></trkpt><trkpt lat="43.29709822506862" lon="11.811370082209487"><ele>253.71428571428572</ele><time>2026-03-29T17:10:43.999Z</time></trkpt><trkpt lat="43.29713638007684" lon="11.811445208163017"><ele>253.85714285714286</ele><time>2026-03-29T17:10:44.999Z</time></trkpt><trkpt lat="43.29716845829338" lon="11.811522134738558"><ele>254.0</ele><time>2026-03-29T17:10:45.999Z</time></trkpt><trkpt lat="43.29729786834729" lon="11.811547158277504"><ele>253.71428571428572</ele><time>2026-03-29T17:10:47.999Z</time></trkpt><trkpt lat="43.29735631323678" lon="11.811508310254183"><ele>253.42857142857142</ele><time>2026-03-29T17:10:48.999Z</time></trkpt><trkpt lat="43.297420599263965" lon="11.811483513509572"><ele>253.14285714285714</ele><time>2026-03-29T17:10:49.999Z</time></trkpt><trkpt lat="43.29748166641985" lon="11.811452531647447"><ele>252.85714285714286</ele><time>2026-03-29T17:10:50.999Z</time></trkpt><trkpt lat="43.2975448129912" lon="11.811458680628848"><ele>252.57142857142856</ele><time>2026-03-29T17:10:51.999Z</time></trkpt><trkpt lat="43.29760875569127" lon="11.81144366104279"><ele>252.28571428571428</ele><time>2026-03-29T17:10:52.999Z</time></trkpt><trkpt lat="43.29768177200527" lon="11.81142785824434"><ele>252.0</ele><time>2026-03-29T17:10:53.999Z</time></trkpt><trkpt lat="43.297756251433526" lon="11.811411738797348"><ele>252.0</ele><time>2026-03-29T17:10:54.999Z</time></trkpt><trkpt lat="43.29782810980596" lon="11.81140042511617"><ele>252.0</ele><time>2026-03-29T17:10:55.999Z</time></trkpt><trkpt lat="43.29790619875052" lon="11.81137138214652"><ele>252.0</ele><time>2026-03-29T17:10:56.999Z</time></trkpt><trkpt lat="43.29798942242786" lon="11.811368387575884"><ele>252.0</ele><time>2026-03-29T17:10:57.999Z</time></trkpt><trkpt lat="43.298077095869026" lon="11.811387797213317"><ele>252.0</ele><time>2026-03-29T17:10:58.999Z</time></trkpt><trkpt lat="43.298159966320526" lon="11.811368096294052"><ele>252.0</ele><time>2026-03-29T17:10:59.999Z</time></trkpt><trkpt lat="43.29824581727629" lon="11.811376833695672"><ele>252.16666666666666</ele><time>2026-03-29T17:11:00.999Z</time></trkpt><trkpt lat="43.298327142115866" lon="11.811406409217597"><ele>252.33333333333331</ele><time>2026-03-29T17:11:01.999Z</time></trkpt><trkpt lat="43.29841206320746" lon="11.81140203305443"><ele>252.5</ele><time>2026-03-29T17:11:02.999Z</time></trkpt><trkpt lat="43.2984950615242" lon="11.811425250082397"><ele>252.66666666666666</ele><time>2026-03-29T17:11:03.999Z</time></trkpt><trkpt lat="43.298579799964834" lon="11.811446490589452"><ele>252.83333333333331</ele><time>2026-03-29T17:11:04.999Z</time></trkpt><trkpt lat="43.29866465532031" lon="11.811470259779965"><ele>253.0</ele><time>2026-03-29T17:11:05.999Z</time></trkpt><trkpt lat="43.298747358700446" lon="11.811479835175037"><ele>252.99999999999997</ele><time>2026-03-29T17:11:06.999Z</time></trkpt><trkpt lat="43.29882951045773" lon="11.811487271636626"><ele>253.0</ele><time>2026-03-29T17:11:07.999Z</time></trkpt><trkpt lat="43.29890243965193" lon="11.811462837555089"><ele>253.0</ele><time>2026-03-29T17:11:08.999Z</time></trkpt><trkpt lat="43.29896901228509" lon="11.81139828807229"><ele>253.0</ele><time>2026-03-29T17:11:09.999Z</time></trkpt><trkpt lat="43.29902453305406" lon="11.811328118131842"><ele>252.99999999999997</ele><time>2026-03-29T17:11:10.999Z</time></trkpt><trkpt lat="43.29915108144251" lon="11.81129042007375"><ele>253.0</ele><time>2026-03-29T17:11:12.999Z</time></trkpt><trkpt lat="43.299225890088664" lon="11.811301929312137"><ele>252.99999999999997</ele><time>2026-03-29T17:11:13.999Z</time></trkpt><trkpt lat="43.29930179009552" lon="11.811329247696253"><ele>253.0</ele><time>2026-03-29T17:11:14.999Z</time></trkpt><trkpt lat="43.299379880853266" lon="11.81135347525429"><ele>253.0</ele><time>2026-03-29T17:11:15.999Z</time></trkpt><trkpt lat="43.29945879756512" lon="11.811365511237003"><ele>253.0</ele><time>2026-03-29T17:11:16.999Z</time></trkpt><trkpt lat="43.299542554657926" lon="11.811379559227657"><ele>252.99999999999997</ele><time>2026-03-29T17:11:17.999Z</time></trkpt><trkpt lat="43.29962153994692" lon="11.81139282087343"><ele>253.0</ele><time>2026-03-29T17:11:18.999Z</time></trkpt><trkpt lat="43.29969314759426" lon="11.811410582753581"><ele>253.14285714285717</ele><time>2026-03-29T17:11:19.999Z</time></trkpt><trkpt lat="43.299760335871404" lon="11.811422854326105"><ele>253.28571428571428</ele><time>2026-03-29T17:11:20.999Z</time></trkpt><trkpt lat="43.299824595280704" lon="11.811432934411178"><ele>253.42857142857144</ele><time>2026-03-29T17:11:21.999Z</time></trkpt><trkpt lat="43.29988989210583" lon="11.811447730215109"><ele>253.57142857142858</ele><time>2026-03-29T17:11:22.999Z</time></trkpt><trkpt lat="43.2999503602817" lon="11.811480530554444"><ele>253.71428571428572</ele><time>2026-03-29T17:11:23.999Z</time></trkpt><trkpt lat="43.300021138755255" lon="11.811492524273493"><ele>253.85714285714286</ele><time>2026-03-29T17:11:24.999Z</time></trkpt><trkpt lat="43.3000847790402" lon="11.811494271995434"><ele>254.0</ele><time>2026-03-29T17:11:25.999Z</time></trkpt><trkpt lat="43.300146221346985" lon="11.811526822973004"><ele>254.0</ele><time>2026-03-29T17:11:26.999Z</time></trkpt><trkpt lat="43.30021259683541" lon="11.811542413351184"><ele>254.0</ele><time>2026-03-29T17:11:27.999Z</time></trkpt><trkpt lat="43.300282508114044" lon="11.811563839393134"><ele>254.0</ele><time>2026-03-29T17:11:28.999Z</time></trkpt><trkpt lat="43.30035426807838" lon="11.811584960229219"><ele>254.0</ele><time>2026-03-29T17:11:29.999Z</time></trkpt><trkpt lat="43.300429611253776" lon="11.811603166354468"><ele>254.0</ele><time>2026-03-29T17:11:30.999Z</time></trkpt><trkpt lat="43.300498808523166" lon="11.811621845355564"><ele>254.0</ele><time>2026-03-29T17:11:32Z</time></trkpt><trkpt lat="43.300565984522194" lon="11.811644543575806"><ele>254.0</ele><time>2026-03-29T17:11:33Z</time></trkpt><trkpt lat="43.30063162055749" lon="11.811658560627643"><ele>254.57142857142858</ele><time>2026-03-29T17:11:34Z</time></trkpt><trkpt lat="43.30069835830629" lon="11.811654484692953"><ele>255.1428571428571</ele><time>2026-03-29T17:11:35Z</time></trkpt><trkpt lat="43.30076111541396" lon="11.81163995652694"><ele>255.7142857142857</ele><time>2026-03-29T17:11:36Z</time></trkpt><trkpt lat="43.30082698902268" lon="11.81163194550618"><ele>256.2857142857143</ele><time>2026-03-29T17:11:37Z</time></trkpt><trkpt lat="43.30089474334922" lon="11.811626551079502"><ele>256.85714285714283</ele><time>2026-03-29T17:11:38Z</time></trkpt><trkpt lat="43.30096297323949" lon="11.811601261622029"><ele>257.4285714285714</ele><time>2026-03-29T17:11:39Z</time></trkpt><trkpt lat="43.30102985614685" lon="11.81158314818061"><ele>258.0</ele><time>2026-03-29T17:11:40Z</time></trkpt><trkpt lat="43.30109754046326" lon="11.811570081413114"><ele>257.99999999999994</ele><time>2026-03-29T17:11:41Z</time></trkpt><trkpt lat="43.301170573300546" lon="11.811558391915568"><ele>258.0</ele><time>2026-03-29T17:11:42Z</time></trkpt><trkpt lat="43.301241189595444" lon="11.811548526137566"><ele>258.0</ele><time>2026-03-29T17:11:43Z</time></trkpt><trkpt lat="43.301306282242074" lon="11.811536220333023"><ele>258.0</ele><time>2026-03-29T17:11:44Z</time></trkpt><trkpt lat="43.301379985426806" lon="11.811526843839951"><ele>258.0</ele><time>2026-03-29T17:11:45Z</time></trkpt><trkpt lat="43.301448763999886" lon="11.811523591255124"><ele>257.99999999999994</ele><time>2026-03-29T17:11:46Z</time></trkpt><trkpt lat="43.301513727046455" lon="11.811509190223312"><ele>258.0</ele><time>2026-03-29T17:11:47Z</time></trkpt><trkpt lat="43.301574925142695" lon="11.811467026567822"><ele>257.99999999999994</ele><time>2026-03-29T17:11:48Z</time></trkpt><trkpt lat="43.30163244672979" lon="11.811410808942153"><ele>258.0</ele><time>2026-03-29T17:11:49Z</time></trkpt><trkpt lat="43.30168832500492" lon="11.811359890882057"><ele>258.0</ele><time>2026-03-29T17:11:50Z</time></trkpt><trkpt lat="43.3017488774213" lon="11.811328320931556"><ele>258.0</ele><time>2026-03-29T17:11:51Z</time></trkpt><trkpt lat="43.30180851977118" lon="11.811292847522752"><ele>258.0</ele><time>2026-03-29T17:11:52Z</time></trkpt><trkpt lat="43.30187274552223" lon="11.811261164847169"><ele>257.99999999999994</ele><time>2026-03-29T17:11:53Z</time></trkpt><trkpt lat="43.3019366363531" lon="11.811232901140116"><ele>258.0</ele><time>2026-03-29T17:11:54Z</time></trkpt><trkpt lat="43.30204092290394" lon="11.811188069024498"><ele>258.0</ele><time>2026-03-29T17:11:56Z</time></trkpt><trkpt lat="43.30212711160334" lon="11.811160083904532"><ele>258.0</ele><time>2026-03-29T17:11:58Z</time></trkpt><trkpt lat="43.302198887922046" lon="11.81118775436933"><ele>258.0</ele><time>2026-03-29T17:12:01Z</time></trkpt><trkpt lat="43.302195334162974" lon="11.81133946844527"><ele>258.0</ele><time>2026-03-29T17:12:03Z</time></trkpt><trkpt lat="43.30219281779695" lon="11.811441704037785"><ele>258.0</ele><time>2026-03-29T17:12:04Z</time></trkpt><trkpt lat="43.302195507173195" lon="11.81155845753873"><ele>258.0</ele><time>2026-03-29T17:12:05Z</time></trkpt><trkpt lat="43.30220094751724" lon="11.81167797050648"><ele>258.0</ele><time>2026-03-29T17:12:06Z</time></trkpt><trkpt lat="43.302203067008136" lon="11.811806660983745"><ele>258.0</ele><time>2026-03-29T17:12:06.999Z</time></trkpt><trkpt lat="43.30220822162961" lon="11.811940467865732"><ele>258.0</ele><time>2026-03-29T17:12:07.999Z</time></trkpt><trkpt lat="43.30221311226101" lon="11.812075545287856"><ele>258.0</ele><time>2026-03-29T17:12:08.999Z</time></trkpt><trkpt lat="43.302215148281064" lon="11.812211695433122"><ele>258.0</ele><time>2026-03-29T17:12:09.999Z</time></trkpt><trkpt lat="43.3022235697792" lon="11.812342971466123"><ele>257.0</ele><time>2026-03-29T17:12:10.999Z</time></trkpt><trkpt lat="43.302228328329385" lon="11.81247688547746"><ele>256.0</ele><time>2026-03-29T17:12:11.999Z</time></trkpt><trkpt lat="43.302233128925394" lon="11.812610855889833"><ele>255.0</ele><time>2026-03-29T17:12:12.999Z</time></trkpt><trkpt lat="43.30223001838178" lon="11.81274003912243"><ele>254.0</ele><time>2026-03-29T17:12:13.999Z</time></trkpt><trkpt lat="43.302223913428186" lon="11.81286962869242"><ele>253.0</ele><time>2026-03-29T17:12:14.999Z</time></trkpt><trkpt lat="43.30221955977535" lon="11.812999108667727"><ele>252.60000000000002</ele><time>2026-03-29T17:12:15.999Z</time></trkpt><trkpt lat="43.302214496200065" lon="11.81313085300793"><ele>252.20000000000002</ele><time>2026-03-29T17:12:16.999Z</time></trkpt><trkpt lat="43.302204081279235" lon="11.813260799283817"><ele>251.8</ele><time>2026-03-29T17:12:17.999Z</time></trkpt><trkpt lat="43.3021927419851" lon="11.813394521143255"><ele>251.4</ele><time>2026-03-29T17:12:18.999Z</time></trkpt><trkpt lat="43.302181326160714" lon="11.813532800431544"><ele>251.0</ele><time>2026-03-29T17:12:19.999Z</time></trkpt><trkpt lat="43.302170180068366" lon="11.813671497926661"><ele>250.4</ele><time>2026-03-29T17:12:20.999Z</time></trkpt><trkpt lat="43.30215648946017" lon="11.813813731655424"><ele>249.8</ele><time>2026-03-29T17:12:21.999Z</time></trkpt><trkpt lat="43.30214373553232" lon="11.813957622978835"><ele>249.20000000000002</ele><time>2026-03-29T17:12:22.999Z</time></trkpt><trkpt lat="43.30213343944633" lon="11.814099340572286"><ele>248.60000000000002</ele><time>2026-03-29T17:12:23.999Z</time></trkpt><trkpt lat="43.30212625911975" lon="11.814241857871616"><ele>248.0</ele><time>2026-03-29T17:12:24.999Z</time></trkpt><trkpt lat="43.30211521237766" lon="11.814383443379999"><ele>247.8</ele><time>2026-03-29T17:12:25.999Z</time></trkpt><trkpt lat="43.3021058853222" lon="11.814520470043481"><ele>247.60000000000002</ele><time>2026-03-29T17:12:26.999Z</time></trkpt><trkpt lat="43.3020981287782" lon="11.814655443119802"><ele>247.39999999999998</ele><time>2026-03-29T17:12:27.999Z</time></trkpt><trkpt lat="43.30209429027686" lon="11.814790715803223"><ele>247.2</ele><time>2026-03-29T17:12:28.999Z</time></trkpt><trkpt lat="43.302099051914965" lon="11.814924073995952"><ele>247.0</ele><time>2026-03-29T17:12:29.999Z</time></trkpt><trkpt lat="43.30212637462608" lon="11.81505234341861"><ele>247.0</ele><time>2026-03-29T17:12:30.999Z</time></trkpt><trkpt lat="43.302165953761914" lon="11.815163477745374"><ele>247.0</ele><time>2026-03-29T17:12:31.999Z</time></trkpt><trkpt lat="43.30221069271552" lon="11.815272963928312"><ele>247.0</ele><time>2026-03-29T17:12:32.999Z</time></trkpt><trkpt lat="43.302254643319614" lon="11.81538224753796"><ele>247.0</ele><time>2026-03-29T17:12:33.999Z</time></trkpt><trkpt lat="43.302302800369006" lon="11.815490943850646"><ele>247.0</ele><time>2026-03-29T17:12:34.999Z</time></trkpt><trkpt lat="43.30234995083903" lon="11.815598037936505"><ele>247.0</ele><time>2026-03-29T17:12:35.999Z</time></trkpt><trkpt lat="43.30239492328917" lon="11.815708481035097"><ele>247.0</ele><time>2026-03-29T17:12:36.999Z</time></trkpt><trkpt lat="43.30243252916849" lon="11.815822974375026"><ele>247.0</ele><time>2026-03-29T17:12:37.999Z</time></trkpt><trkpt lat="43.302461596865584" lon="11.815941378701993"><ele>247.0</ele><time>2026-03-29T17:12:38.999Z</time></trkpt><trkpt lat="43.30248370189375" lon="11.816063396899187"><ele>247.0</ele><time>2026-03-29T17:12:39.999Z</time></trkpt><trkpt lat="43.302500737503586" lon="11.816188212170424"><ele>247.0</ele><time>2026-03-29T17:12:40.999Z</time></trkpt><trkpt lat="43.30251287618491" lon="11.816312540819645"><ele>247.0</ele><time>2026-03-29T17:12:41.999Z</time></trkpt><trkpt lat="43.30252416782127" lon="11.81644053606587"><ele>247.0</ele><time>2026-03-29T17:12:42.999Z</time></trkpt><trkpt lat="43.302536552675384" lon="11.81656839357629"><ele>247.0</ele><time>2026-03-29T17:12:43.999Z</time></trkpt><trkpt lat="43.30254844310863" lon="11.816697141232705"><ele>247.0</ele><time>2026-03-29T17:12:44.999Z</time></trkpt><trkpt lat="43.30255961774904" lon="11.816823943112713"><ele>247.0</ele><time>2026-03-29T17:12:45.999Z</time></trkpt><trkpt lat="43.30257629057443" lon="11.816951117437856"><ele>247.0</ele><time>2026-03-29T17:12:46.999Z</time></trkpt><trkpt lat="43.302597682238215" lon="11.817079418296752"><ele>247.0</ele><time>2026-03-29T17:12:47.999Z</time></trkpt><trkpt lat="43.30262123724925" lon="11.817207255533464"><ele>247.0</ele><time>2026-03-29T17:12:48.999Z</time></trkpt><trkpt lat="43.302648010210355" lon="11.817329291038002"><ele>247.0</ele><time>2026-03-29T17:12:49.999Z</time></trkpt><trkpt lat="43.30267685303717" lon="11.817454642121826"><ele>247.0</ele><time>2026-03-29T17:12:50.999Z</time></trkpt><trkpt lat="43.302706821273055" lon="11.817582313360143"><ele>247.0</ele><time>2026-03-29T17:12:51.999Z</time></trkpt><trkpt lat="43.30273854768277" lon="11.817709575407271"><ele>247.0</ele><time>2026-03-29T17:12:52.999Z</time></trkpt><trkpt lat="43.302776213771025" lon="11.817832398465056"><ele>247.0</ele><time>2026-03-29T17:12:53.999Z</time></trkpt><trkpt lat="43.30281451336614" lon="11.81795540636382"><ele>247.0</ele><time>2026-03-29T17:12:54.999Z</time></trkpt><trkpt lat="43.302859453838956" lon="11.81807453443472"><ele>247.0</ele><time>2026-03-29T17:12:55.999Z</time></trkpt><trkpt lat="43.302906961674594" lon="11.81819456000211"><ele>247.0</ele><time>2026-03-29T17:12:56.999Z</time></trkpt><trkpt lat="43.30295527166818" lon="11.818313565008323"><ele>247.0</ele><time>2026-03-29T17:12:57.999Z</time></trkpt><trkpt lat="43.30300979648489" lon="11.818431283480766"><ele>247.0</ele><time>2026-03-29T17:12:58.999Z</time></trkpt><trkpt lat="43.30307332122185" lon="11.81854394548037"><ele>247.0</ele><time>2026-03-29T17:12:59.999Z</time></trkpt><trkpt lat="43.30314520294661" lon="11.8186479189694"><ele>247.2</ele><time>2026-03-29T17:13:00.999Z</time></trkpt><trkpt lat="43.303223822027995" lon="11.818741240922076"><ele>247.39999999999998</ele><time>2026-03-29T17:13:01.999Z</time></trkpt><trkpt lat="43.30330714917977" lon="11.818823879493605"><ele>247.60000000000002</ele><time>2026-03-29T17:13:02.999Z</time></trkpt><trkpt lat="43.30339008589585" lon="11.818909297844895"><ele>247.8</ele><time>2026-03-29T17:13:03.999Z</time></trkpt><trkpt lat="43.30347112650234" lon="11.818994202198862"><ele>248.0</ele><time>2026-03-29T17:13:04.999Z</time></trkpt><trkpt lat="43.303548532411085" lon="11.81907994206061"><ele>248.0</ele><time>2026-03-29T17:13:05.999Z</time></trkpt><trkpt lat="43.30362393979154" lon="11.819167576429342"><ele>248.0</ele><time>2026-03-29T17:13:06.999Z</time></trkpt><trkpt lat="43.303697228671425" lon="11.819257584462608"><ele>248.0</ele><time>2026-03-29T17:13:07.999Z</time></trkpt><trkpt lat="43.30376811498912" lon="11.819348140481699"><ele>248.0</ele><time>2026-03-29T17:13:08.999Z</time></trkpt><trkpt lat="43.303834283945335" lon="11.819445618189324"><ele>248.0</ele><time>2026-03-29T17:13:09.999Z</time></trkpt><trkpt lat="43.30389719758514" lon="11.819545191039067"><ele>247.4</ele><time>2026-03-29T17:13:10.999Z</time></trkpt><trkpt lat="43.303957375948514" lon="11.819648351237557"><ele>246.8</ele><time>2026-03-29T17:13:11.999Z</time></trkpt><trkpt lat="43.30401483242595" lon="11.819752502161455"><ele>246.2</ele><time>2026-03-29T17:13:12.999Z</time></trkpt><trkpt lat="43.30407401180049" lon="11.819855226390244"><ele>245.6</ele><time>2026-03-29T17:13:13.999Z</time></trkpt><trkpt lat="43.30413143589565" lon="11.819958238582569"><ele>245.0</ele><time>2026-03-29T17:13:14.999Z</time></trkpt><trkpt lat="43.304187931168734" lon="11.820060648169163"><ele>245.2</ele><time>2026-03-29T17:13:15.999Z</time></trkpt><trkpt lat="43.30424673082104" lon="11.820163279812414"><ele>245.4</ele><time>2026-03-29T17:13:16.999Z</time></trkpt><trkpt lat="43.30430693176506" lon="11.820260041964298"><ele>245.60000000000002</ele><time>2026-03-29T17:13:17.999Z</time></trkpt><trkpt lat="43.30436704364815" lon="11.820355227951469"><ele>245.8</ele><time>2026-03-29T17:13:18.999Z</time></trkpt><trkpt lat="43.30442785640475" lon="11.820445309166555"><ele>246.0</ele><time>2026-03-29T17:13:19.999Z</time></trkpt><trkpt lat="43.30448864689494" lon="11.820525280659401"><ele>246.0</ele><time>2026-03-29T17:13:20.999Z</time></trkpt><trkpt lat="43.30454629185903" lon="11.820597577210414"><ele>246.0</ele><time>2026-03-29T17:13:21.999Z</time></trkpt><trkpt lat="43.30460242652474" lon="11.82066501303029"><ele>246.0</ele><time>2026-03-29T17:13:22.999Z</time></trkpt><trkpt lat="43.30468949446317" lon="11.82077762913325"><ele>246.0</ele><time>2026-03-29T17:13:24.999Z</time></trkpt><trkpt lat="43.30474107576022" lon="11.820842053425697"><ele>246.0</ele><time>2026-03-29T17:13:26.999Z</time></trkpt><trkpt lat="43.30479691628811" lon="11.820905894667378"><ele>246.0</ele><time>2026-03-29T17:13:28.999Z</time></trkpt><trkpt lat="43.30487320429456" lon="11.821022655892145"><ele>246.20000000000002</ele><time>2026-03-29T17:13:30.999Z</time></trkpt><trkpt lat="43.304950793588375" lon="11.821170197312686"><ele>246.40000000000003</ele><time>2026-03-29T17:13:32.999Z</time></trkpt><trkpt lat="43.30499361694453" lon="11.821269558297129"><ele>246.6</ele><time>2026-03-29T17:13:33.999Z</time></trkpt><trkpt lat="43.30502270054902" lon="11.821383702342981"><ele>246.8</ele><time>2026-03-29T17:13:34.999Z</time></trkpt><trkpt lat="43.30506547576646" lon="11.821491139197706"><ele>247.0</ele><time>2026-03-29T17:13:35.999Z</time></trkpt><trkpt lat="43.305120121507294" lon="11.821590934802197"><ele>247.0</ele><time>2026-03-29T17:13:36.999Z</time></trkpt><trkpt lat="43.305165053920504" lon="11.821706453335093"><ele>247.0</ele><time>2026-03-29T17:13:38Z</time></trkpt><trkpt lat="43.305212741281174" lon="11.82181912625429"><ele>247.0</ele><time>2026-03-29T17:13:39Z</time></trkpt><trkpt lat="43.30526147941525" lon="11.82193290208693"><ele>247.0</ele><time>2026-03-29T17:13:40Z</time></trkpt><trkpt lat="43.3053085577432" lon="11.822049438915313"><ele>247.0</ele><time>2026-03-29T17:13:41Z</time></trkpt><trkpt lat="43.305355408369834" lon="11.822170253643932"><ele>247.0</ele><time>2026-03-29T17:13:42Z</time></trkpt><trkpt lat="43.305401632090565" lon="11.822287340833476"><ele>247.0</ele><time>2026-03-29T17:13:43Z</time></trkpt><trkpt lat="43.30544908882796" lon="11.822406216041808"><ele>247.0</ele><time>2026-03-29T17:13:44Z</time></trkpt><trkpt lat="43.30549689933574" lon="11.82252499190679"><ele>247.0</ele><time>2026-03-29T17:13:45Z</time></trkpt><trkpt lat="43.30554415067819" lon="11.822645325130797"><ele>247.0</ele><time>2026-03-29T17:13:46Z</time></trkpt><trkpt lat="43.30559288089736" lon="11.822764673210195"><ele>246.8</ele><time>2026-03-29T17:13:47Z</time></trkpt><trkpt lat="43.30564108008147" lon="11.822884450242025"><ele>246.6</ele><time>2026-03-29T17:13:48Z</time></trkpt><trkpt lat="43.305686954099095" lon="11.823007449586136"><ele>246.40000000000003</ele><time>2026-03-29T17:13:49Z</time></trkpt><trkpt lat="43.305733935487666" lon="11.82313259479697"><ele>246.20000000000002</ele><time>2026-03-29T17:13:50Z</time></trkpt><trkpt lat="43.305786938799685" lon="11.823250314974652"><ele>246.0</ele><time>2026-03-29T17:13:51Z</time></trkpt><trkpt lat="43.30583658033702" lon="11.823370179856436"><ele>246.20000000000002</ele><time>2026-03-29T17:13:52Z</time></trkpt><trkpt lat="43.30588420180128" lon="11.82349701476028"><ele>246.40000000000003</ele><time>2026-03-29T17:13:53Z</time></trkpt><trkpt lat="43.30593256522313" lon="11.823620268036747"><ele>246.6</ele><time>2026-03-29T17:13:54Z</time></trkpt><trkpt lat="43.305984705786166" lon="11.823739927061121"><ele>246.8</ele><time>2026-03-29T17:13:55Z</time></trkpt><trkpt lat="43.3060255202421" lon="11.823874606135504"><ele>247.0</ele><time>2026-03-29T17:13:56Z</time></trkpt><trkpt lat="43.30609378226636" lon="11.823986583201883"><ele>247.0</ele><time>2026-03-29T17:13:57Z</time></trkpt><trkpt lat="43.30618150658839" lon="11.824062240767125"><ele>247.0</ele><time>2026-03-29T17:13:58Z</time></trkpt><trkpt lat="43.30628086864614" lon="11.824103596671758"><ele>247.0</ele><time>2026-03-29T17:13:59Z</time></trkpt><trkpt lat="43.30637755786032" lon="11.82414768939807"><ele>247.0</ele><time>2026-03-29T17:14:00Z</time></trkpt><trkpt lat="43.30647793468482" lon="11.824184550856659"><ele>247.0</ele><time>2026-03-29T17:14:01Z</time></trkpt><trkpt lat="43.306576170362135" lon="11.824214743695103"><ele>247.0</ele><time>2026-03-29T17:14:02Z</time></trkpt><trkpt lat="43.30666894381655" lon="11.824272809386908"><ele>247.0</ele><time>2026-03-29T17:14:03Z</time></trkpt><trkpt lat="43.30676822840146" lon="11.824312150138345"><ele>247.0</ele><time>2026-03-29T17:14:04Z</time></trkpt><trkpt lat="43.30686795576639" lon="11.824347472284334"><ele>247.0</ele><time>2026-03-29T17:14:05Z</time></trkpt><trkpt lat="43.30696490888703" lon="11.824398735986046"><ele>247.0</ele><time>2026-03-29T17:14:06Z</time></trkpt><trkpt lat="43.3070568845877" lon="11.824459823541915"><ele>247.0</ele><time>2026-03-29T17:14:07Z</time></trkpt><trkpt lat="43.30714658169766" lon="11.824532367668604"><ele>247.0</ele><time>2026-03-29T17:14:08Z</time></trkpt><trkpt lat="43.30723525250791" lon="11.82460368597665"><ele>247.0</ele><time>2026-03-29T17:14:09Z</time></trkpt><trkpt lat="43.307323681208835" lon="11.824675576644212"><ele>247.0</ele><time>2026-03-29T17:14:10Z</time></trkpt><trkpt lat="43.30740950477142" lon="11.824749613096113"><ele>247.0</ele><time>2026-03-29T17:14:11Z</time></trkpt><trkpt lat="43.30749450313897" lon="11.824827094884373"><ele>247.2</ele><time>2026-03-29T17:14:12Z</time></trkpt><trkpt lat="43.307578365791116" lon="11.824906768363688"><ele>247.39999999999998</ele><time>2026-03-29T17:14:13Z</time></trkpt><trkpt lat="43.30766169832018" lon="11.824987130034849"><ele>247.60000000000002</ele><time>2026-03-29T17:14:14Z</time></trkpt><trkpt lat="43.307744953128555" lon="11.825067790530133"><ele>247.8</ele><time>2026-03-29T17:14:15Z</time></trkpt><trkpt lat="43.30782693905875" lon="11.825146545875503"><ele>248.0</ele><time>2026-03-29T17:14:16Z</time></trkpt><trkpt lat="43.30790814062696" lon="11.825231640534788"><ele>248.0</ele><time>2026-03-29T17:14:17Z</time></trkpt><trkpt lat="43.307987629017006" lon="11.825315846759207"><ele>248.0</ele><time>2026-03-29T17:14:18Z</time></trkpt><trkpt lat="43.308066228484826" lon="11.825400361560371"><ele>248.0</ele><time>2026-03-29T17:14:18.999Z</time></trkpt><trkpt lat="43.30814376349499" lon="11.825485425432634"><ele>248.0</ele><time>2026-03-29T17:14:19.999Z</time></trkpt><trkpt lat="43.308220952973755" lon="11.825567456386741"><ele>248.0</ele><time>2026-03-29T17:14:20.999Z</time></trkpt><trkpt lat="43.308298657402474" lon="11.825648831226102"><ele>248.0</ele><time>2026-03-29T17:14:21.999Z</time></trkpt><trkpt lat="43.308376444109136" lon="11.825731325849407"><ele>248.0</ele><time>2026-03-29T17:14:22.999Z</time></trkpt><trkpt lat="43.30845206163633" lon="11.825812553862363"><ele>248.0</ele><time>2026-03-29T17:14:23.999Z</time></trkpt><trkpt lat="43.30852565511097" lon="11.825909228731216"><ele>248.0</ele><time>2026-03-29T17:14:24.999Z</time></trkpt><trkpt lat="43.30859534065786" lon="11.825994939306241"><ele>248.0</ele><time>2026-03-29T17:14:25.999Z</time></trkpt><trkpt lat="43.30865038337871" lon="11.826091872588888"><ele>247.83333333333334</ele><time>2026-03-29T17:14:26.999Z</time></trkpt><trkpt lat="43.30869305163197" lon="11.826195019650592"><ele>247.66666666666669</ele><time>2026-03-29T17:14:27.999Z</time></trkpt><trkpt lat="43.30873795383211" lon="11.826292936910036"><ele>247.5</ele><time>2026-03-29T17:14:28.999Z</time></trkpt><trkpt lat="43.308687146038594" lon="11.82635634036903"><ele>247.33333333333331</ele><time>2026-03-29T17:14:29.999Z</time></trkpt><trkpt lat="43.30870296474145" lon="11.826444088818167"><ele>247.16666666666666</ele><time>2026-03-29T17:14:30.999Z</time></trkpt><trkpt lat="43.308718475623316" lon="11.826530129739785"><ele>247.0</ele><time>2026-03-29T17:14:31.999Z</time></trkpt><trkpt lat="43.30875986630344" lon="11.826696498116636"><ele>246.0</ele><time>2026-03-29T17:14:33.999Z</time></trkpt><trkpt lat="43.30924513330036" lon="11.82662443705048"><ele>246.0</ele><time>2026-03-29T17:14:34.999Z</time></trkpt><trkpt lat="43.30930798625218" lon="11.82669462071318"><ele>246.0</ele><time>2026-03-29T17:14:35.999Z</time></trkpt><trkpt lat="43.30936892914258" lon="11.826757086503369"><ele>246.0</ele><time>2026-03-29T17:14:36.999Z</time></trkpt><trkpt lat="43.309429308259276" lon="11.82681703254948"><ele>246.0</ele><time>2026-03-29T17:14:37.999Z</time></trkpt><trkpt lat="43.309487620021464" lon="11.82688412106057"><ele>246.0</ele><time>2026-03-29T17:14:38.999Z</time></trkpt><trkpt lat="43.30954898623343" lon="11.826951094154996"><ele>246.0</ele><time>2026-03-29T17:14:39.999Z</time></trkpt><trkpt lat="43.30961056933625" lon="11.827022359484243"><ele>245.5714285714286</ele><time>2026-03-29T17:14:40.999Z</time></trkpt><trkpt lat="43.30966843130783" lon="11.827092853892022"><ele>245.14285714285717</ele><time>2026-03-29T17:14:41.999Z</time></trkpt><trkpt lat="43.30972787700952" lon="11.82716085892784"><ele>244.71428571428572</ele><time>2026-03-29T17:14:42.999Z</time></trkpt><trkpt lat="43.30978222791969" lon="11.827221935903465"><ele>244.2857142857143</ele><time>2026-03-29T17:14:43.999Z</time></trkpt><trkpt lat="43.309836612684634" lon="11.827280406022798"><ele>243.8571428571429</ele><time>2026-03-29T17:14:44.999Z</time></trkpt><trkpt lat="43.309898030482074" lon="11.82734794538795"><ele>243.42857142857142</ele><time>2026-03-29T17:14:45.999Z</time></trkpt><trkpt lat="43.309959460154566" lon="11.827410592999987"><ele>243.0</ele><time>2026-03-29T17:14:46.999Z</time></trkpt><trkpt lat="43.310019287604156" lon="11.827476930805343"><ele>243.0</ele><time>2026-03-29T17:14:47.999Z</time></trkpt><trkpt lat="43.31007465803734" lon="11.827539437344603"><ele>243.0</ele><time>2026-03-29T17:14:48.999Z</time></trkpt><trkpt lat="43.310128795347836" lon="11.827600389325749"><ele>243.0</ele><time>2026-03-29T17:14:49.999Z</time></trkpt><trkpt lat="43.31018122691314" lon="11.827660071977888"><ele>243.0</ele><time>2026-03-29T17:14:50.999Z</time></trkpt><trkpt lat="43.31023024391029" lon="11.827723433439585"><ele>243.0</ele><time>2026-03-29T17:14:51.999Z</time></trkpt><trkpt lat="43.31030617091229" lon="11.827830651748094"><ele>243.0</ele><time>2026-03-29T17:14:53.999Z</time></trkpt><trkpt lat="43.310366096946325" lon="11.827911573899367"><ele>243.0</ele><time>2026-03-29T17:14:55.999Z</time></trkpt><trkpt lat="43.31042075210178" lon="11.827984215325772"><ele>243.0</ele><time>2026-03-29T17:14:57.999Z</time></trkpt><trkpt lat="43.31045504055069" lon="11.82806083263187"><ele>243.0</ele><time>2026-03-29T17:15:00.999Z</time></trkpt><trkpt lat="43.31049517805925" lon="11.828142218271848"><ele>243.0</ele><time>2026-03-29T17:15:02.999Z</time></trkpt><trkpt lat="43.31053759684437" lon="11.828211358051709"><ele>243.0</ele><time>2026-03-29T17:15:03.999Z</time></trkpt><trkpt lat="43.3105874408178" lon="11.828282304523094"><ele>243.0</ele><time>2026-03-29T17:15:06.999Z</time></trkpt><trkpt lat="43.31066389180624" lon="11.828388492714087"><ele>243.0</ele><time>2026-03-29T17:15:07.999Z</time></trkpt><trkpt lat="43.31072721834383" lon="11.82847591505997"><ele>243.0</ele><time>2026-03-29T17:15:09.999Z</time></trkpt><trkpt lat="43.31079127007249" lon="11.828568992830215"><ele>243.0</ele><time>2026-03-29T17:15:12.999Z</time></trkpt><trkpt lat="43.31085566396029" lon="11.82867390882935"><ele>243.0</ele><time>2026-03-29T17:15:14.999Z</time></trkpt><trkpt lat="43.310932828354616" lon="11.828779053893212"><ele>243.0</ele><time>2026-03-29T17:15:16.999Z</time></trkpt><trkpt lat="43.31099936336167" lon="11.828877266532821"><ele>242.8</ele><time>2026-03-29T17:15:18.999Z</time></trkpt><trkpt lat="43.31106570857407" lon="11.82898066934409"><ele>242.60000000000002</ele><time>2026-03-29T17:15:20.999Z</time></trkpt><trkpt lat="43.31113569525865" lon="11.829081055987421"><ele>242.39999999999998</ele><time>2026-03-29T17:15:22.999Z</time></trkpt><trkpt lat="43.311204991815636" lon="11.829182641137146"><ele>242.2</ele><time>2026-03-29T17:15:24.999Z</time></trkpt><trkpt lat="43.31126943302388" lon="11.829282596108586"><ele>242.0</ele><time>2026-03-29T17:15:26.999Z</time></trkpt><trkpt lat="43.311340310335446" lon="11.829380827758799"><ele>242.0</ele><time>2026-03-29T17:15:28.999Z</time></trkpt><trkpt lat="43.31139845179674" lon="11.829465890723183"><ele>242.0</ele><time>2026-03-29T17:15:30.999Z</time></trkpt><trkpt lat="43.31146760108406" lon="11.829565832916678"><ele>242.0</ele><time>2026-03-29T17:15:32.999Z</time></trkpt><trkpt lat="43.31154003672067" lon="11.82966875841499"><ele>242.0</ele><time>2026-03-29T17:15:34.999Z</time></trkpt><trkpt lat="43.311614483944524" lon="11.829783213970146"><ele>242.0</ele><time>2026-03-29T17:15:36.999Z</time></trkpt><trkpt lat="43.31168183972124" lon="11.829884021413452"><ele>242.0</ele><time>2026-03-29T17:15:38.999Z</time></trkpt><trkpt lat="43.31175505556553" lon="11.83000035565649"><ele>242.0</ele><time>2026-03-29T17:15:40.999Z</time></trkpt><trkpt lat="43.311827768477286" lon="11.830104116883156"><ele>242.0</ele><time>2026-03-29T17:15:42.999Z</time></trkpt><trkpt lat="43.31190331144842" lon="11.8302145769849"><ele>242.0</ele><time>2026-03-29T17:15:45Z</time></trkpt><trkpt lat="43.31198099481224" lon="11.830329980528289"><ele>242.0</ele><time>2026-03-29T17:15:47Z</time></trkpt><trkpt lat="43.312052600943645" lon="11.830432851834653"><ele>242.0</ele><time>2026-03-29T17:15:49Z</time></trkpt><trkpt lat="43.31211931937903" lon="11.830535255622198"><ele>242.0</ele><time>2026-03-29T17:15:51Z</time></trkpt><trkpt lat="43.3121889263369" lon="11.830645839313044"><ele>242.0</ele><time>2026-03-29T17:15:53Z</time></trkpt><trkpt lat="43.31226159216214" lon="11.830748738903896"><ele>242.0</ele><time>2026-03-29T17:15:55Z</time></trkpt><trkpt lat="43.312323291773204" lon="11.830838036138102"><ele>242.0</ele><time>2026-03-29T17:15:57Z</time></trkpt><trkpt lat="43.31239860525613" lon="11.83091911617926"><ele>242.00000000000003</ele><time>2026-03-29T17:15:59Z</time></trkpt><trkpt lat="43.312455101666394" lon="11.831008406637148"><ele>242.0</ele><time>2026-03-29T17:16:01Z</time></trkpt><trkpt lat="43.3125038990654" lon="11.831074773899983"><ele>242.0</ele><time>2026-03-29T17:16:03Z</time></trkpt><trkpt lat="43.31255758415341" lon="11.831162996486011"><ele>242.0</ele><time>2026-03-29T17:16:05Z</time></trkpt><trkpt lat="43.31261661282338" lon="11.83126075347747"><ele>242.00000000000003</ele><time>2026-03-29T17:16:07Z</time></trkpt><trkpt lat="43.31269400385049" lon="11.831373375599766"><ele>242.0</ele><time>2026-03-29T17:16:09Z</time></trkpt><trkpt lat="43.31276273536341" lon="11.831465334262004"><ele>242.0</ele><time>2026-03-29T17:16:11Z</time></trkpt><trkpt lat="43.312832026152" lon="11.831576364395232"><ele>242.0</ele><time>2026-03-29T17:16:13Z</time></trkpt><trkpt lat="43.31288769807727" lon="11.831659746708802"><ele>242.0</ele><time>2026-03-29T17:16:15Z</time></trkpt><trkpt lat="43.31294704250874" lon="11.83175187167453"><ele>242.0</ele><time>2026-03-29T17:16:17Z</time></trkpt><trkpt lat="43.313003595210546" lon="11.8318411460408"><ele>242.0</ele><time>2026-03-29T17:16:19Z</time></trkpt><trkpt lat="43.31307207859839" lon="11.831927393393467"><ele>242.39999999999998</ele><time>2026-03-29T17:16:21Z</time></trkpt><trkpt lat="43.31314248263419" lon="11.832020156879938"><ele>242.79999999999998</ele><time>2026-03-29T17:16:23Z</time></trkpt><trkpt lat="43.3132214003526" lon="11.83212443569177"><ele>243.2</ele><time>2026-03-29T17:16:25Z</time></trkpt><trkpt lat="43.31329454656558" lon="11.832241486328243"><ele>243.6</ele><time>2026-03-29T17:16:27Z</time></trkpt><trkpt lat="43.31336959352874" lon="11.832359044571582"><ele>244.0</ele><time>2026-03-29T17:16:29Z</time></trkpt><trkpt lat="43.31344386790653" lon="11.832480770500304"><ele>244.0</ele><time>2026-03-29T17:16:31Z</time></trkpt><trkpt lat="43.31351926810194" lon="11.832600824926267"><ele>243.99999999999997</ele><time>2026-03-29T17:16:32.999Z</time></trkpt><trkpt lat="43.31356636421977" lon="11.832661542277778"><ele>243.99999999999997</ele><time>2026-03-29T17:16:33.999Z</time></trkpt><trkpt lat="43.313645209161365" lon="11.832780016099472"><ele>244.0</ele><time>2026-03-29T17:16:35.999Z</time></trkpt><trkpt lat="43.313726405579004" lon="11.832900226174985"><ele>244.0</ele><time>2026-03-29T17:16:37.999Z</time></trkpt><trkpt lat="43.31380129173935" lon="11.833008128209363"><ele>244.2</ele><time>2026-03-29T17:16:39.999Z</time></trkpt><trkpt lat="43.31388199451307" lon="11.833108044384952"><ele>244.39999999999998</ele><time>2026-03-29T17:16:41.999Z</time></trkpt><trkpt lat="43.313957102038955" lon="11.83322023049941"><ele>244.6</ele><time>2026-03-29T17:16:43.999Z</time></trkpt><trkpt lat="43.31402514963335" lon="11.833324647726714"><ele>244.8</ele><time>2026-03-29T17:16:45.999Z</time></trkpt><trkpt lat="43.31408832326914" lon="11.833426158604084"><ele>245.0</ele><time>2026-03-29T17:16:47.999Z</time></trkpt><trkpt lat="43.314145437647475" lon="11.833522446395222"><ele>244.4</ele><time>2026-03-29T17:16:49.999Z</time></trkpt><trkpt lat="43.31421055295308" lon="11.833611643547204"><ele>243.8</ele><time>2026-03-29T17:16:51.999Z</time></trkpt><trkpt lat="43.31427969769996" lon="11.83372543065213"><ele>243.2</ele><time>2026-03-29T17:16:53.999Z</time></trkpt><trkpt lat="43.31436223251688" lon="11.83382773085234"><ele>242.6</ele><time>2026-03-29T17:16:55.999Z</time></trkpt><trkpt lat="43.31443932985243" lon="11.833944819004474"><ele>242.0</ele><time>2026-03-29T17:16:57.999Z</time></trkpt><trkpt lat="43.31452233797739" lon="11.834063939940524"><ele>242.0</ele><time>2026-03-29T17:16:59.999Z</time></trkpt><trkpt lat="43.31460288397587" lon="11.834174522748869"><ele>242.0</ele><time>2026-03-29T17:17:01.999Z</time></trkpt><trkpt lat="43.31468050646218" lon="11.834288584149384"><ele>242.0</ele><time>2026-03-29T17:17:03.999Z</time></trkpt><trkpt lat="43.31475803478954" lon="11.83440524775785"><ele>242.0</ele><time>2026-03-29T17:17:05.999Z</time></trkpt><trkpt lat="43.31483810283487" lon="11.834519918482004"><ele>242.0</ele><time>2026-03-29T17:17:07.999Z</time></trkpt><trkpt lat="43.31491878740809" lon="11.834644761869958"><ele>242.0</ele><time>2026-03-29T17:17:09.999Z</time></trkpt><trkpt lat="43.3149612185102" lon="11.834709002240047"><ele>242.0</ele><time>2026-03-29T17:17:10.999Z</time></trkpt><trkpt lat="43.3150350576652" lon="11.834818658754454"><ele>242.0</ele><time>2026-03-29T17:17:12.999Z</time></trkpt><trkpt lat="43.31511642764778" lon="11.834936999876518"><ele>242.0</ele><time>2026-03-29T17:17:14.999Z</time></trkpt><trkpt lat="43.315160843600545" lon="11.835003120148611"><ele>242.0</ele><time>2026-03-29T17:17:15.999Z</time></trkpt><trkpt lat="43.31524336295181" lon="11.835137198431333"><ele>242.0</ele><time>2026-03-29T17:17:17.999Z</time></trkpt><trkpt lat="43.3153251055098" lon="11.835264127260539"><ele>242.0</ele><time>2026-03-29T17:17:19.999Z</time></trkpt><trkpt lat="43.3154077012651" lon="11.83538647200775"><ele>242.0</ele><time>2026-03-29T17:17:21.999Z</time></trkpt><trkpt lat="43.31545205988582" lon="11.835449442124162"><ele>242.0</ele><time>2026-03-29T17:17:22.999Z</time></trkpt><trkpt lat="43.315530471244536" lon="11.835572449079605"><ele>241.8</ele><time>2026-03-29T17:17:24.999Z</time></trkpt><trkpt lat="43.3155922129422" lon="11.835663525054537"><ele>241.6</ele><time>2026-03-29T17:17:26.999Z</time></trkpt><trkpt lat="43.31564213837551" lon="11.835743663165086"><ele>241.40000000000003</ele><time>2026-03-29T17:17:28.999Z</time></trkpt><trkpt lat="43.31571430103971" lon="11.835766992046008"><ele>241.20000000000002</ele><time>2026-03-29T17:17:30.999Z</time></trkpt><trkpt lat="43.315822270001405" lon="11.835756459313057"><ele>241.0</ele><time>2026-03-29T17:17:32.999Z</time></trkpt><trkpt lat="43.31594707258713" lon="11.83574458369956"><ele>241.0</ele><time>2026-03-29T17:17:34.999Z</time></trkpt><trkpt lat="43.316011829278814" lon="11.835744590073793"><ele>241.00000000000003</ele><time>2026-03-29T17:17:35.999Z</time></trkpt><trkpt lat="43.31613442800646" lon="11.83574102360306"><ele>241.00000000000003</ele><time>2026-03-29T17:17:37.999Z</time></trkpt><trkpt lat="43.316254948046605" lon="11.835729498521044"><ele>241.0</ele><time>2026-03-29T17:17:39.999Z</time></trkpt><trkpt lat="43.31636416240203" lon="11.835721264966429"><ele>241.0</ele><time>2026-03-29T17:17:41.999Z</time></trkpt><trkpt lat="43.31646913990948" lon="11.835710056034669"><ele>241.60000000000002</ele><time>2026-03-29T17:17:43.999Z</time></trkpt><trkpt lat="43.31657437139094" lon="11.835699479508545"><ele>242.20000000000002</ele><time>2026-03-29T17:17:45.999Z</time></trkpt><trkpt lat="43.31664778885174" lon="11.835698149897572"><ele>242.79999999999998</ele><time>2026-03-29T17:17:47.999Z</time></trkpt><trkpt lat="43.31677123020496" lon="11.835714461732241"><ele>243.39999999999998</ele><time>2026-03-29T17:17:50Z</time></trkpt><trkpt lat="43.31688259758839" lon="11.835715412182372"><ele>244.0</ele><time>2026-03-29T17:17:52Z</time></trkpt><trkpt lat="43.31699153655201" lon="11.835714052478979"><ele>244.0</ele><time>2026-03-29T17:17:54Z</time></trkpt><trkpt lat="43.317103444097896" lon="11.835709519673026"><ele>243.99999999999997</ele><time>2026-03-29T17:17:56Z</time></trkpt><trkpt lat="43.31720850523898" lon="11.835701581506534"><ele>243.99999999999997</ele><time>2026-03-29T17:17:58Z</time></trkpt><trkpt lat="43.3173129933209" lon="11.835700342852679"><ele>244.0</ele><time>2026-03-29T17:18:00Z</time></trkpt><trkpt lat="43.317419480807644" lon="11.835708405138872"><ele>244.0</ele><time>2026-03-29T17:18:02Z</time></trkpt><trkpt lat="43.31753351533473" lon="11.835696457067534"><ele>244.0</ele><time>2026-03-29T17:18:04Z</time></trkpt><trkpt lat="43.31764298203823" lon="11.83569299492681"><ele>243.99999999999997</ele><time>2026-03-29T17:18:06Z</time></trkpt><trkpt lat="43.31774961666815" lon="11.835673682146838"><ele>243.99999999999997</ele><time>2026-03-29T17:18:08Z</time></trkpt><trkpt lat="43.317865995566315" lon="11.835659405468501"><ele>244.0</ele><time>2026-03-29T17:18:10Z</time></trkpt><trkpt lat="43.317929141909126" lon="11.835652534116466"><ele>244.0</ele><time>2026-03-29T17:18:11Z</time></trkpt><trkpt lat="43.31804596297667" lon="11.835644656698143"><ele>243.79999999999998</ele><time>2026-03-29T17:18:13Z</time></trkpt><trkpt lat="43.31816417619577" lon="11.835636791091263"><ele>243.59999999999997</ele><time>2026-03-29T17:18:15Z</time></trkpt><trkpt lat="43.31826909849406" lon="11.835630133610222"><ele>243.4</ele><time>2026-03-29T17:18:17Z</time></trkpt><trkpt lat="43.31837595586021" lon="11.835626784471097"><ele>243.2</ele><time>2026-03-29T17:18:19Z</time></trkpt><trkpt lat="43.31848043332826" lon="11.835619442988875"><ele>243.0</ele><time>2026-03-29T17:18:21Z</time></trkpt><trkpt lat="43.3185786987974" lon="11.83561830057655"><ele>243.0</ele><time>2026-03-29T17:18:24Z</time></trkpt><trkpt lat="43.31866357344672" lon="11.835622037435973"><ele>243.0</ele><time>2026-03-29T17:18:25Z</time></trkpt><trkpt lat="43.31872972317042" lon="11.835627190089431"><ele>243.0</ele><time>2026-03-29T17:18:26Z</time></trkpt><trkpt lat="43.318836700052316" lon="11.835631870829785"><ele>243.0</ele><time>2026-03-29T17:18:28Z</time></trkpt><trkpt lat="43.31896106207424" lon="11.835639934193269"><ele>243.0</ele><time>2026-03-29T17:18:30Z</time></trkpt><trkpt lat="43.31902872194014" lon="11.835639172936713"><ele>243.0</ele><time>2026-03-29T17:18:31Z</time></trkpt><trkpt lat="43.319093561873565" lon="11.835626563511742"><ele>243.0</ele><time>2026-03-29T17:18:32Z</time></trkpt><trkpt lat="43.319165815509066" lon="11.83562011127664"><ele>243.0</ele><time>2026-03-29T17:18:33Z</time></trkpt><trkpt lat="43.31923782135164" lon="11.835628023371214"><ele>243.0</ele><time>2026-03-29T17:18:34Z</time></trkpt><trkpt lat="43.319308197147286" lon="11.835636531188104"><ele>243.0</ele><time>2026-03-29T17:18:35Z</time></trkpt><trkpt lat="43.319380204810365" lon="11.835633935739038"><ele>243.0</ele><time>2026-03-29T17:18:36Z</time></trkpt><trkpt lat="43.31945298295655" lon="11.835636491927374"><ele>243.0</ele><time>2026-03-29T17:18:37Z</time></trkpt><trkpt lat="43.319535679556374" lon="11.8356360591549"><ele>243.0</ele><time>2026-03-29T17:18:38Z</time></trkpt><trkpt lat="43.31960850961368" lon="11.835632091856896"><ele>243.0</ele><time>2026-03-29T17:18:39Z</time></trkpt><trkpt lat="43.319686584901376" lon="11.835621121743527"><ele>243.0</ele><time>2026-03-29T17:18:40Z</time></trkpt><trkpt lat="43.31976532206178" lon="11.835618066444194"><ele>243.0</ele><time>2026-03-29T17:18:41Z</time></trkpt><trkpt lat="43.319835194786016" lon="11.835613498604667"><ele>243.0</ele><time>2026-03-29T17:18:42Z</time></trkpt><trkpt lat="43.319902125727246" lon="11.835611032407662"><ele>243.0</ele><time>2026-03-29T17:18:43Z</time></trkpt><trkpt lat="43.31997002258493" lon="11.835605160245775"><ele>243.0</ele><time>2026-03-29T17:18:44Z</time></trkpt><trkpt lat="43.32014863553623" lon="11.83561689139741"><ele>242.66666666666666</ele><time>2026-03-29T17:18:52Z</time></trkpt><trkpt lat="43.32021205436829" lon="11.835659043943156"><ele>242.33333333333331</ele><time>2026-03-29T17:19:32.999Z</time></trkpt><trkpt lat="43.32027991326249" lon="11.835750360701569"><ele>242.0</ele><time>2026-03-29T17:19:35.999Z</time></trkpt><trkpt lat="43.320299683857634" lon="11.835834408839334"><ele>241.66666666666666</ele><time>2026-03-29T17:19:36.999Z</time></trkpt><trkpt lat="43.320321327148136" lon="11.83592933361282"><ele>241.33333333333331</ele><time>2026-03-29T17:19:37.999Z</time></trkpt><trkpt lat="43.3203447797925" lon="11.83603077219439"><ele>241.0</ele><time>2026-03-29T17:19:38.999Z</time></trkpt><trkpt lat="43.32037058203768" lon="11.836128222276038"><ele>240.99999999999997</ele><time>2026-03-29T17:19:39.999Z</time></trkpt><trkpt lat="43.320397324424064" lon="11.83623513974996"><ele>241.0</ele><time>2026-03-29T17:19:40.999Z</time></trkpt><trkpt lat="43.32042559358148" lon="11.836344890609718"><ele>241.0</ele><time>2026-03-29T17:19:41.999Z</time></trkpt><trkpt lat="43.32045053526118" lon="11.836463317331463"><ele>241.0</ele><time>2026-03-29T17:19:42.999Z</time></trkpt><trkpt lat="43.32048557503153" lon="11.83657917805716"><ele>240.99999999999997</ele><time>2026-03-29T17:19:43.999Z</time></trkpt><trkpt lat="43.320525695489195" lon="11.836690669534727"><ele>241.0</ele><time>2026-03-29T17:19:44.999Z</time></trkpt><trkpt lat="43.32056863884256" lon="11.836805607054352"><ele>241.20000000000002</ele><time>2026-03-29T17:19:45.999Z</time></trkpt><trkpt lat="43.32061538061044" lon="11.836922837767968"><ele>241.40000000000003</ele><time>2026-03-29T17:19:46.999Z</time></trkpt><trkpt lat="43.32066332218462" lon="11.83703986310606"><ele>241.6</ele><time>2026-03-29T17:19:47.999Z</time></trkpt><trkpt lat="43.32071586874898" lon="11.837158351801737"><ele>241.8</ele><time>2026-03-29T17:19:48.999Z</time></trkpt><trkpt lat="43.32076826484279" lon="11.837277215862713"><ele>242.0</ele><time>2026-03-29T17:19:49.999Z</time></trkpt><trkpt lat="43.32081947961075" lon="11.837394582557014"><ele>242.0</ele><time>2026-03-29T17:19:50.999Z</time></trkpt><trkpt lat="43.32086557185985" lon="11.837513553322774"><ele>242.0</ele><time>2026-03-29T17:19:51.999Z</time></trkpt><trkpt lat="43.32091504189184" lon="11.837633964245647"><ele>242.0</ele><time>2026-03-29T17:19:52.999Z</time></trkpt><trkpt lat="43.32095856693181" lon="11.837748733810308"><ele>242.0</ele><time>2026-03-29T17:19:53.999Z</time></trkpt><trkpt lat="43.321009148653154" lon="11.837873545338956"><ele>242.0</ele><time>2026-03-29T17:19:54.999Z</time></trkpt><trkpt lat="43.32105898784748" lon="11.837988739142038"><ele>241.75</ele><time>2026-03-29T17:19:56Z</time></trkpt><trkpt lat="43.32110439987745" lon="11.838106766831917"><ele>241.5</ele><time>2026-03-29T17:19:57Z</time></trkpt><trkpt lat="43.32114843522106" lon="11.8382183761389"><ele>241.25</ele><time>2026-03-29T17:19:58Z</time></trkpt><trkpt lat="43.32123288905434" lon="11.838442657524828"><ele>241.0</ele><time>2026-03-29T17:20:00Z</time></trkpt><trkpt lat="43.3212765379259" lon="11.83855307834296"><ele>241.0</ele><time>2026-03-29T17:20:01Z</time></trkpt><trkpt lat="43.32131754083385" lon="11.838663536956766"><ele>241.00000000000003</ele><time>2026-03-29T17:20:02Z</time></trkpt><trkpt lat="43.321361375783724" lon="11.838771923284746"><ele>241.00000000000003</ele><time>2026-03-29T17:20:03Z</time></trkpt><trkpt lat="43.32140351361716" lon="11.838883989807316"><ele>241.0</ele><time>2026-03-29T17:20:04Z</time></trkpt><trkpt lat="43.32144669634575" lon="11.838997160261075"><ele>241.0</ele><time>2026-03-29T17:20:05Z</time></trkpt><trkpt lat="43.32149242530632" lon="11.839106939367582"><ele>241.0</ele><time>2026-03-29T17:20:06Z</time></trkpt><trkpt lat="43.32153830318865" lon="11.839217917794532"><ele>241.00000000000003</ele><time>2026-03-29T17:20:07Z</time></trkpt><trkpt lat="43.32158338239928" lon="11.839326992854792"><ele>241.00000000000003</ele><time>2026-03-29T17:20:08Z</time></trkpt><trkpt lat="43.32162788064914" lon="11.839438744789941"><ele>241.0</ele><time>2026-03-29T17:20:09Z</time></trkpt><trkpt lat="43.32167158981803" lon="11.839551784350967"><ele>241.0</ele><time>2026-03-29T17:20:10Z</time></trkpt><trkpt lat="43.32171611064651" lon="11.839665980991278"><ele>241.0</ele><time>2026-03-29T17:20:11Z</time></trkpt><trkpt lat="43.32176343062967" lon="11.83978007654701"><ele>241.00000000000003</ele><time>2026-03-29T17:20:12Z</time></trkpt><trkpt lat="43.32181139580027" lon="11.839896171274187"><ele>241.00000000000003</ele><time>2026-03-29T17:20:13Z</time></trkpt><trkpt lat="43.32185874962078" lon="11.840013220608627"><ele>241.0</ele><time>2026-03-29T17:20:14Z</time></trkpt><trkpt lat="43.321906288835955" lon="11.840134990278413"><ele>241.0</ele><time>2026-03-29T17:20:15Z</time></trkpt><trkpt lat="43.32195493463979" lon="11.840255036828136"><ele>241.0</ele><time>2026-03-29T17:20:16Z</time></trkpt><trkpt lat="43.32200362582104" lon="11.840375962941945"><ele>241.00000000000003</ele><time>2026-03-29T17:20:17Z</time></trkpt><trkpt lat="43.322049899669814" lon="11.84049734091092"><ele>241.00000000000003</ele><time>2026-03-29T17:20:18Z</time></trkpt><trkpt lat="43.32209526094973" lon="11.840616396783245"><ele>241.0</ele><time>2026-03-29T17:20:19Z</time></trkpt><trkpt lat="43.322141663614" lon="11.840737411721317"><ele>241.0</ele><time>2026-03-29T17:20:20Z</time></trkpt><trkpt lat="43.322186094344396" lon="11.840857786410707"><ele>241.0</ele><time>2026-03-29T17:20:21Z</time></trkpt><trkpt lat="43.3222275482372" lon="11.84097855639356"><ele>241.00000000000003</ele><time>2026-03-29T17:20:22Z</time></trkpt><trkpt lat="43.3222645861267" lon="11.841101792509907"><ele>241.00000000000003</ele><time>2026-03-29T17:20:23Z</time></trkpt><trkpt lat="43.322303318280376" lon="11.841224223740255"><ele>241.0</ele><time>2026-03-29T17:20:24Z</time></trkpt><trkpt lat="43.32233861912875" lon="11.841347328384987"><ele>241.0</ele><time>2026-03-29T17:20:25Z</time></trkpt><trkpt lat="43.322374209195914" lon="11.841469843290977"><ele>241.0</ele><time>2026-03-29T17:20:26Z</time></trkpt><trkpt lat="43.3224080933368" lon="11.841592036086183"><ele>241.00000000000003</ele><time>2026-03-29T17:20:27Z</time></trkpt><trkpt lat="43.32244062377795" lon="11.841714401862138"><ele>241.00000000000003</ele><time>2026-03-29T17:20:28Z</time></trkpt><trkpt lat="43.32247134427897" lon="11.8418373334706"><ele>241.0</ele><time>2026-03-29T17:20:29Z</time></trkpt><trkpt lat="43.32250235670916" lon="11.841959431795933"><ele>241.0</ele><time>2026-03-29T17:20:30Z</time></trkpt><trkpt lat="43.32253625393063" lon="11.842082303594456"><ele>241.0</ele><time>2026-03-29T17:20:31Z</time></trkpt><trkpt lat="43.322572414107" lon="11.84220182225425"><ele>241.00000000000003</ele><time>2026-03-29T17:20:32Z</time></trkpt><trkpt lat="43.322607470922776" lon="11.842318840079297"><ele>241.00000000000003</ele><time>2026-03-29T17:20:33Z</time></trkpt><trkpt lat="43.322638888174026" lon="11.842440353259693"><ele>241.0</ele><time>2026-03-29T17:20:34Z</time></trkpt><trkpt lat="43.32266964366063" lon="11.842560841669732"><ele>241.0</ele><time>2026-03-29T17:20:35Z</time></trkpt><trkpt lat="43.322705118420764" lon="11.842678278159005"><ele>240.8</ele><time>2026-03-29T17:20:36Z</time></trkpt><trkpt lat="43.32273859674889" lon="11.842795483860117"><ele>240.60000000000002</ele><time>2026-03-29T17:20:37Z</time></trkpt><trkpt lat="43.32277100713079" lon="11.842917955269908"><ele>240.4</ele><time>2026-03-29T17:20:38Z</time></trkpt><trkpt lat="43.32280213664099" lon="11.843039919258409"><ele>240.2</ele><time>2026-03-29T17:20:39Z</time></trkpt><trkpt lat="43.32283364578269" lon="11.843160894260285"><ele>240.0</ele><time>2026-03-29T17:20:40Z</time></trkpt><trkpt lat="43.32286681005181" lon="11.843281340552362"><ele>240.0</ele><time>2026-03-29T17:20:41Z</time></trkpt><trkpt lat="43.32290265030196" lon="11.843401504766318"><ele>240.0</ele><time>2026-03-29T17:20:42Z</time></trkpt><trkpt lat="43.32293960933591" lon="11.843523856947604"><ele>240.0</ele><time>2026-03-29T17:20:43Z</time></trkpt><trkpt lat="43.322971649183835" lon="11.8436469974955"><ele>240.0</ele><time>2026-03-29T17:20:44Z</time></trkpt><trkpt lat="43.3230033542977" lon="11.843768566868203"><ele>240.0</ele><time>2026-03-29T17:20:45Z</time></trkpt><trkpt lat="43.3230416490517" lon="11.843884794627371"><ele>240.2</ele><time>2026-03-29T17:20:46Z</time></trkpt><trkpt lat="43.32307754431293" lon="11.844011293794003"><ele>240.4</ele><time>2026-03-29T17:20:47Z</time></trkpt><trkpt lat="43.32311180246705" lon="11.844133709978474"><ele>240.60000000000002</ele><time>2026-03-29T17:20:48Z</time></trkpt><trkpt lat="43.32314123857962" lon="11.844248594246926"><ele>240.8</ele><time>2026-03-29T17:20:49Z</time></trkpt><trkpt lat="43.323174675818315" lon="11.844365726682163"><ele>241.0</ele><time>2026-03-29T17:20:50Z</time></trkpt><trkpt lat="43.32321391343412" lon="11.844483291989809"><ele>241.0</ele><time>2026-03-29T17:20:51Z</time></trkpt><trkpt lat="43.32324997708873" lon="11.844604724928582"><ele>241.00000000000003</ele><time>2026-03-29T17:20:52Z</time></trkpt><trkpt lat="43.32327917361464" lon="11.844736361048925"><ele>241.00000000000003</ele><time>2026-03-29T17:20:53Z</time></trkpt><trkpt lat="43.32331408128943" lon="11.844862718969079"><ele>241.0</ele><time>2026-03-29T17:20:54Z</time></trkpt><trkpt lat="43.32335233340627" lon="11.844980690780718"><ele>241.0</ele><time>2026-03-29T17:20:55Z</time></trkpt><trkpt lat="43.32338137408262" lon="11.845104234903918"><ele>241.20000000000002</ele><time>2026-03-29T17:20:56Z</time></trkpt><trkpt lat="43.323419882181184" lon="11.845223605036317"><ele>241.40000000000003</ele><time>2026-03-29T17:20:57Z</time></trkpt><trkpt lat="43.32345088687738" lon="11.845343059375665"><ele>241.6</ele><time>2026-03-29T17:20:58Z</time></trkpt><trkpt lat="43.323484455011645" lon="11.845455489202832"><ele>241.8</ele><time>2026-03-29T17:20:59Z</time></trkpt><trkpt lat="43.323514890310804" lon="11.845575551228443"><ele>242.0</ele><time>2026-03-29T17:21:00Z</time></trkpt><trkpt lat="43.3235464832213" lon="11.845687501818047"><ele>242.0</ele><time>2026-03-29T17:21:01Z</time></trkpt><trkpt lat="43.323575487243865" lon="11.8457976803779"><ele>242.0</ele><time>2026-03-29T17:21:02Z</time></trkpt><trkpt lat="43.323605276993845" lon="11.845909261755912"><ele>242.0</ele><time>2026-03-29T17:21:03Z</time></trkpt><trkpt lat="43.32363951943058" lon="11.84602662059491"><ele>242.0</ele><time>2026-03-29T17:21:04Z</time></trkpt><trkpt lat="43.323676003542786" lon="11.846151735250366"><ele>242.0</ele><time>2026-03-29T17:21:05Z</time></trkpt><trkpt lat="43.32371283954616" lon="11.846269877699152"><ele>242.6</ele><time>2026-03-29T17:21:06Z</time></trkpt><trkpt lat="43.32375368591902" lon="11.846391222950917"><ele>243.2</ele><time>2026-03-29T17:21:07Z</time></trkpt><trkpt lat="43.323801521611394" lon="11.846508236183203"><ele>243.8</ele><time>2026-03-29T17:21:08Z</time></trkpt><trkpt lat="43.32385288583423" lon="11.846626507813491"><ele>244.4</ele><time>2026-03-29T17:21:09Z</time></trkpt><trkpt lat="43.32391170942073" lon="11.846733689933592"><ele>245.0</ele><time>2026-03-29T17:21:10Z</time></trkpt><trkpt lat="43.32397150845359" lon="11.846833857196463"><ele>245.6</ele><time>2026-03-29T17:21:11Z</time></trkpt><trkpt lat="43.324038272792244" lon="11.846931725876331"><ele>246.2</ele><time>2026-03-29T17:21:11.999Z</time></trkpt><trkpt lat="43.32410684907385" lon="11.847023921685022"><ele>246.8</ele><time>2026-03-29T17:21:12.999Z</time></trkpt><trkpt lat="43.324179586178836" lon="11.84710352732572"><ele>247.4</ele><time>2026-03-29T17:21:13.999Z</time></trkpt><trkpt lat="43.324258944004434" lon="11.847178018314747"><ele>248.0</ele><time>2026-03-29T17:21:14.999Z</time></trkpt><trkpt lat="43.324342132411026" lon="11.847247098233233"><ele>248.0</ele><time>2026-03-29T17:21:15.999Z</time></trkpt><trkpt lat="43.32442270376134" lon="11.847314598897562"><ele>248.0</ele><time>2026-03-29T17:21:16.999Z</time></trkpt><trkpt lat="43.32450288125432" lon="11.847381016101854"><ele>248.0</ele><time>2026-03-29T17:21:17.999Z</time></trkpt><trkpt lat="43.32458487438814" lon="11.847454728626232"><ele>248.0</ele><time>2026-03-29T17:21:18.999Z</time></trkpt><trkpt lat="43.32466748984804" lon="11.847525201737527"><ele>248.0</ele><time>2026-03-29T17:21:19.999Z</time></trkpt><trkpt lat="43.32474967665593" lon="11.847592730443376"><ele>250.2</ele><time>2026-03-29T17:21:20.999Z</time></trkpt><trkpt lat="43.324832232205694" lon="11.84765907600569"><ele>252.4</ele><time>2026-03-29T17:21:21.999Z</time></trkpt><trkpt lat="43.32491575761304" lon="11.847723897530576"><ele>254.59999999999997</ele><time>2026-03-29T17:21:22.999Z</time></trkpt><trkpt lat="43.32499564713544" lon="11.847796869297884"><ele>256.8</ele><time>2026-03-29T17:21:23.999Z</time></trkpt><trkpt lat="43.325075467168624" lon="11.84786546813267"><ele>259.0</ele><time>2026-03-29T17:21:24.999Z</time></trkpt><trkpt lat="43.32515527307617" lon="11.847935790155518"><ele>259.0</ele><time>2026-03-29T17:21:25.999Z</time></trkpt><trkpt lat="43.32523627271643" lon="11.848005816122093"><ele>259.0</ele><time>2026-03-29T17:21:26.999Z</time></trkpt><trkpt lat="43.325317944445324" lon="11.848076943088733"><ele>259.0</ele><time>2026-03-29T17:21:27.999Z</time></trkpt><trkpt lat="43.32540381998577" lon="11.84814522774771"><ele>259.0</ele><time>2026-03-29T17:21:28.999Z</time></trkpt><trkpt lat="43.32548656697447" lon="11.84821433262313"><ele>259.0</ele><time>2026-03-29T17:21:29.999Z</time></trkpt><trkpt lat="43.32556880069975" lon="11.848283851890594"><ele>259.0</ele><time>2026-03-29T17:21:30.999Z</time></trkpt><trkpt lat="43.325650169636766" lon="11.84835170982465"><ele>259.0</ele><time>2026-03-29T17:21:31.999Z</time></trkpt><trkpt lat="43.32573061219845" lon="11.848422895610229"><ele>259.0</ele><time>2026-03-29T17:21:32.999Z</time></trkpt><trkpt lat="43.3258107161774" lon="11.848488439449904"><ele>259.0</ele><time>2026-03-29T17:21:33.999Z</time></trkpt><trkpt lat="43.32589114664861" lon="11.848556356511065"><ele>259.0</ele><time>2026-03-29T17:21:34.999Z</time></trkpt><trkpt lat="43.32597101305872" lon="11.848621498707637"><ele>260.4</ele><time>2026-03-29T17:21:35.999Z</time></trkpt><trkpt lat="43.32604933218373" lon="11.848687614409373"><ele>261.79999999999995</ele><time>2026-03-29T17:21:36.999Z</time></trkpt><trkpt lat="43.326127230327906" lon="11.848752412272175"><ele>263.20000000000005</ele><time>2026-03-29T17:21:37.999Z</time></trkpt><trkpt lat="43.3262061724431" lon="11.848813977872735"><ele>264.6</ele><time>2026-03-29T17:21:38.999Z</time></trkpt><trkpt lat="43.32628425702545" lon="11.848871937227166"><ele>266.0</ele><time>2026-03-29T17:21:39.999Z</time></trkpt><trkpt lat="43.326362298366305" lon="11.848937870607484"><ele>266.0</ele><time>2026-03-29T17:21:40.999Z</time></trkpt><trkpt lat="43.326437349931986" lon="11.849007332042547"><ele>266.0</ele><time>2026-03-29T17:21:41.999Z</time></trkpt><trkpt lat="43.326515415506236" lon="11.849076461068503"><ele>266.0</ele><time>2026-03-29T17:21:42.999Z</time></trkpt><trkpt lat="43.32659358138467" lon="11.849140813121588"><ele>266.0</ele><time>2026-03-29T17:21:43.999Z</time></trkpt><trkpt lat="43.32667191520022" lon="11.849209850740653"><ele>266.0</ele><time>2026-03-29T17:21:44.999Z</time></trkpt><trkpt lat="43.32674755350918" lon="11.849284606670654"><ele>266.2</ele><time>2026-03-29T17:21:45.999Z</time></trkpt><trkpt lat="43.32681868617597" lon="11.849363652640914"><ele>266.40000000000003</ele><time>2026-03-29T17:21:46.999Z</time></trkpt><trkpt lat="43.32688418984468" lon="11.849450639302969"><ele>266.6</ele><time>2026-03-29T17:21:47.999Z</time></trkpt><trkpt lat="43.32694359214111" lon="11.849538591396454"><ele>266.8</ele><time>2026-03-29T17:21:48.999Z</time></trkpt><trkpt lat="43.32699952756579" lon="11.849636709871826"><ele>267.0</ele><time>2026-03-29T17:21:49.999Z</time></trkpt><trkpt lat="43.3270532158671" lon="11.849743538916103"><ele>267.0</ele><time>2026-03-29T17:21:50.999Z</time></trkpt><trkpt lat="43.32710350093602" lon="11.84985451064612"><ele>267.0</ele><time>2026-03-29T17:21:51.999Z</time></trkpt><trkpt lat="43.3271501581782" lon="11.84996850362627"><ele>267.0</ele><time>2026-03-29T17:21:52.999Z</time></trkpt><trkpt lat="43.32719182251876" lon="11.850089441068068"><ele>267.0</ele><time>2026-03-29T17:21:53.999Z</time></trkpt><trkpt lat="43.327226902863025" lon="11.85021153923894"><ele>267.0</ele><time>2026-03-29T17:21:54.999Z</time></trkpt><trkpt lat="43.32726728645785" lon="11.850328280898243"><ele>267.0</ele><time>2026-03-29T17:21:55.999Z</time></trkpt><trkpt lat="43.3273094166027" lon="11.850442878969595"><ele>267.0</ele><time>2026-03-29T17:21:56.999Z</time></trkpt><trkpt lat="43.32735122347886" lon="11.850555472657279"><ele>267.0</ele><time>2026-03-29T17:21:57.999Z</time></trkpt><trkpt lat="43.3273884281559" lon="11.850671319766112"><ele>267.0</ele><time>2026-03-29T17:21:58.999Z</time></trkpt><trkpt lat="43.32742674136576" lon="11.850787790055445"><ele>267.0</ele><time>2026-03-29T17:21:59.999Z</time></trkpt><trkpt lat="43.32746708677557" lon="11.850901423102021"><ele>266.8</ele><time>2026-03-29T17:22:00.999Z</time></trkpt><trkpt lat="43.327505186582776" lon="11.851014583204858"><ele>266.6</ele><time>2026-03-29T17:22:02Z</time></trkpt><trkpt lat="43.327540060019984" lon="11.851121085365811"><ele>266.40000000000003</ele><time>2026-03-29T17:22:03Z</time></trkpt><trkpt lat="43.327580297154284" lon="11.851240748940162"><ele>266.2</ele><time>2026-03-29T17:22:04Z</time></trkpt><trkpt lat="43.3276179268753" lon="11.851357294002993"><ele>266.0</ele><time>2026-03-29T17:22:05Z</time></trkpt><trkpt lat="43.327657712430806" lon="11.85147642365167"><ele>266.0</ele><time>2026-03-29T17:22:06Z</time></trkpt><trkpt lat="43.32770235922877" lon="11.851601741106757"><ele>266.0</ele><time>2026-03-29T17:22:07Z</time></trkpt><trkpt lat="43.3277440761951" lon="11.851727602530051"><ele>266.0</ele><time>2026-03-29T17:22:08Z</time></trkpt><trkpt lat="43.32778708259836" lon="11.851850957275113"><ele>266.0</ele><time>2026-03-29T17:22:09Z</time></trkpt><trkpt lat="43.32783038938624" lon="11.851970866942807"><ele>266.0</ele><time>2026-03-29T17:22:10Z</time></trkpt><trkpt lat="43.32787346423166" lon="11.852092978152916"><ele>266.0</ele><time>2026-03-29T17:22:11Z</time></trkpt><trkpt lat="43.32791403911877" lon="11.852217214141023"><ele>266.0</ele><time>2026-03-29T17:22:12Z</time></trkpt><trkpt lat="43.32795596270515" lon="11.85233418457694"><ele>266.0</ele><time>2026-03-29T17:22:13Z</time></trkpt><trkpt lat="43.32799979487412" lon="11.852452696323198"><ele>266.0</ele><time>2026-03-29T17:22:14Z</time></trkpt><trkpt lat="43.328040472554974" lon="11.852573606726656"><ele>266.0</ele><time>2026-03-29T17:22:15Z</time></trkpt><trkpt lat="43.328084381543896" lon="11.852691753370328"><ele>265.8</ele><time>2026-03-29T17:22:16Z</time></trkpt><trkpt lat="43.32813164818022" lon="11.85280217432579"><ele>265.6</ele><time>2026-03-29T17:22:17Z</time></trkpt><trkpt lat="43.32817476947625" lon="11.85291821643708"><ele>265.4</ele><time>2026-03-29T17:22:18Z</time></trkpt><trkpt lat="43.32821335452471" lon="11.853031746568535"><ele>265.2</ele><time>2026-03-29T17:22:19Z</time></trkpt><trkpt lat="43.328251763348646" lon="11.853144319665121"><ele>265.0</ele><time>2026-03-29T17:22:20Z</time></trkpt><trkpt lat="43.328293402242544" lon="11.853260722672054"><ele>265.0</ele><time>2026-03-29T17:22:21Z</time></trkpt><trkpt lat="43.32833406149232" lon="11.853379313211411"><ele>265.0</ele><time>2026-03-29T17:22:22Z</time></trkpt><trkpt lat="43.328377747507744" lon="11.85349783155056"><ele>265.0</ele><time>2026-03-29T17:22:23Z</time></trkpt><trkpt lat="43.32842216433075" lon="11.853616811523016"><ele>265.0</ele><time>2026-03-29T17:22:24Z</time></trkpt><trkpt lat="43.3284726350616" lon="11.853738032320448"><ele>265.0</ele><time>2026-03-29T17:22:25Z</time></trkpt><trkpt lat="43.328510362473104" lon="11.853866712367592"><ele>265.0</ele><time>2026-03-29T17:22:26Z</time></trkpt><trkpt lat="43.32855616564937" lon="11.85399069289284"><ele>265.0</ele><time>2026-03-29T17:22:27Z</time></trkpt><trkpt lat="43.32860186823582" lon="11.85411339152892"><ele>265.0</ele><time>2026-03-29T17:22:28Z</time></trkpt><trkpt lat="43.32864593086759" lon="11.854231687317517"><ele>265.0</ele><time>2026-03-29T17:22:29Z</time></trkpt><trkpt lat="43.32868967481376" lon="11.854347735300378"><ele>265.0</ele><time>2026-03-29T17:22:30Z</time></trkpt><trkpt lat="43.32873273395633" lon="11.854461562475398"><ele>265.0</ele><time>2026-03-29T17:22:31Z</time></trkpt><trkpt lat="43.328773398866765" lon="11.854568427664631"><ele>265.0</ele><time>2026-03-29T17:22:32Z</time></trkpt><trkpt lat="43.32880954481598" lon="11.854663209820535"><ele>265.0</ele><time>2026-03-29T17:22:33Z</time></trkpt><trkpt lat="43.3288403002339" lon="11.85474385569433"><ele>265.0</ele><time>2026-03-29T17:22:34Z</time></trkpt><trkpt lat="43.32900837406418" lon="11.854731547874268"><ele>265.0</ele><time>2026-03-29T17:22:36Z</time></trkpt><trkpt lat="43.32907333658765" lon="11.854676079852025"><ele>265.3333333333333</ele><time>2026-03-29T17:22:37Z</time></trkpt><trkpt lat="43.32914525675355" lon="11.85462957951937"><ele>265.66666666666663</ele><time>2026-03-29T17:22:38Z</time></trkpt><trkpt lat="43.32922666617564" lon="11.854591319431462"><ele>266.0</ele><time>2026-03-29T17:22:39Z</time></trkpt><trkpt lat="43.32931464655375" lon="11.854552766159387"><ele>266.3333333333333</ele><time>2026-03-29T17:22:40Z</time></trkpt><trkpt lat="43.329403043492455" lon="11.854510108475266"><ele>266.6666666666667</ele><time>2026-03-29T17:22:41Z</time></trkpt><trkpt lat="43.32949057365535" lon="11.854473563721239"><ele>267.0</ele><time>2026-03-29T17:22:42Z</time></trkpt><trkpt lat="43.32957926781725" lon="11.85443278296677"><ele>267.0</ele><time>2026-03-29T17:22:43Z</time></trkpt><trkpt lat="43.329667169950554" lon="11.854391925963311"><ele>267.0</ele><time>2026-03-29T17:22:44Z</time></trkpt><trkpt lat="43.32975585807387" lon="11.854350455122812"><ele>267.0</ele><time>2026-03-29T17:22:45Z</time></trkpt><trkpt lat="43.32984212693386" lon="11.854309480874448"><ele>267.0</ele><time>2026-03-29T17:22:46Z</time></trkpt><trkpt lat="43.32992738616001" lon="11.854267283253638"><ele>267.0</ele><time>2026-03-29T17:22:47Z</time></trkpt><trkpt lat="43.330011858054874" lon="11.854227945471234"><ele>266.8333333333333</ele><time>2026-03-29T17:22:48Z</time></trkpt><trkpt lat="43.33009461988993" lon="11.854188251469951"><ele>266.6666666666667</ele><time>2026-03-29T17:22:49Z</time></trkpt><trkpt lat="43.33017842402725" lon="11.854149681599555"><ele>266.5</ele><time>2026-03-29T17:22:50Z</time></trkpt><trkpt lat="43.33026163881842" lon="11.854106870161985"><ele>266.33333333333337</ele><time>2026-03-29T17:22:51Z</time></trkpt><trkpt lat="43.330345284425235" lon="11.854064466281093"><ele>266.1666666666667</ele><time>2026-03-29T17:22:52Z</time></trkpt><trkpt lat="43.33043259802105" lon="11.854025248917418"><ele>266.0</ele><time>2026-03-29T17:22:53Z</time></trkpt><trkpt lat="43.330520133713776" lon="11.85398436602219"><ele>265.6</ele><time>2026-03-29T17:22:54Z</time></trkpt><trkpt lat="43.33060755502831" lon="11.853943653481958"><ele>265.20000000000005</ele><time>2026-03-29T17:22:55Z</time></trkpt><trkpt lat="43.33069904447572" lon="11.853902753424462"><ele>264.79999999999995</ele><time>2026-03-29T17:22:56Z</time></trkpt><trkpt lat="43.330788924009894" lon="11.853861869166481"><ele>264.4</ele><time>2026-03-29T17:22:57Z</time></trkpt><trkpt lat="43.330879131796955" lon="11.853818428279244"><ele>264.0</ele><time>2026-03-29T17:22:58Z</time></trkpt><trkpt lat="43.33096959992594" lon="11.853773934070407"><ele>264.0</ele><time>2026-03-29T17:22:59Z</time></trkpt><trkpt lat="43.331060214427936" lon="11.853731955498116"><ele>264.0</ele><time>2026-03-29T17:23:00Z</time></trkpt><trkpt lat="43.33115120687349" lon="11.853687964416114"><ele>264.0</ele><time>2026-03-29T17:23:01Z</time></trkpt><trkpt lat="43.33124847916174" lon="11.853667028979823"><ele>264.0</ele><time>2026-03-29T17:23:02Z</time></trkpt><trkpt lat="43.3313360717928" lon="11.853605096793878"><ele>264.0</ele><time>2026-03-29T17:23:03Z</time></trkpt><trkpt lat="43.33143057874952" lon="11.853568993225782"><ele>264.0</ele><time>2026-03-29T17:23:04Z</time></trkpt><trkpt lat="43.3315227762702" lon="11.853527090697218"><ele>264.0</ele><time>2026-03-29T17:23:05Z</time></trkpt><trkpt lat="43.331614046264804" lon="11.853485076753179"><ele>264.0</ele><time>2026-03-29T17:23:06Z</time></trkpt><trkpt lat="43.33170410082197" lon="11.853440909224425"><ele>264.0</ele><time>2026-03-29T17:23:07Z</time></trkpt><trkpt lat="43.33179419779011" lon="11.85339670253329"><ele>264.0</ele><time>2026-03-29T17:23:08Z</time></trkpt><trkpt lat="43.331882928464566" lon="11.85335938407978"><ele>264.0</ele><time>2026-03-29T17:23:09Z</time></trkpt><trkpt lat="43.331973046077174" lon="11.853323436106043"><ele>264.0</ele><time>2026-03-29T17:23:10Z</time></trkpt><trkpt lat="43.33206165555838" lon="11.853285740676041"><ele>264.0</ele><time>2026-03-29T17:23:11Z</time></trkpt><trkpt lat="43.33215001712752" lon="11.85324545906759"><ele>264.0</ele><time>2026-03-29T17:23:12Z</time></trkpt><trkpt lat="43.3322382969793" lon="11.853202402299448"><ele>264.0</ele><time>2026-03-29T17:23:13Z</time></trkpt><trkpt lat="43.332326599812944" lon="11.853161285664347"><ele>264.0</ele><time>2026-03-29T17:23:14Z</time></trkpt><trkpt lat="43.33241494693053" lon="11.853122102503134"><ele>264.0</ele><time>2026-03-29T17:23:15Z</time></trkpt><trkpt lat="43.33250392346544" lon="11.853080072555914"><ele>264.0</ele><time>2026-03-29T17:23:16Z</time></trkpt><trkpt lat="43.332592579942805" lon="11.853039679722666"><ele>264.0</ele><time>2026-03-29T17:23:17Z</time></trkpt><trkpt lat="43.33268076431745" lon="11.853002477716737"><ele>264.0</ele><time>2026-03-29T17:23:18Z</time></trkpt><trkpt lat="43.3327694164532" lon="11.852965150122145"><ele>264.0</ele><time>2026-03-29T17:23:19Z</time></trkpt><trkpt lat="43.3328577893861" lon="11.852927452082168"><ele>264.0</ele><time>2026-03-29T17:23:20Z</time></trkpt><trkpt lat="43.33294737240268" lon="11.852887422665802"><ele>264.0</ele><time>2026-03-29T17:23:21Z</time></trkpt><trkpt lat="43.333035027344586" lon="11.852844618687836"><ele>264.0</ele><time>2026-03-29T17:23:22Z</time></trkpt><trkpt lat="43.33312385414762" lon="11.852799132748283"><ele>264.0</ele><time>2026-03-29T17:23:23Z</time></trkpt><trkpt lat="43.33321074444688" lon="11.852755749167272"><ele>263.8</ele><time>2026-03-29T17:23:24Z</time></trkpt><trkpt lat="43.33329467152629" lon="11.85270607443105"><ele>263.59999999999997</ele><time>2026-03-29T17:23:25Z</time></trkpt><trkpt lat="43.333380136887016" lon="11.852666671415875"><ele>263.4</ele><time>2026-03-29T17:23:26Z</time></trkpt><trkpt lat="43.33346730530135" lon="11.852622414729613"><ele>263.2</ele><time>2026-03-29T17:23:27Z</time></trkpt><trkpt lat="43.33355626246975" lon="11.852581891958136"><ele>263.0</ele><time>2026-03-29T17:23:28Z</time></trkpt><trkpt lat="43.33364544559459" lon="11.852547094075122"><ele>262.8</ele><time>2026-03-29T17:23:29Z</time></trkpt><trkpt lat="43.333737957006434" lon="11.852518516637739"><ele>262.6</ele><time>2026-03-29T17:23:30Z</time></trkpt><trkpt lat="43.33383022079465" lon="11.852493316963635"><ele>262.4</ele><time>2026-03-29T17:23:31Z</time></trkpt><trkpt lat="43.33392238192014" lon="11.85247462731864"><ele>262.2</ele><time>2026-03-29T17:23:32Z</time></trkpt><trkpt lat="43.33401590804326" lon="11.85245473412088"><ele>262.0</ele><time>2026-03-29T17:23:33Z</time></trkpt><trkpt lat="43.33410865300985" lon="11.852436730579807"><ele>262.0</ele><time>2026-03-29T17:23:34Z</time></trkpt><trkpt lat="43.33420064881967" lon="11.852418150834449"><ele>262.0</ele><time>2026-03-29T17:23:35Z</time></trkpt><trkpt lat="43.3342928997949" lon="11.852400411349242"><ele>262.0</ele><time>2026-03-29T17:23:35.999Z</time></trkpt><trkpt lat="43.33438469550629" lon="11.852385312816404"><ele>262.0</ele><time>2026-03-29T17:23:36.999Z</time></trkpt><trkpt lat="43.3344754115314" lon="11.852372355700354"><ele>262.0</ele><time>2026-03-29T17:23:37.999Z</time></trkpt><trkpt lat="43.334566224602625" lon="11.852358930414873"><ele>262.0</ele><time>2026-03-29T17:23:38.999Z</time></trkpt><trkpt lat="43.33465970794364" lon="11.852345931496384"><ele>262.0</ele><time>2026-03-29T17:23:39.999Z</time></trkpt><trkpt lat="43.33475323680999" lon="11.8523346284791"><ele>262.0</ele><time>2026-03-29T17:23:40.999Z</time></trkpt><trkpt lat="43.33484699542046" lon="11.852324728807906"><ele>262.0</ele><time>2026-03-29T17:23:41.999Z</time></trkpt><trkpt lat="43.3349409433635" lon="11.852318427730568"><ele>262.0</ele><time>2026-03-29T17:23:42.999Z</time></trkpt><trkpt lat="43.335036843243344" lon="11.852312210050563"><ele>262.0</ele><time>2026-03-29T17:23:43.999Z</time></trkpt><trkpt lat="43.335129495069495" lon="11.852303059083189"><ele>262.0</ele><time>2026-03-29T17:23:44.999Z</time></trkpt><trkpt lat="43.33522448205515" lon="11.852294085586209"><ele>262.0</ele><time>2026-03-29T17:23:45.999Z</time></trkpt><trkpt lat="43.33532115474124" lon="11.852292226788506"><ele>262.0</ele><time>2026-03-29T17:23:46.999Z</time></trkpt><trkpt lat="43.33541132503794" lon="11.85228595496157"><ele>262.0</ele><time>2026-03-29T17:23:47.999Z</time></trkpt><trkpt lat="43.33550553429614" lon="11.852275712503145"><ele>262.3333333333333</ele><time>2026-03-29T17:23:48.999Z</time></trkpt><trkpt lat="43.33559893841931" lon="11.8522658116056"><ele>262.66666666666663</ele><time>2026-03-29T17:23:49.999Z</time></trkpt><trkpt lat="43.33569335669595" lon="11.85226110357515"><ele>263.0</ele><time>2026-03-29T17:23:50.999Z</time></trkpt><trkpt lat="43.335781988644186" lon="11.852256662088307"><ele>263.3333333333333</ele><time>2026-03-29T17:23:51.999Z</time></trkpt><trkpt lat="43.335866687591086" lon="11.852246140490402"><ele>263.6666666666667</ele><time>2026-03-29T17:23:52.999Z</time></trkpt><trkpt lat="43.3359469793526" lon="11.852239139912196"><ele>264.0</ele><time>2026-03-29T17:23:53.999Z</time></trkpt><trkpt lat="43.33601756352092" lon="11.852233974067882"><ele>264.0</ele><time>2026-03-29T17:23:54.999Z</time></trkpt><trkpt lat="43.336112177305814" lon="11.852242764606364"><ele>264.0</ele><time>2026-03-29T17:23:56.999Z</time></trkpt><trkpt lat="43.336120056577386" lon="11.852435671730039"><ele>264.0</ele><time>2026-03-29T17:23:58.999Z</time></trkpt><trkpt lat="43.3361347263108" lon="11.852526540614019"><ele>264.0</ele><time>2026-03-29T17:23:59.999Z</time></trkpt><trkpt lat="43.33614966755195" lon="11.852618051700281"><ele>264.0</ele><time>2026-03-29T17:24:00.999Z</time></trkpt><trkpt lat="43.33616568663326" lon="11.852716164366337"><ele>264.0</ele><time>2026-03-29T17:24:01.999Z</time></trkpt><trkpt lat="43.33618298015609" lon="11.852822082613232"><ele>263.8333333333333</ele><time>2026-03-29T17:24:02.999Z</time></trkpt><trkpt lat="43.336200370242565" lon="11.852928592290647"><ele>263.6666666666667</ele><time>2026-03-29T17:24:03.999Z</time></trkpt><trkpt lat="43.336218960915865" lon="11.85304154565524"><ele>263.5</ele><time>2026-03-29T17:24:04.999Z</time></trkpt><trkpt lat="43.336238109769646" lon="11.8531518206727"><ele>263.33333333333337</ele><time>2026-03-29T17:24:05.999Z</time></trkpt><trkpt lat="43.33625788678768" lon="11.853265713238065"><ele>263.1666666666667</ele><time>2026-03-29T17:24:06.999Z</time></trkpt><trkpt lat="43.33627789061125" lon="11.853380911944312"><ele>263.0</ele><time>2026-03-29T17:24:08Z</time></trkpt><trkpt lat="43.33629760961562" lon="11.853494470392736"><ele>262.6666666666667</ele><time>2026-03-29T17:24:09Z</time></trkpt><trkpt lat="43.33633226671455" lon="11.85360351007719"><ele>262.33333333333337</ele><time>2026-03-29T17:24:10Z</time></trkpt><trkpt lat="43.33635053393082" lon="11.853702428794769"><ele>262.0</ele><time>2026-03-29T17:24:11Z</time></trkpt><trkpt lat="43.33636392424196" lon="11.85381024836716"><ele>261.6666666666667</ele><time>2026-03-29T17:24:12Z</time></trkpt><trkpt lat="43.3363824121052" lon="11.853920213950758"><ele>261.3333333333333</ele><time>2026-03-29T17:24:13Z</time></trkpt><trkpt lat="43.336402075758954" lon="11.854027227512653"><ele>261.0</ele><time>2026-03-29T17:24:14Z</time></trkpt><trkpt lat="43.336421551993624" lon="11.854135426228058"><ele>261.0</ele><time>2026-03-29T17:24:15Z</time></trkpt><trkpt lat="43.33643930168055" lon="11.854243677719323"><ele>261.0</ele><time>2026-03-29T17:24:16Z</time></trkpt><trkpt lat="43.33645668550905" lon="11.854354365197574"><ele>261.0</ele><time>2026-03-29T17:24:17Z</time></trkpt><trkpt lat="43.336473357222125" lon="11.85446881069477"><ele>261.0</ele><time>2026-03-29T17:24:18Z</time></trkpt><trkpt lat="43.33649384312419" lon="11.854584118675138"><ele>261.0</ele><time>2026-03-29T17:24:19Z</time></trkpt><trkpt lat="43.336512448562544" lon="11.854702003118927"><ele>261.0</ele><time>2026-03-29T17:24:20Z</time></trkpt><trkpt lat="43.33652991597723" lon="11.85482257811502"><ele>260.6666666666667</ele><time>2026-03-29T17:24:21Z</time></trkpt><trkpt lat="43.33654830314434" lon="11.854939698925996"><ele>260.3333333333333</ele><time>2026-03-29T17:24:22Z</time></trkpt><trkpt lat="43.336568824253" lon="11.85505776851039"><ele>260.0</ele><time>2026-03-29T17:24:23Z</time></trkpt><trkpt lat="43.33657443887348" lon="11.855176853986269"><ele>259.66666666666663</ele><time>2026-03-29T17:24:24Z</time></trkpt><trkpt lat="43.33659319715258" lon="11.85529601578868"><ele>259.3333333333333</ele><time>2026-03-29T17:24:25Z</time></trkpt><trkpt lat="43.336614106862164" lon="11.855411823450781"><ele>259.0</ele><time>2026-03-29T17:24:26Z</time></trkpt><trkpt lat="43.33664704661059" lon="11.85552163501093"><ele>258.8333333333333</ele><time>2026-03-29T17:24:27Z</time></trkpt><trkpt lat="43.33664650325285" lon="11.855638018387165"><ele>258.66666666666663</ele><time>2026-03-29T17:24:28Z</time></trkpt><trkpt lat="43.336625728259875" lon="11.855748524914834"><ele>258.5</ele><time>2026-03-29T17:24:29Z</time></trkpt><trkpt lat="43.33658405128973" lon="11.855847871113747"><ele>258.3333333333333</ele><time>2026-03-29T17:24:30Z</time></trkpt><trkpt lat="43.33654356708751" lon="11.855951272026376"><ele>258.1666666666667</ele><time>2026-03-29T17:24:31Z</time></trkpt><trkpt lat="43.33649943156236" lon="11.856053927016246"><ele>258.0</ele><time>2026-03-29T17:24:32Z</time></trkpt><trkpt lat="43.33645801123873" lon="11.856155628423688"><ele>258.0</ele><time>2026-03-29T17:24:33Z</time></trkpt><trkpt lat="43.33641829928026" lon="11.856260531400984"><ele>258.0</ele><time>2026-03-29T17:24:34Z</time></trkpt><trkpt lat="43.33637718927551" lon="11.85636549211514"><ele>258.0</ele><time>2026-03-29T17:24:35Z</time></trkpt><trkpt lat="43.3363396960892" lon="11.856463170371669"><ele>258.0</ele><time>2026-03-29T17:24:36Z</time></trkpt><trkpt lat="43.33630187004784" lon="11.85656582367747"><ele>258.0</ele><time>2026-03-29T17:24:37Z</time></trkpt><trkpt lat="43.33626162752989" lon="11.856669638535857"><ele>258.0</ele><time>2026-03-29T17:24:38Z</time></trkpt><trkpt lat="43.336222758646876" lon="11.856771435652492"><ele>258.3333333333333</ele><time>2026-03-29T17:24:39Z</time></trkpt><trkpt lat="43.33618358759708" lon="11.856875928235747"><ele>258.6666666666667</ele><time>2026-03-29T17:24:40Z</time></trkpt><trkpt lat="43.336144510297224" lon="11.856977405375947"><ele>259.0</ele><time>2026-03-29T17:24:41Z</time></trkpt><trkpt lat="43.33610412079376" lon="11.857078191245623"><ele>259.33333333333337</ele><time>2026-03-29T17:24:42Z</time></trkpt><trkpt lat="43.33606425053722" lon="11.857180565687372"><ele>259.6666666666667</ele><time>2026-03-29T17:24:43Z</time></trkpt><trkpt lat="43.33602415911429" lon="11.857280794753486"><ele>260.0</ele><time>2026-03-29T17:24:44Z</time></trkpt><trkpt lat="43.33598439389082" lon="11.857380341212222"><ele>260.0</ele><time>2026-03-29T17:24:45Z</time></trkpt><trkpt lat="43.3359485023146" lon="11.857485593522927"><ele>260.0</ele><time>2026-03-29T17:24:46Z</time></trkpt><trkpt lat="43.335896529826286" lon="11.857573844627202"><ele>260.0</ele><time>2026-03-29T17:24:47Z</time></trkpt><trkpt lat="43.33585773767999" lon="11.857673296255612"><ele>260.0</ele><time>2026-03-29T17:24:48Z</time></trkpt><trkpt lat="43.33582134528016" lon="11.85776659564119"><ele>260.0</ele><time>2026-03-29T17:24:49Z</time></trkpt><trkpt lat="43.33580941636062" lon="11.857877496632588"><ele>260.0</ele><time>2026-03-29T17:24:50Z</time></trkpt><trkpt lat="43.33577466319671" lon="11.857969677842819"><ele>260.00000000000006</ele><time>2026-03-29T17:24:51Z</time></trkpt><trkpt lat="43.33574225345962" lon="11.858058684268748"><ele>260.0</ele><time>2026-03-29T17:24:52Z</time></trkpt><trkpt lat="43.33570352882496" lon="11.858143523511064"><ele>260.0</ele><time>2026-03-29T17:24:53Z</time></trkpt><trkpt lat="43.33566558901693" lon="11.858234949744933"><ele>260.0</ele><time>2026-03-29T17:24:54Z</time></trkpt><trkpt lat="43.335631310853536" lon="11.858327440392328"><ele>260.0</ele><time>2026-03-29T17:24:55Z</time></trkpt><trkpt lat="43.33559646152343" lon="11.85841798030582"><ele>260.00000000000006</ele><time>2026-03-29T17:24:56Z</time></trkpt><trkpt lat="43.33556353423458" lon="11.858510100427821"><ele>260.0</ele><time>2026-03-29T17:24:57Z</time></trkpt><trkpt lat="43.33552991858074" lon="11.858594310232315"><ele>260.00000000000006</ele><time>2026-03-29T17:24:58Z</time></trkpt><trkpt lat="43.33549798481089" lon="11.858682045473529"><ele>260.0</ele><time>2026-03-29T17:24:59Z</time></trkpt><trkpt lat="43.33546773771039" lon="11.858770114130914"><ele>260.0</ele><time>2026-03-29T17:25:00Z</time></trkpt><trkpt lat="43.335437723954726" lon="11.85885137136204"><ele>260.0</ele><time>2026-03-29T17:25:01Z</time></trkpt><trkpt lat="43.335408422872774" lon="11.858937820938447"><ele>260.0</ele><time>2026-03-29T17:25:02Z</time></trkpt><trkpt lat="43.33537878730281" lon="11.859024456851643"><ele>260.00000000000006</ele><time>2026-03-29T17:25:03Z</time></trkpt><trkpt lat="43.33535160346074" lon="11.859113907540031"><ele>260.0</ele><time>2026-03-29T17:25:04Z</time></trkpt><trkpt lat="43.33532891190116" lon="11.859196988890972"><ele>260.0</ele><time>2026-03-29T17:25:05Z</time></trkpt><trkpt lat="43.33531550287593" lon="11.859345725870183"><ele>260.0</ele><time>2026-03-29T17:25:07Z</time></trkpt><trkpt lat="43.33534299834962" lon="11.859478926356543"><ele>260.0</ele><time>2026-03-29T17:25:09Z</time></trkpt><trkpt lat="43.33537915868493" lon="11.859585912320899"><ele>260.0</ele><time>2026-03-29T17:25:11Z</time></trkpt><trkpt lat="43.335410132011994" lon="11.859706605300156"><ele>260.0</ele><time>2026-03-29T17:25:13Z</time></trkpt><trkpt lat="43.33545288740097" lon="11.85982882563774"><ele>260.0</ele><time>2026-03-29T17:25:15Z</time></trkpt><trkpt lat="43.335484936812364" lon="11.859920600931037"><ele>260.0</ele><time>2026-03-29T17:25:18Z</time></trkpt><trkpt lat="43.335540133187784" lon="11.86014624189429"><ele>260.0</ele><time>2026-03-29T17:25:21Z</time></trkpt><trkpt lat="43.33557453503664" lon="11.86025158974351"><ele>260.0</ele><time>2026-03-29T17:25:23Z</time></trkpt><trkpt lat="43.335612158518" lon="11.860342814580271"><ele>260.0</ele><time>2026-03-29T17:25:25Z</time></trkpt><trkpt lat="43.33565205178255" lon="11.86043999765702"><ele>260.0</ele><time>2026-03-29T17:25:27Z</time></trkpt><trkpt lat="43.33569217849165" lon="11.86054731305669"><ele>260.0</ele><time>2026-03-29T17:25:29Z</time></trkpt><trkpt lat="43.335730953630126" lon="11.860642352482795"><ele>260.0</ele><time>2026-03-29T17:25:31Z</time></trkpt><trkpt lat="43.3357648553907" lon="11.860734532450559"><ele>260.0</ele><time>2026-03-29T17:25:33Z</time></trkpt><trkpt lat="43.33579826745385" lon="11.86083508605484"><ele>260.0</ele><time>2026-03-29T17:25:37Z</time></trkpt><trkpt lat="43.335866502738945" lon="11.860947415403608"><ele>260.0</ele><time>2026-03-29T17:25:40Z</time></trkpt><trkpt lat="43.335912335839815" lon="11.861033229888042"><ele>259.8</ele><time>2026-03-29T17:25:41Z</time></trkpt><trkpt lat="43.3359813046489" lon="11.861115561062661"><ele>259.6</ele><time>2026-03-29T17:25:43Z</time></trkpt><trkpt lat="43.33605140906264" lon="11.861200997311604"><ele>259.4</ele><time>2026-03-29T17:25:45Z</time></trkpt><trkpt lat="43.336120743466694" lon="11.861299169184624"><ele>259.2</ele><time>2026-03-29T17:25:47Z</time></trkpt><trkpt lat="43.33619512189846" lon="11.861381494147087"><ele>259.0</ele><time>2026-03-29T17:25:49Z</time></trkpt><trkpt lat="43.33626701782463" lon="11.86146480154477"><ele>259.0</ele><time>2026-03-29T17:25:51Z</time></trkpt><trkpt lat="43.33634309838419" lon="11.861557216486183"><ele>259.0</ele><time>2026-03-29T17:25:52.999Z</time></trkpt><trkpt lat="43.336418618394475" lon="11.861662142644567"><ele>259.0</ele><time>2026-03-29T17:25:54.999Z</time></trkpt><trkpt lat="43.33648362649049" lon="11.861773737869173"><ele>259.0</ele><time>2026-03-29T17:25:56.999Z</time></trkpt><trkpt lat="43.33655035703854" lon="11.861893387279384"><ele>259.0</ele><time>2026-03-29T17:25:58.999Z</time></trkpt><trkpt lat="43.33662831395369" lon="11.861989863668521"><ele>259.0</ele><time>2026-03-29T17:26:00.999Z</time></trkpt><trkpt lat="43.3367012463061" lon="11.862105055542612"><ele>259.0</ele><time>2026-03-29T17:26:02.999Z</time></trkpt><trkpt lat="43.336783446544366" lon="11.86220305571409"><ele>259.0</ele><time>2026-03-29T17:26:04.999Z</time></trkpt><trkpt lat="43.33685490336076" lon="11.862320912408334"><ele>259.0</ele><time>2026-03-29T17:26:06.999Z</time></trkpt><trkpt lat="43.33692238771851" lon="11.862435278309627"><ele>259.0</ele><time>2026-03-29T17:26:08.999Z</time></trkpt><trkpt lat="43.336997695678384" lon="11.862557295657236"><ele>259.0</ele><time>2026-03-29T17:26:10.999Z</time></trkpt><trkpt lat="43.33707216382009" lon="11.862681899932486"><ele>259.0</ele><time>2026-03-29T17:26:12.999Z</time></trkpt><trkpt lat="43.33713188086547" lon="11.862796073858444"><ele>259.0</ele><time>2026-03-29T17:26:15Z</time></trkpt><trkpt lat="43.33720353656077" lon="11.862928078943776"><ele>259.0</ele><time>2026-03-29T17:26:17Z</time></trkpt><trkpt lat="43.337240612440425" lon="11.863001948197367"><ele>259.0</ele><time>2026-03-29T17:26:18Z</time></trkpt><trkpt lat="43.33732289211068" lon="11.863136502335108"><ele>258.8</ele><time>2026-03-29T17:26:20Z</time></trkpt><trkpt lat="43.33739293968616" lon="11.863263960450409"><ele>258.59999999999997</ele><time>2026-03-29T17:26:22Z</time></trkpt><trkpt lat="43.33747107932875" lon="11.863378582236047"><ele>258.4</ele><time>2026-03-29T17:26:24Z</time></trkpt><trkpt lat="43.3375432078483" lon="11.863512667135405"><ele>258.2</ele><time>2026-03-29T17:26:26Z</time></trkpt><trkpt lat="43.33758338519386" lon="11.86358292353619"><ele>258.0</ele><time>2026-03-29T17:26:27Z</time></trkpt><trkpt lat="43.337626360062984" lon="11.863647574924727"><ele>258.0</ele><time>2026-03-29T17:26:28Z</time></trkpt><trkpt lat="43.33767202308918" lon="11.86371862743445"><ele>258.0</ele><time>2026-03-29T17:26:29Z</time></trkpt><trkpt lat="43.33771600481826" lon="11.86378199164386"><ele>258.0</ele><time>2026-03-29T17:26:30Z</time></trkpt><trkpt lat="43.33774264585393" lon="11.863871525994883"><ele>258.0</ele><time>2026-03-29T17:26:31Z</time></trkpt><trkpt lat="43.33783365732562" lon="11.863995632347867"><ele>258.0</ele><time>2026-03-29T17:26:33Z</time></trkpt><trkpt lat="43.337879084994356" lon="11.8640709341833"><ele>258.0</ele><time>2026-03-29T17:26:34Z</time></trkpt><trkpt lat="43.33792401858813" lon="11.864146971579059"><ele>258.0</ele><time>2026-03-29T17:26:35Z</time></trkpt><trkpt lat="43.33798387141074" lon="11.864209129166442"><ele>258.0</ele><time>2026-03-29T17:26:36Z</time></trkpt><trkpt lat="43.33803217239718" lon="11.864289479037009"><ele>258.0</ele><time>2026-03-29T17:26:37Z</time></trkpt><trkpt lat="43.33808134981796" lon="11.864371914724796"><ele>258.0</ele><time>2026-03-29T17:26:38Z</time></trkpt><trkpt lat="43.33813263196117" lon="11.864457530912164"><ele>258.0</ele><time>2026-03-29T17:26:39Z</time></trkpt><trkpt lat="43.33818529805592" lon="11.8645416363911"><ele>258.0</ele><time>2026-03-29T17:26:40Z</time></trkpt><trkpt lat="43.33823718816593" lon="11.864628276489254"><ele>258.0</ele><time>2026-03-29T17:26:41Z</time></trkpt><trkpt lat="43.338290299444346" lon="11.86471534455218"><ele>258.0</ele><time>2026-03-29T17:26:42Z</time></trkpt><trkpt lat="43.33834002357769" lon="11.864804335512973"><ele>258.0</ele><time>2026-03-29T17:26:43Z</time></trkpt><trkpt lat="43.338391387922236" lon="11.864892889411065"><ele>258.0</ele><time>2026-03-29T17:26:44Z</time></trkpt><trkpt lat="43.338441833891466" lon="11.864980347935111"><ele>258.0</ele><time>2026-03-29T17:26:45Z</time></trkpt><trkpt lat="43.338489609408406" lon="11.865063632114307"><ele>258.0</ele><time>2026-03-29T17:26:46Z</time></trkpt><trkpt lat="43.33853831621477" lon="11.865152617461868"><ele>258.0</ele><time>2026-03-29T17:26:47Z</time></trkpt><trkpt lat="43.33858849984066" lon="11.865239289443169"><ele>258.0</ele><time>2026-03-29T17:26:48Z</time></trkpt><trkpt lat="43.338636986131995" lon="11.865321484184959"><ele>258.0</ele><time>2026-03-29T17:26:49Z</time></trkpt><trkpt lat="43.338686190179835" lon="11.865405401794725"><ele>258.0</ele><time>2026-03-29T17:26:50Z</time></trkpt><trkpt lat="43.338738734533926" lon="11.865487899364217"><ele>258.0</ele><time>2026-03-29T17:26:51Z</time></trkpt><trkpt lat="43.33879076247182" lon="11.86556564498787"><ele>258.0</ele><time>2026-03-29T17:26:52Z</time></trkpt><trkpt lat="43.338853479771856" lon="11.865656989121028"><ele>258.0</ele><time>2026-03-29T17:26:54Z</time></trkpt><trkpt lat="43.338812899990494" lon="11.86556542972222"><ele>258.0</ele><time>2026-03-29T17:27:00Z</time></trkpt><trkpt lat="43.33876632423645" lon="11.865499165611377"><ele>258.0</ele><time>2026-03-29T17:27:01Z</time></trkpt><trkpt lat="43.33872063861328" lon="11.865430164356749"><ele>258.0</ele><time>2026-03-29T17:27:02Z</time></trkpt><trkpt lat="43.33866908801669" lon="11.86535122887893"><ele>258.0</ele><time>2026-03-29T17:27:04Z</time></trkpt><trkpt lat="43.33865467813597" lon="11.86551352697817"><ele>258.0</ele><time>2026-03-29T17:27:08Z</time></trkpt><trkpt lat="43.33869869726091" lon="11.865669073851613"><ele>258.0</ele><time>2026-03-29T17:27:10Z</time></trkpt><trkpt lat="43.33874290735789" lon="11.865841264995424"><ele>258.0</ele><time>2026-03-29T17:27:12Z</time></trkpt><trkpt lat="43.33876701615965" lon="11.865930409539773"><ele>258.0</ele><time>2026-03-29T17:27:13Z</time></trkpt><trkpt lat="43.33879317969261" lon="11.866020455286767"><ele>258.0</ele><time>2026-03-29T17:27:14Z</time></trkpt><trkpt lat="43.33882167130235" lon="11.866113041322539"><ele>258.0</ele><time>2026-03-29T17:27:15Z</time></trkpt><trkpt lat="43.33884941231721" lon="11.866208165899225"><ele>258.0</ele><time>2026-03-29T17:27:16Z</time></trkpt><trkpt lat="43.338879261247534" lon="11.866302541278234"><ele>258.1428571428571</ele><time>2026-03-29T17:27:17Z</time></trkpt><trkpt lat="43.33890793542221" lon="11.866394407329876"><ele>258.2857142857143</ele><time>2026-03-29T17:27:18Z</time></trkpt><trkpt lat="43.338936040681624" lon="11.866488276521242"><ele>258.42857142857144</ele><time>2026-03-29T17:27:19Z</time></trkpt><trkpt lat="43.33896418674883" lon="11.866579952235584"><ele>258.57142857142856</ele><time>2026-03-29T17:27:20Z</time></trkpt><trkpt lat="43.33899435370746" lon="11.866668163798938"><ele>258.7142857142857</ele><time>2026-03-29T17:27:21Z</time></trkpt><trkpt lat="43.33902336107274" lon="11.866753615191216"><ele>258.85714285714283</ele><time>2026-03-29T17:27:22Z</time></trkpt><trkpt lat="43.33905176877562" lon="11.866838103905543"><ele>259.0</ele><time>2026-03-29T17:27:23Z</time></trkpt><trkpt lat="43.339103695391564" lon="11.866997526814172"><ele>258.7142857142857</ele><time>2026-03-29T17:27:25Z</time></trkpt><trkpt lat="43.33913342985077" lon="11.867088408447636"><ele>258.42857142857144</ele><time>2026-03-29T17:27:26Z</time></trkpt><trkpt lat="43.33916610025668" lon="11.86717676479001"><ele>258.1428571428571</ele><time>2026-03-29T17:27:27Z</time></trkpt><trkpt lat="43.339195937331745" lon="11.867268750883442"><ele>257.8571428571429</ele><time>2026-03-29T17:27:28Z</time></trkpt><trkpt lat="43.33922853185056" lon="11.867367911109103"><ele>257.57142857142856</ele><time>2026-03-29T17:27:29Z</time></trkpt><trkpt lat="43.33925940996801" lon="11.867460868997526"><ele>257.2857142857143</ele><time>2026-03-29T17:27:30Z</time></trkpt><trkpt lat="43.339291227917414" lon="11.867550638748328"><ele>257.0</ele><time>2026-03-29T17:27:31Z</time></trkpt><trkpt lat="43.33932024892129" lon="11.867647548060411"><ele>256.85714285714283</ele><time>2026-03-29T17:27:32Z</time></trkpt><trkpt lat="43.33936051465949" lon="11.86772906885062"><ele>256.7142857142857</ele><time>2026-03-29T17:27:33Z</time></trkpt><trkpt lat="43.339407033307324" lon="11.867809175087716"><ele>256.57142857142856</ele><time>2026-03-29T17:27:34Z</time></trkpt><trkpt lat="43.339461896586656" lon="11.867871216743337"><ele>256.42857142857144</ele><time>2026-03-29T17:27:35Z</time></trkpt><trkpt lat="43.339526267036064" lon="11.867925850986476"><ele>256.2857142857143</ele><time>2026-03-29T17:27:36Z</time></trkpt><trkpt lat="43.33959578903647" lon="11.867967012879959"><ele>256.1428571428571</ele><time>2026-03-29T17:27:37Z</time></trkpt><trkpt lat="43.33966469175829" lon="11.86801957884009"><ele>256.0</ele><time>2026-03-29T17:27:38Z</time></trkpt><trkpt lat="43.339731962179236" lon="11.86807166834825"><ele>255.99999999999997</ele><time>2026-03-29T17:27:39Z</time></trkpt><trkpt lat="43.339795047825426" lon="11.868128307322884"><ele>256.0</ele><time>2026-03-29T17:27:40Z</time></trkpt><trkpt lat="43.33985911963669" lon="11.868185586069025"><ele>256.0</ele><time>2026-03-29T17:27:41Z</time></trkpt><trkpt lat="43.33992739315119" lon="11.868233542745987"><ele>256.0</ele><time>2026-03-29T17:27:42Z</time></trkpt><trkpt lat="43.33999853300947" lon="11.868289052001927"><ele>255.99999999999997</ele><time>2026-03-29T17:27:43Z</time></trkpt><trkpt lat="43.340061349145785" lon="11.868348724678068"><ele>256.0</ele><time>2026-03-29T17:27:44Z</time></trkpt><trkpt lat="43.340124950220186" lon="11.868406936234804"><ele>256.2857142857143</ele><time>2026-03-29T17:27:45Z</time></trkpt><trkpt lat="43.34018660254023" lon="11.868467020340608"><ele>256.57142857142856</ele><time>2026-03-29T17:27:46Z</time></trkpt><trkpt lat="43.34024549959585" lon="11.86853180127011"><ele>256.85714285714283</ele><time>2026-03-29T17:27:47Z</time></trkpt><trkpt lat="43.34029415486143" lon="11.86860243458579"><ele>257.1428571428571</ele><time>2026-03-29T17:27:48Z</time></trkpt><trkpt lat="43.34033294368023" lon="11.868689032798292"><ele>257.42857142857144</ele><time>2026-03-29T17:27:49Z</time></trkpt><trkpt lat="43.340366446917336" lon="11.868771795434185"><ele>257.71428571428567</ele><time>2026-03-29T17:27:50Z</time></trkpt><trkpt lat="43.34039573808315" lon="11.868863991035342"><ele>258.0</ele><time>2026-03-29T17:27:51Z</time></trkpt><trkpt lat="43.340426004727554" lon="11.868956090140287"><ele>258.0</ele><time>2026-03-29T17:27:52Z</time></trkpt><trkpt lat="43.34045289853025" lon="11.869034821419962"><ele>258.0</ele><time>2026-03-29T17:27:53Z</time></trkpt><trkpt lat="43.340479544578976" lon="11.869126152951834"><ele>258.0</ele><time>2026-03-29T17:27:54Z</time></trkpt><trkpt lat="43.34051508571327" lon="11.869291489615335"><ele>258.0</ele><time>2026-03-29T17:27:56Z</time></trkpt><trkpt lat="43.34055477077393" lon="11.869446013811961"><ele>258.0</ele><time>2026-03-29T17:27:58Z</time></trkpt><trkpt lat="43.34059633609786" lon="11.86960718286448"><ele>257.8</ele><time>2026-03-29T17:27:59.999Z</time></trkpt><trkpt lat="43.340629140013725" lon="11.869777972844174"><ele>257.6</ele><time>2026-03-29T17:28:01.999Z</time></trkpt><trkpt lat="43.34064789948838" lon="11.869862077656796"><ele>257.4</ele><time>2026-03-29T17:28:02.999Z</time></trkpt><trkpt lat="43.340666991272435" lon="11.869946948015068"><ele>257.2</ele><time>2026-03-29T17:28:03.999Z</time></trkpt><trkpt lat="43.34070279723522" lon="11.870096641697137"><ele>257.0</ele><time>2026-03-29T17:28:05.999Z</time></trkpt><trkpt lat="43.340736969066675" lon="11.870256116898878"><ele>257.0</ele><time>2026-03-29T17:28:07.999Z</time></trkpt><trkpt lat="43.340748036542095" lon="11.870344537793704"><ele>257.0</ele><time>2026-03-29T17:28:08.999Z</time></trkpt><trkpt lat="43.34076423652457" lon="11.870433551461689"><ele>257.0</ele><time>2026-03-29T17:28:09.999Z</time></trkpt><trkpt lat="43.34078070634929" lon="11.870521383583043"><ele>257.0</ele><time>2026-03-29T17:28:10.999Z</time></trkpt><trkpt lat="43.34079952184272" lon="11.87061390649975"><ele>257.0</ele><time>2026-03-29T17:28:11.999Z</time></trkpt><trkpt lat="43.34081525644509" lon="11.870704973165557"><ele>257.0</ele><time>2026-03-29T17:28:12.999Z</time></trkpt><trkpt lat="43.34083444803393" lon="11.8707942739019"><ele>257.0</ele><time>2026-03-29T17:28:13.999Z</time></trkpt><trkpt lat="43.34085264668579" lon="11.870886556374511"><ele>257.0</ele><time>2026-03-29T17:28:14.999Z</time></trkpt><trkpt lat="43.34087265603777" lon="11.870979069764799"><ele>257.0</ele><time>2026-03-29T17:28:15.999Z</time></trkpt><trkpt lat="43.34088685409969" lon="11.871068150037603"><ele>257.0</ele><time>2026-03-29T17:28:16.999Z</time></trkpt><trkpt lat="43.340904650091176" lon="11.871159836241365"><ele>257.0</ele><time>2026-03-29T17:28:17.999Z</time></trkpt><trkpt lat="43.340925019074085" lon="11.871252927618519"><ele>257.0</ele><time>2026-03-29T17:28:18.999Z</time></trkpt><trkpt lat="43.340944745845086" lon="11.871346075137783"><ele>257.0</ele><time>2026-03-29T17:28:20Z</time></trkpt><trkpt lat="43.340966031737175" lon="11.871437090754089"><ele>257.0</ele><time>2026-03-29T17:28:21Z</time></trkpt><trkpt lat="43.34098705735001" lon="11.871532207441065"><ele>257.0</ele><time>2026-03-29T17:28:22Z</time></trkpt><trkpt lat="43.34100883144129" lon="11.871626949352303"><ele>257.0</ele><time>2026-03-29T17:28:23Z</time></trkpt><trkpt lat="43.34102617429884" lon="11.871713737824892"><ele>257.0</ele><time>2026-03-29T17:28:24Z</time></trkpt><trkpt lat="43.34104496213188" lon="11.871812474098467"><ele>257.0</ele><time>2026-03-29T17:28:25Z</time></trkpt><trkpt lat="43.341063203576965" lon="11.871907472897345"><ele>257.0</ele><time>2026-03-29T17:28:26Z</time></trkpt><trkpt lat="43.34108524545009" lon="11.872009587228343"><ele>257.0</ele><time>2026-03-29T17:28:27Z</time></trkpt><trkpt lat="43.341105396367375" lon="11.872109791303016"><ele>257.0</ele><time>2026-03-29T17:28:28Z</time></trkpt><trkpt lat="43.341124102475334" lon="11.872207009122974"><ele>257.0</ele><time>2026-03-29T17:28:29Z</time></trkpt><trkpt lat="43.34114371040337" lon="11.872310234223109"><ele>257.0</ele><time>2026-03-29T17:28:30Z</time></trkpt><trkpt lat="43.34116546906804" lon="11.872407258484355"><ele>257.0</ele><time>2026-03-29T17:28:31Z</time></trkpt><trkpt lat="43.341186931505135" lon="11.872504609738135"><ele>257.0</ele><time>2026-03-29T17:28:32Z</time></trkpt><trkpt lat="43.341207600720324" lon="11.872599984663648"><ele>257.0</ele><time>2026-03-29T17:28:33Z</time></trkpt><trkpt lat="43.34123112740736" lon="11.872690821511323"><ele>257.0</ele><time>2026-03-29T17:28:34Z</time></trkpt><trkpt lat="43.34126786818115" lon="11.872774186896972"><ele>257.0</ele><time>2026-03-29T17:28:35Z</time></trkpt><trkpt lat="43.341304276994414" lon="11.872861790044649"><ele>257.0</ele><time>2026-03-29T17:28:36Z</time></trkpt><trkpt lat="43.341342635429044" lon="11.872941851549191"><ele>257.0</ele><time>2026-03-29T17:28:37Z</time></trkpt><trkpt lat="43.341383448508296" lon="11.873025755011726"><ele>257.0</ele><time>2026-03-29T17:28:38Z</time></trkpt><trkpt lat="43.34142536270472" lon="11.873110998036356"><ele>257.0</ele><time>2026-03-29T17:28:39Z</time></trkpt><trkpt lat="43.34146813204055" lon="11.873198789816197"><ele>257.0</ele><time>2026-03-29T17:28:40Z</time></trkpt><trkpt lat="43.34151015729122" lon="11.873282305221082"><ele>257.0</ele><time>2026-03-29T17:28:41Z</time></trkpt><trkpt lat="43.341553362602966" lon="11.873366705531048"><ele>257.0</ele><time>2026-03-29T17:28:42Z</time></trkpt><trkpt lat="43.34159775139739" lon="11.8734494965683"><ele>257.0</ele><time>2026-03-29T17:28:43Z</time></trkpt><trkpt lat="43.34164018872059" lon="11.873530723460938"><ele>257.0</ele><time>2026-03-29T17:28:44Z</time></trkpt><trkpt lat="43.341683630661706" lon="11.873618474386182"><ele>257.0</ele><time>2026-03-29T17:28:45Z</time></trkpt><trkpt lat="43.34172732143481" lon="11.873703642946095"><ele>257.0</ele><time>2026-03-29T17:28:46Z</time></trkpt><trkpt lat="43.3417709808075" lon="11.873797718661145"><ele>257.0</ele><time>2026-03-29T17:28:47Z</time></trkpt><trkpt lat="43.3418143907012" lon="11.873879924911945"><ele>257.0</ele><time>2026-03-29T17:28:48Z</time></trkpt><trkpt lat="43.341861241799556" lon="11.873961025207993"><ele>257.0</ele><time>2026-03-29T17:28:49Z</time></trkpt><trkpt lat="43.34190339618024" lon="11.874046047485269"><ele>257.0</ele><time>2026-03-29T17:28:50Z</time></trkpt><trkpt lat="43.34194843224873" lon="11.87413691120042"><ele>257.0</ele><time>2026-03-29T17:28:51Z</time></trkpt><trkpt lat="43.341996518812365" lon="11.874223398817971"><ele>257.0</ele><time>2026-03-29T17:28:52Z</time></trkpt><trkpt lat="43.342048812292674" lon="11.874305932676478"><ele>257.0</ele><time>2026-03-29T17:28:53Z</time></trkpt><trkpt lat="43.34210221945845" lon="11.87438478661046"><ele>257.0</ele><time>2026-03-29T17:28:54Z</time></trkpt><trkpt lat="43.342158103801815" lon="11.874467014910417"><ele>257.0</ele><time>2026-03-29T17:28:55Z</time></trkpt><trkpt lat="43.34220949954418" lon="11.874544447001597"><ele>257.0</ele><time>2026-03-29T17:28:56Z</time></trkpt><trkpt lat="43.3422659798581" lon="11.87461439848832"><ele>257.0</ele><time>2026-03-29T17:28:57Z</time></trkpt><trkpt lat="43.34232766397651" lon="11.874688466980283"><ele>257.0</ele><time>2026-03-29T17:28:58Z</time></trkpt><trkpt lat="43.342379736208834" lon="11.87476322027467"><ele>257.0</ele><time>2026-03-29T17:28:59Z</time></trkpt><trkpt lat="43.34243704913638" lon="11.874837035277233"><ele>257.0</ele><time>2026-03-29T17:29:00Z</time></trkpt><trkpt lat="43.34249106478061" lon="11.874909983428555"><ele>257.1666666666667</ele><time>2026-03-29T17:29:01Z</time></trkpt><trkpt lat="43.342548187991824" lon="11.874988268640402"><ele>257.33333333333337</ele><time>2026-03-29T17:29:02Z</time></trkpt><trkpt lat="43.34259803796682" lon="11.875065529814696"><ele>257.5</ele><time>2026-03-29T17:29:03Z</time></trkpt><trkpt lat="43.342651671921004" lon="11.875149317449797"><ele>257.6666666666667</ele><time>2026-03-29T17:29:04Z</time></trkpt><trkpt lat="43.342701832312024" lon="11.87522606224135"><ele>257.8333333333333</ele><time>2026-03-29T17:29:05Z</time></trkpt><trkpt lat="43.34274941941115" lon="11.875301961114682"><ele>258.0</ele><time>2026-03-29T17:29:06Z</time></trkpt><trkpt lat="43.342805839636746" lon="11.875384548045636"><ele>258.0</ele><time>2026-03-29T17:29:07Z</time></trkpt><trkpt lat="43.342860276273036" lon="11.875450005675722"><ele>258.0</ele><time>2026-03-29T17:29:08Z</time></trkpt><trkpt lat="43.342917982041726" lon="11.875522660085727"><ele>258.0</ele><time>2026-03-29T17:29:09Z</time></trkpt><trkpt lat="43.3429748831796" lon="11.875589973332636"><ele>258.0</ele><time>2026-03-29T17:29:10Z</time></trkpt><trkpt lat="43.34303317739054" lon="11.875658697064518"><ele>258.0</ele><time>2026-03-29T17:29:11Z</time></trkpt><trkpt lat="43.34309036351164" lon="11.87573656952578"><ele>258.0</ele><time>2026-03-29T17:29:12Z</time></trkpt><trkpt lat="43.34314413430018" lon="11.875800724860479"><ele>258.2857142857143</ele><time>2026-03-29T17:29:13Z</time></trkpt><trkpt lat="43.343202976758036" lon="11.875859470013683"><ele>258.57142857142856</ele><time>2026-03-29T17:29:14Z</time></trkpt><trkpt lat="43.34326192489589" lon="11.875921111643324"><ele>258.8571428571429</ele><time>2026-03-29T17:29:15Z</time></trkpt><trkpt lat="43.34331124383519" lon="11.875984047658905"><ele>259.1428571428571</ele><time>2026-03-29T17:29:16Z</time></trkpt><trkpt lat="43.34337461605912" lon="11.87603884223666"><ele>259.42857142857144</ele><time>2026-03-29T17:29:17Z</time></trkpt><trkpt lat="43.343427445452924" lon="11.876104423900891"><ele>259.7142857142857</ele><time>2026-03-29T17:29:18Z</time></trkpt><trkpt lat="43.34348805853229" lon="11.876167311493438"><ele>260.0</ele><time>2026-03-29T17:29:19Z</time></trkpt><trkpt lat="43.34354413619986" lon="11.876226335299446"><ele>260.0</ele><time>2026-03-29T17:29:20Z</time></trkpt><trkpt lat="43.34360129382258" lon="11.876280925200563"><ele>260.0</ele><time>2026-03-29T17:29:21Z</time></trkpt><trkpt lat="43.343656952286565" lon="11.876353577303897"><ele>260.0</ele><time>2026-03-29T17:29:22Z</time></trkpt><trkpt lat="43.34370830784487" lon="11.876422892494318"><ele>260.0</ele><time>2026-03-29T17:29:23Z</time></trkpt><trkpt lat="43.34376430507778" lon="11.876491864113577"><ele>260.0</ele><time>2026-03-29T17:29:24Z</time></trkpt><trkpt lat="43.34381712364708" lon="11.876560272593082"><ele>260.0</ele><time>2026-03-29T17:29:25Z</time></trkpt><trkpt lat="43.34390808061094" lon="11.876683927891305"><ele>260.0</ele><time>2026-03-29T17:29:27Z</time></trkpt><trkpt lat="43.34397801200019" lon="11.876827147442635"><ele>260.0</ele><time>2026-03-29T17:29:29Z</time></trkpt><trkpt lat="43.343995989756785" lon="11.876915662650664"><ele>260.0</ele><time>2026-03-29T17:29:30Z</time></trkpt><trkpt lat="43.343998794059566" lon="11.877022061195843"><ele>260.0</ele><time>2026-03-29T17:29:31Z</time></trkpt><trkpt lat="43.34398416122773" lon="11.877126938336968"><ele>260.0</ele><time>2026-03-29T17:29:32Z</time></trkpt><trkpt lat="43.34396803726245" lon="11.877234445160758"><ele>260.0</ele><time>2026-03-29T17:29:33Z</time></trkpt><trkpt lat="43.34397065878215" lon="11.877322111119062"><ele>260.00000000000006</ele><time>2026-03-29T17:29:34Z</time></trkpt><trkpt lat="43.34397969462798" lon="11.8774183251296"><ele>260.0</ele><time>2026-03-29T17:29:35Z</time></trkpt><trkpt lat="43.34399685391736" lon="11.87751834048953"><ele>260.0</ele><time>2026-03-29T17:29:36Z</time></trkpt><trkpt lat="43.34402556843842" lon="11.877601495791748"><ele>260.0</ele><time>2026-03-29T17:29:37Z</time></trkpt><trkpt lat="43.34405911095004" lon="11.877679040100627"><ele>260.0</ele><time>2026-03-29T17:29:38Z</time></trkpt><trkpt lat="43.34408815400464" lon="11.877761136446555"><ele>260.00000000000006</ele><time>2026-03-29T17:29:39Z</time></trkpt><trkpt lat="43.3440930682048" lon="11.87785555709538"><ele>260.0</ele><time>2026-03-29T17:29:40Z</time></trkpt><trkpt lat="43.34407767831238" lon="11.877952586781653"><ele>259.6666666666667</ele><time>2026-03-29T17:29:41Z</time></trkpt><trkpt lat="43.34403497427959" lon="11.878051472325794"><ele>259.33333333333337</ele><time>2026-03-29T17:29:42Z</time></trkpt><trkpt lat="43.34402620461934" lon="11.878151372515452"><ele>259.0</ele><time>2026-03-29T17:29:43Z</time></trkpt><trkpt lat="43.3440384498894" lon="11.878260732351478"><ele>258.6666666666667</ele><time>2026-03-29T17:29:44Z</time></trkpt><trkpt lat="43.34403558346152" lon="11.878367970757061"><ele>258.3333333333333</ele><time>2026-03-29T17:29:45Z</time></trkpt><trkpt lat="43.34403248496248" lon="11.878477079975886"><ele>258.0</ele><time>2026-03-29T17:29:46Z</time></trkpt><trkpt lat="43.344013995874185" lon="11.878583426837595"><ele>257.8333333333333</ele><time>2026-03-29T17:29:47Z</time></trkpt><trkpt lat="43.344023747317046" lon="11.878696667912388"><ele>257.6666666666667</ele><time>2026-03-29T17:29:48Z</time></trkpt><trkpt lat="43.34399557175225" lon="11.878809034677902"><ele>257.5</ele><time>2026-03-29T17:29:49Z</time></trkpt><trkpt lat="43.34398166704798" lon="11.878921725664402"><ele>257.33333333333337</ele><time>2026-03-29T17:29:50Z</time></trkpt><trkpt lat="43.3439647778766" lon="11.87903444047623"><ele>257.1666666666667</ele><time>2026-03-29T17:29:51Z</time></trkpt><trkpt lat="43.34395931779641" lon="11.879148779190313"><ele>257.0</ele><time>2026-03-29T17:29:52Z</time></trkpt><trkpt lat="43.343938704516" lon="11.87925974413676"><ele>256.83333333333337</ele><time>2026-03-29T17:29:53Z</time></trkpt><trkpt lat="43.34391562159486" lon="11.87936885269256"><ele>256.6666666666667</ele><time>2026-03-29T17:29:54Z</time></trkpt><trkpt lat="43.343889295649305" lon="11.87947737817093"><ele>256.5</ele><time>2026-03-29T17:29:55Z</time></trkpt><trkpt lat="43.3438577087044" lon="11.879587004554923"><ele>256.3333333333333</ele><time>2026-03-29T17:29:56Z</time></trkpt><trkpt lat="43.34382705581153" lon="11.879696842781973"><ele>256.16666666666663</ele><time>2026-03-29T17:29:57Z</time></trkpt><trkpt lat="43.34379620560509" lon="11.879807589200608"><ele>256.0</ele><time>2026-03-29T17:29:58Z</time></trkpt><trkpt lat="43.3437697355084" lon="11.879919933971184"><ele>255.99999999999997</ele><time>2026-03-29T17:29:59Z</time></trkpt><trkpt lat="43.34374230852024" lon="11.88002908291958"><ele>256.0</ele><time>2026-03-29T17:30:00Z</time></trkpt><trkpt lat="43.34370160667303" lon="11.88012861822726"><ele>256.0</ele><time>2026-03-29T17:30:01Z</time></trkpt><trkpt lat="43.34367290799967" lon="11.880235850904217"><ele>256.0</ele><time>2026-03-29T17:30:02Z</time></trkpt><trkpt lat="43.343658875968444" lon="11.880352350055995"><ele>255.99999999999997</ele><time>2026-03-29T17:30:03Z</time></trkpt><trkpt lat="43.3436451424442" lon="11.88046237091767"><ele>256.0</ele><time>2026-03-29T17:30:04Z</time></trkpt><trkpt lat="43.34364231838863" lon="11.880579034431657"><ele>256.3333333333333</ele><time>2026-03-29T17:30:05Z</time></trkpt><trkpt lat="43.343704696459234" lon="11.880673259261732"><ele>256.66666666666663</ele><time>2026-03-29T17:30:06Z</time></trkpt><trkpt lat="43.34376259821864" lon="11.880759462383775"><ele>257.0</ele><time>2026-03-29T17:30:07Z</time></trkpt><trkpt lat="43.34380913994774" lon="11.880857319294606"><ele>257.3333333333333</ele><time>2026-03-29T17:30:08Z</time></trkpt><trkpt lat="43.34386778095884" lon="11.880941078751139"><ele>257.6666666666667</ele><time>2026-03-29T17:30:09Z</time></trkpt><trkpt lat="43.34393687815949" lon="11.8810081474414"><ele>258.0</ele><time>2026-03-29T17:30:10Z</time></trkpt><trkpt lat="43.343991538616855" lon="11.881092609963979"><ele>258.0</ele><time>2026-03-29T17:30:11Z</time></trkpt><trkpt lat="43.34404711433049" lon="11.881177129159077"><ele>258.0</ele><time>2026-03-29T17:30:12Z</time></trkpt><trkpt lat="43.3440830671449" lon="11.881278159912593"><ele>258.0</ele><time>2026-03-29T17:30:13Z</time></trkpt><trkpt lat="43.344129441865874" lon="11.881372820803634"><ele>258.0</ele><time>2026-03-29T17:30:14Z</time></trkpt><trkpt lat="43.3441738837587" lon="11.881468991942386"><ele>258.0</ele><time>2026-03-29T17:30:16Z</time></trkpt><trkpt lat="43.34420603139364" lon="11.881544897546265"><ele>258.0</ele><time>2026-03-29T17:30:17.999Z</time></trkpt><trkpt lat="43.34427555842347" lon="11.881673551604536"><ele>258.0</ele><time>2026-03-29T17:30:19.999Z</time></trkpt><trkpt lat="43.344320922750654" lon="11.88175008173618"><ele>258.0</ele><time>2026-03-29T17:30:20.999Z</time></trkpt><trkpt lat="43.344369030323904" lon="11.881832647094834"><ele>258.0</ele><time>2026-03-29T17:30:21.999Z</time></trkpt><trkpt lat="43.34442974158047" lon="11.881924368974065"><ele>258.0</ele><time>2026-03-29T17:30:22.999Z</time></trkpt><trkpt lat="43.34449269349775" lon="11.882034445870431"><ele>258.0</ele><time>2026-03-29T17:30:23.999Z</time></trkpt><trkpt lat="43.344558006573436" lon="11.882134837845976"><ele>258.0</ele><time>2026-03-29T17:30:24.999Z</time></trkpt><trkpt lat="43.3446239423436" lon="11.882240908289692"><ele>258.0</ele><time>2026-03-29T17:30:26Z</time></trkpt><trkpt lat="43.344687686373" lon="11.882352384276443"><ele>258.0</ele><time>2026-03-29T17:30:27Z</time></trkpt><trkpt lat="43.34475127853836" lon="11.882463340789485"><ele>258.0</ele><time>2026-03-29T17:30:28Z</time></trkpt><trkpt lat="43.34481479305927" lon="11.882569885142596"><ele>258.0</ele><time>2026-03-29T17:30:29Z</time></trkpt><trkpt lat="43.344876173906826" lon="11.882667831903815"><ele>258.0</ele><time>2026-03-29T17:30:30Z</time></trkpt><trkpt lat="43.34493902423795" lon="11.882768974136823"><ele>257.8</ele><time>2026-03-29T17:30:31Z</time></trkpt><trkpt lat="43.3449998064909" lon="11.882868999539824"><ele>257.6</ele><time>2026-03-29T17:30:32Z</time></trkpt><trkpt lat="43.34506045285919" lon="11.882969673949443"><ele>257.4</ele><time>2026-03-29T17:30:33Z</time></trkpt><trkpt lat="43.345122973200375" lon="11.883074833409639"><ele>257.2</ele><time>2026-03-29T17:30:34Z</time></trkpt><trkpt lat="43.34518615004325" lon="11.883178198895983"><ele>257.0</ele><time>2026-03-29T17:30:35Z</time></trkpt><trkpt lat="43.34524871364978" lon="11.883280359289257"><ele>257.0</ele><time>2026-03-29T17:30:36Z</time></trkpt><trkpt lat="43.34530832455095" lon="11.88338506211867"><ele>257.0</ele><time>2026-03-29T17:30:37Z</time></trkpt><trkpt lat="43.34536997125342" lon="11.883488648490417"><ele>257.0</ele><time>2026-03-29T17:30:38Z</time></trkpt><trkpt lat="43.34543229517181" lon="11.88359506574911"><ele>257.0</ele><time>2026-03-29T17:30:39Z</time></trkpt><trkpt lat="43.34548520435753" lon="11.88370829862706"><ele>257.0</ele><time>2026-03-29T17:30:40Z</time></trkpt><trkpt lat="43.34553634094704" lon="11.883822174382887"><ele>257.2</ele><time>2026-03-29T17:30:41Z</time></trkpt><trkpt lat="43.345586772186884" lon="11.88393814444476"><ele>257.4</ele><time>2026-03-29T17:30:42Z</time></trkpt><trkpt lat="43.34563668289465" lon="11.884050104819195"><ele>257.6</ele><time>2026-03-29T17:30:43Z</time></trkpt><trkpt lat="43.3456833513143" lon="11.884165948404725"><ele>257.8</ele><time>2026-03-29T17:30:44Z</time></trkpt><trkpt lat="43.34573178876297" lon="11.884280797968058"><ele>258.0</ele><time>2026-03-29T17:30:45Z</time></trkpt><trkpt lat="43.345780499169116" lon="11.884395853773064"><ele>258.2</ele><time>2026-03-29T17:30:46Z</time></trkpt><trkpt lat="43.34583193414554" lon="11.884505741571418"><ele>258.4</ele><time>2026-03-29T17:30:47Z</time></trkpt><trkpt lat="43.34587803584675" lon="11.884618075654682"><ele>258.59999999999997</ele><time>2026-03-29T17:30:48Z</time></trkpt><trkpt lat="43.34592324904436" lon="11.8847351903006"><ele>258.8</ele><time>2026-03-29T17:30:49Z</time></trkpt><trkpt lat="43.34596815999454" lon="11.884850627172696"><ele>259.0</ele><time>2026-03-29T17:30:50Z</time></trkpt><trkpt lat="43.34601469960129" lon="11.884963210706477"><ele>259.0</ele><time>2026-03-29T17:30:51Z</time></trkpt><trkpt lat="43.3460661641782" lon="11.885073140717962"><ele>259.0</ele><time>2026-03-29T17:30:52Z</time></trkpt><trkpt lat="43.346108178986405" lon="11.885189353520618"><ele>259.0</ele><time>2026-03-29T17:30:53Z</time></trkpt><trkpt lat="43.34614940327325" lon="11.885299884798801"><ele>259.0</ele><time>2026-03-29T17:30:54Z</time></trkpt><trkpt lat="43.34619223031974" lon="11.885409353337305"><ele>259.0</ele><time>2026-03-29T17:30:55Z</time></trkpt><trkpt lat="43.346223888811025" lon="11.88552574814682"><ele>259.0</ele><time>2026-03-29T17:30:56Z</time></trkpt><trkpt lat="43.346258542958466" lon="11.885642608905528"><ele>259.0</ele><time>2026-03-29T17:30:57Z</time></trkpt><trkpt lat="43.34629463045309" lon="11.885758677350335"><ele>259.0</ele><time>2026-03-29T17:30:58Z</time></trkpt><trkpt lat="43.34632380340024" lon="11.88587902246774"><ele>259.0</ele><time>2026-03-29T17:30:59Z</time></trkpt><trkpt lat="43.34635290751365" lon="11.886001272720659"><ele>259.0</ele><time>2026-03-29T17:31:00Z</time></trkpt><trkpt lat="43.34638205259871" lon="11.886126207448765"><ele>259.0</ele><time>2026-03-29T17:31:01Z</time></trkpt><trkpt lat="43.34641144002422" lon="11.886253461085744"><ele>259.0</ele><time>2026-03-29T17:31:02Z</time></trkpt><trkpt lat="43.34644473584437" lon="11.886379570201402"><ele>259.0</ele><time>2026-03-29T17:31:03Z</time></trkpt><trkpt lat="43.346477129864695" lon="11.886509723571205"><ele>259.0</ele><time>2026-03-29T17:31:04Z</time></trkpt><trkpt lat="43.34650717853362" lon="11.886641336103166"><ele>259.0</ele><time>2026-03-29T17:31:05Z</time></trkpt><trkpt lat="43.34653942735819" lon="11.886769155778813"><ele>259.0</ele><time>2026-03-29T17:31:06Z</time></trkpt><trkpt lat="43.34657258261802" lon="11.886897244381153"><ele>259.0</ele><time>2026-03-29T17:31:07Z</time></trkpt><trkpt lat="43.34660122091684" lon="11.887024913055464"><ele>259.0</ele><time>2026-03-29T17:31:08Z</time></trkpt><trkpt lat="43.346628821740254" lon="11.88714990559451"><ele>259.0</ele><time>2026-03-29T17:31:09Z</time></trkpt><trkpt lat="43.3466572206143" lon="11.88727235704357"><ele>259.0</ele><time>2026-03-29T17:31:10Z</time></trkpt><trkpt lat="43.34668480439461" lon="11.887392317910061"><ele>259.0</ele><time>2026-03-29T17:31:11Z</time></trkpt><trkpt lat="43.34671275471238" lon="11.887512623355656"><ele>259.0</ele><time>2026-03-29T17:31:12Z</time></trkpt><trkpt lat="43.346741674147395" lon="11.887636631808597"><ele>259.0</ele><time>2026-03-29T17:31:13Z</time></trkpt><trkpt lat="43.346771646807866" lon="11.887764951952976"><ele>259.0</ele><time>2026-03-29T17:31:14Z</time></trkpt><trkpt lat="43.34679832702631" lon="11.88789216682625"><ele>259.0</ele><time>2026-03-29T17:31:15Z</time></trkpt><trkpt lat="43.34680973992845" lon="11.888027360131737"><ele>259.2</ele><time>2026-03-29T17:31:16Z</time></trkpt><trkpt lat="43.346812733906965" lon="11.88816723795884"><ele>259.4</ele><time>2026-03-29T17:31:17Z</time></trkpt><trkpt lat="43.34680478271397" lon="11.888306623808832"><ele>259.6</ele><time>2026-03-29T17:31:18Z</time></trkpt><trkpt lat="43.34678966737063" lon="11.888440963225541"><ele>259.8</ele><time>2026-03-29T17:31:19Z</time></trkpt><trkpt lat="43.346780396718735" lon="11.888573609633722"><ele>260.0</ele><time>2026-03-29T17:31:20Z</time></trkpt><trkpt lat="43.34678531973794" lon="11.888704933698861"><ele>260.2</ele><time>2026-03-29T17:31:21Z</time></trkpt><trkpt lat="43.34681437759284" lon="11.888832983405145"><ele>260.4</ele><time>2026-03-29T17:31:22Z</time></trkpt><trkpt lat="43.34686606330973" lon="11.888945261847136"><ele>260.6</ele><time>2026-03-29T17:31:23Z</time></trkpt><trkpt lat="43.34693711595464" lon="11.889032507650125"><ele>260.8</ele><time>2026-03-29T17:31:24Z</time></trkpt><trkpt lat="43.34702061134277" lon="11.889093598061836"><ele>261.0</ele><time>2026-03-29T17:31:25Z</time></trkpt><trkpt lat="43.3470979656789" lon="11.88914907605543"><ele>261.0</ele><time>2026-03-29T17:31:26Z</time></trkpt><trkpt lat="43.347151740024714" lon="11.88923477981966"><ele>261.0</ele><time>2026-03-29T17:31:27Z</time></trkpt><trkpt lat="43.347212068971075" lon="11.889307944218993"><ele>261.0</ele><time>2026-03-29T17:31:28Z</time></trkpt><trkpt lat="43.34727305596472" lon="11.889409724473662"><ele>261.0</ele><time>2026-03-29T17:31:29Z</time></trkpt><trkpt lat="43.34731017420218" lon="11.889530288103824"><ele>261.0</ele><time>2026-03-29T17:31:30Z</time></trkpt><trkpt lat="43.347331340228806" lon="11.889654915665128"><ele>261.0</ele><time>2026-03-29T17:31:31Z</time></trkpt><trkpt lat="43.3473168899459" lon="11.889784981544231"><ele>261.0</ele><time>2026-03-29T17:31:32Z</time></trkpt><trkpt lat="43.34732356142226" lon="11.88992091505401"><ele>261.0</ele><time>2026-03-29T17:31:33Z</time></trkpt><trkpt lat="43.34730824947077" lon="11.890051316627153"><ele>261.0</ele><time>2026-03-29T17:31:34Z</time></trkpt><trkpt lat="43.34730391986814" lon="11.890185409999274"><ele>261.0</ele><time>2026-03-29T17:31:35Z</time></trkpt><trkpt lat="43.34731685954513" lon="11.890318929920118"><ele>261.0</ele><time>2026-03-29T17:31:36Z</time></trkpt><trkpt lat="43.34733948214087" lon="11.890450298710954"><ele>261.0</ele><time>2026-03-29T17:31:37Z</time></trkpt><trkpt lat="43.34736689428856" lon="11.890579093622337"><ele>261.0</ele><time>2026-03-29T17:31:38Z</time></trkpt><trkpt lat="43.34740226117245" lon="11.890709877040825"><ele>261.0</ele><time>2026-03-29T17:31:39Z</time></trkpt><trkpt lat="43.34744060733817" lon="11.89083612877233"><ele>261.0</ele><time>2026-03-29T17:31:40Z</time></trkpt><trkpt lat="43.34747384219688" lon="11.890960630196602"><ele>261.0</ele><time>2026-03-29T17:31:41Z</time></trkpt><trkpt lat="43.34750642953704" lon="11.8910850201112"><ele>261.0</ele><time>2026-03-29T17:31:42Z</time></trkpt><trkpt lat="43.34753868340819" lon="11.891213493769007"><ele>261.0</ele><time>2026-03-29T17:31:43Z</time></trkpt><trkpt lat="43.34757032830733" lon="11.891336722433559"><ele>261.0</ele><time>2026-03-29T17:31:44Z</time></trkpt><trkpt lat="43.34760448105297" lon="11.891458988235154"><ele>261.0</ele><time>2026-03-29T17:31:45Z</time></trkpt><trkpt lat="43.34763700399209" lon="11.891579132411831"><ele>261.0</ele><time>2026-03-29T17:31:46Z</time></trkpt><trkpt lat="43.34766973173119" lon="11.891700660973203"><ele>261.2</ele><time>2026-03-29T17:31:47Z</time></trkpt><trkpt lat="43.34770292869963" lon="11.891819908419086"><ele>261.40000000000003</ele><time>2026-03-29T17:31:48Z</time></trkpt><trkpt lat="43.347733778948964" lon="11.891938069235756"><ele>261.6</ele><time>2026-03-29T17:31:49Z</time></trkpt><trkpt lat="43.34776585693081" lon="11.892056832213749"><ele>261.8</ele><time>2026-03-29T17:31:50Z</time></trkpt><trkpt lat="43.347803708224916" lon="11.892170209052267"><ele>262.0</ele><time>2026-03-29T17:31:51Z</time></trkpt><trkpt lat="43.34783329757273" lon="11.892286936299435"><ele>262.0</ele><time>2026-03-29T17:31:52Z</time></trkpt><trkpt lat="43.34786326952344" lon="11.892409244815001"><ele>262.0</ele><time>2026-03-29T17:31:53Z</time></trkpt><trkpt lat="43.34789310573079" lon="11.892526649037933"><ele>262.0</ele><time>2026-03-29T17:31:54Z</time></trkpt><trkpt lat="43.34792832500657" lon="11.892653068100953"><ele>262.0</ele><time>2026-03-29T17:31:55Z</time></trkpt><trkpt lat="43.34796002950092" lon="11.892775568881351"><ele>262.0</ele><time>2026-03-29T17:31:56Z</time></trkpt><trkpt lat="43.34799349347599" lon="11.892903329648764"><ele>262.2</ele><time>2026-03-29T17:31:57Z</time></trkpt><trkpt lat="43.348029588018804" lon="11.893035452151805"><ele>262.4</ele><time>2026-03-29T17:31:58Z</time></trkpt><trkpt lat="43.34806656441546" lon="11.893169244302504"><ele>262.6</ele><time>2026-03-29T17:31:59Z</time></trkpt><trkpt lat="43.348102284903355" lon="11.893300505705"><ele>262.8</ele><time>2026-03-29T17:32:00Z</time></trkpt><trkpt lat="43.34813553691604" lon="11.893432710494134"><ele>263.0</ele><time>2026-03-29T17:32:01Z</time></trkpt><trkpt lat="43.34816953817191" lon="11.893562916298473"><ele>263.0</ele><time>2026-03-29T17:32:02Z</time></trkpt><trkpt lat="43.34820443659445" lon="11.89368879210255"><ele>263.0</ele><time>2026-03-29T17:32:03Z</time></trkpt><trkpt lat="43.34823996120541" lon="11.893815185994075"><ele>263.0</ele><time>2026-03-29T17:32:04Z</time></trkpt><trkpt lat="43.34827829037661" lon="11.893943026024283"><ele>263.0</ele><time>2026-03-29T17:32:05Z</time></trkpt><trkpt lat="43.348312367980405" lon="11.894072996059943"><ele>263.0</ele><time>2026-03-29T17:32:06Z</time></trkpt><trkpt lat="43.348345412597034" lon="11.894205562071145"><ele>263.2</ele><time>2026-03-29T17:32:07Z</time></trkpt><trkpt lat="43.348379023555815" lon="11.89433302207596"><ele>263.4</ele><time>2026-03-29T17:32:08Z</time></trkpt><trkpt lat="43.348415721300974" lon="11.894462043790593"><ele>263.59999999999997</ele><time>2026-03-29T17:32:09Z</time></trkpt><trkpt lat="43.34844606165138" lon="11.894591316196175"><ele>263.8</ele><time>2026-03-29T17:32:10Z</time></trkpt><trkpt lat="43.34847662887728" lon="11.894720684592857"><ele>264.0</ele><time>2026-03-29T17:32:11Z</time></trkpt><trkpt lat="43.34851073721819" lon="11.894849273085152"><ele>264.0</ele><time>2026-03-29T17:32:11.999Z</time></trkpt><trkpt lat="43.348546772576725" lon="11.894979392630015"><ele>264.0</ele><time>2026-03-29T17:32:12.999Z</time></trkpt><trkpt lat="43.34858604287311" lon="11.895104897569516"><ele>264.0</ele><time>2026-03-29T17:32:13.999Z</time></trkpt><trkpt lat="43.34862970259462" lon="11.895221692638374"><ele>264.0</ele><time>2026-03-29T17:32:14.999Z</time></trkpt><trkpt lat="43.34868421053221" lon="11.895336908898628"><ele>264.0</ele><time>2026-03-29T17:32:15.999Z</time></trkpt><trkpt lat="43.34874408197716" lon="11.895444028661435"><ele>264.0</ele><time>2026-03-29T17:32:16.999Z</time></trkpt><trkpt lat="43.34881047165651" lon="11.895547451005873"><ele>264.0</ele><time>2026-03-29T17:32:17.999Z</time></trkpt><trkpt lat="43.34888001770517" lon="11.895647593755344"><ele>264.0</ele><time>2026-03-29T17:32:18.999Z</time></trkpt><trkpt lat="43.34894678816568" lon="11.895748410503293"><ele>264.0</ele><time>2026-03-29T17:32:19.999Z</time></trkpt><trkpt lat="43.34901285758024" lon="11.895850668373983"><ele>264.0</ele><time>2026-03-29T17:32:20.999Z</time></trkpt><trkpt lat="43.34907929595266" lon="11.895954831522468"><ele>264.4</ele><time>2026-03-29T17:32:21.999Z</time></trkpt><trkpt lat="43.349146554939615" lon="11.896059718952197"><ele>264.79999999999995</ele><time>2026-03-29T17:32:22.999Z</time></trkpt><trkpt lat="43.34921247973005" lon="11.896167724788123"><ele>265.20000000000005</ele><time>2026-03-29T17:32:23.999Z</time></trkpt><trkpt lat="43.349281784610774" lon="11.89626440615129"><ele>265.6</ele><time>2026-03-29T17:32:24.999Z</time></trkpt><trkpt lat="43.34935377016106" lon="11.896357988763652"><ele>266.0</ele><time>2026-03-29T17:32:25.999Z</time></trkpt><trkpt lat="43.349420040939194" lon="11.896460200786528"><ele>266.0</ele><time>2026-03-29T17:32:26.999Z</time></trkpt><trkpt lat="43.34948746569931" lon="11.896558106111126"><ele>266.0</ele><time>2026-03-29T17:32:27.999Z</time></trkpt><trkpt lat="43.34955561382213" lon="11.896654889588559"><ele>266.0</ele><time>2026-03-29T17:32:28.999Z</time></trkpt><trkpt lat="43.349620017696544" lon="11.896751938752008"><ele>266.0</ele><time>2026-03-29T17:32:29.999Z</time></trkpt><trkpt lat="43.349686243651774" lon="11.89684746334074"><ele>266.0</ele><time>2026-03-29T17:32:30.999Z</time></trkpt><trkpt lat="43.349755526452675" lon="11.896938994353759"><ele>266.6</ele><time>2026-03-29T17:32:31.999Z</time></trkpt><trkpt lat="43.34982530271851" lon="11.897025876218482"><ele>267.20000000000005</ele><time>2026-03-29T17:32:33Z</time></trkpt><trkpt lat="43.34989812314124" lon="11.897109963402434"><ele>267.79999999999995</ele><time>2026-03-29T17:32:33.999Z</time></trkpt><trkpt lat="43.34997003508172" lon="11.897195075475178"><ele>268.4</ele><time>2026-03-29T17:32:35Z</time></trkpt><trkpt lat="43.35003793856612" lon="11.897281921199177"><ele>269.0</ele><time>2026-03-29T17:32:36Z</time></trkpt><trkpt lat="43.35010819078123" lon="11.897366273480964"><ele>269.0</ele><time>2026-03-29T17:32:37Z</time></trkpt><trkpt lat="43.35017974212947" lon="11.897452656450989"><ele>269.0</ele><time>2026-03-29T17:32:38Z</time></trkpt><trkpt lat="43.350251629912115" lon="11.897537182187278"><ele>269.0</ele><time>2026-03-29T17:32:39Z</time></trkpt><trkpt lat="43.350323185142564" lon="11.897621406277224"><ele>269.0</ele><time>2026-03-29T17:32:40Z</time></trkpt><trkpt lat="43.35039158101114" lon="11.89770640536381"><ele>269.0</ele><time>2026-03-29T17:32:41Z</time></trkpt><trkpt lat="43.35045651045929" lon="11.897793594819943"><ele>269.0</ele><time>2026-03-29T17:32:42Z</time></trkpt><trkpt lat="43.35051515443463" lon="11.897885388506339"><ele>269.0</ele><time>2026-03-29T17:32:43Z</time></trkpt><trkpt lat="43.35056844789923" lon="11.897980165739497"><ele>269.0</ele><time>2026-03-29T17:32:44Z</time></trkpt><trkpt lat="43.350612673131494" lon="11.89808309085481"><ele>269.0</ele><time>2026-03-29T17:32:45Z</time></trkpt><trkpt lat="43.3506457493012" lon="11.898196189410568"><ele>269.0</ele><time>2026-03-29T17:32:46Z</time></trkpt><trkpt lat="43.35067327920841" lon="11.898310016484166"><ele>269.0</ele><time>2026-03-29T17:32:47Z</time></trkpt><trkpt lat="43.35069670029055" lon="11.898426678572473"><ele>269.5</ele><time>2026-03-29T17:32:48Z</time></trkpt><trkpt lat="43.350718851211305" lon="11.898545713724571"><ele>270.0</ele><time>2026-03-29T17:32:48.999Z</time></trkpt><trkpt lat="43.3507387043228" lon="11.898664105336925"><ele>270.5</ele><time>2026-03-29T17:32:49.999Z</time></trkpt><trkpt lat="43.3507560437933" lon="11.898781083768286"><ele>271.0</ele><time>2026-03-29T17:32:50.999Z</time></trkpt><trkpt lat="43.35077910730085" lon="11.898894548552956"><ele>271.5</ele><time>2026-03-29T17:32:51.999Z</time></trkpt><trkpt lat="43.35080317925437" lon="11.899012196994805"><ele>272.0</ele><time>2026-03-29T17:32:52.999Z</time></trkpt><trkpt lat="43.350820840622994" lon="11.899128489130229"><ele>272.0</ele><time>2026-03-29T17:32:53.999Z</time></trkpt><trkpt lat="43.350841847248034" lon="11.899243194904399"><ele>272.0</ele><time>2026-03-29T17:32:54.999Z</time></trkpt><trkpt lat="43.35086912817443" lon="11.89935538007279"><ele>272.0</ele><time>2026-03-29T17:32:55.999Z</time></trkpt><trkpt lat="43.35090067815428" lon="11.899461150338825"><ele>272.0</ele><time>2026-03-29T17:32:56.999Z</time></trkpt><trkpt lat="43.35094017964079" lon="11.899557817715348"><ele>272.0</ele><time>2026-03-29T17:32:57.999Z</time></trkpt><trkpt lat="43.350988850207735" lon="11.899649277208063"><ele>272.0</ele><time>2026-03-29T17:32:58.999Z</time></trkpt><trkpt lat="43.35104624380417" lon="11.899732227419694"><ele>272.0</ele><time>2026-03-29T17:32:59.999Z</time></trkpt><trkpt lat="43.35111040298634" lon="11.899807499866233"><ele>272.0</ele><time>2026-03-29T17:33:00.999Z</time></trkpt><trkpt lat="43.35116986886879" lon="11.899890166455979"><ele>272.0</ele><time>2026-03-29T17:33:01.999Z</time></trkpt><trkpt lat="43.35122962394192" lon="11.899977663264409"><ele>272.0</ele><time>2026-03-29T17:33:02.999Z</time></trkpt><trkpt lat="43.35129284712532" lon="11.900064077338708"><ele>272.0</ele><time>2026-03-29T17:33:03.999Z</time></trkpt><trkpt lat="43.35136000855542" lon="11.900144012743981"><ele>272.0</ele><time>2026-03-29T17:33:04.999Z</time></trkpt><trkpt lat="43.351423619069564" lon="11.9002258669239"><ele>272.1666666666667</ele><time>2026-03-29T17:33:05.999Z</time></trkpt><trkpt lat="43.3514830897377" lon="11.900303050390704"><ele>272.33333333333337</ele><time>2026-03-29T17:33:06.999Z</time></trkpt><trkpt lat="43.35154056921377" lon="11.900380139662253"><ele>272.5</ele><time>2026-03-29T17:33:07.999Z</time></trkpt><trkpt lat="43.35159588683288" lon="11.900454581446269"><ele>272.6666666666667</ele><time>2026-03-29T17:33:08.999Z</time></trkpt><trkpt lat="43.35165306043294" lon="11.90052822122611"><ele>272.8333333333333</ele><time>2026-03-29T17:33:09.999Z</time></trkpt><trkpt lat="43.351712834655274" lon="11.900603966574202"><ele>273.0</ele><time>2026-03-29T17:33:10.999Z</time></trkpt><trkpt lat="43.35177146190669" lon="11.90068659904609"><ele>273.0</ele><time>2026-03-29T17:33:11.999Z</time></trkpt><trkpt lat="43.351834067282006" lon="11.900768897901507"><ele>273.0</ele><time>2026-03-29T17:33:12.999Z</time></trkpt><trkpt lat="43.35189388714541" lon="11.900858701457231"><ele>273.0</ele><time>2026-03-29T17:33:13.999Z</time></trkpt><trkpt lat="43.35195118481864" lon="11.900956872120357"><ele>273.0</ele><time>2026-03-29T17:33:14.999Z</time></trkpt><trkpt lat="43.35200427573356" lon="11.90106024750383"><ele>273.0</ele><time>2026-03-29T17:33:15.999Z</time></trkpt><trkpt lat="43.35205209358403" lon="11.901169537903357"><ele>273.6</ele><time>2026-03-29T17:33:16.999Z</time></trkpt><trkpt lat="43.35209604309559" lon="11.901282674820198"><ele>274.20000000000005</ele><time>2026-03-29T17:33:17.999Z</time></trkpt><trkpt lat="43.35214287869239" lon="11.901388641031263"><ele>274.8</ele><time>2026-03-29T17:33:18.999Z</time></trkpt><trkpt lat="43.3521989268246" lon="11.901487215827233"><ele>275.40000000000003</ele><time>2026-03-29T17:33:19.999Z</time></trkpt><trkpt lat="43.352257717901075" lon="11.901582016384847"><ele>276.0</ele><time>2026-03-29T17:33:20.999Z</time></trkpt><trkpt lat="43.35232413552129" lon="11.901672422185756"><ele>276.40000000000003</ele><time>2026-03-29T17:33:21.999Z</time></trkpt><trkpt lat="43.3523882188293" lon="11.901761010272358"><ele>276.8</ele><time>2026-03-29T17:33:22.999Z</time></trkpt><trkpt lat="43.35245684136182" lon="11.901849712994508"><ele>277.20000000000005</ele><time>2026-03-29T17:33:23.999Z</time></trkpt><trkpt lat="43.35252679817282" lon="11.901939716661724"><ele>277.6</ele><time>2026-03-29T17:33:24.999Z</time></trkpt><trkpt lat="43.35259503324777" lon="11.902026500415982"><ele>278.0</ele><time>2026-03-29T17:33:25.999Z</time></trkpt><trkpt lat="43.35266591539783" lon="11.90211672735176"><ele>278.0</ele><time>2026-03-29T17:33:26.999Z</time></trkpt><trkpt lat="43.35273619125896" lon="11.90220363170796"><ele>278.0</ele><time>2026-03-29T17:33:27.999Z</time></trkpt><trkpt lat="43.3528027488915" lon="11.90229335489266"><ele>278.0</ele><time>2026-03-29T17:33:28.999Z</time></trkpt><trkpt lat="43.3528714627575" lon="11.902377998396876"><ele>278.0</ele><time>2026-03-29T17:33:29.999Z</time></trkpt><trkpt lat="43.35293854262544" lon="11.90246261165654"><ele>278.0</ele><time>2026-03-29T17:33:30.999Z</time></trkpt><trkpt lat="43.35300709578579" lon="11.902543979787708"><ele>278.5</ele><time>2026-03-29T17:33:31.999Z</time></trkpt><trkpt lat="43.35307335446741" lon="11.902631568026127"><ele>279.0</ele><time>2026-03-29T17:33:32.999Z</time></trkpt><trkpt lat="43.35314163337319" lon="11.902711904039734"><ele>279.5</ele><time>2026-03-29T17:33:33.999Z</time></trkpt><trkpt lat="43.353208965463644" lon="11.902791039303079"><ele>280.0</ele><time>2026-03-29T17:33:34.999Z</time></trkpt><trkpt lat="43.35327224523244" lon="11.902868642404606"><ele>280.5</ele><time>2026-03-29T17:33:35.999Z</time></trkpt><trkpt lat="43.35332840958307" lon="11.902942419003809"><ele>281.0</ele><time>2026-03-29T17:33:36.999Z</time></trkpt><trkpt lat="43.353419531352685" lon="11.90304583425228"><ele>281.0</ele><time>2026-03-29T17:33:38.999Z</time></trkpt><trkpt lat="43.35347047378492" lon="11.90311453523836"><ele>281.0</ele><time>2026-03-29T17:33:40.999Z</time></trkpt><trkpt lat="43.35342389065187" lon="11.903268408285397"><ele>281.0</ele><time>2026-03-29T17:33:44.999Z</time></trkpt><trkpt lat="43.35333955120657" lon="11.90338742235647"><ele>281.0</ele><time>2026-03-29T17:33:46.999Z</time></trkpt><trkpt lat="43.35325491628529" lon="11.903512661410112"><ele>281.0</ele><time>2026-03-29T17:33:48.999Z</time></trkpt><trkpt lat="43.353170467579275" lon="11.903638899954391"><ele>280.6666666666667</ele><time>2026-03-29T17:33:50.999Z</time></trkpt><trkpt lat="43.35308900267973" lon="11.903767881164798"><ele>280.33333333333337</ele><time>2026-03-29T17:33:52.999Z</time></trkpt><trkpt lat="43.35304888442639" lon="11.903837723470744"><ele>280.0</ele><time>2026-03-29T17:33:53.999Z</time></trkpt><trkpt lat="43.353003086108004" lon="11.903902893707247"><ele>279.6666666666667</ele><time>2026-03-29T17:33:54.999Z</time></trkpt><trkpt lat="43.35292087859143" lon="11.90402711033968"><ele>279.3333333333333</ele><time>2026-03-29T17:33:56.999Z</time></trkpt><trkpt lat="43.35287819692535" lon="11.904092307600713"><ele>279.0</ele><time>2026-03-29T17:33:57.999Z</time></trkpt><trkpt lat="43.35283463536769" lon="11.904155981493872"><ele>279.0</ele><time>2026-03-29T17:33:58.999Z</time></trkpt><trkpt lat="43.352787651963524" lon="11.904230738641738"><ele>279.0</ele><time>2026-03-29T17:33:59.999Z</time></trkpt><trkpt lat="43.352738506900295" lon="11.904304221022969"><ele>279.0</ele><time>2026-03-29T17:34:00.999Z</time></trkpt><trkpt lat="43.352692530157164" lon="11.904390100780741"><ele>279.0</ele><time>2026-03-29T17:34:01.999Z</time></trkpt><trkpt lat="43.35263910585816" lon="11.904478499657577"><ele>279.0</ele><time>2026-03-29T17:34:02.999Z</time></trkpt><trkpt lat="43.35258263674464" lon="11.904569029353256"><ele>279.0</ele><time>2026-03-29T17:34:03.999Z</time></trkpt><trkpt lat="43.35252290462025" lon="11.904659980770539"><ele>279.4</ele><time>2026-03-29T17:34:04.999Z</time></trkpt><trkpt lat="43.3524598932607" lon="11.904753491312396"><ele>279.79999999999995</ele><time>2026-03-29T17:34:05.999Z</time></trkpt><trkpt lat="43.352401669189376" lon="11.904849176076366"><ele>280.20000000000005</ele><time>2026-03-29T17:34:06.999Z</time></trkpt><trkpt lat="43.35234000161599" lon="11.904942738107469"><ele>280.6</ele><time>2026-03-29T17:34:07.999Z</time></trkpt><trkpt lat="43.35227661495077" lon="11.905036993194065"><ele>281.0</ele><time>2026-03-29T17:34:08.999Z</time></trkpt><trkpt lat="43.352218053447835" lon="11.905126416521874"><ele>280.83333333333337</ele><time>2026-03-29T17:34:09.999Z</time></trkpt><trkpt lat="43.35216412045697" lon="11.905215104811031"><ele>280.6666666666667</ele><time>2026-03-29T17:34:10.999Z</time></trkpt><trkpt lat="43.35211278472702" lon="11.905298336357486"><ele>280.5</ele><time>2026-03-29T17:34:11.999Z</time></trkpt><trkpt lat="43.352062154445036" lon="11.905377135391074"><ele>280.3333333333333</ele><time>2026-03-29T17:34:12.999Z</time></trkpt><trkpt lat="43.352022809245675" lon="11.905449582519513"><ele>280.16666666666663</ele><time>2026-03-29T17:34:13.999Z</time></trkpt><trkpt lat="43.35198013228484" lon="11.905533207129965"><ele>280.0</ele><time>2026-03-29T17:34:15.999Z</time></trkpt><trkpt lat="43.35208252070156" lon="11.905666990712755"><ele>280.0</ele><time>2026-03-29T17:34:16.999Z</time></trkpt><trkpt lat="43.3521349951095" lon="11.905735176562505"><ele>280.0</ele><time>2026-03-29T17:34:17.999Z</time></trkpt><trkpt lat="43.35217296915824" lon="11.905827336622023"><ele>280.0</ele><time>2026-03-29T17:34:18.999Z</time></trkpt><trkpt lat="43.35222306953535" lon="11.905908492015394"><ele>280.0</ele><time>2026-03-29T17:34:19.999Z</time></trkpt><trkpt lat="43.35227271144784" lon="11.90598863428615"><ele>280.0</ele><time>2026-03-29T17:34:20.999Z</time></trkpt><trkpt lat="43.35232546648257" lon="11.90606928778969"><ele>280.0</ele><time>2026-03-29T17:34:21.999Z</time></trkpt><trkpt lat="43.352379880510455" lon="11.906147739470192"><ele>280.85714285714283</ele><time>2026-03-29T17:34:22.999Z</time></trkpt><trkpt lat="43.35243049722381" lon="11.906223399538565"><ele>281.7142857142857</ele><time>2026-03-29T17:34:23.999Z</time></trkpt><trkpt lat="43.35247462607175" lon="11.906300797861181"><ele>282.57142857142856</ele><time>2026-03-29T17:34:24.999Z</time></trkpt><trkpt lat="43.35251567858122" lon="11.90638333147205"><ele>283.42857142857144</ele><time>2026-03-29T17:34:25.999Z</time></trkpt><trkpt lat="43.35255609419143" lon="11.906470990935865"><ele>284.2857142857143</ele><time>2026-03-29T17:34:26.999Z</time></trkpt><trkpt lat="43.352594226675784" lon="11.906557119819858"><ele>285.1428571428571</ele><time>2026-03-29T17:34:27.999Z</time></trkpt><trkpt lat="43.35263165538001" lon="11.906640088083131"><ele>286.0</ele><time>2026-03-29T17:34:28.999Z</time></trkpt><trkpt lat="43.35266857081259" lon="11.906724402311477"><ele>287.2</ele><time>2026-03-29T17:34:29.999Z</time></trkpt><trkpt lat="43.35269586554272" lon="11.906806992878908"><ele>288.40000000000003</ele><time>2026-03-29T17:34:30.999Z</time></trkpt><trkpt lat="43.35272926865021" lon="11.906886328743765"><ele>289.6</ele><time>2026-03-29T17:34:31.999Z</time></trkpt><trkpt lat="43.35270388637794" lon="11.906978214770355"><ele>290.8</ele><time>2026-03-29T17:34:32.999Z</time></trkpt><trkpt lat="43.35266744798444" lon="11.907136560723126"><ele>292.0</ele><time>2026-03-29T17:34:34.999Z</time></trkpt><trkpt lat="43.35263211531396" lon="11.907305152385238"><ele>292.0</ele><time>2026-03-29T17:34:36.999Z</time></trkpt><trkpt lat="43.35263054904238" lon="11.907398767785267"><ele>292.0</ele><time>2026-03-29T17:34:38Z</time></trkpt><trkpt lat="43.3526428832377" lon="11.907572561091362"><ele>292.0</ele><time>2026-03-29T17:34:40Z</time></trkpt><trkpt lat="43.35267560672901" lon="11.907664389400681"><ele>292.0</ele><time>2026-03-29T17:34:41Z</time></trkpt><trkpt lat="43.352698131967465" lon="11.907759987978038"><ele>292.0</ele><time>2026-03-29T17:34:42Z</time></trkpt><trkpt lat="43.35270892924907" lon="11.90785586806695"><ele>292.0</ele><time>2026-03-29T17:34:43Z</time></trkpt><trkpt lat="43.35273504411891" lon="11.9079538399025"><ele>291.85714285714283</ele><time>2026-03-29T17:34:44Z</time></trkpt><trkpt lat="43.3527626672583" lon="11.90804790661388"><ele>291.7142857142857</ele><time>2026-03-29T17:34:45Z</time></trkpt><trkpt lat="43.35279075119857" lon="11.908143542832478"><ele>291.57142857142856</ele><time>2026-03-29T17:34:46Z</time></trkpt><trkpt lat="43.352816172574265" lon="11.90823408105269"><ele>291.42857142857144</ele><time>2026-03-29T17:34:47Z</time></trkpt><trkpt lat="43.35284135409993" lon="11.908330971462414"><ele>291.2857142857143</ele><time>2026-03-29T17:34:48Z</time></trkpt><trkpt lat="43.35286426954071" lon="11.908419324493762"><ele>291.1428571428571</ele><time>2026-03-29T17:34:49Z</time></trkpt><trkpt lat="43.35288553989208" lon="11.908501334550941"><ele>291.0</ele><time>2026-03-29T17:34:50Z</time></trkpt><trkpt lat="43.35293057960294" lon="11.9085890180261"><ele>290.5</ele><time>2026-03-29T17:34:51Z</time></trkpt><trkpt lat="43.352999243574445" lon="11.908701076423208"><ele>290.0</ele><time>2026-03-29T17:34:53Z</time></trkpt><trkpt lat="43.35305398081427" lon="11.908792412661311"><ele>289.5</ele><time>2026-03-29T17:34:55Z</time></trkpt><trkpt lat="43.35310027991351" lon="11.908881896687472"><ele>289.0</ele><time>2026-03-29T17:34:57Z</time></trkpt><trkpt lat="43.35314746163589" lon="11.908977133541324"><ele>288.5</ele><time>2026-03-29T17:34:59Z</time></trkpt><trkpt lat="43.353191732112016" lon="11.9090869088822"><ele>288.0</ele><time>2026-03-29T17:35:01Z</time></trkpt><trkpt lat="43.35323974831685" lon="11.909225750923683"><ele>291.0</ele><time>2026-03-29T17:35:03Z</time></trkpt><trkpt lat="43.35328348273556" lon="11.909379228012968"><ele>294.0</ele><time>2026-03-29T17:35:04.999Z</time></trkpt><trkpt lat="43.35330607048428" lon="11.909462063128911"><ele>297.0</ele><time>2026-03-29T17:35:05.999Z</time></trkpt><trkpt lat="43.3533463137103" lon="11.90960556035015"><ele>300.0</ele><time>2026-03-29T17:35:07.999Z</time></trkpt><trkpt lat="43.35338934406776" lon="11.909757316454924"><ele>303.0</ele><time>2026-03-29T17:35:09.999Z</time></trkpt><trkpt lat="43.35342982778933" lon="11.90990051734661"><ele>303.0</ele><time>2026-03-29T17:35:11.999Z</time></trkpt><trkpt lat="43.3534726422227" lon="11.910040332433532"><ele>303.0</ele><time>2026-03-29T17:35:13.999Z</time></trkpt><trkpt lat="43.353521789074755" lon="11.910191259115377"><ele>303.0</ele><time>2026-03-29T17:35:15.999Z</time></trkpt><trkpt lat="43.3535707900253" lon="11.910339688770568"><ele>303.0</ele><time>2026-03-29T17:35:17.999Z</time></trkpt><trkpt lat="43.35362063218296" lon="11.910490675758739"><ele>302.5</ele><time>2026-03-29T17:35:19.999Z</time></trkpt><trkpt lat="43.35367061407591" lon="11.91064208604677"><ele>302.0</ele><time>2026-03-29T17:35:21.999Z</time></trkpt><trkpt lat="43.353751003756955" lon="11.910779983774802"><ele>301.5</ele><time>2026-03-29T17:35:23.999Z</time></trkpt><trkpt lat="43.35380698403663" lon="11.910929502815105"><ele>301.0</ele><time>2026-03-29T17:35:25.999Z</time></trkpt><trkpt lat="43.35397098439995" lon="11.910932333480389"><ele>304.0</ele><time>2026-03-29T17:35:26.999Z</time></trkpt><trkpt lat="43.354018177921304" lon="11.911091301001585"><ele>307.0</ele><time>2026-03-29T17:35:28.999Z</time></trkpt><trkpt lat="43.35406462727765" lon="11.911247759556232"><ele>310.0</ele><time>2026-03-29T17:35:30.999Z</time></trkpt><trkpt lat="43.35410972876043" lon="11.9113936654181"><ele>313.0</ele><time>2026-03-29T17:35:32.999Z</time></trkpt><trkpt lat="43.354135637962635" lon="11.911475364498134"><ele>316.0</ele><time>2026-03-29T17:35:33.999Z</time></trkpt><trkpt lat="43.35416698742261" lon="11.911645633616736"><ele>316.0</ele><time>2026-03-29T17:35:35.999Z</time></trkpt><trkpt lat="43.35415713128674" lon="11.911822789570982"><ele>316.0</ele><time>2026-03-29T17:35:37.999Z</time></trkpt><trkpt lat="43.35413921611255" lon="11.911949101135813"><ele>316.0</ele><time>2026-03-29T17:35:39.999Z</time></trkpt><trkpt lat="43.35418303972819" lon="11.91185462531519"><ele>316.0</ele><time>2026-03-29T17:35:45.999Z</time></trkpt><trkpt lat="43.35419326694599" lon="11.9117497921654"><ele>316.0</ele><time>2026-03-29T17:35:47.999Z</time></trkpt><trkpt lat="43.35419595484742" lon="11.911646595482043"><ele>316.00000000000006</ele><time>2026-03-29T17:35:49.999Z</time></trkpt><trkpt lat="43.35417543332748" lon="11.911528602538636"><ele>316.0</ele><time>2026-03-29T17:35:52.999Z</time></trkpt><trkpt lat="43.35415986539211" lon="11.91143401652437"><ele>316.0</ele><time>2026-03-29T17:35:54.999Z</time></trkpt><trkpt lat="43.354134308148915" lon="11.911348263510508"><ele>316.0</ele><time>2026-03-29T17:35:56.999Z</time></trkpt><trkpt lat="43.3541090318396" lon="11.911266981228826"><ele>316.0</ele><time>2026-03-29T17:35:58.999Z</time></trkpt><trkpt lat="43.354077152035245" lon="11.911183412587256"><ele>316.00000000000006</ele><time>2026-03-29T17:36:00.999Z</time></trkpt><trkpt lat="43.35405104387261" lon="11.911071330661967"><ele>316.0</ele><time>2026-03-29T17:36:02.999Z</time></trkpt><trkpt lat="43.3540187930851" lon="11.910963159831624"><ele>316.75</ele><time>2026-03-29T17:36:04.999Z</time></trkpt><trkpt lat="43.35400115994319" lon="11.910865272084974"><ele>317.5</ele><time>2026-03-29T17:36:07.999Z</time></trkpt><trkpt lat="43.35400385785557" lon="11.910762000739705"><ele>318.25</ele><time>2026-03-29T17:36:11.999Z</time></trkpt><trkpt lat="43.354182840432145" lon="11.910652424543786"><ele>319.0</ele><time>2026-03-29T17:38:26.999Z</time></trkpt><trkpt lat="43.354095634425846" lon="11.910803070232953"><ele>319.0</ele><time>2026-03-29T17:38:32.074Z</time></trkpt><trkpt lat="43.35397988214323" lon="11.910744211182026"><ele>319.0</ele><time>2026-03-29T17:38:47.999Z</time></trkpt><trkpt lat="43.35397400228938" lon="11.910656450191214"><ele>319.0</ele><time>2026-03-29T17:39:10Z</time></trkpt></trkseg></trk></gpx>